<?xml version="1.0" encoding="UTF-8" standalone="no" ?>
<gpx xmlns="http://www.topografix.com/GPX/1/1" xmlns:xsi="http://www.w3.org/2001/XMLSchema-instance" xsi:schemaLocation="http://www.topografix.com/GPX/1/1 http://www.topografix.com/GPX/1/1/gpx.xsd" version="1.1" creator="VisuGPX - https://www.visugpx.com">
  <metadata>
    <name>NEBIAN / CABRIERES</name>
    <desc><![CDATA[Sortie XC empruntant les parcours balisés FFC. c'est roulant et ça grimpe.
Bon pour l'entrainement. Les passages ludiques au dessus des Crozes et les points de vue sur les sommets font l'intérêt de cette boucle. Il faut quand même avoir un peu de condition physique !!! y a 1100 m de D  .]]></desc>
  </metadata>
  <trk>
    <name><![CDATA[NEBIAN / CABRIERES_1]]></name>
    <trkseg>
      <trkpt lat="43.6096" lon="3.43564">
        <ele>176.4</ele>
        <time>2016-05-24T11:36:03Z</time>
      </trkpt>
      <trkpt lat="43.60941" lon="3.4356">
        <ele>169.2</ele>
        <time>2016-05-24T11:40:20Z</time>
      </trkpt>
      <trkpt lat="43.60933" lon="3.43557">
        <ele>165.6</ele>
        <time>2016-05-24T11:40:22Z</time>
      </trkpt>
      <trkpt lat="43.60925" lon="3.43555">
        <ele>163.3</ele>
        <time>2016-05-24T11:40:24Z</time>
      </trkpt>
      <trkpt lat="43.60915" lon="3.43555">
        <ele>163.2</ele>
        <time>2016-05-24T11:40:26Z</time>
      </trkpt>
      <trkpt lat="43.60906" lon="3.43552">
        <ele>163.5</ele>
        <time>2016-05-24T11:40:28Z</time>
      </trkpt>
      <trkpt lat="43.609" lon="3.43539">
        <ele>164.1</ele>
        <time>2016-05-24T11:40:30Z</time>
      </trkpt>
      <trkpt lat="43.60898" lon="3.43525">
        <ele>163.9</ele>
        <time>2016-05-24T11:40:32Z</time>
      </trkpt>
      <trkpt lat="43.60896" lon="3.43514">
        <ele>164</ele>
        <time>2016-05-24T11:40:34Z</time>
      </trkpt>
      <trkpt lat="43.60893" lon="3.43503">
        <ele>164.8</ele>
        <time>2016-05-24T11:40:36Z</time>
      </trkpt>
      <trkpt lat="43.60891" lon="3.43491">
        <ele>165.3</ele>
        <time>2016-05-24T11:40:38Z</time>
      </trkpt>
      <trkpt lat="43.60887" lon="3.43481">
        <ele>165.3</ele>
        <time>2016-05-24T11:40:40Z</time>
      </trkpt>
      <trkpt lat="43.60881" lon="3.43469">
        <ele>165.4</ele>
        <time>2016-05-24T11:40:43Z</time>
      </trkpt>
      <trkpt lat="43.60875" lon="3.43461">
        <ele>167</ele>
        <time>2016-05-24T11:40:45Z</time>
      </trkpt>
      <trkpt lat="43.60872" lon="3.43451">
        <ele>167.8</ele>
        <time>2016-05-24T11:40:47Z</time>
      </trkpt>
      <trkpt lat="43.60873" lon="3.4344">
        <ele>167.8</ele>
        <time>2016-05-24T11:40:50Z</time>
      </trkpt>
      <trkpt lat="43.60872" lon="3.43426">
        <ele>167.8</ele>
        <time>2016-05-24T11:40:53Z</time>
      </trkpt>
      <trkpt lat="43.60872" lon="3.43416">
        <ele>167.9</ele>
        <time>2016-05-24T11:40:56Z</time>
      </trkpt>
      <trkpt lat="43.60871" lon="3.43402">
        <ele>168</ele>
        <time>2016-05-24T11:40:59Z</time>
      </trkpt>
      <trkpt lat="43.60871" lon="3.43392">
        <ele>168.1</ele>
        <time>2016-05-24T11:41:02Z</time>
      </trkpt>
      <trkpt lat="43.60869" lon="3.43381">
        <ele>168.2</ele>
        <time>2016-05-24T11:41:05Z</time>
      </trkpt>
      <trkpt lat="43.60869" lon="3.4337">
        <ele>168.2</ele>
        <time>2016-05-24T11:41:07Z</time>
      </trkpt>
      <trkpt lat="43.60866" lon="3.43356">
        <ele>168.1</ele>
        <time>2016-05-24T11:41:10Z</time>
      </trkpt>
      <trkpt lat="43.60863" lon="3.43346">
        <ele>168.1</ele>
        <time>2016-05-24T11:41:13Z</time>
      </trkpt>
      <trkpt lat="43.60858" lon="3.43338">
        <ele>168.1</ele>
        <time>2016-05-24T11:41:16Z</time>
      </trkpt>
      <trkpt lat="43.60854" lon="3.43326">
        <ele>167.8</ele>
        <time>2016-05-24T11:41:20Z</time>
      </trkpt>
      <trkpt lat="43.60852" lon="3.43313">
        <ele>167.9</ele>
        <time>2016-05-24T11:41:24Z</time>
      </trkpt>
      <trkpt lat="43.60849" lon="3.43302">
        <ele>168.2</ele>
        <time>2016-05-24T11:41:28Z</time>
      </trkpt>
      <trkpt lat="43.60851" lon="3.43289">
        <ele>168.8</ele>
        <time>2016-05-24T11:41:32Z</time>
      </trkpt>
      <trkpt lat="43.60855" lon="3.43281">
        <ele>169.4</ele>
        <time>2016-05-24T11:41:35Z</time>
      </trkpt>
      <trkpt lat="43.60858" lon="3.43269">
        <ele>170.1</ele>
        <time>2016-05-24T11:41:38Z</time>
      </trkpt>
      <trkpt lat="43.60862" lon="3.43258">
        <ele>170.7</ele>
        <time>2016-05-24T11:41:42Z</time>
      </trkpt>
      <trkpt lat="43.60867" lon="3.43247">
        <ele>171.6</ele>
        <time>2016-05-24T11:41:46Z</time>
      </trkpt>
      <trkpt lat="43.60871" lon="3.43238">
        <ele>172.4</ele>
        <time>2016-05-24T11:41:50Z</time>
      </trkpt>
      <trkpt lat="43.60865" lon="3.43232">
        <ele>173.4</ele>
        <time>2016-05-24T11:41:55Z</time>
      </trkpt>
      <trkpt lat="43.60856" lon="3.43227">
        <ele>173.8</ele>
        <time>2016-05-24T11:41:58Z</time>
      </trkpt>
      <trkpt lat="43.60848" lon="3.43221">
        <ele>175.5</ele>
        <time>2016-05-24T11:42:01Z</time>
      </trkpt>
      <trkpt lat="43.60842" lon="3.43216">
        <ele>177.5</ele>
        <time>2016-05-24T11:42:03Z</time>
      </trkpt>
      <trkpt lat="43.60834" lon="3.43211">
        <ele>177.9</ele>
        <time>2016-05-24T11:42:05Z</time>
      </trkpt>
      <trkpt lat="43.60826" lon="3.43205">
        <ele>178.4</ele>
        <time>2016-05-24T11:42:07Z</time>
      </trkpt>
      <trkpt lat="43.60818" lon="3.43199">
        <ele>178.4</ele>
        <time>2016-05-24T11:42:09Z</time>
      </trkpt>
      <trkpt lat="43.6081" lon="3.43194">
        <ele>177.5</ele>
        <time>2016-05-24T11:42:11Z</time>
      </trkpt>
      <trkpt lat="43.60803" lon="3.43189">
        <ele>175.8</ele>
        <time>2016-05-24T11:42:13Z</time>
      </trkpt>
      <trkpt lat="43.60794" lon="3.43182">
        <ele>176.1</ele>
        <time>2016-05-24T11:42:15Z</time>
      </trkpt>
      <trkpt lat="43.60792" lon="3.43167">
        <ele>176.7</ele>
        <time>2016-05-24T11:42:17Z</time>
      </trkpt>
      <trkpt lat="43.60794" lon="3.43154">
        <ele>176.8</ele>
        <time>2016-05-24T11:42:20Z</time>
      </trkpt>
      <trkpt lat="43.60799" lon="3.43144">
        <ele>177.3</ele>
        <time>2016-05-24T11:42:23Z</time>
      </trkpt>
      <trkpt lat="43.60797" lon="3.43134">
        <ele>177.6</ele>
        <time>2016-05-24T11:42:26Z</time>
      </trkpt>
      <trkpt lat="43.60794" lon="3.43124">
        <ele>177.9</ele>
        <time>2016-05-24T11:42:30Z</time>
      </trkpt>
      <trkpt lat="43.60787" lon="3.43116">
        <ele>178.2</ele>
        <time>2016-05-24T11:42:33Z</time>
      </trkpt>
      <trkpt lat="43.60781" lon="3.4311">
        <ele>178.9</ele>
        <time>2016-05-24T11:42:35Z</time>
      </trkpt>
      <trkpt lat="43.60774" lon="3.43105">
        <ele>179.1</ele>
        <time>2016-05-24T11:42:37Z</time>
      </trkpt>
      <trkpt lat="43.60764" lon="3.43103">
        <ele>180.7</ele>
        <time>2016-05-24T11:42:39Z</time>
      </trkpt>
      <trkpt lat="43.60755" lon="3.43094">
        <ele>181.9</ele>
        <time>2016-05-24T11:42:41Z</time>
      </trkpt>
      <trkpt lat="43.60747" lon="3.43083">
        <ele>183.2</ele>
        <time>2016-05-24T11:42:43Z</time>
      </trkpt>
      <trkpt lat="43.60739" lon="3.43073">
        <ele>184</ele>
        <time>2016-05-24T11:42:45Z</time>
      </trkpt>
      <trkpt lat="43.6073" lon="3.43063">
        <ele>184.3</ele>
        <time>2016-05-24T11:42:47Z</time>
      </trkpt>
      <trkpt lat="43.60727" lon="3.43053">
        <ele>184.2</ele>
        <time>2016-05-24T11:42:50Z</time>
      </trkpt>
      <trkpt lat="43.60723" lon="3.4304">
        <ele>184.7</ele>
        <time>2016-05-24T11:42:51Z</time>
      </trkpt>
      <trkpt lat="43.60717" lon="3.43032">
        <ele>184.4</ele>
        <time>2016-05-24T11:42:53Z</time>
      </trkpt>
      <trkpt lat="43.60708" lon="3.43019">
        <ele>183</ele>
        <time>2016-05-24T11:42:55Z</time>
      </trkpt>
      <trkpt lat="43.60701" lon="3.43007">
        <ele>182.2</ele>
        <time>2016-05-24T11:42:57Z</time>
      </trkpt>
      <trkpt lat="43.60701" lon="3.42992">
        <ele>182.3</ele>
        <time>2016-05-24T11:42:59Z</time>
      </trkpt>
      <trkpt lat="43.607" lon="3.42978">
        <ele>183.5</ele>
        <time>2016-05-24T11:43:01Z</time>
      </trkpt>
      <trkpt lat="43.60704" lon="3.42968">
        <ele>183.8</ele>
        <time>2016-05-24T11:43:03Z</time>
      </trkpt>
      <trkpt lat="43.60707" lon="3.42954">
        <ele>184.4</ele>
        <time>2016-05-24T11:43:06Z</time>
      </trkpt>
      <trkpt lat="43.60704" lon="3.42943">
        <ele>184.6</ele>
        <time>2016-05-24T11:43:08Z</time>
      </trkpt>
      <trkpt lat="43.60696" lon="3.42929">
        <ele>185.2</ele>
        <time>2016-05-24T11:43:10Z</time>
      </trkpt>
      <trkpt lat="43.60696" lon="3.42912">
        <ele>185.1</ele>
        <time>2016-05-24T11:43:12Z</time>
      </trkpt>
      <trkpt lat="43.60703" lon="3.42906">
        <ele>185</ele>
        <time>2016-05-24T11:43:15Z</time>
      </trkpt>
      <trkpt lat="43.60706" lon="3.429">
        <ele>185.4</ele>
        <time>2016-05-24T11:43:22Z</time>
      </trkpt>
      <trkpt lat="43.60707" lon="3.42896">
        <ele>185.5</ele>
        <time>2016-05-24T11:43:29Z</time>
      </trkpt>
      <trkpt lat="43.60704" lon="3.42887">
        <ele>185.4</ele>
        <time>2016-05-24T11:43:35Z</time>
      </trkpt>
      <trkpt lat="43.60696" lon="3.42881">
        <ele>185.8</ele>
        <time>2016-05-24T11:43:39Z</time>
      </trkpt>
      <trkpt lat="43.60688" lon="3.42873">
        <ele>186.5</ele>
        <time>2016-05-24T11:43:45Z</time>
      </trkpt>
      <trkpt lat="43.60693" lon="3.42868">
        <ele>187.6</ele>
        <time>2016-05-24T11:43:52Z</time>
      </trkpt>
      <trkpt lat="43.60701" lon="3.42864">
        <ele>188.3</ele>
        <time>2016-05-24T11:43:56Z</time>
      </trkpt>
      <trkpt lat="43.6071" lon="3.42861">
        <ele>188.6</ele>
        <time>2016-05-24T11:44:00Z</time>
      </trkpt>
      <trkpt lat="43.60716" lon="3.42854">
        <ele>189</ele>
        <time>2016-05-24T11:44:04Z</time>
      </trkpt>
      <trkpt lat="43.60724" lon="3.42849">
        <ele>189.3</ele>
        <time>2016-05-24T11:44:08Z</time>
      </trkpt>
      <trkpt lat="43.60732" lon="3.42846">
        <ele>189.9</ele>
        <time>2016-05-24T11:44:12Z</time>
      </trkpt>
      <trkpt lat="43.60739" lon="3.42841">
        <ele>190.5</ele>
        <time>2016-05-24T11:44:16Z</time>
      </trkpt>
      <trkpt lat="43.60746" lon="3.42834">
        <ele>191.1</ele>
        <time>2016-05-24T11:44:21Z</time>
      </trkpt>
      <trkpt lat="43.60752" lon="3.42829">
        <ele>191.5</ele>
        <time>2016-05-24T11:44:25Z</time>
      </trkpt>
      <trkpt lat="43.6076" lon="3.42822">
        <ele>191.7</ele>
        <time>2016-05-24T11:44:29Z</time>
      </trkpt>
      <trkpt lat="43.60765" lon="3.42814">
        <ele>192</ele>
        <time>2016-05-24T11:44:33Z</time>
      </trkpt>
      <trkpt lat="43.60771" lon="3.42806">
        <ele>192.2</ele>
        <time>2016-05-24T11:44:37Z</time>
      </trkpt>
      <trkpt lat="43.60776" lon="3.42797">
        <ele>192.6</ele>
        <time>2016-05-24T11:44:42Z</time>
      </trkpt>
      <trkpt lat="43.60781" lon="3.42788">
        <ele>193</ele>
        <time>2016-05-24T11:44:46Z</time>
      </trkpt>
      <trkpt lat="43.60786" lon="3.42781">
        <ele>193.7</ele>
        <time>2016-05-24T11:44:50Z</time>
      </trkpt>
      <trkpt lat="43.60792" lon="3.42773">
        <ele>194.3</ele>
        <time>2016-05-24T11:44:54Z</time>
      </trkpt>
      <trkpt lat="43.60799" lon="3.42765">
        <ele>195.3</ele>
        <time>2016-05-24T11:45:01Z</time>
      </trkpt>
      <trkpt lat="43.60804" lon="3.42758">
        <ele>195.7</ele>
        <time>2016-05-24T11:45:05Z</time>
      </trkpt>
      <trkpt lat="43.60811" lon="3.4275">
        <ele>196.1</ele>
        <time>2016-05-24T11:45:09Z</time>
      </trkpt>
      <trkpt lat="43.60816" lon="3.42744">
        <ele>196.3</ele>
        <time>2016-05-24T11:45:12Z</time>
      </trkpt>
      <trkpt lat="43.60824" lon="3.42735">
        <ele>196.4</ele>
        <time>2016-05-24T11:45:16Z</time>
      </trkpt>
      <trkpt lat="43.60829" lon="3.42724">
        <ele>196.6</ele>
        <time>2016-05-24T11:45:20Z</time>
      </trkpt>
      <trkpt lat="43.60834" lon="3.42717">
        <ele>196.4</ele>
        <time>2016-05-24T11:45:23Z</time>
      </trkpt>
      <trkpt lat="43.60839" lon="3.42706">
        <ele>196.6</ele>
        <time>2016-05-24T11:45:26Z</time>
      </trkpt>
      <trkpt lat="43.60842" lon="3.42694">
        <ele>197.7</ele>
        <time>2016-05-24T11:45:28Z</time>
      </trkpt>
      <trkpt lat="43.60845" lon="3.42681">
        <ele>197.4</ele>
        <time>2016-05-24T11:45:30Z</time>
      </trkpt>
      <trkpt lat="43.60849" lon="3.42665">
        <ele>196.9</ele>
        <time>2016-05-24T11:45:32Z</time>
      </trkpt>
      <trkpt lat="43.60854" lon="3.42648">
        <ele>196.8</ele>
        <time>2016-05-24T11:45:34Z</time>
      </trkpt>
      <trkpt lat="43.60859" lon="3.42632">
        <ele>196.8</ele>
        <time>2016-05-24T11:45:36Z</time>
      </trkpt>
      <trkpt lat="43.60864" lon="3.42617">
        <ele>195.6</ele>
        <time>2016-05-24T11:45:38Z</time>
      </trkpt>
      <trkpt lat="43.60862" lon="3.42608">
        <ele>195.3</ele>
        <time>2016-05-24T11:45:40Z</time>
      </trkpt>
      <trkpt lat="43.60854" lon="3.42603">
        <ele>195.5</ele>
        <time>2016-05-24T11:45:43Z</time>
      </trkpt>
      <trkpt lat="43.60847" lon="3.42598">
        <ele>195.7</ele>
        <time>2016-05-24T11:45:46Z</time>
      </trkpt>
      <trkpt lat="43.60841" lon="3.42594">
        <ele>196</ele>
        <time>2016-05-24T11:45:49Z</time>
      </trkpt>
      <trkpt lat="43.60838" lon="3.42581">
        <ele>196.5</ele>
        <time>2016-05-24T11:45:54Z</time>
      </trkpt>
      <trkpt lat="43.60837" lon="3.42567">
        <ele>197</ele>
        <time>2016-05-24T11:45:57Z</time>
      </trkpt>
      <trkpt lat="43.60838" lon="3.42556">
        <ele>197.4</ele>
        <time>2016-05-24T11:46:00Z</time>
      </trkpt>
      <trkpt lat="43.60838" lon="3.42543">
        <ele>197.7</ele>
        <time>2016-05-24T11:46:03Z</time>
      </trkpt>
      <trkpt lat="43.6084" lon="3.42532">
        <ele>198.1</ele>
        <time>2016-05-24T11:46:07Z</time>
      </trkpt>
      <trkpt lat="43.60843" lon="3.42521">
        <ele>198.6</ele>
        <time>2016-05-24T11:46:11Z</time>
      </trkpt>
      <trkpt lat="43.60847" lon="3.4251">
        <ele>198.8</ele>
        <time>2016-05-24T11:46:14Z</time>
      </trkpt>
      <trkpt lat="43.6085" lon="3.42498">
        <ele>199.1</ele>
        <time>2016-05-24T11:46:17Z</time>
      </trkpt>
      <trkpt lat="43.60852" lon="3.42486">
        <ele>199.4</ele>
        <time>2016-05-24T11:46:21Z</time>
      </trkpt>
      <trkpt lat="43.60853" lon="3.42476">
        <ele>199.7</ele>
        <time>2016-05-24T11:46:24Z</time>
      </trkpt>
      <trkpt lat="43.60855" lon="3.42465">
        <ele>199.8</ele>
        <time>2016-05-24T11:46:27Z</time>
      </trkpt>
      <trkpt lat="43.60858" lon="3.42454">
        <ele>200</ele>
        <time>2016-05-24T11:46:30Z</time>
      </trkpt>
      <trkpt lat="43.6086" lon="3.42441">
        <ele>200.3</ele>
        <time>2016-05-24T11:46:34Z</time>
      </trkpt>
      <trkpt lat="43.60862" lon="3.4243">
        <ele>200.7</ele>
        <time>2016-05-24T11:46:38Z</time>
      </trkpt>
      <trkpt lat="43.60865" lon="3.42417">
        <ele>201.2</ele>
        <time>2016-05-24T11:46:42Z</time>
      </trkpt>
      <trkpt lat="43.60867" lon="3.42405">
        <ele>201.6</ele>
        <time>2016-05-24T11:46:45Z</time>
      </trkpt>
      <trkpt lat="43.60871" lon="3.42396">
        <ele>201.7</ele>
        <time>2016-05-24T11:46:47Z</time>
      </trkpt>
      <trkpt lat="43.60873" lon="3.42386">
        <ele>201.8</ele>
        <time>2016-05-24T11:46:49Z</time>
      </trkpt>
      <trkpt lat="43.60878" lon="3.42373">
        <ele>202.3</ele>
        <time>2016-05-24T11:46:52Z</time>
      </trkpt>
      <trkpt lat="43.60879" lon="3.42361">
        <ele>202.7</ele>
        <time>2016-05-24T11:46:55Z</time>
      </trkpt>
      <trkpt lat="43.6088" lon="3.42349">
        <ele>203.2</ele>
        <time>2016-05-24T11:46:58Z</time>
      </trkpt>
      <trkpt lat="43.60881" lon="3.42338">
        <ele>203.5</ele>
        <time>2016-05-24T11:47:01Z</time>
      </trkpt>
      <trkpt lat="43.60884" lon="3.42326">
        <ele>203.9</ele>
        <time>2016-05-24T11:47:04Z</time>
      </trkpt>
      <trkpt lat="43.60889" lon="3.42316">
        <ele>204.3</ele>
        <time>2016-05-24T11:47:07Z</time>
      </trkpt>
      <trkpt lat="43.60893" lon="3.42307">
        <ele>204.5</ele>
        <time>2016-05-24T11:47:10Z</time>
      </trkpt>
      <trkpt lat="43.60897" lon="3.42297">
        <ele>204.7</ele>
        <time>2016-05-24T11:47:13Z</time>
      </trkpt>
      <trkpt lat="43.60903" lon="3.42286">
        <ele>205.1</ele>
        <time>2016-05-24T11:47:17Z</time>
      </trkpt>
      <trkpt lat="43.60908" lon="3.42279">
        <ele>205.3</ele>
        <time>2016-05-24T11:47:20Z</time>
      </trkpt>
      <trkpt lat="43.60915" lon="3.42271">
        <ele>205.5</ele>
        <time>2016-05-24T11:47:23Z</time>
      </trkpt>
      <trkpt lat="43.60923" lon="3.42265">
        <ele>205.8</ele>
        <time>2016-05-24T11:47:26Z</time>
      </trkpt>
      <trkpt lat="43.60932" lon="3.4226">
        <ele>206.2</ele>
        <time>2016-05-24T11:47:30Z</time>
      </trkpt>
      <trkpt lat="43.6094" lon="3.42255">
        <ele>206.7</ele>
        <time>2016-05-24T11:47:33Z</time>
      </trkpt>
      <trkpt lat="43.60948" lon="3.42252">
        <ele>207.3</ele>
        <time>2016-05-24T11:47:36Z</time>
      </trkpt>
      <trkpt lat="43.60957" lon="3.42249">
        <ele>207.9</ele>
        <time>2016-05-24T11:47:40Z</time>
      </trkpt>
      <trkpt lat="43.60964" lon="3.42246">
        <ele>208.5</ele>
        <time>2016-05-24T11:47:43Z</time>
      </trkpt>
      <trkpt lat="43.60972" lon="3.42243">
        <ele>208.9</ele>
        <time>2016-05-24T11:47:46Z</time>
      </trkpt>
      <trkpt lat="43.60979" lon="3.42235">
        <ele>209.7</ele>
        <time>2016-05-24T11:47:51Z</time>
      </trkpt>
      <trkpt lat="43.60986" lon="3.42225">
        <ele>210.6</ele>
        <time>2016-05-24T11:47:55Z</time>
      </trkpt>
      <trkpt lat="43.60993" lon="3.42219">
        <ele>211.5</ele>
        <time>2016-05-24T11:47:59Z</time>
      </trkpt>
      <trkpt lat="43.61001" lon="3.42215">
        <ele>212</ele>
        <time>2016-05-24T11:48:02Z</time>
      </trkpt>
      <trkpt lat="43.61009" lon="3.42211">
        <ele>212.5</ele>
        <time>2016-05-24T11:48:05Z</time>
      </trkpt>
      <trkpt lat="43.61016" lon="3.42207">
        <ele>213.2</ele>
        <time>2016-05-24T11:48:09Z</time>
      </trkpt>
      <trkpt lat="43.61022" lon="3.42199">
        <ele>214</ele>
        <time>2016-05-24T11:48:13Z</time>
      </trkpt>
      <trkpt lat="43.61028" lon="3.42192">
        <ele>214.9</ele>
        <time>2016-05-24T11:48:17Z</time>
      </trkpt>
      <trkpt lat="43.61034" lon="3.42185">
        <ele>215.6</ele>
        <time>2016-05-24T11:48:21Z</time>
      </trkpt>
      <trkpt lat="43.6104" lon="3.42179">
        <ele>216.3</ele>
        <time>2016-05-24T11:48:25Z</time>
      </trkpt>
      <trkpt lat="43.61046" lon="3.42171">
        <ele>216.8</ele>
        <time>2016-05-24T11:48:28Z</time>
      </trkpt>
      <trkpt lat="43.61051" lon="3.4216">
        <ele>217.7</ele>
        <time>2016-05-24T11:48:32Z</time>
      </trkpt>
      <trkpt lat="43.61055" lon="3.42151">
        <ele>218.4</ele>
        <time>2016-05-24T11:48:35Z</time>
      </trkpt>
      <trkpt lat="43.6106" lon="3.42141">
        <ele>219.3</ele>
        <time>2016-05-24T11:48:39Z</time>
      </trkpt>
      <trkpt lat="43.61064" lon="3.4213">
        <ele>220.5</ele>
        <time>2016-05-24T11:48:43Z</time>
      </trkpt>
      <trkpt lat="43.61067" lon="3.4212">
        <ele>221.9</ele>
        <time>2016-05-24T11:48:47Z</time>
      </trkpt>
      <trkpt lat="43.6107" lon="3.4211">
        <ele>222.7</ele>
        <time>2016-05-24T11:48:50Z</time>
      </trkpt>
      <trkpt lat="43.61074" lon="3.42101">
        <ele>223.5</ele>
        <time>2016-05-24T11:48:53Z</time>
      </trkpt>
      <trkpt lat="43.61079" lon="3.42094">
        <ele>224.2</ele>
        <time>2016-05-24T11:48:56Z</time>
      </trkpt>
      <trkpt lat="43.61084" lon="3.42084">
        <ele>225</ele>
        <time>2016-05-24T11:49:00Z</time>
      </trkpt>
      <trkpt lat="43.6109" lon="3.42074">
        <ele>226.1</ele>
        <time>2016-05-24T11:49:04Z</time>
      </trkpt>
      <trkpt lat="43.61095" lon="3.42065">
        <ele>227.2</ele>
        <time>2016-05-24T11:49:08Z</time>
      </trkpt>
      <trkpt lat="43.611" lon="3.42056">
        <ele>228.3</ele>
        <time>2016-05-24T11:49:12Z</time>
      </trkpt>
      <trkpt lat="43.61105" lon="3.42047">
        <ele>229.4</ele>
        <time>2016-05-24T11:49:16Z</time>
      </trkpt>
      <trkpt lat="43.6111" lon="3.42039">
        <ele>230.1</ele>
        <time>2016-05-24T11:49:19Z</time>
      </trkpt>
      <trkpt lat="43.61115" lon="3.42028">
        <ele>231</ele>
        <time>2016-05-24T11:49:23Z</time>
      </trkpt>
      <trkpt lat="43.61121" lon="3.42019">
        <ele>231.7</ele>
        <time>2016-05-24T11:49:27Z</time>
      </trkpt>
      <trkpt lat="43.61125" lon="3.42008">
        <ele>232.2</ele>
        <time>2016-05-24T11:49:31Z</time>
      </trkpt>
      <trkpt lat="43.6113" lon="3.41999">
        <ele>232.8</ele>
        <time>2016-05-24T11:49:34Z</time>
      </trkpt>
      <trkpt lat="43.61133" lon="3.41988">
        <ele>233.5</ele>
        <time>2016-05-24T11:49:38Z</time>
      </trkpt>
      <trkpt lat="43.61133" lon="3.41978">
        <ele>234.2</ele>
        <time>2016-05-24T11:49:42Z</time>
      </trkpt>
      <trkpt lat="43.61132" lon="3.41965">
        <ele>235</ele>
        <time>2016-05-24T11:49:46Z</time>
      </trkpt>
      <trkpt lat="43.61132" lon="3.41952">
        <ele>235.6</ele>
        <time>2016-05-24T11:49:50Z</time>
      </trkpt>
      <trkpt lat="43.61133" lon="3.4194">
        <ele>236</ele>
        <time>2016-05-24T11:49:54Z</time>
      </trkpt>
      <trkpt lat="43.6113" lon="3.41928">
        <ele>236.7</ele>
        <time>2016-05-24T11:49:59Z</time>
      </trkpt>
      <trkpt lat="43.61129" lon="3.41916">
        <ele>237.2</ele>
        <time>2016-05-24T11:50:03Z</time>
      </trkpt>
      <trkpt lat="43.61128" lon="3.41902">
        <ele>237.6</ele>
        <time>2016-05-24T11:50:06Z</time>
      </trkpt>
      <trkpt lat="43.61129" lon="3.41891">
        <ele>237.7</ele>
        <time>2016-05-24T11:50:09Z</time>
      </trkpt>
      <trkpt lat="43.61131" lon="3.41881">
        <ele>238.3</ele>
        <time>2016-05-24T11:50:13Z</time>
      </trkpt>
      <trkpt lat="43.61133" lon="3.4187">
        <ele>239.5</ele>
        <time>2016-05-24T11:50:18Z</time>
      </trkpt>
      <trkpt lat="43.61137" lon="3.41858">
        <ele>240.2</ele>
        <time>2016-05-24T11:50:21Z</time>
      </trkpt>
      <trkpt lat="43.61141" lon="3.41849">
        <ele>241.3</ele>
        <time>2016-05-24T11:50:25Z</time>
      </trkpt>
      <trkpt lat="43.61143" lon="3.41838">
        <ele>242</ele>
        <time>2016-05-24T11:50:29Z</time>
      </trkpt>
      <trkpt lat="43.61145" lon="3.41828">
        <ele>242.8</ele>
        <time>2016-05-24T11:50:33Z</time>
      </trkpt>
      <trkpt lat="43.61146" lon="3.41816">
        <ele>244.3</ele>
        <time>2016-05-24T11:50:38Z</time>
      </trkpt>
      <trkpt lat="43.61146" lon="3.41806">
        <ele>245.3</ele>
        <time>2016-05-24T11:50:42Z</time>
      </trkpt>
      <trkpt lat="43.61147" lon="3.41795">
        <ele>246.2</ele>
        <time>2016-05-24T11:50:46Z</time>
      </trkpt>
      <trkpt lat="43.61146" lon="3.41784">
        <ele>247.7</ele>
        <time>2016-05-24T11:50:52Z</time>
      </trkpt>
      <trkpt lat="43.61147" lon="3.41773">
        <ele>248.9</ele>
        <time>2016-05-24T11:50:56Z</time>
      </trkpt>
      <trkpt lat="43.61148" lon="3.41763">
        <ele>250</ele>
        <time>2016-05-24T11:51:00Z</time>
      </trkpt>
      <trkpt lat="43.6115" lon="3.41753">
        <ele>251.2</ele>
        <time>2016-05-24T11:51:04Z</time>
      </trkpt>
      <trkpt lat="43.61152" lon="3.41742">
        <ele>252.5</ele>
        <time>2016-05-24T11:51:09Z</time>
      </trkpt>
      <trkpt lat="43.61154" lon="3.41731">
        <ele>253.7</ele>
        <time>2016-05-24T11:51:14Z</time>
      </trkpt>
      <trkpt lat="43.61155" lon="3.4172">
        <ele>254.8</ele>
        <time>2016-05-24T11:51:19Z</time>
      </trkpt>
      <trkpt lat="43.61156" lon="3.4171">
        <ele>256</ele>
        <time>2016-05-24T11:51:24Z</time>
      </trkpt>
      <trkpt lat="43.61157" lon="3.41699">
        <ele>257.2</ele>
        <time>2016-05-24T11:51:29Z</time>
      </trkpt>
      <trkpt lat="43.6116" lon="3.4169">
        <ele>258.1</ele>
        <time>2016-05-24T11:51:33Z</time>
      </trkpt>
      <trkpt lat="43.61163" lon="3.41679">
        <ele>259.2</ele>
        <time>2016-05-24T11:51:38Z</time>
      </trkpt>
      <trkpt lat="43.61164" lon="3.41668">
        <ele>260.1</ele>
        <time>2016-05-24T11:51:42Z</time>
      </trkpt>
      <trkpt lat="43.61168" lon="3.41656">
        <ele>261</ele>
        <time>2016-05-24T11:51:47Z</time>
      </trkpt>
      <trkpt lat="43.6117" lon="3.41646">
        <ele>261.6</ele>
        <time>2016-05-24T11:51:51Z</time>
      </trkpt>
      <trkpt lat="43.61172" lon="3.41634">
        <ele>262</ele>
        <time>2016-05-24T11:51:55Z</time>
      </trkpt>
      <trkpt lat="43.61175" lon="3.41624">
        <ele>262.5</ele>
        <time>2016-05-24T11:51:59Z</time>
      </trkpt>
      <trkpt lat="43.61178" lon="3.41612">
        <ele>263.1</ele>
        <time>2016-05-24T11:52:03Z</time>
      </trkpt>
      <trkpt lat="43.61182" lon="3.416">
        <ele>263.7</ele>
        <time>2016-05-24T11:52:07Z</time>
      </trkpt>
      <trkpt lat="43.61182" lon="3.4159">
        <ele>264.3</ele>
        <time>2016-05-24T11:52:10Z</time>
      </trkpt>
      <trkpt lat="43.61183" lon="3.41578">
        <ele>264.7</ele>
        <time>2016-05-24T11:52:13Z</time>
      </trkpt>
      <trkpt lat="43.61183" lon="3.41566">
        <ele>265.1</ele>
        <time>2016-05-24T11:52:16Z</time>
      </trkpt>
      <trkpt lat="43.61184" lon="3.41552">
        <ele>265.5</ele>
        <time>2016-05-24T11:52:19Z</time>
      </trkpt>
      <trkpt lat="43.61185" lon="3.41542">
        <ele>265.9</ele>
        <time>2016-05-24T11:52:22Z</time>
      </trkpt>
      <trkpt lat="43.61187" lon="3.41532">
        <ele>266.3</ele>
        <time>2016-05-24T11:52:25Z</time>
      </trkpt>
      <trkpt lat="43.6119" lon="3.41521">
        <ele>266.8</ele>
        <time>2016-05-24T11:52:28Z</time>
      </trkpt>
      <trkpt lat="43.61194" lon="3.41512">
        <ele>267.3</ele>
        <time>2016-05-24T11:52:31Z</time>
      </trkpt>
      <trkpt lat="43.61197" lon="3.41502">
        <ele>267.5</ele>
        <time>2016-05-24T11:52:34Z</time>
      </trkpt>
      <trkpt lat="43.61202" lon="3.41491">
        <ele>267.9</ele>
        <time>2016-05-24T11:52:37Z</time>
      </trkpt>
      <trkpt lat="43.61205" lon="3.4148">
        <ele>268.1</ele>
        <time>2016-05-24T11:52:40Z</time>
      </trkpt>
      <trkpt lat="43.61207" lon="3.41471">
        <ele>268.2</ele>
        <time>2016-05-24T11:52:43Z</time>
      </trkpt>
      <trkpt lat="43.61205" lon="3.41461">
        <ele>268.2</ele>
        <time>2016-05-24T11:52:46Z</time>
      </trkpt>
      <trkpt lat="43.61199" lon="3.41455">
        <ele>268.7</ele>
        <time>2016-05-24T11:52:50Z</time>
      </trkpt>
      <trkpt lat="43.61192" lon="3.41451">
        <ele>269.3</ele>
        <time>2016-05-24T11:52:54Z</time>
      </trkpt>
      <trkpt lat="43.61184" lon="3.41449">
        <ele>270</ele>
        <time>2016-05-24T11:52:58Z</time>
      </trkpt>
      <trkpt lat="43.61176" lon="3.41448">
        <ele>270.8</ele>
        <time>2016-05-24T11:53:03Z</time>
      </trkpt>
      <trkpt lat="43.61169" lon="3.41443">
        <ele>271.5</ele>
        <time>2016-05-24T11:53:08Z</time>
      </trkpt>
      <trkpt lat="43.61163" lon="3.41435">
        <ele>272.3</ele>
        <time>2016-05-24T11:53:13Z</time>
      </trkpt>
      <trkpt lat="43.61158" lon="3.41425">
        <ele>273.5</ele>
        <time>2016-05-24T11:53:18Z</time>
      </trkpt>
      <trkpt lat="43.61154" lon="3.41416">
        <ele>274.7</ele>
        <time>2016-05-24T11:53:23Z</time>
      </trkpt>
      <trkpt lat="43.61148" lon="3.41406">
        <ele>276.2</ele>
        <time>2016-05-24T11:53:29Z</time>
      </trkpt>
      <trkpt lat="43.61143" lon="3.41398">
        <ele>277.5</ele>
        <time>2016-05-24T11:53:34Z</time>
      </trkpt>
      <trkpt lat="43.61138" lon="3.4139">
        <ele>278.6</ele>
        <time>2016-05-24T11:53:39Z</time>
      </trkpt>
      <trkpt lat="43.61132" lon="3.41383">
        <ele>279.6</ele>
        <time>2016-05-24T11:53:43Z</time>
      </trkpt>
      <trkpt lat="43.61126" lon="3.41375">
        <ele>280.8</ele>
        <time>2016-05-24T11:53:48Z</time>
      </trkpt>
      <trkpt lat="43.6112" lon="3.41369">
        <ele>282</ele>
        <time>2016-05-24T11:53:53Z</time>
      </trkpt>
      <trkpt lat="43.61114" lon="3.41361">
        <ele>282.5</ele>
        <time>2016-05-24T11:53:56Z</time>
      </trkpt>
      <trkpt lat="43.61109" lon="3.41354">
        <ele>282.9</ele>
        <time>2016-05-24T11:53:59Z</time>
      </trkpt>
      <trkpt lat="43.61103" lon="3.41346">
        <ele>283.4</ele>
        <time>2016-05-24T11:54:03Z</time>
      </trkpt>
      <trkpt lat="43.61096" lon="3.41339">
        <ele>283.9</ele>
        <time>2016-05-24T11:54:07Z</time>
      </trkpt>
      <trkpt lat="43.61089" lon="3.41334">
        <ele>284.3</ele>
        <time>2016-05-24T11:54:10Z</time>
      </trkpt>
      <trkpt lat="43.61081" lon="3.41327">
        <ele>284.9</ele>
        <time>2016-05-24T11:54:14Z</time>
      </trkpt>
      <trkpt lat="43.61074" lon="3.41319">
        <ele>286.1</ele>
        <time>2016-05-24T11:54:19Z</time>
      </trkpt>
      <trkpt lat="43.61069" lon="3.41312">
        <ele>286.7</ele>
        <time>2016-05-24T11:54:23Z</time>
      </trkpt>
      <trkpt lat="43.61064" lon="3.41302">
        <ele>287.2</ele>
        <time>2016-05-24T11:54:27Z</time>
      </trkpt>
      <trkpt lat="43.61058" lon="3.41294">
        <ele>287.7</ele>
        <time>2016-05-24T11:54:31Z</time>
      </trkpt>
      <trkpt lat="43.61052" lon="3.41287">
        <ele>288.1</ele>
        <time>2016-05-24T11:54:35Z</time>
      </trkpt>
      <trkpt lat="43.61045" lon="3.41281">
        <ele>288.7</ele>
        <time>2016-05-24T11:54:39Z</time>
      </trkpt>
      <trkpt lat="43.61039" lon="3.41276">
        <ele>289.7</ele>
        <time>2016-05-24T11:54:44Z</time>
      </trkpt>
      <trkpt lat="43.61032" lon="3.41271">
        <ele>290.3</ele>
        <time>2016-05-24T11:54:49Z</time>
      </trkpt>
      <trkpt lat="43.61026" lon="3.41265">
        <ele>290.6</ele>
        <time>2016-05-24T11:54:53Z</time>
      </trkpt>
      <trkpt lat="43.61019" lon="3.41257">
        <ele>291.1</ele>
        <time>2016-05-24T11:54:57Z</time>
      </trkpt>
      <trkpt lat="43.61014" lon="3.41248">
        <ele>291.7</ele>
        <time>2016-05-24T11:55:01Z</time>
      </trkpt>
      <trkpt lat="43.61007" lon="3.41242">
        <ele>292.4</ele>
        <time>2016-05-24T11:55:06Z</time>
      </trkpt>
      <trkpt lat="43.61001" lon="3.41239">
        <ele>292.8</ele>
        <time>2016-05-24T11:55:10Z</time>
      </trkpt>
      <trkpt lat="43.60992" lon="3.41236">
        <ele>293.3</ele>
        <time>2016-05-24T11:55:14Z</time>
      </trkpt>
      <trkpt lat="43.60984" lon="3.41233">
        <ele>293.7</ele>
        <time>2016-05-24T11:55:18Z</time>
      </trkpt>
      <trkpt lat="43.60978" lon="3.41227">
        <ele>294.1</ele>
        <time>2016-05-24T11:55:23Z</time>
      </trkpt>
      <trkpt lat="43.60971" lon="3.41222">
        <ele>294.5</ele>
        <time>2016-05-24T11:55:27Z</time>
      </trkpt>
      <trkpt lat="43.60964" lon="3.41217">
        <ele>294.9</ele>
        <time>2016-05-24T11:55:31Z</time>
      </trkpt>
      <trkpt lat="43.60958" lon="3.41207">
        <ele>295.4</ele>
        <time>2016-05-24T11:55:35Z</time>
      </trkpt>
      <trkpt lat="43.60951" lon="3.41203">
        <ele>296.1</ele>
        <time>2016-05-24T11:55:39Z</time>
      </trkpt>
      <trkpt lat="43.60942" lon="3.41207">
        <ele>297.3</ele>
        <time>2016-05-24T11:55:42Z</time>
      </trkpt>
      <trkpt lat="43.60932" lon="3.41207">
        <ele>297.5</ele>
        <time>2016-05-24T11:55:44Z</time>
      </trkpt>
      <trkpt lat="43.60923" lon="3.41206">
        <ele>299.2</ele>
        <time>2016-05-24T11:55:46Z</time>
      </trkpt>
      <trkpt lat="43.60915" lon="3.41205">
        <ele>299.8</ele>
        <time>2016-05-24T11:55:48Z</time>
      </trkpt>
      <trkpt lat="43.60907" lon="3.41205">
        <ele>300.3</ele>
        <time>2016-05-24T11:55:50Z</time>
      </trkpt>
      <trkpt lat="43.60898" lon="3.41207">
        <ele>300.4</ele>
        <time>2016-05-24T11:55:53Z</time>
      </trkpt>
      <trkpt lat="43.60887" lon="3.41211">
        <ele>300.3</ele>
        <time>2016-05-24T11:55:56Z</time>
      </trkpt>
      <trkpt lat="43.60878" lon="3.41213">
        <ele>300.5</ele>
        <time>2016-05-24T11:55:58Z</time>
      </trkpt>
      <trkpt lat="43.60871" lon="3.41215">
        <ele>300.3</ele>
        <time>2016-05-24T11:56:00Z</time>
      </trkpt>
      <trkpt lat="43.60862" lon="3.41223">
        <ele>300</ele>
        <time>2016-05-24T11:56:03Z</time>
      </trkpt>
      <trkpt lat="43.60853" lon="3.41228">
        <ele>300</ele>
        <time>2016-05-24T11:56:06Z</time>
      </trkpt>
      <trkpt lat="43.60844" lon="3.41228">
        <ele>300</ele>
        <time>2016-05-24T11:56:09Z</time>
      </trkpt>
      <trkpt lat="43.60838" lon="3.4122">
        <ele>300.7</ele>
        <time>2016-05-24T11:56:15Z</time>
      </trkpt>
      <trkpt lat="43.60836" lon="3.4121">
        <ele>300.7</ele>
        <time>2016-05-24T11:56:22Z</time>
      </trkpt>
      <trkpt lat="43.60832" lon="3.41199">
        <ele>300.5</ele>
        <time>2016-05-24T11:56:27Z</time>
      </trkpt>
      <trkpt lat="43.60837" lon="3.41192">
        <ele>300.5</ele>
        <time>2016-05-24T11:56:29Z</time>
      </trkpt>
      <trkpt lat="43.60837" lon="3.41182">
        <ele>300.2</ele>
        <time>2016-05-24T11:56:32Z</time>
      </trkpt>
      <trkpt lat="43.60837" lon="3.4117">
        <ele>299.9</ele>
        <time>2016-05-24T11:56:36Z</time>
      </trkpt>
      <trkpt lat="43.60832" lon="3.41161">
        <ele>299.3</ele>
        <time>2016-05-24T11:56:41Z</time>
      </trkpt>
      <trkpt lat="43.60831" lon="3.41151">
        <ele>298.2</ele>
        <time>2016-05-24T11:56:46Z</time>
      </trkpt>
      <trkpt lat="43.6083" lon="3.4114">
        <ele>297.3</ele>
        <time>2016-05-24T11:56:49Z</time>
      </trkpt>
      <trkpt lat="43.60835" lon="3.41128">
        <ele>296.4</ele>
        <time>2016-05-24T11:56:52Z</time>
      </trkpt>
      <trkpt lat="43.6083" lon="3.41107">
        <ele>292.8</ele>
        <time>2016-05-24T11:57:02Z</time>
      </trkpt>
      <trkpt lat="43.60826" lon="3.41096">
        <ele>291.5</ele>
        <time>2016-05-24T11:57:05Z</time>
      </trkpt>
      <trkpt lat="43.60827" lon="3.41085">
        <ele>290</ele>
        <time>2016-05-24T11:57:08Z</time>
      </trkpt>
      <trkpt lat="43.60832" lon="3.41078">
        <ele>288.8</ele>
        <time>2016-05-24T11:57:10Z</time>
      </trkpt>
      <trkpt lat="43.60829" lon="3.41065">
        <ele>284.8</ele>
        <time>2016-05-24T11:57:17Z</time>
      </trkpt>
      <trkpt lat="43.60824" lon="3.41058">
        <ele>278.6</ele>
        <time>2016-05-24T11:57:19Z</time>
      </trkpt>
      <trkpt lat="43.6082" lon="3.41039">
        <ele>277.8</ele>
        <time>2016-05-24T11:57:22Z</time>
      </trkpt>
      <trkpt lat="43.60818" lon="3.41027">
        <ele>277.4</ele>
        <time>2016-05-24T11:57:22Z</time>
      </trkpt>
      <trkpt lat="43.60815" lon="3.41015">
        <ele>272.5</ele>
        <time>2016-05-24T11:57:23Z</time>
      </trkpt>
      <trkpt lat="43.60813" lon="3.41003">
        <ele>269.2</ele>
        <time>2016-05-24T11:57:24Z</time>
      </trkpt>
      <trkpt lat="43.60808" lon="3.4099">
        <ele>267</ele>
        <time>2016-05-24T11:57:25Z</time>
      </trkpt>
      <trkpt lat="43.60806" lon="3.4098">
        <ele>263.9</ele>
        <time>2016-05-24T11:57:26Z</time>
      </trkpt>
      <trkpt lat="43.60802" lon="3.40969">
        <ele>261.2</ele>
        <time>2016-05-24T11:57:27Z</time>
      </trkpt>
      <trkpt lat="43.60798" lon="3.4096">
        <ele>258.4</ele>
        <time>2016-05-24T11:57:28Z</time>
      </trkpt>
      <trkpt lat="43.60791" lon="3.40954">
        <ele>254.8</ele>
        <time>2016-05-24T11:57:31Z</time>
      </trkpt>
      <trkpt lat="43.60784" lon="3.40955">
        <ele>247.1</ele>
        <time>2016-05-24T11:57:34Z</time>
      </trkpt>
      <trkpt lat="43.60773" lon="3.40951">
        <ele>241.3</ele>
        <time>2016-05-24T11:57:37Z</time>
      </trkpt>
      <trkpt lat="43.60763" lon="3.40942">
        <ele>238.1</ele>
        <time>2016-05-24T11:57:39Z</time>
      </trkpt>
      <trkpt lat="43.60754" lon="3.40934">
        <ele>236</ele>
        <time>2016-05-24T11:57:41Z</time>
      </trkpt>
      <trkpt lat="43.60747" lon="3.40928">
        <ele>235.9</ele>
        <time>2016-05-24T11:57:43Z</time>
      </trkpt>
      <trkpt lat="43.60738" lon="3.4092">
        <ele>233.3</ele>
        <time>2016-05-24T11:57:45Z</time>
      </trkpt>
      <trkpt lat="43.6073" lon="3.40916">
        <ele>232</ele>
        <time>2016-05-24T11:57:46Z</time>
      </trkpt>
      <trkpt lat="43.60723" lon="3.40916">
        <ele>230.8</ele>
        <time>2016-05-24T11:57:47Z</time>
      </trkpt>
      <trkpt lat="43.60714" lon="3.40917">
        <ele>229.6</ele>
        <time>2016-05-24T11:57:48Z</time>
      </trkpt>
      <trkpt lat="43.60705" lon="3.40918">
        <ele>228.3</ele>
        <time>2016-05-24T11:57:49Z</time>
      </trkpt>
      <trkpt lat="43.60698" lon="3.4092">
        <ele>227.1</ele>
        <time>2016-05-24T11:57:50Z</time>
      </trkpt>
      <trkpt lat="43.60687" lon="3.40924">
        <ele>225.2</ele>
        <time>2016-05-24T11:57:52Z</time>
      </trkpt>
      <trkpt lat="43.60676" lon="3.40927">
        <ele>223.6</ele>
        <time>2016-05-24T11:57:54Z</time>
      </trkpt>
      <trkpt lat="43.60666" lon="3.40932">
        <ele>222</ele>
        <time>2016-05-24T11:57:56Z</time>
      </trkpt>
      <trkpt lat="43.6066" lon="3.4094">
        <ele>222.4</ele>
        <time>2016-05-24T11:57:58Z</time>
      </trkpt>
      <trkpt lat="43.60652" lon="3.40948">
        <ele>222.6</ele>
        <time>2016-05-24T11:58:01Z</time>
      </trkpt>
      <trkpt lat="43.60644" lon="3.40955">
        <ele>222.6</ele>
        <time>2016-05-24T11:58:03Z</time>
      </trkpt>
      <trkpt lat="43.60638" lon="3.4096">
        <ele>222.6</ele>
        <time>2016-05-24T11:58:05Z</time>
      </trkpt>
      <trkpt lat="43.60629" lon="3.40964">
        <ele>222.4</ele>
        <time>2016-05-24T11:58:07Z</time>
      </trkpt>
      <trkpt lat="43.60621" lon="3.40969">
        <ele>222.3</ele>
        <time>2016-05-24T11:58:09Z</time>
      </trkpt>
      <trkpt lat="43.60611" lon="3.40967">
        <ele>221.5</ele>
        <time>2016-05-24T11:58:11Z</time>
      </trkpt>
      <trkpt lat="43.606" lon="3.4096">
        <ele>220.8</ele>
        <time>2016-05-24T11:58:13Z</time>
      </trkpt>
      <trkpt lat="43.60593" lon="3.40957">
        <ele>220.4</ele>
        <time>2016-05-24T11:58:14Z</time>
      </trkpt>
      <trkpt lat="43.60585" lon="3.40953">
        <ele>220</ele>
        <time>2016-05-24T11:58:15Z</time>
      </trkpt>
      <trkpt lat="43.60577" lon="3.40948">
        <ele>219.6</ele>
        <time>2016-05-24T11:58:16Z</time>
      </trkpt>
      <trkpt lat="43.6057" lon="3.40944">
        <ele>218.9</ele>
        <time>2016-05-24T11:58:17Z</time>
      </trkpt>
      <trkpt lat="43.60562" lon="3.40936">
        <ele>218.2</ele>
        <time>2016-05-24T11:58:19Z</time>
      </trkpt>
      <trkpt lat="43.60557" lon="3.40924">
        <ele>217.8</ele>
        <time>2016-05-24T11:58:21Z</time>
      </trkpt>
      <trkpt lat="43.60559" lon="3.40909">
        <ele>217.5</ele>
        <time>2016-05-24T11:58:23Z</time>
      </trkpt>
      <trkpt lat="43.60566" lon="3.40901">
        <ele>217.2</ele>
        <time>2016-05-24T11:58:25Z</time>
      </trkpt>
      <trkpt lat="43.60574" lon="3.40892">
        <ele>216.7</ele>
        <time>2016-05-24T11:58:28Z</time>
      </trkpt>
      <trkpt lat="43.60577" lon="3.40881">
        <ele>214.4</ele>
        <time>2016-05-24T11:58:30Z</time>
      </trkpt>
      <trkpt lat="43.60581" lon="3.40872">
        <ele>211.4</ele>
        <time>2016-05-24T11:58:32Z</time>
      </trkpt>
      <trkpt lat="43.60586" lon="3.40857">
        <ele>209.7</ele>
        <time>2016-05-24T11:58:34Z</time>
      </trkpt>
      <trkpt lat="43.60583" lon="3.40842">
        <ele>209.3</ele>
        <time>2016-05-24T11:58:37Z</time>
      </trkpt>
      <trkpt lat="43.60583" lon="3.40827">
        <ele>207.7</ele>
        <time>2016-05-24T11:58:39Z</time>
      </trkpt>
      <trkpt lat="43.60586" lon="3.40811">
        <ele>207.4</ele>
        <time>2016-05-24T11:58:42Z</time>
      </trkpt>
      <trkpt lat="43.60594" lon="3.40801">
        <ele>207.2</ele>
        <time>2016-05-24T11:58:44Z</time>
      </trkpt>
      <trkpt lat="43.60603" lon="3.40794">
        <ele>206.1</ele>
        <time>2016-05-24T11:58:46Z</time>
      </trkpt>
      <trkpt lat="43.6061" lon="3.40782">
        <ele>202.6</ele>
        <time>2016-05-24T11:58:48Z</time>
      </trkpt>
      <trkpt lat="43.60615" lon="3.40768">
        <ele>200.2</ele>
        <time>2016-05-24T11:58:50Z</time>
      </trkpt>
      <trkpt lat="43.60618" lon="3.40754">
        <ele>198.9</ele>
        <time>2016-05-24T11:58:52Z</time>
      </trkpt>
      <trkpt lat="43.60621" lon="3.40741">
        <ele>196.2</ele>
        <time>2016-05-24T11:58:54Z</time>
      </trkpt>
      <trkpt lat="43.60625" lon="3.40727">
        <ele>194.5</ele>
        <time>2016-05-24T11:58:56Z</time>
      </trkpt>
      <trkpt lat="43.60629" lon="3.40715">
        <ele>192.6</ele>
        <time>2016-05-24T11:58:58Z</time>
      </trkpt>
      <trkpt lat="43.60632" lon="3.40703">
        <ele>191.1</ele>
        <time>2016-05-24T11:59:00Z</time>
      </trkpt>
      <trkpt lat="43.60637" lon="3.40689">
        <ele>189.3</ele>
        <time>2016-05-24T11:59:02Z</time>
      </trkpt>
      <trkpt lat="43.60645" lon="3.40675">
        <ele>188.5</ele>
        <time>2016-05-24T11:59:04Z</time>
      </trkpt>
      <trkpt lat="43.60653" lon="3.40664">
        <ele>188.3</ele>
        <time>2016-05-24T11:59:06Z</time>
      </trkpt>
      <trkpt lat="43.60661" lon="3.40654">
        <ele>187.3</ele>
        <time>2016-05-24T11:59:08Z</time>
      </trkpt>
      <trkpt lat="43.60665" lon="3.40646">
        <ele>187.2</ele>
        <time>2016-05-24T11:59:10Z</time>
      </trkpt>
      <trkpt lat="43.60671" lon="3.40634">
        <ele>187.2</ele>
        <time>2016-05-24T11:59:12Z</time>
      </trkpt>
      <trkpt lat="43.60677" lon="3.40625">
        <ele>186.9</ele>
        <time>2016-05-24T11:59:14Z</time>
      </trkpt>
      <trkpt lat="43.60687" lon="3.40618">
        <ele>186.8</ele>
        <time>2016-05-24T11:59:16Z</time>
      </trkpt>
      <trkpt lat="43.60697" lon="3.40614">
        <ele>186.5</ele>
        <time>2016-05-24T11:59:18Z</time>
      </trkpt>
      <trkpt lat="43.60704" lon="3.40608">
        <ele>186.1</ele>
        <time>2016-05-24T11:59:20Z</time>
      </trkpt>
      <trkpt lat="43.60712" lon="3.40609">
        <ele>185.7</ele>
        <time>2016-05-24T11:59:22Z</time>
      </trkpt>
      <trkpt lat="43.60719" lon="3.40608">
        <ele>184.6</ele>
        <time>2016-05-24T11:59:29Z</time>
      </trkpt>
      <trkpt lat="43.60712" lon="3.40609">
        <ele>184.2</ele>
        <time>2016-05-24T11:59:33Z</time>
      </trkpt>
      <trkpt lat="43.60704" lon="3.40608">
        <ele>183.9</ele>
        <time>2016-05-24T11:59:35Z</time>
      </trkpt>
      <trkpt lat="43.60695" lon="3.40608">
        <ele>183.8</ele>
        <time>2016-05-24T11:59:37Z</time>
      </trkpt>
      <trkpt lat="43.60686" lon="3.40605">
        <ele>183.5</ele>
        <time>2016-05-24T11:59:39Z</time>
      </trkpt>
      <trkpt lat="43.60677" lon="3.40603">
        <ele>183.1</ele>
        <time>2016-05-24T11:59:41Z</time>
      </trkpt>
      <trkpt lat="43.60667" lon="3.406">
        <ele>181.1</ele>
        <time>2016-05-24T11:59:43Z</time>
      </trkpt>
      <trkpt lat="43.60656" lon="3.40599">
        <ele>179.4</ele>
        <time>2016-05-24T11:59:45Z</time>
      </trkpt>
      <trkpt lat="43.60649" lon="3.40595">
        <ele>177.1</ele>
        <time>2016-05-24T11:59:47Z</time>
      </trkpt>
      <trkpt lat="43.60639" lon="3.40597">
        <ele>175.2</ele>
        <time>2016-05-24T11:59:50Z</time>
      </trkpt>
      <trkpt lat="43.60631" lon="3.40601">
        <ele>173.9</ele>
        <time>2016-05-24T11:59:52Z</time>
      </trkpt>
      <trkpt lat="43.60623" lon="3.40605">
        <ele>173.8</ele>
        <time>2016-05-24T11:59:54Z</time>
      </trkpt>
      <trkpt lat="43.60616" lon="3.4061">
        <ele>173.8</ele>
        <time>2016-05-24T11:59:56Z</time>
      </trkpt>
      <trkpt lat="43.6061" lon="3.40619">
        <ele>173.6</ele>
        <time>2016-05-24T11:59:59Z</time>
      </trkpt>
      <trkpt lat="43.60603" lon="3.40632">
        <ele>172.8</ele>
        <time>2016-05-24T12:00:02Z</time>
      </trkpt>
      <trkpt lat="43.60598" lon="3.40641">
        <ele>172.6</ele>
        <time>2016-05-24T12:00:04Z</time>
      </trkpt>
      <trkpt lat="43.60591" lon="3.40648">
        <ele>170.7</ele>
        <time>2016-05-24T12:00:06Z</time>
      </trkpt>
      <trkpt lat="43.60584" lon="3.40656">
        <ele>168.6</ele>
        <time>2016-05-24T12:00:08Z</time>
      </trkpt>
      <trkpt lat="43.60576" lon="3.40657">
        <ele>168.2</ele>
        <time>2016-05-24T12:00:11Z</time>
      </trkpt>
      <trkpt lat="43.60566" lon="3.40657">
        <ele>168</ele>
        <time>2016-05-24T12:00:13Z</time>
      </trkpt>
      <trkpt lat="43.60557" lon="3.40656">
        <ele>167.6</ele>
        <time>2016-05-24T12:00:16Z</time>
      </trkpt>
      <trkpt lat="43.6055" lon="3.4065">
        <ele>167.2</ele>
        <time>2016-05-24T12:00:19Z</time>
      </trkpt>
      <trkpt lat="43.60544" lon="3.40648">
        <ele>166</ele>
        <time>2016-05-24T12:00:26Z</time>
      </trkpt>
      <trkpt lat="43.6054" lon="3.40648">
        <ele>165.9</ele>
        <time>2016-05-24T12:00:33Z</time>
      </trkpt>
      <trkpt lat="43.60539" lon="3.40646">
        <ele>166.5</ele>
        <time>2016-05-24T12:00:47Z</time>
      </trkpt>
      <trkpt lat="43.60532" lon="3.40649">
        <ele>166.8</ele>
        <time>2016-05-24T12:00:54Z</time>
      </trkpt>
      <trkpt lat="43.60526" lon="3.40653">
        <ele>167.4</ele>
        <time>2016-05-24T12:01:01Z</time>
      </trkpt>
      <trkpt lat="43.60519" lon="3.40651">
        <ele>168.1</ele>
        <time>2016-05-24T12:01:08Z</time>
      </trkpt>
      <trkpt lat="43.60511" lon="3.4065">
        <ele>168.1</ele>
        <time>2016-05-24T12:01:14Z</time>
      </trkpt>
      <trkpt lat="43.60504" lon="3.40649">
        <ele>168.3</ele>
        <time>2016-05-24T12:01:17Z</time>
      </trkpt>
      <trkpt lat="43.60497" lon="3.40651">
        <ele>168.8</ele>
        <time>2016-05-24T12:01:21Z</time>
      </trkpt>
      <trkpt lat="43.6049" lon="3.40657">
        <ele>169.2</ele>
        <time>2016-05-24T12:01:26Z</time>
      </trkpt>
      <trkpt lat="43.60482" lon="3.40662">
        <ele>169.5</ele>
        <time>2016-05-24T12:01:30Z</time>
      </trkpt>
      <trkpt lat="43.60473" lon="3.40668">
        <ele>169.6</ele>
        <time>2016-05-24T12:01:33Z</time>
      </trkpt>
      <trkpt lat="43.60465" lon="3.40671">
        <ele>170.6</ele>
        <time>2016-05-24T12:01:35Z</time>
      </trkpt>
      <trkpt lat="43.60453" lon="3.40673">
        <ele>172.1</ele>
        <time>2016-05-24T12:01:37Z</time>
      </trkpt>
      <trkpt lat="43.60442" lon="3.40667">
        <ele>171.8</ele>
        <time>2016-05-24T12:01:39Z</time>
      </trkpt>
      <trkpt lat="43.60435" lon="3.40661">
        <ele>171.8</ele>
        <time>2016-05-24T12:01:42Z</time>
      </trkpt>
      <trkpt lat="43.60425" lon="3.40657">
        <ele>171.5</ele>
        <time>2016-05-24T12:01:46Z</time>
      </trkpt>
      <trkpt lat="43.60417" lon="3.40653">
        <ele>171.4</ele>
        <time>2016-05-24T12:01:49Z</time>
      </trkpt>
      <trkpt lat="43.60409" lon="3.40645">
        <ele>171.3</ele>
        <time>2016-05-24T12:01:52Z</time>
      </trkpt>
      <trkpt lat="43.60401" lon="3.40634">
        <ele>169.8</ele>
        <time>2016-05-24T12:01:54Z</time>
      </trkpt>
      <trkpt lat="43.60389" lon="3.40626">
        <ele>169.6</ele>
        <time>2016-05-24T12:01:56Z</time>
      </trkpt>
      <trkpt lat="43.60378" lon="3.40617">
        <ele>169.9</ele>
        <time>2016-05-24T12:01:58Z</time>
      </trkpt>
      <trkpt lat="43.60369" lon="3.40608">
        <ele>169.1</ele>
        <time>2016-05-24T12:02:00Z</time>
      </trkpt>
      <trkpt lat="43.6036" lon="3.40599">
        <ele>168.8</ele>
        <time>2016-05-24T12:02:02Z</time>
      </trkpt>
      <trkpt lat="43.60351" lon="3.40593">
        <ele>168.1</ele>
        <time>2016-05-24T12:02:04Z</time>
      </trkpt>
      <trkpt lat="43.60342" lon="3.40589">
        <ele>167.8</ele>
        <time>2016-05-24T12:02:06Z</time>
      </trkpt>
      <trkpt lat="43.60332" lon="3.40586">
        <ele>168.4</ele>
        <time>2016-05-24T12:02:08Z</time>
      </trkpt>
      <trkpt lat="43.60324" lon="3.40584">
        <ele>168.4</ele>
        <time>2016-05-24T12:02:10Z</time>
      </trkpt>
      <trkpt lat="43.60316" lon="3.40583">
        <ele>168.4</ele>
        <time>2016-05-24T12:02:13Z</time>
      </trkpt>
      <trkpt lat="43.60304" lon="3.40582">
        <ele>167.9</ele>
        <time>2016-05-24T12:02:16Z</time>
      </trkpt>
      <trkpt lat="43.60296" lon="3.40581">
        <ele>167.9</ele>
        <time>2016-05-24T12:02:18Z</time>
      </trkpt>
      <trkpt lat="43.60288" lon="3.40583">
        <ele>168.5</ele>
        <time>2016-05-24T12:02:20Z</time>
      </trkpt>
      <trkpt lat="43.60279" lon="3.40586">
        <ele>168.8</ele>
        <time>2016-05-24T12:02:22Z</time>
      </trkpt>
      <trkpt lat="43.60267" lon="3.40584">
        <ele>167.7</ele>
        <time>2016-05-24T12:02:24Z</time>
      </trkpt>
      <trkpt lat="43.60253" lon="3.40583">
        <ele>167.3</ele>
        <time>2016-05-24T12:02:26Z</time>
      </trkpt>
      <trkpt lat="43.60246" lon="3.40582">
        <ele>167</ele>
        <time>2016-05-24T12:02:27Z</time>
      </trkpt>
      <trkpt lat="43.60238" lon="3.40578">
        <ele>166.9</ele>
        <time>2016-05-24T12:02:28Z</time>
      </trkpt>
      <trkpt lat="43.60233" lon="3.4057">
        <ele>166.8</ele>
        <time>2016-05-24T12:02:29Z</time>
      </trkpt>
      <trkpt lat="43.60229" lon="3.40559">
        <ele>165.5</ele>
        <time>2016-05-24T12:02:30Z</time>
      </trkpt>
      <trkpt lat="43.60225" lon="3.40547">
        <ele>164.3</ele>
        <time>2016-05-24T12:02:31Z</time>
      </trkpt>
      <trkpt lat="43.60222" lon="3.40536">
        <ele>163.1</ele>
        <time>2016-05-24T12:02:32Z</time>
      </trkpt>
      <trkpt lat="43.60216" lon="3.40526">
        <ele>161.9</ele>
        <time>2016-05-24T12:02:33Z</time>
      </trkpt>
      <trkpt lat="43.60211" lon="3.40518">
        <ele>161.3</ele>
        <time>2016-05-24T12:02:34Z</time>
      </trkpt>
      <trkpt lat="43.60205" lon="3.40507">
        <ele>159.8</ele>
        <time>2016-05-24T12:02:36Z</time>
      </trkpt>
      <trkpt lat="43.602" lon="3.40489">
        <ele>159.2</ele>
        <time>2016-05-24T12:02:39Z</time>
      </trkpt>
      <trkpt lat="43.60199" lon="3.40477">
        <ele>159.6</ele>
        <time>2016-05-24T12:02:40Z</time>
      </trkpt>
      <trkpt lat="43.602" lon="3.40458">
        <ele>159.8</ele>
        <time>2016-05-24T12:02:42Z</time>
      </trkpt>
      <trkpt lat="43.60208" lon="3.40444">
        <ele>160.9</ele>
        <time>2016-05-24T12:02:44Z</time>
      </trkpt>
      <trkpt lat="43.60213" lon="3.40432">
        <ele>161.8</ele>
        <time>2016-05-24T12:02:46Z</time>
      </trkpt>
      <trkpt lat="43.6022" lon="3.40425">
        <ele>162.2</ele>
        <time>2016-05-24T12:02:48Z</time>
      </trkpt>
      <trkpt lat="43.60226" lon="3.40416">
        <ele>161.3</ele>
        <time>2016-05-24T12:02:50Z</time>
      </trkpt>
      <trkpt lat="43.60231" lon="3.40407">
        <ele>161.2</ele>
        <time>2016-05-24T12:02:52Z</time>
      </trkpt>
      <trkpt lat="43.60237" lon="3.40398">
        <ele>161.5</ele>
        <time>2016-05-24T12:02:54Z</time>
      </trkpt>
      <trkpt lat="43.60241" lon="3.40386">
        <ele>163.3</ele>
        <time>2016-05-24T12:02:56Z</time>
      </trkpt>
      <trkpt lat="43.60242" lon="3.40372">
        <ele>164</ele>
        <time>2016-05-24T12:02:59Z</time>
      </trkpt>
      <trkpt lat="43.60238" lon="3.40361">
        <ele>164.1</ele>
        <time>2016-05-24T12:03:02Z</time>
      </trkpt>
      <trkpt lat="43.60231" lon="3.40355">
        <ele>163.9</ele>
        <time>2016-05-24T12:03:05Z</time>
      </trkpt>
      <trkpt lat="43.60225" lon="3.40348">
        <ele>163.6</ele>
        <time>2016-05-24T12:03:08Z</time>
      </trkpt>
      <trkpt lat="43.60219" lon="3.40339">
        <ele>163.6</ele>
        <time>2016-05-24T12:03:12Z</time>
      </trkpt>
      <trkpt lat="43.60217" lon="3.40327">
        <ele>163.8</ele>
        <time>2016-05-24T12:03:16Z</time>
      </trkpt>
      <trkpt lat="43.60216" lon="3.40314">
        <ele>164.1</ele>
        <time>2016-05-24T12:03:20Z</time>
      </trkpt>
      <trkpt lat="43.60214" lon="3.40302">
        <ele>164.3</ele>
        <time>2016-05-24T12:03:24Z</time>
      </trkpt>
      <trkpt lat="43.60208" lon="3.40293">
        <ele>164.6</ele>
        <time>2016-05-24T12:03:28Z</time>
      </trkpt>
      <trkpt lat="43.60203" lon="3.40284">
        <ele>165</ele>
        <time>2016-05-24T12:03:33Z</time>
      </trkpt>
      <trkpt lat="43.60199" lon="3.40275">
        <ele>165.3</ele>
        <time>2016-05-24T12:03:37Z</time>
      </trkpt>
      <trkpt lat="43.60193" lon="3.40265">
        <ele>165.5</ele>
        <time>2016-05-24T12:03:41Z</time>
      </trkpt>
      <trkpt lat="43.60187" lon="3.40258">
        <ele>165.7</ele>
        <time>2016-05-24T12:03:44Z</time>
      </trkpt>
      <trkpt lat="43.60181" lon="3.4025">
        <ele>165.9</ele>
        <time>2016-05-24T12:03:48Z</time>
      </trkpt>
      <trkpt lat="43.60175" lon="3.40243">
        <ele>166.1</ele>
        <time>2016-05-24T12:03:52Z</time>
      </trkpt>
      <trkpt lat="43.60169" lon="3.40238">
        <ele>166.8</ele>
        <time>2016-05-24T12:03:56Z</time>
      </trkpt>
      <trkpt lat="43.6016" lon="3.40234">
        <ele>167.8</ele>
        <time>2016-05-24T12:04:01Z</time>
      </trkpt>
      <trkpt lat="43.60152" lon="3.40233">
        <ele>168.5</ele>
        <time>2016-05-24T12:04:05Z</time>
      </trkpt>
      <trkpt lat="43.60144" lon="3.40231">
        <ele>169.3</ele>
        <time>2016-05-24T12:04:09Z</time>
      </trkpt>
      <trkpt lat="43.60135" lon="3.4023">
        <ele>170.1</ele>
        <time>2016-05-24T12:04:14Z</time>
      </trkpt>
      <trkpt lat="43.60132" lon="3.4022">
        <ele>170.7</ele>
        <time>2016-05-24T12:04:18Z</time>
      </trkpt>
      <trkpt lat="43.60136" lon="3.40211">
        <ele>171</ele>
        <time>2016-05-24T12:04:20Z</time>
      </trkpt>
      <trkpt lat="43.6014" lon="3.40203">
        <ele>171.6</ele>
        <time>2016-05-24T12:04:25Z</time>
      </trkpt>
      <trkpt lat="43.60143" lon="3.402">
        <ele>172.5</ele>
        <time>2016-05-24T12:04:32Z</time>
      </trkpt>
      <trkpt lat="43.6014" lon="3.40189">
        <ele>173.6</ele>
        <time>2016-05-24T12:04:38Z</time>
      </trkpt>
      <trkpt lat="43.60138" lon="3.40178">
        <ele>174.5</ele>
        <time>2016-05-24T12:04:44Z</time>
      </trkpt>
      <trkpt lat="43.60133" lon="3.40169">
        <ele>175.4</ele>
        <time>2016-05-24T12:04:48Z</time>
      </trkpt>
      <trkpt lat="43.6013" lon="3.40159">
        <ele>176.6</ele>
        <time>2016-05-24T12:04:53Z</time>
      </trkpt>
      <trkpt lat="43.60124" lon="3.40151">
        <ele>177.4</ele>
        <time>2016-05-24T12:04:58Z</time>
      </trkpt>
      <trkpt lat="43.60119" lon="3.40142">
        <ele>178.2</ele>
        <time>2016-05-24T12:05:02Z</time>
      </trkpt>
      <trkpt lat="43.60115" lon="3.40134">
        <ele>178.9</ele>
        <time>2016-05-24T12:05:05Z</time>
      </trkpt>
      <trkpt lat="43.6011" lon="3.40125">
        <ele>179.6</ele>
        <time>2016-05-24T12:05:09Z</time>
      </trkpt>
      <trkpt lat="43.60106" lon="3.40115">
        <ele>180.3</ele>
        <time>2016-05-24T12:05:12Z</time>
      </trkpt>
      <trkpt lat="43.60103" lon="3.40105">
        <ele>180.8</ele>
        <time>2016-05-24T12:05:15Z</time>
      </trkpt>
      <trkpt lat="43.60098" lon="3.40092">
        <ele>181.4</ele>
        <time>2016-05-24T12:05:18Z</time>
      </trkpt>
      <trkpt lat="43.60095" lon="3.4008">
        <ele>181.6</ele>
        <time>2016-05-24T12:05:21Z</time>
      </trkpt>
      <trkpt lat="43.6009" lon="3.40069">
        <ele>181.9</ele>
        <time>2016-05-24T12:05:24Z</time>
      </trkpt>
      <trkpt lat="43.60085" lon="3.40058">
        <ele>183.2</ele>
        <time>2016-05-24T12:05:26Z</time>
      </trkpt>
      <trkpt lat="43.60081" lon="3.40046">
        <ele>183.6</ele>
        <time>2016-05-24T12:05:28Z</time>
      </trkpt>
      <trkpt lat="43.60077" lon="3.40031">
        <ele>184.1</ele>
        <time>2016-05-24T12:05:30Z</time>
      </trkpt>
      <trkpt lat="43.60072" lon="3.40015">
        <ele>184.1</ele>
        <time>2016-05-24T12:05:32Z</time>
      </trkpt>
      <trkpt lat="43.60066" lon="3.40001">
        <ele>184.9</ele>
        <time>2016-05-24T12:05:35Z</time>
      </trkpt>
      <trkpt lat="43.60061" lon="3.39992">
        <ele>185</ele>
        <time>2016-05-24T12:05:37Z</time>
      </trkpt>
      <trkpt lat="43.60056" lon="3.39983">
        <ele>185</ele>
        <time>2016-05-24T12:05:39Z</time>
      </trkpt>
      <trkpt lat="43.6005" lon="3.39974">
        <ele>184.8</ele>
        <time>2016-05-24T12:05:42Z</time>
      </trkpt>
      <trkpt lat="43.60043" lon="3.39965">
        <ele>184.7</ele>
        <time>2016-05-24T12:05:45Z</time>
      </trkpt>
      <trkpt lat="43.60038" lon="3.39954">
        <ele>184.8</ele>
        <time>2016-05-24T12:05:49Z</time>
      </trkpt>
      <trkpt lat="43.60033" lon="3.39944">
        <ele>184.9</ele>
        <time>2016-05-24T12:05:52Z</time>
      </trkpt>
      <trkpt lat="43.60028" lon="3.39937">
        <ele>185.1</ele>
        <time>2016-05-24T12:05:55Z</time>
      </trkpt>
      <trkpt lat="43.60023" lon="3.39929">
        <ele>185.2</ele>
        <time>2016-05-24T12:05:58Z</time>
      </trkpt>
      <trkpt lat="43.60018" lon="3.39922">
        <ele>185.4</ele>
        <time>2016-05-24T12:06:01Z</time>
      </trkpt>
      <trkpt lat="43.60011" lon="3.39915">
        <ele>185.5</ele>
        <time>2016-05-24T12:06:04Z</time>
      </trkpt>
      <trkpt lat="43.60003" lon="3.39908">
        <ele>185.9</ele>
        <time>2016-05-24T12:06:07Z</time>
      </trkpt>
      <trkpt lat="43.59997" lon="3.399">
        <ele>186.2</ele>
        <time>2016-05-24T12:06:11Z</time>
      </trkpt>
      <trkpt lat="43.59989" lon="3.39893">
        <ele>186.8</ele>
        <time>2016-05-24T12:06:15Z</time>
      </trkpt>
      <trkpt lat="43.5998" lon="3.39889">
        <ele>187.4</ele>
        <time>2016-05-24T12:06:19Z</time>
      </trkpt>
      <trkpt lat="43.59971" lon="3.39885">
        <ele>188.1</ele>
        <time>2016-05-24T12:06:23Z</time>
      </trkpt>
      <trkpt lat="43.59963" lon="3.39885">
        <ele>188.4</ele>
        <time>2016-05-24T12:06:26Z</time>
      </trkpt>
      <trkpt lat="43.59956" lon="3.39884">
        <ele>188.8</ele>
        <time>2016-05-24T12:06:30Z</time>
      </trkpt>
      <trkpt lat="43.59948" lon="3.39883">
        <ele>189.2</ele>
        <time>2016-05-24T12:06:33Z</time>
      </trkpt>
      <trkpt lat="43.59941" lon="3.3988">
        <ele>189.5</ele>
        <time>2016-05-24T12:06:36Z</time>
      </trkpt>
      <trkpt lat="43.59932" lon="3.39877">
        <ele>189.9</ele>
        <time>2016-05-24T12:06:40Z</time>
      </trkpt>
      <trkpt lat="43.59925" lon="3.39873">
        <ele>190.2</ele>
        <time>2016-05-24T12:06:43Z</time>
      </trkpt>
      <trkpt lat="43.5992" lon="3.39863">
        <ele>190.6</ele>
        <time>2016-05-24T12:06:47Z</time>
      </trkpt>
      <trkpt lat="43.59918" lon="3.39851">
        <ele>191.2</ele>
        <time>2016-05-24T12:06:51Z</time>
      </trkpt>
      <trkpt lat="43.59916" lon="3.39839">
        <ele>191.7</ele>
        <time>2016-05-24T12:06:55Z</time>
      </trkpt>
      <trkpt lat="43.59913" lon="3.3983">
        <ele>192.4</ele>
        <time>2016-05-24T12:06:59Z</time>
      </trkpt>
      <trkpt lat="43.59909" lon="3.39819">
        <ele>193.1</ele>
        <time>2016-05-24T12:07:03Z</time>
      </trkpt>
      <trkpt lat="43.59905" lon="3.39809">
        <ele>194.1</ele>
        <time>2016-05-24T12:07:07Z</time>
      </trkpt>
      <trkpt lat="43.599" lon="3.39799">
        <ele>195</ele>
        <time>2016-05-24T12:07:11Z</time>
      </trkpt>
      <trkpt lat="43.59895" lon="3.3979">
        <ele>196</ele>
        <time>2016-05-24T12:07:15Z</time>
      </trkpt>
      <trkpt lat="43.59889" lon="3.39783">
        <ele>197.1</ele>
        <time>2016-05-24T12:07:20Z</time>
      </trkpt>
      <trkpt lat="43.59882" lon="3.39777">
        <ele>198.3</ele>
        <time>2016-05-24T12:07:24Z</time>
      </trkpt>
      <trkpt lat="43.59874" lon="3.39771">
        <ele>199.5</ele>
        <time>2016-05-24T12:07:29Z</time>
      </trkpt>
      <trkpt lat="43.59867" lon="3.39767">
        <ele>200.6</ele>
        <time>2016-05-24T12:07:33Z</time>
      </trkpt>
      <trkpt lat="43.5986" lon="3.39763">
        <ele>201.8</ele>
        <time>2016-05-24T12:07:37Z</time>
      </trkpt>
      <trkpt lat="43.59853" lon="3.39757">
        <ele>203.4</ele>
        <time>2016-05-24T12:07:42Z</time>
      </trkpt>
      <trkpt lat="43.59846" lon="3.39751">
        <ele>205</ele>
        <time>2016-05-24T12:07:47Z</time>
      </trkpt>
      <trkpt lat="43.5984" lon="3.39742">
        <ele>207.4</ele>
        <time>2016-05-24T12:07:54Z</time>
      </trkpt>
      <trkpt lat="43.59833" lon="3.39736">
        <ele>208.6</ele>
        <time>2016-05-24T12:07:59Z</time>
      </trkpt>
      <trkpt lat="43.59827" lon="3.39729">
        <ele>209.4</ele>
        <time>2016-05-24T12:08:04Z</time>
      </trkpt>
      <trkpt lat="43.5982" lon="3.39723">
        <ele>210.1</ele>
        <time>2016-05-24T12:08:08Z</time>
      </trkpt>
      <trkpt lat="43.59814" lon="3.39716">
        <ele>211.4</ele>
        <time>2016-05-24T12:08:13Z</time>
      </trkpt>
      <trkpt lat="43.5981" lon="3.39707">
        <ele>213.3</ele>
        <time>2016-05-24T12:08:19Z</time>
      </trkpt>
      <trkpt lat="43.59806" lon="3.39698">
        <ele>214.3</ele>
        <time>2016-05-24T12:08:23Z</time>
      </trkpt>
      <trkpt lat="43.59802" lon="3.39689">
        <ele>215.3</ele>
        <time>2016-05-24T12:08:27Z</time>
      </trkpt>
      <trkpt lat="43.59798" lon="3.39677">
        <ele>216.3</ele>
        <time>2016-05-24T12:08:32Z</time>
      </trkpt>
      <trkpt lat="43.59794" lon="3.39666">
        <ele>217</ele>
        <time>2016-05-24T12:08:36Z</time>
      </trkpt>
      <trkpt lat="43.59793" lon="3.39655">
        <ele>217.8</ele>
        <time>2016-05-24T12:08:41Z</time>
      </trkpt>
      <trkpt lat="43.5979" lon="3.39645">
        <ele>218.9</ele>
        <time>2016-05-24T12:08:46Z</time>
      </trkpt>
      <trkpt lat="43.59788" lon="3.39634">
        <ele>219.7</ele>
        <time>2016-05-24T12:08:50Z</time>
      </trkpt>
      <trkpt lat="43.59788" lon="3.39623">
        <ele>220.5</ele>
        <time>2016-05-24T12:08:54Z</time>
      </trkpt>
      <trkpt lat="43.59784" lon="3.39613">
        <ele>221.4</ele>
        <time>2016-05-24T12:08:58Z</time>
      </trkpt>
      <trkpt lat="43.59782" lon="3.39604">
        <ele>221.9</ele>
        <time>2016-05-24T12:09:02Z</time>
      </trkpt>
      <trkpt lat="43.5978" lon="3.39593">
        <ele>222.6</ele>
        <time>2016-05-24T12:09:07Z</time>
      </trkpt>
      <trkpt lat="43.59776" lon="3.39582">
        <ele>223.5</ele>
        <time>2016-05-24T12:09:12Z</time>
      </trkpt>
      <trkpt lat="43.5977" lon="3.39574">
        <ele>224.7</ele>
        <time>2016-05-24T12:09:17Z</time>
      </trkpt>
      <trkpt lat="43.59766" lon="3.39565">
        <ele>226.1</ele>
        <time>2016-05-24T12:09:22Z</time>
      </trkpt>
      <trkpt lat="43.5976" lon="3.39555">
        <ele>227.5</ele>
        <time>2016-05-24T12:09:27Z</time>
      </trkpt>
      <trkpt lat="43.59754" lon="3.39549">
        <ele>228.5</ele>
        <time>2016-05-24T12:09:31Z</time>
      </trkpt>
      <trkpt lat="43.59747" lon="3.39545">
        <ele>229.6</ele>
        <time>2016-05-24T12:09:35Z</time>
      </trkpt>
      <trkpt lat="43.5974" lon="3.3954">
        <ele>230.9</ele>
        <time>2016-05-24T12:09:40Z</time>
      </trkpt>
      <trkpt lat="43.59733" lon="3.39536">
        <ele>231.5</ele>
        <time>2016-05-24T12:09:44Z</time>
      </trkpt>
      <trkpt lat="43.59725" lon="3.39533">
        <ele>232.6</ele>
        <time>2016-05-24T12:09:49Z</time>
      </trkpt>
      <trkpt lat="43.59717" lon="3.39531">
        <ele>233.7</ele>
        <time>2016-05-24T12:09:54Z</time>
      </trkpt>
      <trkpt lat="43.5971" lon="3.39529">
        <ele>234.4</ele>
        <time>2016-05-24T12:09:57Z</time>
      </trkpt>
      <trkpt lat="43.59702" lon="3.39526">
        <ele>235.4</ele>
        <time>2016-05-24T12:10:01Z</time>
      </trkpt>
      <trkpt lat="43.59694" lon="3.39521">
        <ele>236.6</ele>
        <time>2016-05-24T12:10:06Z</time>
      </trkpt>
      <trkpt lat="43.59685" lon="3.39517">
        <ele>237.6</ele>
        <time>2016-05-24T12:10:10Z</time>
      </trkpt>
      <trkpt lat="43.59677" lon="3.39514">
        <ele>238.6</ele>
        <time>2016-05-24T12:10:14Z</time>
      </trkpt>
      <trkpt lat="43.59668" lon="3.39513">
        <ele>239.6</ele>
        <time>2016-05-24T12:10:18Z</time>
      </trkpt>
      <trkpt lat="43.5966" lon="3.39512">
        <ele>240.7</ele>
        <time>2016-05-24T12:10:23Z</time>
      </trkpt>
      <trkpt lat="43.59652" lon="3.39511">
        <ele>241.7</ele>
        <time>2016-05-24T12:10:28Z</time>
      </trkpt>
      <trkpt lat="43.59643" lon="3.3951">
        <ele>242.2</ele>
        <time>2016-05-24T12:10:32Z</time>
      </trkpt>
      <trkpt lat="43.59635" lon="3.39512">
        <ele>242.8</ele>
        <time>2016-05-24T12:10:36Z</time>
      </trkpt>
      <trkpt lat="43.59627" lon="3.39516">
        <ele>243.2</ele>
        <time>2016-05-24T12:10:40Z</time>
      </trkpt>
      <trkpt lat="43.59619" lon="3.39519">
        <ele>243.6</ele>
        <time>2016-05-24T12:10:44Z</time>
      </trkpt>
      <trkpt lat="43.59613" lon="3.39522">
        <ele>244.1</ele>
        <time>2016-05-24T12:10:48Z</time>
      </trkpt>
      <trkpt lat="43.59606" lon="3.39525">
        <ele>244.9</ele>
        <time>2016-05-24T12:10:52Z</time>
      </trkpt>
      <trkpt lat="43.596" lon="3.39531">
        <ele>245.8</ele>
        <time>2016-05-24T12:10:56Z</time>
      </trkpt>
      <trkpt lat="43.59593" lon="3.39536">
        <ele>246.5</ele>
        <time>2016-05-24T12:11:01Z</time>
      </trkpt>
      <trkpt lat="43.59585" lon="3.3954">
        <ele>247.3</ele>
        <time>2016-05-24T12:11:06Z</time>
      </trkpt>
      <trkpt lat="43.59577" lon="3.39544">
        <ele>248</ele>
        <time>2016-05-24T12:11:10Z</time>
      </trkpt>
      <trkpt lat="43.59569" lon="3.39545">
        <ele>248.7</ele>
        <time>2016-05-24T12:11:14Z</time>
      </trkpt>
      <trkpt lat="43.59562" lon="3.39546">
        <ele>249.3</ele>
        <time>2016-05-24T12:11:18Z</time>
      </trkpt>
      <trkpt lat="43.59554" lon="3.39545">
        <ele>249.8</ele>
        <time>2016-05-24T12:11:22Z</time>
      </trkpt>
      <trkpt lat="43.59547" lon="3.39544">
        <ele>250.4</ele>
        <time>2016-05-24T12:11:26Z</time>
      </trkpt>
      <trkpt lat="43.59539" lon="3.39544">
        <ele>251.3</ele>
        <time>2016-05-24T12:11:30Z</time>
      </trkpt>
      <trkpt lat="43.59531" lon="3.39543">
        <ele>252.4</ele>
        <time>2016-05-24T12:11:34Z</time>
      </trkpt>
      <trkpt lat="43.59522" lon="3.39542">
        <ele>253.3</ele>
        <time>2016-05-24T12:11:38Z</time>
      </trkpt>
      <trkpt lat="43.59514" lon="3.3954">
        <ele>253.9</ele>
        <time>2016-05-24T12:11:42Z</time>
      </trkpt>
      <trkpt lat="43.59506" lon="3.39538">
        <ele>254.9</ele>
        <time>2016-05-24T12:11:47Z</time>
      </trkpt>
      <trkpt lat="43.59497" lon="3.39535">
        <ele>256</ele>
        <time>2016-05-24T12:11:51Z</time>
      </trkpt>
      <trkpt lat="43.59488" lon="3.39532">
        <ele>257.2</ele>
        <time>2016-05-24T12:11:55Z</time>
      </trkpt>
      <trkpt lat="43.59481" lon="3.39533">
        <ele>259.1</ele>
        <time>2016-05-24T12:12:01Z</time>
      </trkpt>
      <trkpt lat="43.59487" lon="3.39537">
        <ele>260.7</ele>
        <time>2016-05-24T12:12:07Z</time>
      </trkpt>
      <trkpt lat="43.59496" lon="3.39541">
        <ele>261.6</ele>
        <time>2016-05-24T12:12:11Z</time>
      </trkpt>
      <trkpt lat="43.59503" lon="3.39546">
        <ele>262.2</ele>
        <time>2016-05-24T12:12:15Z</time>
      </trkpt>
      <trkpt lat="43.59512" lon="3.3955">
        <ele>262.5</ele>
        <time>2016-05-24T12:12:20Z</time>
      </trkpt>
      <trkpt lat="43.59518" lon="3.39556">
        <ele>263</ele>
        <time>2016-05-24T12:12:25Z</time>
      </trkpt>
      <trkpt lat="43.59525" lon="3.39561">
        <ele>263.8</ele>
        <time>2016-05-24T12:12:29Z</time>
      </trkpt>
      <trkpt lat="43.59531" lon="3.39568">
        <ele>264.8</ele>
        <time>2016-05-24T12:12:34Z</time>
      </trkpt>
      <trkpt lat="43.59538" lon="3.39572">
        <ele>265.6</ele>
        <time>2016-05-24T12:12:38Z</time>
      </trkpt>
      <trkpt lat="43.59545" lon="3.39578">
        <ele>266.7</ele>
        <time>2016-05-24T12:12:43Z</time>
      </trkpt>
      <trkpt lat="43.59554" lon="3.39582">
        <ele>267.8</ele>
        <time>2016-05-24T12:12:48Z</time>
      </trkpt>
      <trkpt lat="43.59561" lon="3.39585">
        <ele>268.1</ele>
        <time>2016-05-24T12:12:51Z</time>
      </trkpt>
      <trkpt lat="43.59568" lon="3.39589">
        <ele>268.5</ele>
        <time>2016-05-24T12:12:54Z</time>
      </trkpt>
      <trkpt lat="43.59576" lon="3.39592">
        <ele>269.2</ele>
        <time>2016-05-24T12:12:59Z</time>
      </trkpt>
      <trkpt lat="43.59585" lon="3.39594">
        <ele>269.8</ele>
        <time>2016-05-24T12:13:03Z</time>
      </trkpt>
      <trkpt lat="43.59594" lon="3.39596">
        <ele>270.1</ele>
        <time>2016-05-24T12:13:06Z</time>
      </trkpt>
      <trkpt lat="43.59602" lon="3.39598">
        <ele>271</ele>
        <time>2016-05-24T12:13:10Z</time>
      </trkpt>
      <trkpt lat="43.59606" lon="3.39608">
        <ele>271.6</ele>
        <time>2016-05-24T12:13:13Z</time>
      </trkpt>
      <trkpt lat="43.59599" lon="3.39612">
        <ele>272.3</ele>
        <time>2016-05-24T12:13:17Z</time>
      </trkpt>
      <trkpt lat="43.59591" lon="3.39615">
        <ele>272.8</ele>
        <time>2016-05-24T12:13:21Z</time>
      </trkpt>
      <trkpt lat="43.59583" lon="3.39619">
        <ele>273.5</ele>
        <time>2016-05-24T12:13:25Z</time>
      </trkpt>
      <trkpt lat="43.59575" lon="3.39622">
        <ele>274.1</ele>
        <time>2016-05-24T12:13:29Z</time>
      </trkpt>
      <trkpt lat="43.59567" lon="3.39622">
        <ele>274.6</ele>
        <time>2016-05-24T12:13:33Z</time>
      </trkpt>
      <trkpt lat="43.59559" lon="3.39622">
        <ele>275.1</ele>
        <time>2016-05-24T12:13:37Z</time>
      </trkpt>
      <trkpt lat="43.5955" lon="3.39621">
        <ele>275.5</ele>
        <time>2016-05-24T12:13:41Z</time>
      </trkpt>
      <trkpt lat="43.59542" lon="3.39619">
        <ele>276</ele>
        <time>2016-05-24T12:13:44Z</time>
      </trkpt>
      <trkpt lat="43.59535" lon="3.39617">
        <ele>276.7</ele>
        <time>2016-05-24T12:13:48Z</time>
      </trkpt>
      <trkpt lat="43.59526" lon="3.39613">
        <ele>277.3</ele>
        <time>2016-05-24T12:13:52Z</time>
      </trkpt>
      <trkpt lat="43.59518" lon="3.3961">
        <ele>278.2</ele>
        <time>2016-05-24T12:13:56Z</time>
      </trkpt>
      <trkpt lat="43.59511" lon="3.39608">
        <ele>278.7</ele>
        <time>2016-05-24T12:13:59Z</time>
      </trkpt>
      <trkpt lat="43.59503" lon="3.39606">
        <ele>279.2</ele>
        <time>2016-05-24T12:14:02Z</time>
      </trkpt>
      <trkpt lat="43.59495" lon="3.39603">
        <ele>279.7</ele>
        <time>2016-05-24T12:14:06Z</time>
      </trkpt>
      <trkpt lat="43.59487" lon="3.39601">
        <ele>280.2</ele>
        <time>2016-05-24T12:14:10Z</time>
      </trkpt>
      <trkpt lat="43.59478" lon="3.39597">
        <ele>280.9</ele>
        <time>2016-05-24T12:14:14Z</time>
      </trkpt>
      <trkpt lat="43.5947" lon="3.39594">
        <ele>281.9</ele>
        <time>2016-05-24T12:14:18Z</time>
      </trkpt>
      <trkpt lat="43.59462" lon="3.39592">
        <ele>283</ele>
        <time>2016-05-24T12:14:23Z</time>
      </trkpt>
      <trkpt lat="43.59454" lon="3.39591">
        <ele>283.6</ele>
        <time>2016-05-24T12:14:26Z</time>
      </trkpt>
      <trkpt lat="43.59446" lon="3.39588">
        <ele>284.2</ele>
        <time>2016-05-24T12:14:29Z</time>
      </trkpt>
      <trkpt lat="43.59436" lon="3.39586">
        <ele>285</ele>
        <time>2016-05-24T12:14:33Z</time>
      </trkpt>
      <trkpt lat="43.59428" lon="3.39584">
        <ele>286.1</ele>
        <time>2016-05-24T12:14:37Z</time>
      </trkpt>
      <trkpt lat="43.59419" lon="3.39581">
        <ele>286.9</ele>
        <time>2016-05-24T12:14:41Z</time>
      </trkpt>
      <trkpt lat="43.59412" lon="3.39579">
        <ele>287.6</ele>
        <time>2016-05-24T12:14:44Z</time>
      </trkpt>
      <trkpt lat="43.59404" lon="3.39577">
        <ele>288.6</ele>
        <time>2016-05-24T12:14:48Z</time>
      </trkpt>
      <trkpt lat="43.59396" lon="3.39574">
        <ele>289.3</ele>
        <time>2016-05-24T12:14:51Z</time>
      </trkpt>
      <trkpt lat="43.59387" lon="3.39572">
        <ele>290</ele>
        <time>2016-05-24T12:14:54Z</time>
      </trkpt>
      <trkpt lat="43.59378" lon="3.39569">
        <ele>290.8</ele>
        <time>2016-05-24T12:14:58Z</time>
      </trkpt>
      <trkpt lat="43.59369" lon="3.39567">
        <ele>291.7</ele>
        <time>2016-05-24T12:15:02Z</time>
      </trkpt>
      <trkpt lat="43.5936" lon="3.39566">
        <ele>292.2</ele>
        <time>2016-05-24T12:15:06Z</time>
      </trkpt>
      <trkpt lat="43.59351" lon="3.39567">
        <ele>292.9</ele>
        <time>2016-05-24T12:15:11Z</time>
      </trkpt>
      <trkpt lat="43.59341" lon="3.39567">
        <ele>293.5</ele>
        <time>2016-05-24T12:15:15Z</time>
      </trkpt>
      <trkpt lat="43.59332" lon="3.39568">
        <ele>294.1</ele>
        <time>2016-05-24T12:15:19Z</time>
      </trkpt>
      <trkpt lat="43.59324" lon="3.39568">
        <ele>294.7</ele>
        <time>2016-05-24T12:15:23Z</time>
      </trkpt>
      <trkpt lat="43.59317" lon="3.3957">
        <ele>295.1</ele>
        <time>2016-05-24T12:15:26Z</time>
      </trkpt>
      <trkpt lat="43.59308" lon="3.39573">
        <ele>295.9</ele>
        <time>2016-05-24T12:15:31Z</time>
      </trkpt>
      <trkpt lat="43.59302" lon="3.39578">
        <ele>296.3</ele>
        <time>2016-05-24T12:15:34Z</time>
      </trkpt>
      <trkpt lat="43.59295" lon="3.39583">
        <ele>296.6</ele>
        <time>2016-05-24T12:15:37Z</time>
      </trkpt>
      <trkpt lat="43.59288" lon="3.39588">
        <ele>297.2</ele>
        <time>2016-05-24T12:15:41Z</time>
      </trkpt>
      <trkpt lat="43.59281" lon="3.39593">
        <ele>297.9</ele>
        <time>2016-05-24T12:15:45Z</time>
      </trkpt>
      <trkpt lat="43.59275" lon="3.39603">
        <ele>298.7</ele>
        <time>2016-05-24T12:15:49Z</time>
      </trkpt>
      <trkpt lat="43.5927" lon="3.39612">
        <ele>299.2</ele>
        <time>2016-05-24T12:15:52Z</time>
      </trkpt>
      <trkpt lat="43.59265" lon="3.39619">
        <ele>299.8</ele>
        <time>2016-05-24T12:15:55Z</time>
      </trkpt>
      <trkpt lat="43.59258" lon="3.39616">
        <ele>300.4</ele>
        <time>2016-05-24T12:15:59Z</time>
      </trkpt>
      <trkpt lat="43.59251" lon="3.39609">
        <ele>300.9</ele>
        <time>2016-05-24T12:16:02Z</time>
      </trkpt>
      <trkpt lat="43.59246" lon="3.39602">
        <ele>301.4</ele>
        <time>2016-05-24T12:16:05Z</time>
      </trkpt>
      <trkpt lat="43.5924" lon="3.39594">
        <ele>301.9</ele>
        <time>2016-05-24T12:16:08Z</time>
      </trkpt>
      <trkpt lat="43.59234" lon="3.39587">
        <ele>302.4</ele>
        <time>2016-05-24T12:16:11Z</time>
      </trkpt>
      <trkpt lat="43.59229" lon="3.3958">
        <ele>302.8</ele>
        <time>2016-05-24T12:16:14Z</time>
      </trkpt>
      <trkpt lat="43.59221" lon="3.39572">
        <ele>303.4</ele>
        <time>2016-05-24T12:16:18Z</time>
      </trkpt>
      <trkpt lat="43.59215" lon="3.39564">
        <ele>304.1</ele>
        <time>2016-05-24T12:16:22Z</time>
      </trkpt>
      <trkpt lat="43.59209" lon="3.39555">
        <ele>304.5</ele>
        <time>2016-05-24T12:16:25Z</time>
      </trkpt>
      <trkpt lat="43.59205" lon="3.39547">
        <ele>304.7</ele>
        <time>2016-05-24T12:16:29Z</time>
      </trkpt>
      <trkpt lat="43.59201" lon="3.39538">
        <ele>305.5</ele>
        <time>2016-05-24T12:16:33Z</time>
      </trkpt>
      <trkpt lat="43.59195" lon="3.39528">
        <ele>306.2</ele>
        <time>2016-05-24T12:16:37Z</time>
      </trkpt>
      <trkpt lat="43.5919" lon="3.39518">
        <ele>306.6</ele>
        <time>2016-05-24T12:16:40Z</time>
      </trkpt>
      <trkpt lat="43.59185" lon="3.39509">
        <ele>307.3</ele>
        <time>2016-05-24T12:16:44Z</time>
      </trkpt>
      <trkpt lat="43.5918" lon="3.39501">
        <ele>308.1</ele>
        <time>2016-05-24T12:16:48Z</time>
      </trkpt>
      <trkpt lat="43.59175" lon="3.39493">
        <ele>308.8</ele>
        <time>2016-05-24T12:16:52Z</time>
      </trkpt>
      <trkpt lat="43.59168" lon="3.39485">
        <ele>309.7</ele>
        <time>2016-05-24T12:16:56Z</time>
      </trkpt>
      <trkpt lat="43.59162" lon="3.39477">
        <ele>310.5</ele>
        <time>2016-05-24T12:17:00Z</time>
      </trkpt>
      <trkpt lat="43.59157" lon="3.39467">
        <ele>311.2</ele>
        <time>2016-05-24T12:17:04Z</time>
      </trkpt>
      <trkpt lat="43.59151" lon="3.39458">
        <ele>311.7</ele>
        <time>2016-05-24T12:17:08Z</time>
      </trkpt>
      <trkpt lat="43.59145" lon="3.3945">
        <ele>312.2</ele>
        <time>2016-05-24T12:17:12Z</time>
      </trkpt>
      <trkpt lat="43.5914" lon="3.39442">
        <ele>312.6</ele>
        <time>2016-05-24T12:17:15Z</time>
      </trkpt>
      <trkpt lat="43.59136" lon="3.39432">
        <ele>313.1</ele>
        <time>2016-05-24T12:17:18Z</time>
      </trkpt>
      <trkpt lat="43.59135" lon="3.39419">
        <ele>313.7</ele>
        <time>2016-05-24T12:17:22Z</time>
      </trkpt>
      <trkpt lat="43.59133" lon="3.39407">
        <ele>314.2</ele>
        <time>2016-05-24T12:17:25Z</time>
      </trkpt>
      <trkpt lat="43.59132" lon="3.39397">
        <ele>314.7</ele>
        <time>2016-05-24T12:17:28Z</time>
      </trkpt>
      <trkpt lat="43.5913" lon="3.39386">
        <ele>315.2</ele>
        <time>2016-05-24T12:17:31Z</time>
      </trkpt>
      <trkpt lat="43.59128" lon="3.39375">
        <ele>315.6</ele>
        <time>2016-05-24T12:17:34Z</time>
      </trkpt>
      <trkpt lat="43.59123" lon="3.39376">
        <ele>316.9</ele>
        <time>2016-05-24T12:17:41Z</time>
      </trkpt>
      <trkpt lat="43.59124" lon="3.39386">
        <ele>317.8</ele>
        <time>2016-05-24T12:17:45Z</time>
      </trkpt>
      <trkpt lat="43.59123" lon="3.39399">
        <ele>318.5</ele>
        <time>2016-05-24T12:17:49Z</time>
      </trkpt>
      <trkpt lat="43.59122" lon="3.39409">
        <ele>319.1</ele>
        <time>2016-05-24T12:17:52Z</time>
      </trkpt>
      <trkpt lat="43.59122" lon="3.3942">
        <ele>319.8</ele>
        <time>2016-05-24T12:17:55Z</time>
      </trkpt>
      <trkpt lat="43.59122" lon="3.39431">
        <ele>320.4</ele>
        <time>2016-05-24T12:17:58Z</time>
      </trkpt>
      <trkpt lat="43.59121" lon="3.39444">
        <ele>321</ele>
        <time>2016-05-24T12:18:02Z</time>
      </trkpt>
      <trkpt lat="43.59122" lon="3.39454">
        <ele>321.6</ele>
        <time>2016-05-24T12:18:05Z</time>
      </trkpt>
      <trkpt lat="43.59125" lon="3.39466">
        <ele>322.5</ele>
        <time>2016-05-24T12:18:09Z</time>
      </trkpt>
      <trkpt lat="43.59128" lon="3.39476">
        <ele>323.2</ele>
        <time>2016-05-24T12:18:12Z</time>
      </trkpt>
      <trkpt lat="43.59131" lon="3.39488">
        <ele>324</ele>
        <time>2016-05-24T12:18:16Z</time>
      </trkpt>
      <trkpt lat="43.59134" lon="3.39498">
        <ele>324.3</ele>
        <time>2016-05-24T12:18:18Z</time>
      </trkpt>
      <trkpt lat="43.59138" lon="3.3951">
        <ele>324.7</ele>
        <time>2016-05-24T12:18:21Z</time>
      </trkpt>
      <trkpt lat="43.59141" lon="3.39521">
        <ele>325</ele>
        <time>2016-05-24T12:18:24Z</time>
      </trkpt>
      <trkpt lat="43.59142" lon="3.39532">
        <ele>325.3</ele>
        <time>2016-05-24T12:18:28Z</time>
      </trkpt>
      <trkpt lat="43.59144" lon="3.39545">
        <ele>325.7</ele>
        <time>2016-05-24T12:18:32Z</time>
      </trkpt>
      <trkpt lat="43.59146" lon="3.39557">
        <ele>326</ele>
        <time>2016-05-24T12:18:35Z</time>
      </trkpt>
      <trkpt lat="43.59147" lon="3.39568">
        <ele>326.5</ele>
        <time>2016-05-24T12:18:38Z</time>
      </trkpt>
      <trkpt lat="43.59148" lon="3.39578">
        <ele>327</ele>
        <time>2016-05-24T12:18:41Z</time>
      </trkpt>
      <trkpt lat="43.59149" lon="3.39588">
        <ele>327.5</ele>
        <time>2016-05-24T12:18:44Z</time>
      </trkpt>
      <trkpt lat="43.59149" lon="3.39599">
        <ele>328</ele>
        <time>2016-05-24T12:18:47Z</time>
      </trkpt>
      <trkpt lat="43.5915" lon="3.39611">
        <ele>328.5</ele>
        <time>2016-05-24T12:18:50Z</time>
      </trkpt>
      <trkpt lat="43.59151" lon="3.39623">
        <ele>328.9</ele>
        <time>2016-05-24T12:18:53Z</time>
      </trkpt>
      <trkpt lat="43.59151" lon="3.39635">
        <ele>329.3</ele>
        <time>2016-05-24T12:18:56Z</time>
      </trkpt>
      <trkpt lat="43.5915" lon="3.39646">
        <ele>329.6</ele>
        <time>2016-05-24T12:18:59Z</time>
      </trkpt>
      <trkpt lat="43.59149" lon="3.39659">
        <ele>330.1</ele>
        <time>2016-05-24T12:19:03Z</time>
      </trkpt>
      <trkpt lat="43.59147" lon="3.39669">
        <ele>330.6</ele>
        <time>2016-05-24T12:19:06Z</time>
      </trkpt>
      <trkpt lat="43.59145" lon="3.39683">
        <ele>330.8</ele>
        <time>2016-05-24T12:19:10Z</time>
      </trkpt>
      <trkpt lat="43.59143" lon="3.39695">
        <ele>331.1</ele>
        <time>2016-05-24T12:19:13Z</time>
      </trkpt>
      <trkpt lat="43.59142" lon="3.39709">
        <ele>331.5</ele>
        <time>2016-05-24T12:19:16Z</time>
      </trkpt>
      <trkpt lat="43.59142" lon="3.39719">
        <ele>331.9</ele>
        <time>2016-05-24T12:19:18Z</time>
      </trkpt>
      <trkpt lat="43.59142" lon="3.3973">
        <ele>332.2</ele>
        <time>2016-05-24T12:19:20Z</time>
      </trkpt>
      <trkpt lat="43.5914" lon="3.39741">
        <ele>332.5</ele>
        <time>2016-05-24T12:19:22Z</time>
      </trkpt>
      <trkpt lat="43.59138" lon="3.39753">
        <ele>332.8</ele>
        <time>2016-05-24T12:19:25Z</time>
      </trkpt>
      <trkpt lat="43.59133" lon="3.39765">
        <ele>333.1</ele>
        <time>2016-05-24T12:19:28Z</time>
      </trkpt>
      <trkpt lat="43.59127" lon="3.39776">
        <ele>333.4</ele>
        <time>2016-05-24T12:19:31Z</time>
      </trkpt>
      <trkpt lat="43.59121" lon="3.39787">
        <ele>333.6</ele>
        <time>2016-05-24T12:19:34Z</time>
      </trkpt>
      <trkpt lat="43.59116" lon="3.39795">
        <ele>333.8</ele>
        <time>2016-05-24T12:19:36Z</time>
      </trkpt>
      <trkpt lat="43.59111" lon="3.39803">
        <ele>334.3</ele>
        <time>2016-05-24T12:19:38Z</time>
      </trkpt>
      <trkpt lat="43.59106" lon="3.39812">
        <ele>335.2</ele>
        <time>2016-05-24T12:19:40Z</time>
      </trkpt>
      <trkpt lat="43.59099" lon="3.39823">
        <ele>336</ele>
        <time>2016-05-24T12:19:42Z</time>
      </trkpt>
      <trkpt lat="43.5909" lon="3.39834">
        <ele>335.7</ele>
        <time>2016-05-24T12:19:44Z</time>
      </trkpt>
      <trkpt lat="43.59078" lon="3.39842">
        <ele>335.6</ele>
        <time>2016-05-24T12:19:46Z</time>
      </trkpt>
      <trkpt lat="43.59066" lon="3.39841">
        <ele>335.2</ele>
        <time>2016-05-24T12:19:48Z</time>
      </trkpt>
      <trkpt lat="43.59055" lon="3.3984">
        <ele>335.1</ele>
        <time>2016-05-24T12:19:50Z</time>
      </trkpt>
      <trkpt lat="43.59044" lon="3.39839">
        <ele>334.8</ele>
        <time>2016-05-24T12:19:52Z</time>
      </trkpt>
      <trkpt lat="43.59034" lon="3.39841">
        <ele>334.7</ele>
        <time>2016-05-24T12:19:54Z</time>
      </trkpt>
      <trkpt lat="43.59024" lon="3.39843">
        <ele>334.5</ele>
        <time>2016-05-24T12:19:56Z</time>
      </trkpt>
      <trkpt lat="43.59013" lon="3.39844">
        <ele>335.3</ele>
        <time>2016-05-24T12:19:58Z</time>
      </trkpt>
      <trkpt lat="43.59002" lon="3.39839">
        <ele>334.8</ele>
        <time>2016-05-24T12:20:00Z</time>
      </trkpt>
      <trkpt lat="43.58991" lon="3.3983">
        <ele>333.5</ele>
        <time>2016-05-24T12:20:02Z</time>
      </trkpt>
      <trkpt lat="43.58986" lon="3.39823">
        <ele>333.2</ele>
        <time>2016-05-24T12:20:03Z</time>
      </trkpt>
      <trkpt lat="43.5898" lon="3.39815">
        <ele>333.2</ele>
        <time>2016-05-24T12:20:04Z</time>
      </trkpt>
      <trkpt lat="43.58971" lon="3.39811">
        <ele>332.9</ele>
        <time>2016-05-24T12:20:06Z</time>
      </trkpt>
      <trkpt lat="43.58963" lon="3.3981">
        <ele>332.6</ele>
        <time>2016-05-24T12:20:06Z</time>
      </trkpt>
      <trkpt lat="43.58956" lon="3.39808">
        <ele>332</ele>
        <time>2016-05-24T12:20:07Z</time>
      </trkpt>
      <trkpt lat="43.58947" lon="3.39806">
        <ele>330.8</ele>
        <time>2016-05-24T12:20:08Z</time>
      </trkpt>
      <trkpt lat="43.58939" lon="3.39808">
        <ele>330.6</ele>
        <time>2016-05-24T12:20:09Z</time>
      </trkpt>
      <trkpt lat="43.58932" lon="3.3981">
        <ele>330.7</ele>
        <time>2016-05-24T12:20:10Z</time>
      </trkpt>
      <trkpt lat="43.58925" lon="3.39812">
        <ele>330.8</ele>
        <time>2016-05-24T12:20:11Z</time>
      </trkpt>
      <trkpt lat="43.5891" lon="3.39816">
        <ele>330.2</ele>
        <time>2016-05-24T12:20:13Z</time>
      </trkpt>
      <trkpt lat="43.58903" lon="3.39818">
        <ele>330</ele>
        <time>2016-05-24T12:20:14Z</time>
      </trkpt>
      <trkpt lat="43.58892" lon="3.39822">
        <ele>330</ele>
        <time>2016-05-24T12:20:16Z</time>
      </trkpt>
      <trkpt lat="43.58884" lon="3.39827">
        <ele>329.6</ele>
        <time>2016-05-24T12:20:18Z</time>
      </trkpt>
      <trkpt lat="43.58876" lon="3.3983">
        <ele>330.3</ele>
        <time>2016-05-24T12:20:20Z</time>
      </trkpt>
      <trkpt lat="43.58868" lon="3.39834">
        <ele>329.8</ele>
        <time>2016-05-24T12:20:22Z</time>
      </trkpt>
      <trkpt lat="43.5886" lon="3.39836">
        <ele>329.6</ele>
        <time>2016-05-24T12:20:24Z</time>
      </trkpt>
      <trkpt lat="43.58852" lon="3.39838">
        <ele>329.4</ele>
        <time>2016-05-24T12:20:26Z</time>
      </trkpt>
      <trkpt lat="43.58844" lon="3.39839">
        <ele>329.9</ele>
        <time>2016-05-24T12:20:28Z</time>
      </trkpt>
      <trkpt lat="43.58836" lon="3.39841">
        <ele>329.9</ele>
        <time>2016-05-24T12:20:30Z</time>
      </trkpt>
      <trkpt lat="43.58826" lon="3.39841">
        <ele>329.9</ele>
        <time>2016-05-24T12:20:33Z</time>
      </trkpt>
      <trkpt lat="43.58815" lon="3.39842">
        <ele>329.5</ele>
        <time>2016-05-24T12:20:36Z</time>
      </trkpt>
      <trkpt lat="43.58805" lon="3.39841">
        <ele>329.5</ele>
        <time>2016-05-24T12:20:39Z</time>
      </trkpt>
      <trkpt lat="43.58796" lon="3.3984">
        <ele>329.3</ele>
        <time>2016-05-24T12:20:41Z</time>
      </trkpt>
      <trkpt lat="43.58788" lon="3.39839">
        <ele>328.4</ele>
        <time>2016-05-24T12:20:43Z</time>
      </trkpt>
      <trkpt lat="43.58778" lon="3.39839">
        <ele>329.5</ele>
        <time>2016-05-24T12:20:46Z</time>
      </trkpt>
      <trkpt lat="43.58767" lon="3.39841">
        <ele>330.5</ele>
        <time>2016-05-24T12:20:49Z</time>
      </trkpt>
      <trkpt lat="43.58757" lon="3.39842">
        <ele>331</ele>
        <time>2016-05-24T12:20:52Z</time>
      </trkpt>
      <trkpt lat="43.58747" lon="3.39844">
        <ele>331.2</ele>
        <time>2016-05-24T12:20:55Z</time>
      </trkpt>
      <trkpt lat="43.58737" lon="3.39844">
        <ele>331.4</ele>
        <time>2016-05-24T12:20:58Z</time>
      </trkpt>
      <trkpt lat="43.58727" lon="3.39845">
        <ele>331.5</ele>
        <time>2016-05-24T12:21:01Z</time>
      </trkpt>
      <trkpt lat="43.5872" lon="3.39845">
        <ele>331.6</ele>
        <time>2016-05-24T12:21:03Z</time>
      </trkpt>
      <trkpt lat="43.5871" lon="3.39845">
        <ele>331.7</ele>
        <time>2016-05-24T12:21:06Z</time>
      </trkpt>
      <trkpt lat="43.58699" lon="3.39844">
        <ele>331.8</ele>
        <time>2016-05-24T12:21:09Z</time>
      </trkpt>
      <trkpt lat="43.58688" lon="3.39844">
        <ele>331.6</ele>
        <time>2016-05-24T12:21:12Z</time>
      </trkpt>
      <trkpt lat="43.58679" lon="3.39843">
        <ele>331.4</ele>
        <time>2016-05-24T12:21:15Z</time>
      </trkpt>
      <trkpt lat="43.5867" lon="3.39844">
        <ele>331.5</ele>
        <time>2016-05-24T12:21:18Z</time>
      </trkpt>
      <trkpt lat="43.5866" lon="3.39844">
        <ele>332.5</ele>
        <time>2016-05-24T12:21:21Z</time>
      </trkpt>
      <trkpt lat="43.58651" lon="3.39843">
        <ele>333.3</ele>
        <time>2016-05-24T12:21:24Z</time>
      </trkpt>
      <trkpt lat="43.58643" lon="3.39844">
        <ele>333.3</ele>
        <time>2016-05-24T12:21:26Z</time>
      </trkpt>
      <trkpt lat="43.58634" lon="3.39844">
        <ele>333.3</ele>
        <time>2016-05-24T12:21:29Z</time>
      </trkpt>
      <trkpt lat="43.58623" lon="3.39847">
        <ele>333.4</ele>
        <time>2016-05-24T12:21:32Z</time>
      </trkpt>
      <trkpt lat="43.58617" lon="3.3985">
        <ele>333.4</ele>
        <time>2016-05-24T12:21:34Z</time>
      </trkpt>
      <trkpt lat="43.58609" lon="3.39857">
        <ele>333.2</ele>
        <time>2016-05-24T12:21:37Z</time>
      </trkpt>
      <trkpt lat="43.58602" lon="3.39862">
        <ele>333.1</ele>
        <time>2016-05-24T12:21:39Z</time>
      </trkpt>
      <trkpt lat="43.58595" lon="3.39867">
        <ele>333</ele>
        <time>2016-05-24T12:21:41Z</time>
      </trkpt>
      <trkpt lat="43.58589" lon="3.39872">
        <ele>332.9</ele>
        <time>2016-05-24T12:21:43Z</time>
      </trkpt>
      <trkpt lat="43.58583" lon="3.39877">
        <ele>333</ele>
        <time>2016-05-24T12:21:45Z</time>
      </trkpt>
      <trkpt lat="43.58576" lon="3.39884">
        <ele>333.1</ele>
        <time>2016-05-24T12:21:48Z</time>
      </trkpt>
      <trkpt lat="43.58568" lon="3.39891">
        <ele>333.3</ele>
        <time>2016-05-24T12:21:51Z</time>
      </trkpt>
      <trkpt lat="43.58559" lon="3.39897">
        <ele>333.4</ele>
        <time>2016-05-24T12:21:54Z</time>
      </trkpt>
      <trkpt lat="43.5855" lon="3.39904">
        <ele>333.6</ele>
        <time>2016-05-24T12:21:57Z</time>
      </trkpt>
      <trkpt lat="43.58541" lon="3.3991">
        <ele>333.5</ele>
        <time>2016-05-24T12:22:00Z</time>
      </trkpt>
      <trkpt lat="43.58531" lon="3.39915">
        <ele>334.2</ele>
        <time>2016-05-24T12:22:03Z</time>
      </trkpt>
      <trkpt lat="43.58522" lon="3.39919">
        <ele>334.3</ele>
        <time>2016-05-24T12:22:06Z</time>
      </trkpt>
      <trkpt lat="43.58514" lon="3.39921">
        <ele>334.2</ele>
        <time>2016-05-24T12:22:09Z</time>
      </trkpt>
      <trkpt lat="43.58507" lon="3.39924">
        <ele>334.3</ele>
        <time>2016-05-24T12:22:12Z</time>
      </trkpt>
      <trkpt lat="43.58498" lon="3.39928">
        <ele>334.5</ele>
        <time>2016-05-24T12:22:15Z</time>
      </trkpt>
      <trkpt lat="43.58489" lon="3.39931">
        <ele>334.6</ele>
        <time>2016-05-24T12:22:19Z</time>
      </trkpt>
      <trkpt lat="43.58481" lon="3.3993">
        <ele>334.6</ele>
        <time>2016-05-24T12:22:22Z</time>
      </trkpt>
      <trkpt lat="43.58471" lon="3.3993">
        <ele>334.6</ele>
        <time>2016-05-24T12:22:26Z</time>
      </trkpt>
      <trkpt lat="43.58461" lon="3.3993">
        <ele>334.4</ele>
        <time>2016-05-24T12:22:29Z</time>
      </trkpt>
      <trkpt lat="43.58451" lon="3.39928">
        <ele>334.2</ele>
        <time>2016-05-24T12:22:32Z</time>
      </trkpt>
      <trkpt lat="43.58443" lon="3.39928">
        <ele>334.1</ele>
        <time>2016-05-24T12:22:34Z</time>
      </trkpt>
      <trkpt lat="43.58435" lon="3.3993">
        <ele>334.7</ele>
        <time>2016-05-24T12:22:36Z</time>
      </trkpt>
      <trkpt lat="43.58427" lon="3.39934">
        <ele>334.9</ele>
        <time>2016-05-24T12:22:38Z</time>
      </trkpt>
      <trkpt lat="43.58418" lon="3.39938">
        <ele>334.4</ele>
        <time>2016-05-24T12:22:40Z</time>
      </trkpt>
      <trkpt lat="43.5841" lon="3.39941">
        <ele>333.2</ele>
        <time>2016-05-24T12:22:42Z</time>
      </trkpt>
      <trkpt lat="43.58401" lon="3.39936">
        <ele>332.4</ele>
        <time>2016-05-24T12:22:44Z</time>
      </trkpt>
      <trkpt lat="43.58395" lon="3.39924">
        <ele>330.6</ele>
        <time>2016-05-24T12:22:46Z</time>
      </trkpt>
      <trkpt lat="43.58395" lon="3.39909">
        <ele>328.5</ele>
        <time>2016-05-24T12:22:48Z</time>
      </trkpt>
      <trkpt lat="43.58397" lon="3.39894">
        <ele>326.5</ele>
        <time>2016-05-24T12:22:50Z</time>
      </trkpt>
      <trkpt lat="43.58404" lon="3.39883">
        <ele>324.2</ele>
        <time>2016-05-24T12:22:52Z</time>
      </trkpt>
      <trkpt lat="43.58411" lon="3.39871">
        <ele>323.5</ele>
        <time>2016-05-24T12:22:54Z</time>
      </trkpt>
      <trkpt lat="43.58417" lon="3.39855">
        <ele>322.9</ele>
        <time>2016-05-24T12:22:56Z</time>
      </trkpt>
      <trkpt lat="43.58421" lon="3.39846">
        <ele>323.1</ele>
        <time>2016-05-24T12:22:57Z</time>
      </trkpt>
      <trkpt lat="43.58425" lon="3.39836">
        <ele>323.2</ele>
        <time>2016-05-24T12:22:58Z</time>
      </trkpt>
      <trkpt lat="43.58429" lon="3.3982">
        <ele>322.8</ele>
        <time>2016-05-24T12:23:01Z</time>
      </trkpt>
      <trkpt lat="43.58426" lon="3.39807">
        <ele>321.4</ele>
        <time>2016-05-24T12:23:03Z</time>
      </trkpt>
      <trkpt lat="43.58417" lon="3.39796">
        <ele>319.3</ele>
        <time>2016-05-24T12:23:05Z</time>
      </trkpt>
      <trkpt lat="43.58405" lon="3.39785">
        <ele>316.7</ele>
        <time>2016-05-24T12:23:07Z</time>
      </trkpt>
      <trkpt lat="43.58394" lon="3.39776">
        <ele>314.9</ele>
        <time>2016-05-24T12:23:09Z</time>
      </trkpt>
      <trkpt lat="43.58385" lon="3.39766">
        <ele>313</ele>
        <time>2016-05-24T12:23:11Z</time>
      </trkpt>
      <trkpt lat="43.58377" lon="3.3975">
        <ele>312.3</ele>
        <time>2016-05-24T12:23:13Z</time>
      </trkpt>
      <trkpt lat="43.58375" lon="3.39739">
        <ele>311.2</ele>
        <time>2016-05-24T12:23:14Z</time>
      </trkpt>
      <trkpt lat="43.58375" lon="3.39727">
        <ele>311.1</ele>
        <time>2016-05-24T12:23:15Z</time>
      </trkpt>
      <trkpt lat="43.58375" lon="3.39714">
        <ele>311.1</ele>
        <time>2016-05-24T12:23:16Z</time>
      </trkpt>
      <trkpt lat="43.58375" lon="3.39701">
        <ele>311.1</ele>
        <time>2016-05-24T12:23:17Z</time>
      </trkpt>
      <trkpt lat="43.58374" lon="3.39688">
        <ele>310.9</ele>
        <time>2016-05-24T12:23:18Z</time>
      </trkpt>
      <trkpt lat="43.58373" lon="3.39676">
        <ele>310.1</ele>
        <time>2016-05-24T12:23:19Z</time>
      </trkpt>
      <trkpt lat="43.58371" lon="3.39663">
        <ele>308.9</ele>
        <time>2016-05-24T12:23:20Z</time>
      </trkpt>
      <trkpt lat="43.5837" lon="3.3965">
        <ele>308.4</ele>
        <time>2016-05-24T12:23:21Z</time>
      </trkpt>
      <trkpt lat="43.58368" lon="3.39638">
        <ele>307.6</ele>
        <time>2016-05-24T12:23:22Z</time>
      </trkpt>
      <trkpt lat="43.5837" lon="3.39626">
        <ele>306.9</ele>
        <time>2016-05-24T12:23:23Z</time>
      </trkpt>
      <trkpt lat="43.58373" lon="3.39614">
        <ele>306.6</ele>
        <time>2016-05-24T12:23:24Z</time>
      </trkpt>
      <trkpt lat="43.58375" lon="3.39605">
        <ele>306.1</ele>
        <time>2016-05-24T12:23:25Z</time>
      </trkpt>
      <trkpt lat="43.58382" lon="3.39596">
        <ele>305.4</ele>
        <time>2016-05-24T12:23:26Z</time>
      </trkpt>
      <trkpt lat="43.58389" lon="3.39588">
        <ele>304.5</ele>
        <time>2016-05-24T12:23:27Z</time>
      </trkpt>
      <trkpt lat="43.5839" lon="3.39572">
        <ele>301.8</ele>
        <time>2016-05-24T12:23:29Z</time>
      </trkpt>
      <trkpt lat="43.58388" lon="3.39562">
        <ele>300.4</ele>
        <time>2016-05-24T12:23:30Z</time>
      </trkpt>
      <trkpt lat="43.58381" lon="3.39545">
        <ele>297.5</ele>
        <time>2016-05-24T12:23:32Z</time>
      </trkpt>
      <trkpt lat="43.58376" lon="3.39534">
        <ele>295.8</ele>
        <time>2016-05-24T12:23:33Z</time>
      </trkpt>
      <trkpt lat="43.58374" lon="3.39524">
        <ele>294.8</ele>
        <time>2016-05-24T12:23:34Z</time>
      </trkpt>
      <trkpt lat="43.58371" lon="3.3951">
        <ele>294.2</ele>
        <time>2016-05-24T12:23:36Z</time>
      </trkpt>
      <trkpt lat="43.58369" lon="3.39498">
        <ele>292.9</ele>
        <time>2016-05-24T12:23:38Z</time>
      </trkpt>
      <trkpt lat="43.58363" lon="3.39485">
        <ele>292.5</ele>
        <time>2016-05-24T12:23:41Z</time>
      </trkpt>
      <trkpt lat="43.5836" lon="3.39476">
        <ele>291.4</ele>
        <time>2016-05-24T12:23:43Z</time>
      </trkpt>
      <trkpt lat="43.58357" lon="3.39461">
        <ele>291.3</ele>
        <time>2016-05-24T12:23:46Z</time>
      </trkpt>
      <trkpt lat="43.58354" lon="3.3945">
        <ele>291</ele>
        <time>2016-05-24T12:23:48Z</time>
      </trkpt>
      <trkpt lat="43.5835" lon="3.3944">
        <ele>290.9</ele>
        <time>2016-05-24T12:23:50Z</time>
      </trkpt>
      <trkpt lat="43.58342" lon="3.3943">
        <ele>290.7</ele>
        <time>2016-05-24T12:23:53Z</time>
      </trkpt>
      <trkpt lat="43.58336" lon="3.39424">
        <ele>290.6</ele>
        <time>2016-05-24T12:23:55Z</time>
      </trkpt>
      <trkpt lat="43.5833" lon="3.39418">
        <ele>290.5</ele>
        <time>2016-05-24T12:23:57Z</time>
      </trkpt>
      <trkpt lat="43.58322" lon="3.3941">
        <ele>290.3</ele>
        <time>2016-05-24T12:24:00Z</time>
      </trkpt>
      <trkpt lat="43.58315" lon="3.39405">
        <ele>290.3</ele>
        <time>2016-05-24T12:24:03Z</time>
      </trkpt>
      <trkpt lat="43.58307" lon="3.39399">
        <ele>290</ele>
        <time>2016-05-24T12:24:06Z</time>
      </trkpt>
      <trkpt lat="43.58301" lon="3.39394">
        <ele>288.9</ele>
        <time>2016-05-24T12:24:08Z</time>
      </trkpt>
      <trkpt lat="43.58293" lon="3.39387">
        <ele>287.3</ele>
        <time>2016-05-24T12:24:10Z</time>
      </trkpt>
      <trkpt lat="43.58283" lon="3.39379">
        <ele>285.8</ele>
        <time>2016-05-24T12:24:12Z</time>
      </trkpt>
      <trkpt lat="43.58276" lon="3.39375">
        <ele>285.9</ele>
        <time>2016-05-24T12:24:13Z</time>
      </trkpt>
      <trkpt lat="43.58266" lon="3.39381">
        <ele>286.5</ele>
        <time>2016-05-24T12:24:15Z</time>
      </trkpt>
      <trkpt lat="43.5826" lon="3.39386">
        <ele>287.3</ele>
        <time>2016-05-24T12:24:17Z</time>
      </trkpt>
      <trkpt lat="43.58253" lon="3.39392">
        <ele>287.4</ele>
        <time>2016-05-24T12:24:20Z</time>
      </trkpt>
      <trkpt lat="43.58246" lon="3.39397">
        <ele>287.7</ele>
        <time>2016-05-24T12:24:24Z</time>
      </trkpt>
      <trkpt lat="43.58237" lon="3.39396">
        <ele>288.1</ele>
        <time>2016-05-24T12:24:28Z</time>
      </trkpt>
      <trkpt lat="43.58235" lon="3.39385">
        <ele>288.4</ele>
        <time>2016-05-24T12:24:32Z</time>
      </trkpt>
      <trkpt lat="43.58238" lon="3.39375">
        <ele>288.5</ele>
        <time>2016-05-24T12:24:34Z</time>
      </trkpt>
      <trkpt lat="43.58239" lon="3.39365">
        <ele>288.6</ele>
        <time>2016-05-24T12:24:36Z</time>
      </trkpt>
      <trkpt lat="43.58237" lon="3.39353">
        <ele>288.6</ele>
        <time>2016-05-24T12:24:38Z</time>
      </trkpt>
      <trkpt lat="43.58233" lon="3.39343">
        <ele>288.3</ele>
        <time>2016-05-24T12:24:40Z</time>
      </trkpt>
      <trkpt lat="43.58226" lon="3.39334">
        <ele>288.7</ele>
        <time>2016-05-24T12:24:43Z</time>
      </trkpt>
      <trkpt lat="43.58219" lon="3.39328">
        <ele>288.8</ele>
        <time>2016-05-24T12:24:45Z</time>
      </trkpt>
      <trkpt lat="43.58211" lon="3.39321">
        <ele>288.8</ele>
        <time>2016-05-24T12:24:47Z</time>
      </trkpt>
      <trkpt lat="43.58203" lon="3.39317">
        <ele>288.1</ele>
        <time>2016-05-24T12:24:49Z</time>
      </trkpt>
      <trkpt lat="43.58196" lon="3.39313">
        <ele>288.1</ele>
        <time>2016-05-24T12:24:51Z</time>
      </trkpt>
      <trkpt lat="43.58189" lon="3.3931">
        <ele>288.6</ele>
        <time>2016-05-24T12:24:53Z</time>
      </trkpt>
      <trkpt lat="43.58181" lon="3.39306">
        <ele>288.7</ele>
        <time>2016-05-24T12:24:56Z</time>
      </trkpt>
      <trkpt lat="43.58173" lon="3.39303">
        <ele>288.9</ele>
        <time>2016-05-24T12:24:58Z</time>
      </trkpt>
      <trkpt lat="43.58166" lon="3.39298">
        <ele>289</ele>
        <time>2016-05-24T12:25:00Z</time>
      </trkpt>
      <trkpt lat="43.58158" lon="3.39294">
        <ele>289</ele>
        <time>2016-05-24T12:25:02Z</time>
      </trkpt>
      <trkpt lat="43.58151" lon="3.3929">
        <ele>289</ele>
        <time>2016-05-24T12:25:04Z</time>
      </trkpt>
      <trkpt lat="43.58143" lon="3.39285">
        <ele>289.2</ele>
        <time>2016-05-24T12:25:07Z</time>
      </trkpt>
      <trkpt lat="43.58136" lon="3.3928">
        <ele>289.4</ele>
        <time>2016-05-24T12:25:10Z</time>
      </trkpt>
      <trkpt lat="43.58128" lon="3.39279">
        <ele>289.5</ele>
        <time>2016-05-24T12:25:13Z</time>
      </trkpt>
      <trkpt lat="43.58118" lon="3.3928">
        <ele>289.7</ele>
        <time>2016-05-24T12:25:16Z</time>
      </trkpt>
      <trkpt lat="43.58111" lon="3.39282">
        <ele>289.4</ele>
        <time>2016-05-24T12:25:18Z</time>
      </trkpt>
      <trkpt lat="43.58103" lon="3.39283">
        <ele>290.1</ele>
        <time>2016-05-24T12:25:20Z</time>
      </trkpt>
      <trkpt lat="43.58093" lon="3.39285">
        <ele>290.5</ele>
        <time>2016-05-24T12:25:22Z</time>
      </trkpt>
      <trkpt lat="43.58084" lon="3.3929">
        <ele>291.1</ele>
        <time>2016-05-24T12:25:24Z</time>
      </trkpt>
      <trkpt lat="43.58077" lon="3.39302">
        <ele>290.9</ele>
        <time>2016-05-24T12:25:26Z</time>
      </trkpt>
      <trkpt lat="43.58069" lon="3.39316">
        <ele>290.3</ele>
        <time>2016-05-24T12:25:28Z</time>
      </trkpt>
      <trkpt lat="43.5806" lon="3.39331">
        <ele>288.8</ele>
        <time>2016-05-24T12:25:30Z</time>
      </trkpt>
      <trkpt lat="43.58054" lon="3.39348">
        <ele>287.4</ele>
        <time>2016-05-24T12:25:32Z</time>
      </trkpt>
      <trkpt lat="43.58052" lon="3.39363">
        <ele>285.1</ele>
        <time>2016-05-24T12:25:34Z</time>
      </trkpt>
      <trkpt lat="43.58047" lon="3.39372">
        <ele>284.4</ele>
        <time>2016-05-24T12:25:35Z</time>
      </trkpt>
      <trkpt lat="43.58035" lon="3.39382">
        <ele>283.2</ele>
        <time>2016-05-24T12:25:37Z</time>
      </trkpt>
      <trkpt lat="43.58027" lon="3.39385">
        <ele>282.6</ele>
        <time>2016-05-24T12:25:38Z</time>
      </trkpt>
      <trkpt lat="43.5802" lon="3.39387">
        <ele>282.1</ele>
        <time>2016-05-24T12:25:39Z</time>
      </trkpt>
      <trkpt lat="43.58006" lon="3.39384">
        <ele>280.7</ele>
        <time>2016-05-24T12:25:41Z</time>
      </trkpt>
      <trkpt lat="43.57997" lon="3.39372">
        <ele>278.5</ele>
        <time>2016-05-24T12:25:43Z</time>
      </trkpt>
      <trkpt lat="43.57995" lon="3.39354">
        <ele>275.6</ele>
        <time>2016-05-24T12:25:45Z</time>
      </trkpt>
      <trkpt lat="43.57995" lon="3.39342">
        <ele>274.9</ele>
        <time>2016-05-24T12:25:46Z</time>
      </trkpt>
      <trkpt lat="43.57996" lon="3.39331">
        <ele>274</ele>
        <time>2016-05-24T12:25:47Z</time>
      </trkpt>
      <trkpt lat="43.57996" lon="3.39319">
        <ele>272.7</ele>
        <time>2016-05-24T12:25:48Z</time>
      </trkpt>
      <trkpt lat="43.57994" lon="3.39308">
        <ele>270.9</ele>
        <time>2016-05-24T12:25:49Z</time>
      </trkpt>
      <trkpt lat="43.5799" lon="3.39298">
        <ele>269.7</ele>
        <time>2016-05-24T12:25:50Z</time>
      </trkpt>
      <trkpt lat="43.57984" lon="3.39291">
        <ele>268.3</ele>
        <time>2016-05-24T12:25:51Z</time>
      </trkpt>
      <trkpt lat="43.57976" lon="3.39282">
        <ele>268.1</ele>
        <time>2016-05-24T12:25:52Z</time>
      </trkpt>
      <trkpt lat="43.57969" lon="3.39275">
        <ele>267.8</ele>
        <time>2016-05-24T12:25:53Z</time>
      </trkpt>
      <trkpt lat="43.57963" lon="3.39267">
        <ele>268.2</ele>
        <time>2016-05-24T12:25:54Z</time>
      </trkpt>
      <trkpt lat="43.57953" lon="3.39266">
        <ele>267.8</ele>
        <time>2016-05-24T12:25:56Z</time>
      </trkpt>
      <trkpt lat="43.57943" lon="3.39269">
        <ele>268</ele>
        <time>2016-05-24T12:25:58Z</time>
      </trkpt>
      <trkpt lat="43.57935" lon="3.39267">
        <ele>267.6</ele>
        <time>2016-05-24T12:26:00Z</time>
      </trkpt>
      <trkpt lat="43.57927" lon="3.39261">
        <ele>267.5</ele>
        <time>2016-05-24T12:26:03Z</time>
      </trkpt>
      <trkpt lat="43.57927" lon="3.39248">
        <ele>267.6</ele>
        <time>2016-05-24T12:26:06Z</time>
      </trkpt>
      <trkpt lat="43.57934" lon="3.3924">
        <ele>267.7</ele>
        <time>2016-05-24T12:26:09Z</time>
      </trkpt>
      <trkpt lat="43.5794" lon="3.39233">
        <ele>268.1</ele>
        <time>2016-05-24T12:26:15Z</time>
      </trkpt>
      <trkpt lat="43.57946" lon="3.39226">
        <ele>268.5</ele>
        <time>2016-05-24T12:26:19Z</time>
      </trkpt>
      <trkpt lat="43.57952" lon="3.39218">
        <ele>268.9</ele>
        <time>2016-05-24T12:26:25Z</time>
      </trkpt>
      <trkpt lat="43.5795" lon="3.39211">
        <ele>269.9</ele>
        <time>2016-05-24T12:26:32Z</time>
      </trkpt>
      <trkpt lat="43.57943" lon="3.39209">
        <ele>270.8</ele>
        <time>2016-05-24T12:26:38Z</time>
      </trkpt>
      <trkpt lat="43.57934" lon="3.39204">
        <ele>271.8</ele>
        <time>2016-05-24T12:26:43Z</time>
      </trkpt>
      <trkpt lat="43.57927" lon="3.39199">
        <ele>272.8</ele>
        <time>2016-05-24T12:26:48Z</time>
      </trkpt>
      <trkpt lat="43.57921" lon="3.39192">
        <ele>273.5</ele>
        <time>2016-05-24T12:26:52Z</time>
      </trkpt>
      <trkpt lat="43.57917" lon="3.39184">
        <ele>274.3</ele>
        <time>2016-05-24T12:26:56Z</time>
      </trkpt>
      <trkpt lat="43.57915" lon="3.39172">
        <ele>275.2</ele>
        <time>2016-05-24T12:27:00Z</time>
      </trkpt>
      <trkpt lat="43.57917" lon="3.39165">
        <ele>276.7</ele>
        <time>2016-05-24T12:27:07Z</time>
      </trkpt>
      <trkpt lat="43.5792" lon="3.39156">
        <ele>277.4</ele>
        <time>2016-05-24T12:27:10Z</time>
      </trkpt>
      <trkpt lat="43.57925" lon="3.39147">
        <ele>278.1</ele>
        <time>2016-05-24T12:27:14Z</time>
      </trkpt>
      <trkpt lat="43.57929" lon="3.39138">
        <ele>279</ele>
        <time>2016-05-24T12:27:18Z</time>
      </trkpt>
      <trkpt lat="43.57934" lon="3.3913">
        <ele>280</ele>
        <time>2016-05-24T12:27:24Z</time>
      </trkpt>
      <trkpt lat="43.57935" lon="3.39119">
        <ele>281.5</ele>
        <time>2016-05-24T12:27:34Z</time>
      </trkpt>
      <trkpt lat="43.57936" lon="3.39108">
        <ele>282.2</ele>
        <time>2016-05-24T12:27:38Z</time>
      </trkpt>
      <trkpt lat="43.57938" lon="3.39097">
        <ele>282.9</ele>
        <time>2016-05-24T12:27:42Z</time>
      </trkpt>
      <trkpt lat="43.57943" lon="3.39086">
        <ele>284</ele>
        <time>2016-05-24T12:27:48Z</time>
      </trkpt>
      <trkpt lat="43.57949" lon="3.39077">
        <ele>285.5</ele>
        <time>2016-05-24T12:27:53Z</time>
      </trkpt>
      <trkpt lat="43.57952" lon="3.39066">
        <ele>287.1</ele>
        <time>2016-05-24T12:28:00Z</time>
      </trkpt>
      <trkpt lat="43.57952" lon="3.39056">
        <ele>288.3</ele>
        <time>2016-05-24T12:28:07Z</time>
      </trkpt>
      <trkpt lat="43.57951" lon="3.39045">
        <ele>288.9</ele>
        <time>2016-05-24T12:28:13Z</time>
      </trkpt>
      <trkpt lat="43.57954" lon="3.39033">
        <ele>289.5</ele>
        <time>2016-05-24T12:28:18Z</time>
      </trkpt>
      <trkpt lat="43.57957" lon="3.39023">
        <ele>291</ele>
        <time>2016-05-24T12:28:25Z</time>
      </trkpt>
      <trkpt lat="43.5796" lon="3.39014">
        <ele>292.4</ele>
        <time>2016-05-24T12:28:30Z</time>
      </trkpt>
      <trkpt lat="43.57965" lon="3.39007">
        <ele>293.7</ele>
        <time>2016-05-24T12:28:35Z</time>
      </trkpt>
      <trkpt lat="43.57969" lon="3.38997">
        <ele>295.1</ele>
        <time>2016-05-24T12:28:41Z</time>
      </trkpt>
      <trkpt lat="43.57972" lon="3.3899">
        <ele>296.4</ele>
        <time>2016-05-24T12:28:48Z</time>
      </trkpt>
      <trkpt lat="43.57975" lon="3.38977">
        <ele>297.9</ele>
        <time>2016-05-24T12:28:53Z</time>
      </trkpt>
      <trkpt lat="43.5798" lon="3.38967">
        <ele>298.9</ele>
        <time>2016-05-24T12:28:58Z</time>
      </trkpt>
      <trkpt lat="43.57986" lon="3.38963">
        <ele>299.4</ele>
        <time>2016-05-24T12:29:01Z</time>
      </trkpt>
      <trkpt lat="43.57995" lon="3.38966">
        <ele>300.4</ele>
        <time>2016-05-24T12:29:06Z</time>
      </trkpt>
      <trkpt lat="43.58004" lon="3.38967">
        <ele>301.1</ele>
        <time>2016-05-24T12:29:11Z</time>
      </trkpt>
      <trkpt lat="43.58012" lon="3.38963">
        <ele>301.8</ele>
        <time>2016-05-24T12:29:16Z</time>
      </trkpt>
      <trkpt lat="43.5802" lon="3.38958">
        <ele>302.3</ele>
        <time>2016-05-24T12:29:21Z</time>
      </trkpt>
      <trkpt lat="43.58026" lon="3.38952">
        <ele>302.6</ele>
        <time>2016-05-24T12:29:24Z</time>
      </trkpt>
      <trkpt lat="43.58032" lon="3.38946">
        <ele>303.5</ele>
        <time>2016-05-24T12:29:30Z</time>
      </trkpt>
      <trkpt lat="43.58039" lon="3.3894">
        <ele>304.2</ele>
        <time>2016-05-24T12:29:35Z</time>
      </trkpt>
      <trkpt lat="43.58045" lon="3.38935">
        <ele>304.9</ele>
        <time>2016-05-24T12:29:39Z</time>
      </trkpt>
      <trkpt lat="43.58054" lon="3.3893">
        <ele>305.7</ele>
        <time>2016-05-24T12:29:44Z</time>
      </trkpt>
      <trkpt lat="43.58061" lon="3.38929">
        <ele>306</ele>
        <time>2016-05-24T12:29:48Z</time>
      </trkpt>
      <trkpt lat="43.58069" lon="3.3893">
        <ele>306.5</ele>
        <time>2016-05-24T12:29:53Z</time>
      </trkpt>
      <trkpt lat="43.58077" lon="3.38933">
        <ele>307</ele>
        <time>2016-05-24T12:29:57Z</time>
      </trkpt>
      <trkpt lat="43.58085" lon="3.38932">
        <ele>307.9</ele>
        <time>2016-05-24T12:30:02Z</time>
      </trkpt>
      <trkpt lat="43.58093" lon="3.38928">
        <ele>308.5</ele>
        <time>2016-05-24T12:30:07Z</time>
      </trkpt>
      <trkpt lat="43.58099" lon="3.38922">
        <ele>309.7</ele>
        <time>2016-05-24T12:30:12Z</time>
      </trkpt>
      <trkpt lat="43.58106" lon="3.38914">
        <ele>310.8</ele>
        <time>2016-05-24T12:30:18Z</time>
      </trkpt>
      <trkpt lat="43.58112" lon="3.38909">
        <ele>311.6</ele>
        <time>2016-05-24T12:30:22Z</time>
      </trkpt>
      <trkpt lat="43.5812" lon="3.38907">
        <ele>312.3</ele>
        <time>2016-05-24T12:30:26Z</time>
      </trkpt>
      <trkpt lat="43.58127" lon="3.38908">
        <ele>312.9</ele>
        <time>2016-05-24T12:30:30Z</time>
      </trkpt>
      <trkpt lat="43.58136" lon="3.3891">
        <ele>314</ele>
        <time>2016-05-24T12:30:36Z</time>
      </trkpt>
      <trkpt lat="43.58142" lon="3.38918">
        <ele>315</ele>
        <time>2016-05-24T12:30:40Z</time>
      </trkpt>
      <trkpt lat="43.58149" lon="3.38924">
        <ele>316.8</ele>
        <time>2016-05-24T12:30:46Z</time>
      </trkpt>
      <trkpt lat="43.58157" lon="3.38927">
        <ele>318.7</ele>
        <time>2016-05-24T12:30:52Z</time>
      </trkpt>
      <trkpt lat="43.58164" lon="3.3893">
        <ele>319.9</ele>
        <time>2016-05-24T12:30:57Z</time>
      </trkpt>
      <trkpt lat="43.58172" lon="3.3893">
        <ele>321.1</ele>
        <time>2016-05-24T12:31:02Z</time>
      </trkpt>
      <trkpt lat="43.58179" lon="3.38924">
        <ele>322.4</ele>
        <time>2016-05-24T12:31:08Z</time>
      </trkpt>
      <trkpt lat="43.58185" lon="3.38916">
        <ele>323</ele>
        <time>2016-05-24T12:31:12Z</time>
      </trkpt>
      <trkpt lat="43.58191" lon="3.38906">
        <ele>323.7</ele>
        <time>2016-05-24T12:31:17Z</time>
      </trkpt>
      <trkpt lat="43.58194" lon="3.38897">
        <ele>324.6</ele>
        <time>2016-05-24T12:31:22Z</time>
      </trkpt>
      <trkpt lat="43.58199" lon="3.38887">
        <ele>325.4</ele>
        <time>2016-05-24T12:31:27Z</time>
      </trkpt>
      <trkpt lat="43.58204" lon="3.38877">
        <ele>325.9</ele>
        <time>2016-05-24T12:31:32Z</time>
      </trkpt>
      <trkpt lat="43.58207" lon="3.38865">
        <ele>326.5</ele>
        <time>2016-05-24T12:31:36Z</time>
      </trkpt>
      <trkpt lat="43.58211" lon="3.38856">
        <ele>327.2</ele>
        <time>2016-05-24T12:31:40Z</time>
      </trkpt>
      <trkpt lat="43.58214" lon="3.38846">
        <ele>327.9</ele>
        <time>2016-05-24T12:31:45Z</time>
      </trkpt>
      <trkpt lat="43.58219" lon="3.38836">
        <ele>328.4</ele>
        <time>2016-05-24T12:31:50Z</time>
      </trkpt>
      <trkpt lat="43.58221" lon="3.38826">
        <ele>329</ele>
        <time>2016-05-24T12:31:54Z</time>
      </trkpt>
      <trkpt lat="43.58225" lon="3.38815">
        <ele>329.7</ele>
        <time>2016-05-24T12:31:58Z</time>
      </trkpt>
      <trkpt lat="43.58227" lon="3.38804">
        <ele>330.3</ele>
        <time>2016-05-24T12:32:02Z</time>
      </trkpt>
      <trkpt lat="43.58231" lon="3.38791">
        <ele>331</ele>
        <time>2016-05-24T12:32:06Z</time>
      </trkpt>
      <trkpt lat="43.58234" lon="3.38781">
        <ele>331.4</ele>
        <time>2016-05-24T12:32:09Z</time>
      </trkpt>
      <trkpt lat="43.58238" lon="3.38771">
        <ele>331.8</ele>
        <time>2016-05-24T12:32:12Z</time>
      </trkpt>
      <trkpt lat="43.5824" lon="3.38761">
        <ele>332.2</ele>
        <time>2016-05-24T12:32:15Z</time>
      </trkpt>
      <trkpt lat="43.58243" lon="3.38748">
        <ele>332.7</ele>
        <time>2016-05-24T12:32:19Z</time>
      </trkpt>
      <trkpt lat="43.58244" lon="3.38737">
        <ele>333.2</ele>
        <time>2016-05-24T12:32:22Z</time>
      </trkpt>
      <trkpt lat="43.58243" lon="3.38725">
        <ele>333.7</ele>
        <time>2016-05-24T12:32:25Z</time>
      </trkpt>
      <trkpt lat="43.58242" lon="3.38715">
        <ele>334.1</ele>
        <time>2016-05-24T12:32:28Z</time>
      </trkpt>
      <trkpt lat="43.58239" lon="3.38702">
        <ele>334.8</ele>
        <time>2016-05-24T12:32:32Z</time>
      </trkpt>
      <trkpt lat="43.58234" lon="3.38693">
        <ele>335.3</ele>
        <time>2016-05-24T12:32:36Z</time>
      </trkpt>
      <trkpt lat="43.58229" lon="3.38685">
        <ele>335.9</ele>
        <time>2016-05-24T12:32:40Z</time>
      </trkpt>
      <trkpt lat="43.58223" lon="3.38678">
        <ele>336.7</ele>
        <time>2016-05-24T12:32:42Z</time>
      </trkpt>
      <trkpt lat="43.58217" lon="3.38673">
        <ele>338</ele>
        <time>2016-05-24T12:32:44Z</time>
      </trkpt>
      <trkpt lat="43.58207" lon="3.38667">
        <ele>337.8</ele>
        <time>2016-05-24T12:32:46Z</time>
      </trkpt>
      <trkpt lat="43.58198" lon="3.38661">
        <ele>338.6</ele>
        <time>2016-05-24T12:32:48Z</time>
      </trkpt>
      <trkpt lat="43.58188" lon="3.38655">
        <ele>338.5</ele>
        <time>2016-05-24T12:32:50Z</time>
      </trkpt>
      <trkpt lat="43.58181" lon="3.38651">
        <ele>338.5</ele>
        <time>2016-05-24T12:32:52Z</time>
      </trkpt>
      <trkpt lat="43.58172" lon="3.38647">
        <ele>338.7</ele>
        <time>2016-05-24T12:32:55Z</time>
      </trkpt>
      <trkpt lat="43.58164" lon="3.38642">
        <ele>339</ele>
        <time>2016-05-24T12:32:59Z</time>
      </trkpt>
      <trkpt lat="43.58156" lon="3.38637">
        <ele>339.2</ele>
        <time>2016-05-24T12:33:02Z</time>
      </trkpt>
      <trkpt lat="43.58149" lon="3.3863">
        <ele>339.2</ele>
        <time>2016-05-24T12:33:05Z</time>
      </trkpt>
      <trkpt lat="43.58144" lon="3.38619">
        <ele>339.2</ele>
        <time>2016-05-24T12:33:08Z</time>
      </trkpt>
      <trkpt lat="43.5814" lon="3.38609">
        <ele>339.4</ele>
        <time>2016-05-24T12:33:11Z</time>
      </trkpt>
      <trkpt lat="43.58137" lon="3.38596">
        <ele>339.7</ele>
        <time>2016-05-24T12:33:14Z</time>
      </trkpt>
      <trkpt lat="43.58134" lon="3.38586">
        <ele>341.5</ele>
        <time>2016-05-24T12:33:16Z</time>
      </trkpt>
      <trkpt lat="43.58132" lon="3.38575">
        <ele>341.6</ele>
        <time>2016-05-24T12:33:18Z</time>
      </trkpt>
      <trkpt lat="43.58129" lon="3.38565">
        <ele>341.6</ele>
        <time>2016-05-24T12:33:20Z</time>
      </trkpt>
      <trkpt lat="43.58126" lon="3.38551">
        <ele>341.6</ele>
        <time>2016-05-24T12:33:23Z</time>
      </trkpt>
      <trkpt lat="43.58124" lon="3.3854">
        <ele>341.4</ele>
        <time>2016-05-24T12:33:25Z</time>
      </trkpt>
      <trkpt lat="43.58121" lon="3.38526">
        <ele>341.2</ele>
        <time>2016-05-24T12:33:28Z</time>
      </trkpt>
      <trkpt lat="43.58117" lon="3.38513">
        <ele>340.9</ele>
        <time>2016-05-24T12:33:31Z</time>
      </trkpt>
      <trkpt lat="43.58113" lon="3.38502">
        <ele>340.9</ele>
        <time>2016-05-24T12:33:34Z</time>
      </trkpt>
      <trkpt lat="43.58109" lon="3.38493">
        <ele>341.1</ele>
        <time>2016-05-24T12:33:37Z</time>
      </trkpt>
      <trkpt lat="43.58106" lon="3.38483">
        <ele>341.3</ele>
        <time>2016-05-24T12:33:41Z</time>
      </trkpt>
      <trkpt lat="43.58102" lon="3.38471">
        <ele>341.5</ele>
        <time>2016-05-24T12:33:45Z</time>
      </trkpt>
      <trkpt lat="43.58099" lon="3.38459">
        <ele>341.8</ele>
        <time>2016-05-24T12:33:49Z</time>
      </trkpt>
      <trkpt lat="43.58095" lon="3.38449">
        <ele>342.2</ele>
        <time>2016-05-24T12:33:53Z</time>
      </trkpt>
      <trkpt lat="43.58091" lon="3.3844">
        <ele>342.8</ele>
        <time>2016-05-24T12:33:57Z</time>
      </trkpt>
      <trkpt lat="43.58085" lon="3.38431">
        <ele>343.5</ele>
        <time>2016-05-24T12:34:01Z</time>
      </trkpt>
      <trkpt lat="43.5808" lon="3.38421">
        <ele>344</ele>
        <time>2016-05-24T12:34:05Z</time>
      </trkpt>
      <trkpt lat="43.58077" lon="3.38413">
        <ele>344.3</ele>
        <time>2016-05-24T12:34:09Z</time>
      </trkpt>
      <trkpt lat="43.58071" lon="3.38403">
        <ele>344.5</ele>
        <time>2016-05-24T12:34:13Z</time>
      </trkpt>
      <trkpt lat="43.58067" lon="3.38393">
        <ele>345</ele>
        <time>2016-05-24T12:34:17Z</time>
      </trkpt>
      <trkpt lat="43.58062" lon="3.38384">
        <ele>345.4</ele>
        <time>2016-05-24T12:34:20Z</time>
      </trkpt>
      <trkpt lat="43.58056" lon="3.38373">
        <ele>346.8</ele>
        <time>2016-05-24T12:34:23Z</time>
      </trkpt>
      <trkpt lat="43.5805" lon="3.38363">
        <ele>347.6</ele>
        <time>2016-05-24T12:34:25Z</time>
      </trkpt>
      <trkpt lat="43.5804" lon="3.38351">
        <ele>347.8</ele>
        <time>2016-05-24T12:34:27Z</time>
      </trkpt>
      <trkpt lat="43.58031" lon="3.38336">
        <ele>347.7</ele>
        <time>2016-05-24T12:34:29Z</time>
      </trkpt>
      <trkpt lat="43.58026" lon="3.38328">
        <ele>347.8</ele>
        <time>2016-05-24T12:34:30Z</time>
      </trkpt>
      <trkpt lat="43.58017" lon="3.38314">
        <ele>347.4</ele>
        <time>2016-05-24T12:34:32Z</time>
      </trkpt>
      <trkpt lat="43.58009" lon="3.38305">
        <ele>345.4</ele>
        <time>2016-05-24T12:34:34Z</time>
      </trkpt>
      <trkpt lat="43.58002" lon="3.38294">
        <ele>344.3</ele>
        <time>2016-05-24T12:34:36Z</time>
      </trkpt>
      <trkpt lat="43.57994" lon="3.3828">
        <ele>342.2</ele>
        <time>2016-05-24T12:34:38Z</time>
      </trkpt>
      <trkpt lat="43.57992" lon="3.38265">
        <ele>340.5</ele>
        <time>2016-05-24T12:34:40Z</time>
      </trkpt>
      <trkpt lat="43.57989" lon="3.38253">
        <ele>338.6</ele>
        <time>2016-05-24T12:34:42Z</time>
      </trkpt>
      <trkpt lat="43.57987" lon="3.38242">
        <ele>336.3</ele>
        <time>2016-05-24T12:34:44Z</time>
      </trkpt>
      <trkpt lat="43.57981" lon="3.38227">
        <ele>333.6</ele>
        <time>2016-05-24T12:34:46Z</time>
      </trkpt>
      <trkpt lat="43.57979" lon="3.38215">
        <ele>332.8</ele>
        <time>2016-05-24T12:34:48Z</time>
      </trkpt>
      <trkpt lat="43.57971" lon="3.38209">
        <ele>331.7</ele>
        <time>2016-05-24T12:34:50Z</time>
      </trkpt>
      <trkpt lat="43.57959" lon="3.3821">
        <ele>331.3</ele>
        <time>2016-05-24T12:34:53Z</time>
      </trkpt>
      <trkpt lat="43.5795" lon="3.38205">
        <ele>329.3</ele>
        <time>2016-05-24T12:34:55Z</time>
      </trkpt>
      <trkpt lat="43.57942" lon="3.38202">
        <ele>328.5</ele>
        <time>2016-05-24T12:34:57Z</time>
      </trkpt>
      <trkpt lat="43.5793" lon="3.38198">
        <ele>328</ele>
        <time>2016-05-24T12:34:59Z</time>
      </trkpt>
      <trkpt lat="43.5792" lon="3.38193">
        <ele>325.6</ele>
        <time>2016-05-24T12:35:01Z</time>
      </trkpt>
      <trkpt lat="43.5791" lon="3.38188">
        <ele>325.6</ele>
        <time>2016-05-24T12:35:03Z</time>
      </trkpt>
      <trkpt lat="43.57901" lon="3.38179">
        <ele>325</ele>
        <time>2016-05-24T12:35:05Z</time>
      </trkpt>
      <trkpt lat="43.57894" lon="3.38165">
        <ele>323.2</ele>
        <time>2016-05-24T12:35:07Z</time>
      </trkpt>
      <trkpt lat="43.57888" lon="3.3815">
        <ele>321.8</ele>
        <time>2016-05-24T12:35:09Z</time>
      </trkpt>
      <trkpt lat="43.57882" lon="3.38135">
        <ele>320.6</ele>
        <time>2016-05-24T12:35:11Z</time>
      </trkpt>
      <trkpt lat="43.57877" lon="3.3812">
        <ele>320</ele>
        <time>2016-05-24T12:35:13Z</time>
      </trkpt>
      <trkpt lat="43.57874" lon="3.38107">
        <ele>318.5</ele>
        <time>2016-05-24T12:35:15Z</time>
      </trkpt>
      <trkpt lat="43.5787" lon="3.38093">
        <ele>317.4</ele>
        <time>2016-05-24T12:35:17Z</time>
      </trkpt>
      <trkpt lat="43.57866" lon="3.38076">
        <ele>315.6</ele>
        <time>2016-05-24T12:35:19Z</time>
      </trkpt>
      <trkpt lat="43.57864" lon="3.38066">
        <ele>314.9</ele>
        <time>2016-05-24T12:35:20Z</time>
      </trkpt>
      <trkpt lat="43.57862" lon="3.38055">
        <ele>314.1</ele>
        <time>2016-05-24T12:35:21Z</time>
      </trkpt>
      <trkpt lat="43.5786" lon="3.38045">
        <ele>312.6</ele>
        <time>2016-05-24T12:35:22Z</time>
      </trkpt>
      <trkpt lat="43.57857" lon="3.38035">
        <ele>311.9</ele>
        <time>2016-05-24T12:35:23Z</time>
      </trkpt>
      <trkpt lat="43.57848" lon="3.38022">
        <ele>311.7</ele>
        <time>2016-05-24T12:35:25Z</time>
      </trkpt>
      <trkpt lat="43.57835" lon="3.38017">
        <ele>311.6</ele>
        <time>2016-05-24T12:35:27Z</time>
      </trkpt>
      <trkpt lat="43.57821" lon="3.38018">
        <ele>311.4</ele>
        <time>2016-05-24T12:35:29Z</time>
      </trkpt>
      <trkpt lat="43.57813" lon="3.38021">
        <ele>311</ele>
        <time>2016-05-24T12:35:30Z</time>
      </trkpt>
      <trkpt lat="43.57804" lon="3.38025">
        <ele>311.2</ele>
        <time>2016-05-24T12:35:31Z</time>
      </trkpt>
      <trkpt lat="43.57796" lon="3.38029">
        <ele>311.2</ele>
        <time>2016-05-24T12:35:32Z</time>
      </trkpt>
      <trkpt lat="43.57787" lon="3.38034">
        <ele>311.8</ele>
        <time>2016-05-24T12:35:33Z</time>
      </trkpt>
      <trkpt lat="43.57779" lon="3.38039">
        <ele>311.9</ele>
        <time>2016-05-24T12:35:34Z</time>
      </trkpt>
      <trkpt lat="43.5777" lon="3.38043">
        <ele>311.6</ele>
        <time>2016-05-24T12:35:35Z</time>
      </trkpt>
      <trkpt lat="43.5776" lon="3.38047">
        <ele>311.1</ele>
        <time>2016-05-24T12:35:36Z</time>
      </trkpt>
      <trkpt lat="43.57751" lon="3.3805">
        <ele>310.3</ele>
        <time>2016-05-24T12:35:37Z</time>
      </trkpt>
      <trkpt lat="43.57741" lon="3.38049">
        <ele>309.1</ele>
        <time>2016-05-24T12:35:38Z</time>
      </trkpt>
      <trkpt lat="43.57732" lon="3.38047">
        <ele>308.2</ele>
        <time>2016-05-24T12:35:39Z</time>
      </trkpt>
      <trkpt lat="43.57724" lon="3.3804">
        <ele>307.5</ele>
        <time>2016-05-24T12:35:40Z</time>
      </trkpt>
      <trkpt lat="43.57718" lon="3.38034">
        <ele>306.9</ele>
        <time>2016-05-24T12:35:41Z</time>
      </trkpt>
      <trkpt lat="43.57712" lon="3.38028">
        <ele>305.7</ele>
        <time>2016-05-24T12:35:42Z</time>
      </trkpt>
      <trkpt lat="43.577" lon="3.38018">
        <ele>303.9</ele>
        <time>2016-05-24T12:35:44Z</time>
      </trkpt>
      <trkpt lat="43.57688" lon="3.38007">
        <ele>303.5</ele>
        <time>2016-05-24T12:35:46Z</time>
      </trkpt>
      <trkpt lat="43.57678" lon="3.37999">
        <ele>303.5</ele>
        <time>2016-05-24T12:35:48Z</time>
      </trkpt>
      <trkpt lat="43.5767" lon="3.37996">
        <ele>304.3</ele>
        <time>2016-05-24T12:35:50Z</time>
      </trkpt>
      <trkpt lat="43.57663" lon="3.37993">
        <ele>304.3</ele>
        <time>2016-05-24T12:35:52Z</time>
      </trkpt>
      <trkpt lat="43.57654" lon="3.37988">
        <ele>304.5</ele>
        <time>2016-05-24T12:35:55Z</time>
      </trkpt>
      <trkpt lat="43.57646" lon="3.37981">
        <ele>304.7</ele>
        <time>2016-05-24T12:35:57Z</time>
      </trkpt>
      <trkpt lat="43.57639" lon="3.37976">
        <ele>305</ele>
        <time>2016-05-24T12:35:59Z</time>
      </trkpt>
      <trkpt lat="43.5763" lon="3.37973">
        <ele>305.4</ele>
        <time>2016-05-24T12:36:02Z</time>
      </trkpt>
      <trkpt lat="43.57623" lon="3.37967">
        <ele>305.8</ele>
        <time>2016-05-24T12:36:06Z</time>
      </trkpt>
      <trkpt lat="43.57614" lon="3.37964">
        <ele>306.2</ele>
        <time>2016-05-24T12:36:09Z</time>
      </trkpt>
      <trkpt lat="43.57605" lon="3.37961">
        <ele>307.6</ele>
        <time>2016-05-24T12:36:11Z</time>
      </trkpt>
      <trkpt lat="43.57597" lon="3.37958">
        <ele>308.2</ele>
        <time>2016-05-24T12:36:13Z</time>
      </trkpt>
      <trkpt lat="43.57591" lon="3.37954">
        <ele>308.4</ele>
        <time>2016-05-24T12:36:16Z</time>
      </trkpt>
      <trkpt lat="43.57583" lon="3.37949">
        <ele>308.5</ele>
        <time>2016-05-24T12:36:20Z</time>
      </trkpt>
      <trkpt lat="43.57576" lon="3.37944">
        <ele>308.4</ele>
        <time>2016-05-24T12:36:23Z</time>
      </trkpt>
      <trkpt lat="43.57569" lon="3.37938">
        <ele>308.3</ele>
        <time>2016-05-24T12:36:26Z</time>
      </trkpt>
      <trkpt lat="43.57562" lon="3.37934">
        <ele>308.3</ele>
        <time>2016-05-24T12:36:29Z</time>
      </trkpt>
      <trkpt lat="43.57552" lon="3.3793">
        <ele>308.4</ele>
        <time>2016-05-24T12:36:32Z</time>
      </trkpt>
      <trkpt lat="43.57542" lon="3.37927">
        <ele>308</ele>
        <time>2016-05-24T12:36:35Z</time>
      </trkpt>
      <trkpt lat="43.57535" lon="3.37925">
        <ele>307.9</ele>
        <time>2016-05-24T12:36:37Z</time>
      </trkpt>
      <trkpt lat="43.57526" lon="3.37922">
        <ele>307.8</ele>
        <time>2016-05-24T12:36:39Z</time>
      </trkpt>
      <trkpt lat="43.57516" lon="3.37917">
        <ele>308.1</ele>
        <time>2016-05-24T12:36:41Z</time>
      </trkpt>
      <trkpt lat="43.57504" lon="3.37909">
        <ele>307.9</ele>
        <time>2016-05-24T12:36:43Z</time>
      </trkpt>
      <trkpt lat="43.57495" lon="3.37898">
        <ele>306.8</ele>
        <time>2016-05-24T12:36:45Z</time>
      </trkpt>
      <trkpt lat="43.5749" lon="3.3789">
        <ele>305.9</ele>
        <time>2016-05-24T12:36:46Z</time>
      </trkpt>
      <trkpt lat="43.57481" lon="3.37875">
        <ele>303.8</ele>
        <time>2016-05-24T12:36:48Z</time>
      </trkpt>
      <trkpt lat="43.57473" lon="3.37865">
        <ele>302.8</ele>
        <time>2016-05-24T12:36:50Z</time>
      </trkpt>
      <trkpt lat="43.57465" lon="3.37857">
        <ele>302.7</ele>
        <time>2016-05-24T12:36:53Z</time>
      </trkpt>
      <trkpt lat="43.57456" lon="3.37855">
        <ele>302.8</ele>
        <time>2016-05-24T12:36:57Z</time>
      </trkpt>
      <trkpt lat="43.57448" lon="3.37855">
        <ele>303.8</ele>
        <time>2016-05-24T12:36:59Z</time>
      </trkpt>
      <trkpt lat="43.57436" lon="3.37858">
        <ele>305.8</ele>
        <time>2016-05-24T12:37:02Z</time>
      </trkpt>
      <trkpt lat="43.57423" lon="3.37858">
        <ele>305.6</ele>
        <time>2016-05-24T12:37:04Z</time>
      </trkpt>
      <trkpt lat="43.57415" lon="3.37856">
        <ele>304.6</ele>
        <time>2016-05-24T12:37:05Z</time>
      </trkpt>
      <trkpt lat="43.57408" lon="3.37854">
        <ele>303.8</ele>
        <time>2016-05-24T12:37:06Z</time>
      </trkpt>
      <trkpt lat="43.57399" lon="3.37847">
        <ele>301.2</ele>
        <time>2016-05-24T12:37:08Z</time>
      </trkpt>
      <trkpt lat="43.57391" lon="3.37839">
        <ele>300</ele>
        <time>2016-05-24T12:37:10Z</time>
      </trkpt>
      <trkpt lat="43.57394" lon="3.37828">
        <ele>299.9</ele>
        <time>2016-05-24T12:37:13Z</time>
      </trkpt>
      <trkpt lat="43.57402" lon="3.37821">
        <ele>299.7</ele>
        <time>2016-05-24T12:37:16Z</time>
      </trkpt>
      <trkpt lat="43.57411" lon="3.37813">
        <ele>298.5</ele>
        <time>2016-05-24T12:37:19Z</time>
      </trkpt>
      <trkpt lat="43.57419" lon="3.37806">
        <ele>296.4</ele>
        <time>2016-05-24T12:37:21Z</time>
      </trkpt>
      <trkpt lat="43.57425" lon="3.37796">
        <ele>295.1</ele>
        <time>2016-05-24T12:37:23Z</time>
      </trkpt>
      <trkpt lat="43.57428" lon="3.37784">
        <ele>294.7</ele>
        <time>2016-05-24T12:37:25Z</time>
      </trkpt>
      <trkpt lat="43.57427" lon="3.37772">
        <ele>293.8</ele>
        <time>2016-05-24T12:37:27Z</time>
      </trkpt>
      <trkpt lat="43.57427" lon="3.37759">
        <ele>291.7</ele>
        <time>2016-05-24T12:37:29Z</time>
      </trkpt>
      <trkpt lat="43.57425" lon="3.37741">
        <ele>290.7</ele>
        <time>2016-05-24T12:37:31Z</time>
      </trkpt>
      <trkpt lat="43.57422" lon="3.37723">
        <ele>289.8</ele>
        <time>2016-05-24T12:37:33Z</time>
      </trkpt>
      <trkpt lat="43.5742" lon="3.37713">
        <ele>289.4</ele>
        <time>2016-05-24T12:37:34Z</time>
      </trkpt>
      <trkpt lat="43.57419" lon="3.37695">
        <ele>287.9</ele>
        <time>2016-05-24T12:37:36Z</time>
      </trkpt>
      <trkpt lat="43.5742" lon="3.37682">
        <ele>286.9</ele>
        <time>2016-05-24T12:37:37Z</time>
      </trkpt>
      <trkpt lat="43.57421" lon="3.37671">
        <ele>285.9</ele>
        <time>2016-05-24T12:37:38Z</time>
      </trkpt>
      <trkpt lat="43.57422" lon="3.37659">
        <ele>284.4</ele>
        <time>2016-05-24T12:37:39Z</time>
      </trkpt>
      <trkpt lat="43.57425" lon="3.37647">
        <ele>282.3</ele>
        <time>2016-05-24T12:37:41Z</time>
      </trkpt>
      <trkpt lat="43.57422" lon="3.37637">
        <ele>280.6</ele>
        <time>2016-05-24T12:37:43Z</time>
      </trkpt>
      <trkpt lat="43.57416" lon="3.37625">
        <ele>279.2</ele>
        <time>2016-05-24T12:37:45Z</time>
      </trkpt>
      <trkpt lat="43.57404" lon="3.3762">
        <ele>277.4</ele>
        <time>2016-05-24T12:37:47Z</time>
      </trkpt>
      <trkpt lat="43.57395" lon="3.37618">
        <ele>276.1</ele>
        <time>2016-05-24T12:37:48Z</time>
      </trkpt>
      <trkpt lat="43.57388" lon="3.37616">
        <ele>275.4</ele>
        <time>2016-05-24T12:37:49Z</time>
      </trkpt>
      <trkpt lat="43.57379" lon="3.37609">
        <ele>273.4</ele>
        <time>2016-05-24T12:37:51Z</time>
      </trkpt>
      <trkpt lat="43.57372" lon="3.37596">
        <ele>272.4</ele>
        <time>2016-05-24T12:37:53Z</time>
      </trkpt>
      <trkpt lat="43.57367" lon="3.3758">
        <ele>270.2</ele>
        <time>2016-05-24T12:37:55Z</time>
      </trkpt>
      <trkpt lat="43.5737" lon="3.37565">
        <ele>267.5</ele>
        <time>2016-05-24T12:37:57Z</time>
      </trkpt>
      <trkpt lat="43.57377" lon="3.37551">
        <ele>266</ele>
        <time>2016-05-24T12:37:59Z</time>
      </trkpt>
      <trkpt lat="43.57381" lon="3.37542">
        <ele>265.3</ele>
        <time>2016-05-24T12:38:00Z</time>
      </trkpt>
      <trkpt lat="43.57389" lon="3.37523">
        <ele>264</ele>
        <time>2016-05-24T12:38:02Z</time>
      </trkpt>
      <trkpt lat="43.57393" lon="3.3751">
        <ele>263.5</ele>
        <time>2016-05-24T12:38:03Z</time>
      </trkpt>
      <trkpt lat="43.57397" lon="3.37495">
        <ele>262.2</ele>
        <time>2016-05-24T12:38:04Z</time>
      </trkpt>
      <trkpt lat="43.57401" lon="3.3748">
        <ele>260.4</ele>
        <time>2016-05-24T12:38:05Z</time>
      </trkpt>
      <trkpt lat="43.57404" lon="3.37467">
        <ele>258.7</ele>
        <time>2016-05-24T12:38:06Z</time>
      </trkpt>
      <trkpt lat="43.57409" lon="3.37454">
        <ele>256.7</ele>
        <time>2016-05-24T12:38:07Z</time>
      </trkpt>
      <trkpt lat="43.57413" lon="3.3744">
        <ele>255.3</ele>
        <time>2016-05-24T12:38:08Z</time>
      </trkpt>
      <trkpt lat="43.57418" lon="3.37429">
        <ele>254.4</ele>
        <time>2016-05-24T12:38:09Z</time>
      </trkpt>
      <trkpt lat="43.57422" lon="3.37418">
        <ele>253.8</ele>
        <time>2016-05-24T12:38:10Z</time>
      </trkpt>
      <trkpt lat="43.57426" lon="3.37406">
        <ele>252</ele>
        <time>2016-05-24T12:38:11Z</time>
      </trkpt>
      <trkpt lat="43.57428" lon="3.37392">
        <ele>250.5</ele>
        <time>2016-05-24T12:38:12Z</time>
      </trkpt>
      <trkpt lat="43.5743" lon="3.37377">
        <ele>248.4</ele>
        <time>2016-05-24T12:38:13Z</time>
      </trkpt>
      <trkpt lat="43.57429" lon="3.37362">
        <ele>246.5</ele>
        <time>2016-05-24T12:38:14Z</time>
      </trkpt>
      <trkpt lat="43.57428" lon="3.37347">
        <ele>244.9</ele>
        <time>2016-05-24T12:38:15Z</time>
      </trkpt>
      <trkpt lat="43.57427" lon="3.37332">
        <ele>242.6</ele>
        <time>2016-05-24T12:38:16Z</time>
      </trkpt>
      <trkpt lat="43.57427" lon="3.3732">
        <ele>240.9</ele>
        <time>2016-05-24T12:38:17Z</time>
      </trkpt>
      <trkpt lat="43.57426" lon="3.37308">
        <ele>239.1</ele>
        <time>2016-05-24T12:38:18Z</time>
      </trkpt>
      <trkpt lat="43.57425" lon="3.37296">
        <ele>237.3</ele>
        <time>2016-05-24T12:38:19Z</time>
      </trkpt>
      <trkpt lat="43.57424" lon="3.37285">
        <ele>236.1</ele>
        <time>2016-05-24T12:38:20Z</time>
      </trkpt>
      <trkpt lat="43.57423" lon="3.37273">
        <ele>234.8</ele>
        <time>2016-05-24T12:38:21Z</time>
      </trkpt>
      <trkpt lat="43.57421" lon="3.37261">
        <ele>233.7</ele>
        <time>2016-05-24T12:38:22Z</time>
      </trkpt>
      <trkpt lat="43.5742" lon="3.37249">
        <ele>232.7</ele>
        <time>2016-05-24T12:38:23Z</time>
      </trkpt>
      <trkpt lat="43.57419" lon="3.37239">
        <ele>231.5</ele>
        <time>2016-05-24T12:38:24Z</time>
      </trkpt>
      <trkpt lat="43.57418" lon="3.37221">
        <ele>228.7</ele>
        <time>2016-05-24T12:38:26Z</time>
      </trkpt>
      <trkpt lat="43.57416" lon="3.37204">
        <ele>226.1</ele>
        <time>2016-05-24T12:38:28Z</time>
      </trkpt>
      <trkpt lat="43.5741" lon="3.37189">
        <ele>223.1</ele>
        <time>2016-05-24T12:38:30Z</time>
      </trkpt>
      <trkpt lat="43.57407" lon="3.3718">
        <ele>221.8</ele>
        <time>2016-05-24T12:38:31Z</time>
      </trkpt>
      <trkpt lat="43.57401" lon="3.37173">
        <ele>220.9</ele>
        <time>2016-05-24T12:38:32Z</time>
      </trkpt>
      <trkpt lat="43.57395" lon="3.37165">
        <ele>219.9</ele>
        <time>2016-05-24T12:38:33Z</time>
      </trkpt>
      <trkpt lat="43.5739" lon="3.37153">
        <ele>218.8</ele>
        <time>2016-05-24T12:38:34Z</time>
      </trkpt>
      <trkpt lat="43.57386" lon="3.37141">
        <ele>216.9</ele>
        <time>2016-05-24T12:38:35Z</time>
      </trkpt>
      <trkpt lat="43.57383" lon="3.37131">
        <ele>215.3</ele>
        <time>2016-05-24T12:38:36Z</time>
      </trkpt>
      <trkpt lat="43.57381" lon="3.37118">
        <ele>213.2</ele>
        <time>2016-05-24T12:38:37Z</time>
      </trkpt>
      <trkpt lat="43.5738" lon="3.37105">
        <ele>211.4</ele>
        <time>2016-05-24T12:38:38Z</time>
      </trkpt>
      <trkpt lat="43.5738" lon="3.37094">
        <ele>210.2</ele>
        <time>2016-05-24T12:38:39Z</time>
      </trkpt>
      <trkpt lat="43.57379" lon="3.37075">
        <ele>208.1</ele>
        <time>2016-05-24T12:38:41Z</time>
      </trkpt>
      <trkpt lat="43.57378" lon="3.37056">
        <ele>205.9</ele>
        <time>2016-05-24T12:38:43Z</time>
      </trkpt>
      <trkpt lat="43.57375" lon="3.37035">
        <ele>203.1</ele>
        <time>2016-05-24T12:38:45Z</time>
      </trkpt>
      <trkpt lat="43.57371" lon="3.37028">
        <ele>202.5</ele>
        <time>2016-05-24T12:38:52Z</time>
      </trkpt>
      <trkpt lat="43.57378" lon="3.3702">
        <ele>202.4</ele>
        <time>2016-05-24T12:38:53Z</time>
      </trkpt>
      <trkpt lat="43.57386" lon="3.37027">
        <ele>202.4</ele>
        <time>2016-05-24T12:38:55Z</time>
      </trkpt>
      <trkpt lat="43.57392" lon="3.37035">
        <ele>202</ele>
        <time>2016-05-24T12:38:57Z</time>
      </trkpt>
      <trkpt lat="43.57398" lon="3.3704">
        <ele>201.8</ele>
        <time>2016-05-24T12:38:59Z</time>
      </trkpt>
      <trkpt lat="43.57402" lon="3.37024">
        <ele>197</ele>
        <time>2016-05-24T12:39:04Z</time>
      </trkpt>
      <trkpt lat="43.57407" lon="3.37009">
        <ele>194.3</ele>
        <time>2016-05-24T12:39:06Z</time>
      </trkpt>
      <trkpt lat="43.57412" lon="3.36991">
        <ele>192.5</ele>
        <time>2016-05-24T12:39:08Z</time>
      </trkpt>
      <trkpt lat="43.57419" lon="3.36972">
        <ele>189.8</ele>
        <time>2016-05-24T12:39:10Z</time>
      </trkpt>
      <trkpt lat="43.57422" lon="3.36962">
        <ele>188.9</ele>
        <time>2016-05-24T12:39:11Z</time>
      </trkpt>
      <trkpt lat="43.57426" lon="3.36953">
        <ele>188.4</ele>
        <time>2016-05-24T12:39:12Z</time>
      </trkpt>
      <trkpt lat="43.5743" lon="3.36943">
        <ele>187.8</ele>
        <time>2016-05-24T12:39:13Z</time>
      </trkpt>
      <trkpt lat="43.57433" lon="3.36934">
        <ele>187.4</ele>
        <time>2016-05-24T12:39:14Z</time>
      </trkpt>
      <trkpt lat="43.57437" lon="3.36923">
        <ele>187.2</ele>
        <time>2016-05-24T12:39:16Z</time>
      </trkpt>
      <trkpt lat="43.57442" lon="3.36916">
        <ele>186.8</ele>
        <time>2016-05-24T12:39:20Z</time>
      </trkpt>
      <trkpt lat="43.57444" lon="3.36906">
        <ele>186.5</ele>
        <time>2016-05-24T12:39:22Z</time>
      </trkpt>
      <trkpt lat="43.57448" lon="3.36895">
        <ele>185.5</ele>
        <time>2016-05-24T12:39:28Z</time>
      </trkpt>
      <trkpt lat="43.57454" lon="3.36887">
        <ele>185.1</ele>
        <time>2016-05-24T12:39:31Z</time>
      </trkpt>
      <trkpt lat="43.57461" lon="3.3688">
        <ele>184.7</ele>
        <time>2016-05-24T12:39:34Z</time>
      </trkpt>
      <trkpt lat="43.57467" lon="3.36874">
        <ele>184.5</ele>
        <time>2016-05-24T12:39:37Z</time>
      </trkpt>
      <trkpt lat="43.57476" lon="3.36867">
        <ele>184.3</ele>
        <time>2016-05-24T12:39:40Z</time>
      </trkpt>
      <trkpt lat="43.57483" lon="3.36861">
        <ele>184.2</ele>
        <time>2016-05-24T12:39:42Z</time>
      </trkpt>
      <trkpt lat="43.57489" lon="3.36855">
        <ele>183.9</ele>
        <time>2016-05-24T12:39:44Z</time>
      </trkpt>
      <trkpt lat="43.57494" lon="3.36848">
        <ele>183.6</ele>
        <time>2016-05-24T12:39:46Z</time>
      </trkpt>
      <trkpt lat="43.57503" lon="3.36839">
        <ele>183.3</ele>
        <time>2016-05-24T12:39:48Z</time>
      </trkpt>
      <trkpt lat="43.57509" lon="3.36831">
        <ele>183</ele>
        <time>2016-05-24T12:39:50Z</time>
      </trkpt>
      <trkpt lat="43.57516" lon="3.36824">
        <ele>182.6</ele>
        <time>2016-05-24T12:39:52Z</time>
      </trkpt>
      <trkpt lat="43.57521" lon="3.36816">
        <ele>182.4</ele>
        <time>2016-05-24T12:39:54Z</time>
      </trkpt>
      <trkpt lat="43.57525" lon="3.36807">
        <ele>182.1</ele>
        <time>2016-05-24T12:39:56Z</time>
      </trkpt>
      <trkpt lat="43.57529" lon="3.36794">
        <ele>181.6</ele>
        <time>2016-05-24T12:39:59Z</time>
      </trkpt>
      <trkpt lat="43.57532" lon="3.36783">
        <ele>181.1</ele>
        <time>2016-05-24T12:40:01Z</time>
      </trkpt>
      <trkpt lat="43.57537" lon="3.36773">
        <ele>180.7</ele>
        <time>2016-05-24T12:40:03Z</time>
      </trkpt>
      <trkpt lat="43.57541" lon="3.36764">
        <ele>180.4</ele>
        <time>2016-05-24T12:40:05Z</time>
      </trkpt>
      <trkpt lat="43.57547" lon="3.36752">
        <ele>179</ele>
        <time>2016-05-24T12:40:07Z</time>
      </trkpt>
      <trkpt lat="43.57549" lon="3.36736">
        <ele>176.7</ele>
        <time>2016-05-24T12:40:09Z</time>
      </trkpt>
      <trkpt lat="43.57552" lon="3.36719">
        <ele>174.5</ele>
        <time>2016-05-24T12:40:11Z</time>
      </trkpt>
      <trkpt lat="43.57555" lon="3.36704">
        <ele>173</ele>
        <time>2016-05-24T12:40:13Z</time>
      </trkpt>
      <trkpt lat="43.57558" lon="3.36687">
        <ele>171.6</ele>
        <time>2016-05-24T12:40:15Z</time>
      </trkpt>
      <trkpt lat="43.5756" lon="3.36676">
        <ele>170.3</ele>
        <time>2016-05-24T12:40:16Z</time>
      </trkpt>
      <trkpt lat="43.57562" lon="3.36665">
        <ele>169.4</ele>
        <time>2016-05-24T12:40:17Z</time>
      </trkpt>
      <trkpt lat="43.57563" lon="3.36654">
        <ele>167.8</ele>
        <time>2016-05-24T12:40:18Z</time>
      </trkpt>
      <trkpt lat="43.57565" lon="3.36644">
        <ele>166.3</ele>
        <time>2016-05-24T12:40:19Z</time>
      </trkpt>
      <trkpt lat="43.57569" lon="3.36625">
        <ele>163.1</ele>
        <time>2016-05-24T12:40:21Z</time>
      </trkpt>
      <trkpt lat="43.57569" lon="3.36615">
        <ele>161.9</ele>
        <time>2016-05-24T12:40:22Z</time>
      </trkpt>
      <trkpt lat="43.57569" lon="3.36597">
        <ele>158.8</ele>
        <time>2016-05-24T12:40:24Z</time>
      </trkpt>
      <trkpt lat="43.57575" lon="3.36581">
        <ele>156.2</ele>
        <time>2016-05-24T12:40:26Z</time>
      </trkpt>
      <trkpt lat="43.57574" lon="3.36568">
        <ele>154.9</ele>
        <time>2016-05-24T12:40:28Z</time>
      </trkpt>
      <trkpt lat="43.57575" lon="3.36552">
        <ele>153.3</ele>
        <time>2016-05-24T12:40:30Z</time>
      </trkpt>
      <trkpt lat="43.57575" lon="3.36537">
        <ele>152</ele>
        <time>2016-05-24T12:40:32Z</time>
      </trkpt>
      <trkpt lat="43.57574" lon="3.36526">
        <ele>151.2</ele>
        <time>2016-05-24T12:40:34Z</time>
      </trkpt>
      <trkpt lat="43.57572" lon="3.36513">
        <ele>150</ele>
        <time>2016-05-24T12:40:36Z</time>
      </trkpt>
      <trkpt lat="43.57571" lon="3.365">
        <ele>149.6</ele>
        <time>2016-05-24T12:40:38Z</time>
      </trkpt>
      <trkpt lat="43.57571" lon="3.36488">
        <ele>149.4</ele>
        <time>2016-05-24T12:40:40Z</time>
      </trkpt>
      <trkpt lat="43.5757" lon="3.36475">
        <ele>150</ele>
        <time>2016-05-24T12:40:42Z</time>
      </trkpt>
      <trkpt lat="43.57569" lon="3.3646">
        <ele>151.7</ele>
        <time>2016-05-24T12:40:45Z</time>
      </trkpt>
      <trkpt lat="43.5757" lon="3.36447">
        <ele>152.9</ele>
        <time>2016-05-24T12:40:47Z</time>
      </trkpt>
      <trkpt lat="43.5757" lon="3.36436">
        <ele>153</ele>
        <time>2016-05-24T12:40:49Z</time>
      </trkpt>
      <trkpt lat="43.57572" lon="3.36423">
        <ele>153.1</ele>
        <time>2016-05-24T12:40:52Z</time>
      </trkpt>
      <trkpt lat="43.57573" lon="3.36412">
        <ele>153.1</ele>
        <time>2016-05-24T12:40:54Z</time>
      </trkpt>
      <trkpt lat="43.57572" lon="3.36401">
        <ele>152.9</ele>
        <time>2016-05-24T12:40:57Z</time>
      </trkpt>
      <trkpt lat="43.57573" lon="3.3639">
        <ele>152.7</ele>
        <time>2016-05-24T12:41:01Z</time>
      </trkpt>
      <trkpt lat="43.57573" lon="3.36385">
        <ele>152.5</ele>
        <time>2016-05-24T12:41:08Z</time>
      </trkpt>
      <trkpt lat="43.57577" lon="3.3637">
        <ele>152.6</ele>
        <time>2016-05-24T12:41:11Z</time>
      </trkpt>
      <trkpt lat="43.57578" lon="3.36359">
        <ele>153.6</ele>
        <time>2016-05-24T12:41:17Z</time>
      </trkpt>
      <trkpt lat="43.57577" lon="3.36349">
        <ele>154.7</ele>
        <time>2016-05-24T12:41:21Z</time>
      </trkpt>
      <trkpt lat="43.57576" lon="3.36337">
        <ele>155.5</ele>
        <time>2016-05-24T12:41:25Z</time>
      </trkpt>
      <trkpt lat="43.57578" lon="3.36325">
        <ele>155.9</ele>
        <time>2016-05-24T12:41:28Z</time>
      </trkpt>
      <trkpt lat="43.57579" lon="3.36315">
        <ele>156.5</ele>
        <time>2016-05-24T12:41:32Z</time>
      </trkpt>
      <trkpt lat="43.57579" lon="3.36303">
        <ele>156.9</ele>
        <time>2016-05-24T12:41:36Z</time>
      </trkpt>
      <trkpt lat="43.5758" lon="3.36292">
        <ele>157.1</ele>
        <time>2016-05-24T12:41:39Z</time>
      </trkpt>
      <trkpt lat="43.57585" lon="3.36283">
        <ele>157.4</ele>
        <time>2016-05-24T12:41:42Z</time>
      </trkpt>
      <trkpt lat="43.57589" lon="3.36273">
        <ele>157.7</ele>
        <time>2016-05-24T12:41:45Z</time>
      </trkpt>
      <trkpt lat="43.57594" lon="3.36265">
        <ele>158.1</ele>
        <time>2016-05-24T12:41:49Z</time>
      </trkpt>
      <trkpt lat="43.57601" lon="3.36257">
        <ele>158.8</ele>
        <time>2016-05-24T12:41:54Z</time>
      </trkpt>
      <trkpt lat="43.57604" lon="3.36247">
        <ele>159.5</ele>
        <time>2016-05-24T12:41:57Z</time>
      </trkpt>
      <trkpt lat="43.57612" lon="3.36241">
        <ele>160.4</ele>
        <time>2016-05-24T12:42:01Z</time>
      </trkpt>
      <trkpt lat="43.57618" lon="3.36231">
        <ele>160.9</ele>
        <time>2016-05-24T12:42:05Z</time>
      </trkpt>
      <trkpt lat="43.57623" lon="3.36224">
        <ele>161.3</ele>
        <time>2016-05-24T12:42:08Z</time>
      </trkpt>
      <trkpt lat="43.5763" lon="3.36217">
        <ele>161.9</ele>
        <time>2016-05-24T12:42:11Z</time>
      </trkpt>
      <trkpt lat="43.57636" lon="3.36209">
        <ele>162.6</ele>
        <time>2016-05-24T12:42:15Z</time>
      </trkpt>
      <trkpt lat="43.57643" lon="3.36203">
        <ele>163.3</ele>
        <time>2016-05-24T12:42:19Z</time>
      </trkpt>
      <trkpt lat="43.57649" lon="3.36197">
        <ele>163.7</ele>
        <time>2016-05-24T12:42:22Z</time>
      </trkpt>
      <trkpt lat="43.57655" lon="3.36192">
        <ele>164.3</ele>
        <time>2016-05-24T12:42:26Z</time>
      </trkpt>
      <trkpt lat="43.57662" lon="3.36188">
        <ele>164.7</ele>
        <time>2016-05-24T12:42:29Z</time>
      </trkpt>
      <trkpt lat="43.57669" lon="3.36181">
        <ele>165.1</ele>
        <time>2016-05-24T12:42:32Z</time>
      </trkpt>
      <trkpt lat="43.57675" lon="3.36175">
        <ele>165.5</ele>
        <time>2016-05-24T12:42:35Z</time>
      </trkpt>
      <trkpt lat="43.57682" lon="3.36166">
        <ele>165.7</ele>
        <time>2016-05-24T12:42:38Z</time>
      </trkpt>
      <trkpt lat="43.57689" lon="3.3616">
        <ele>165.9</ele>
        <time>2016-05-24T12:42:41Z</time>
      </trkpt>
      <trkpt lat="43.57696" lon="3.36155">
        <ele>166.4</ele>
        <time>2016-05-24T12:42:44Z</time>
      </trkpt>
      <trkpt lat="43.57703" lon="3.36149">
        <ele>166.7</ele>
        <time>2016-05-24T12:42:47Z</time>
      </trkpt>
      <trkpt lat="43.57707" lon="3.36142">
        <ele>167</ele>
        <time>2016-05-24T12:42:51Z</time>
      </trkpt>
      <trkpt lat="43.57714" lon="3.36135">
        <ele>167.1</ele>
        <time>2016-05-24T12:42:54Z</time>
      </trkpt>
      <trkpt lat="43.5772" lon="3.36129">
        <ele>167</ele>
        <time>2016-05-24T12:42:57Z</time>
      </trkpt>
      <trkpt lat="43.57726" lon="3.36121">
        <ele>166.9</ele>
        <time>2016-05-24T12:43:00Z</time>
      </trkpt>
      <trkpt lat="43.5773" lon="3.36111">
        <ele>166.9</ele>
        <time>2016-05-24T12:43:04Z</time>
      </trkpt>
      <trkpt lat="43.57736" lon="3.361">
        <ele>167.1</ele>
        <time>2016-05-24T12:43:08Z</time>
      </trkpt>
      <trkpt lat="43.57742" lon="3.3609">
        <ele>167.5</ele>
        <time>2016-05-24T12:43:12Z</time>
      </trkpt>
      <trkpt lat="43.5775" lon="3.36089">
        <ele>168.5</ele>
        <time>2016-05-24T12:43:18Z</time>
      </trkpt>
      <trkpt lat="43.57758" lon="3.36089">
        <ele>169.4</ele>
        <time>2016-05-24T12:43:22Z</time>
      </trkpt>
      <trkpt lat="43.57767" lon="3.36093">
        <ele>170</ele>
        <time>2016-05-24T12:43:25Z</time>
      </trkpt>
      <trkpt lat="43.57776" lon="3.36097">
        <ele>172.7</ele>
        <time>2016-05-24T12:43:27Z</time>
      </trkpt>
      <trkpt lat="43.57786" lon="3.36097">
        <ele>174</ele>
        <time>2016-05-24T12:43:29Z</time>
      </trkpt>
      <trkpt lat="43.57793" lon="3.36102">
        <ele>174</ele>
        <time>2016-05-24T12:43:31Z</time>
      </trkpt>
      <trkpt lat="43.57799" lon="3.36111">
        <ele>174</ele>
        <time>2016-05-24T12:43:33Z</time>
      </trkpt>
      <trkpt lat="43.57804" lon="3.36121">
        <ele>174.9</ele>
        <time>2016-05-24T12:43:35Z</time>
      </trkpt>
      <trkpt lat="43.57809" lon="3.3613">
        <ele>175</ele>
        <time>2016-05-24T12:43:37Z</time>
      </trkpt>
      <trkpt lat="43.57814" lon="3.36137">
        <ele>174.9</ele>
        <time>2016-05-24T12:43:39Z</time>
      </trkpt>
      <trkpt lat="43.57821" lon="3.36145">
        <ele>174.9</ele>
        <time>2016-05-24T12:43:43Z</time>
      </trkpt>
      <trkpt lat="43.57827" lon="3.36153">
        <ele>175</ele>
        <time>2016-05-24T12:43:46Z</time>
      </trkpt>
      <trkpt lat="43.57835" lon="3.3616">
        <ele>174.9</ele>
        <time>2016-05-24T12:43:49Z</time>
      </trkpt>
      <trkpt lat="43.57841" lon="3.36168">
        <ele>174.7</ele>
        <time>2016-05-24T12:43:52Z</time>
      </trkpt>
      <trkpt lat="43.57847" lon="3.36177">
        <ele>174.4</ele>
        <time>2016-05-24T12:43:55Z</time>
      </trkpt>
      <trkpt lat="43.57858" lon="3.36175">
        <ele>174.9</ele>
        <time>2016-05-24T12:43:58Z</time>
      </trkpt>
      <trkpt lat="43.57864" lon="3.36167">
        <ele>175</ele>
        <time>2016-05-24T12:44:03Z</time>
      </trkpt>
      <trkpt lat="43.57871" lon="3.36161">
        <ele>175.2</ele>
        <time>2016-05-24T12:44:06Z</time>
      </trkpt>
      <trkpt lat="43.57879" lon="3.36151">
        <ele>175.6</ele>
        <time>2016-05-24T12:44:10Z</time>
      </trkpt>
      <trkpt lat="43.57886" lon="3.36148">
        <ele>176.2</ele>
        <time>2016-05-24T12:44:14Z</time>
      </trkpt>
      <trkpt lat="43.57894" lon="3.36147">
        <ele>176.9</ele>
        <time>2016-05-24T12:44:19Z</time>
      </trkpt>
      <trkpt lat="43.57903" lon="3.36144">
        <ele>177.7</ele>
        <time>2016-05-24T12:44:24Z</time>
      </trkpt>
      <trkpt lat="43.57911" lon="3.36141">
        <ele>178.4</ele>
        <time>2016-05-24T12:44:29Z</time>
      </trkpt>
      <trkpt lat="43.57918" lon="3.36139">
        <ele>179.1</ele>
        <time>2016-05-24T12:44:33Z</time>
      </trkpt>
      <trkpt lat="43.57925" lon="3.36137">
        <ele>179.6</ele>
        <time>2016-05-24T12:44:37Z</time>
      </trkpt>
      <trkpt lat="43.57933" lon="3.36131">
        <ele>179.7</ele>
        <time>2016-05-24T12:44:43Z</time>
      </trkpt>
      <trkpt lat="43.57939" lon="3.36125">
        <ele>180</ele>
        <time>2016-05-24T12:44:47Z</time>
      </trkpt>
      <trkpt lat="43.57944" lon="3.36118">
        <ele>180</ele>
        <time>2016-05-24T12:44:51Z</time>
      </trkpt>
      <trkpt lat="43.57949" lon="3.36109">
        <ele>180.2</ele>
        <time>2016-05-24T12:44:54Z</time>
      </trkpt>
      <trkpt lat="43.57954" lon="3.36101">
        <ele>180.5</ele>
        <time>2016-05-24T12:44:57Z</time>
      </trkpt>
      <trkpt lat="43.57959" lon="3.36092">
        <ele>180.6</ele>
        <time>2016-05-24T12:44:59Z</time>
      </trkpt>
      <trkpt lat="43.57964" lon="3.36084">
        <ele>181.1</ele>
        <time>2016-05-24T12:45:02Z</time>
      </trkpt>
      <trkpt lat="43.57972" lon="3.36073">
        <ele>181.6</ele>
        <time>2016-05-24T12:45:06Z</time>
      </trkpt>
      <trkpt lat="43.57977" lon="3.36064">
        <ele>181.8</ele>
        <time>2016-05-24T12:45:08Z</time>
      </trkpt>
      <trkpt lat="43.57982" lon="3.36054">
        <ele>182.1</ele>
        <time>2016-05-24T12:45:11Z</time>
      </trkpt>
      <trkpt lat="43.57986" lon="3.36044">
        <ele>182.3</ele>
        <time>2016-05-24T12:45:14Z</time>
      </trkpt>
      <trkpt lat="43.5799" lon="3.36035">
        <ele>182.3</ele>
        <time>2016-05-24T12:45:17Z</time>
      </trkpt>
      <trkpt lat="43.57995" lon="3.36027">
        <ele>182.4</ele>
        <time>2016-05-24T12:45:20Z</time>
      </trkpt>
      <trkpt lat="43.58" lon="3.36018">
        <ele>182.3</ele>
        <time>2016-05-24T12:45:23Z</time>
      </trkpt>
      <trkpt lat="43.58005" lon="3.3601">
        <ele>182.5</ele>
        <time>2016-05-24T12:45:26Z</time>
      </trkpt>
      <trkpt lat="43.5801" lon="3.36">
        <ele>182.7</ele>
        <time>2016-05-24T12:45:29Z</time>
      </trkpt>
      <trkpt lat="43.58015" lon="3.3599">
        <ele>182.8</ele>
        <time>2016-05-24T12:45:33Z</time>
      </trkpt>
      <trkpt lat="43.58019" lon="3.35978">
        <ele>182.9</ele>
        <time>2016-05-24T12:45:36Z</time>
      </trkpt>
      <trkpt lat="43.58025" lon="3.3597">
        <ele>183.1</ele>
        <time>2016-05-24T12:45:39Z</time>
      </trkpt>
      <trkpt lat="43.58031" lon="3.35961">
        <ele>183.4</ele>
        <time>2016-05-24T12:45:42Z</time>
      </trkpt>
      <trkpt lat="43.58035" lon="3.35953">
        <ele>183.6</ele>
        <time>2016-05-24T12:45:45Z</time>
      </trkpt>
      <trkpt lat="43.5804" lon="3.35943">
        <ele>184</ele>
        <time>2016-05-24T12:45:49Z</time>
      </trkpt>
      <trkpt lat="43.58044" lon="3.35932">
        <ele>184.5</ele>
        <time>2016-05-24T12:45:53Z</time>
      </trkpt>
      <trkpt lat="43.58048" lon="3.35922">
        <ele>184.8</ele>
        <time>2016-05-24T12:45:56Z</time>
      </trkpt>
      <trkpt lat="43.58053" lon="3.35912">
        <ele>185</ele>
        <time>2016-05-24T12:46:00Z</time>
      </trkpt>
      <trkpt lat="43.58057" lon="3.35903">
        <ele>185.2</ele>
        <time>2016-05-24T12:46:03Z</time>
      </trkpt>
      <trkpt lat="43.58061" lon="3.35893">
        <ele>185.9</ele>
        <time>2016-05-24T12:46:08Z</time>
      </trkpt>
      <trkpt lat="43.58066" lon="3.35884">
        <ele>186.7</ele>
        <time>2016-05-24T12:46:12Z</time>
      </trkpt>
      <trkpt lat="43.58071" lon="3.35873">
        <ele>187.9</ele>
        <time>2016-05-24T12:46:17Z</time>
      </trkpt>
      <trkpt lat="43.58075" lon="3.35864">
        <ele>188.8</ele>
        <time>2016-05-24T12:46:21Z</time>
      </trkpt>
      <trkpt lat="43.5808" lon="3.35853">
        <ele>189.6</ele>
        <time>2016-05-24T12:46:25Z</time>
      </trkpt>
      <trkpt lat="43.58084" lon="3.35842">
        <ele>190.7</ele>
        <time>2016-05-24T12:46:30Z</time>
      </trkpt>
      <trkpt lat="43.58089" lon="3.35833">
        <ele>191.6</ele>
        <time>2016-05-24T12:46:34Z</time>
      </trkpt>
      <trkpt lat="43.58095" lon="3.35823">
        <ele>192.2</ele>
        <time>2016-05-24T12:46:37Z</time>
      </trkpt>
      <trkpt lat="43.58099" lon="3.35813">
        <ele>193.2</ele>
        <time>2016-05-24T12:46:41Z</time>
      </trkpt>
      <trkpt lat="43.58104" lon="3.35802">
        <ele>194.2</ele>
        <time>2016-05-24T12:46:46Z</time>
      </trkpt>
      <trkpt lat="43.58108" lon="3.35791">
        <ele>195.3</ele>
        <time>2016-05-24T12:46:51Z</time>
      </trkpt>
      <trkpt lat="43.58112" lon="3.3578">
        <ele>196.3</ele>
        <time>2016-05-24T12:46:55Z</time>
      </trkpt>
      <trkpt lat="43.58114" lon="3.35769">
        <ele>197.3</ele>
        <time>2016-05-24T12:47:00Z</time>
      </trkpt>
      <trkpt lat="43.58118" lon="3.35759">
        <ele>198.2</ele>
        <time>2016-05-24T12:47:05Z</time>
      </trkpt>
      <trkpt lat="43.58122" lon="3.35749">
        <ele>198.8</ele>
        <time>2016-05-24T12:47:09Z</time>
      </trkpt>
      <trkpt lat="43.58124" lon="3.35739">
        <ele>199.3</ele>
        <time>2016-05-24T12:47:13Z</time>
      </trkpt>
      <trkpt lat="43.58124" lon="3.35729">
        <ele>200</ele>
        <time>2016-05-24T12:47:17Z</time>
      </trkpt>
      <trkpt lat="43.58127" lon="3.35719">
        <ele>200.7</ele>
        <time>2016-05-24T12:47:20Z</time>
      </trkpt>
      <trkpt lat="43.5813" lon="3.35708">
        <ele>201.3</ele>
        <time>2016-05-24T12:47:24Z</time>
      </trkpt>
      <trkpt lat="43.58134" lon="3.35699">
        <ele>201.6</ele>
        <time>2016-05-24T12:47:27Z</time>
      </trkpt>
      <trkpt lat="43.58138" lon="3.35691">
        <ele>201.7</ele>
        <time>2016-05-24T12:47:30Z</time>
      </trkpt>
      <trkpt lat="43.58143" lon="3.35681">
        <ele>202.3</ele>
        <time>2016-05-24T12:47:34Z</time>
      </trkpt>
      <trkpt lat="43.58147" lon="3.35673">
        <ele>202.7</ele>
        <time>2016-05-24T12:47:37Z</time>
      </trkpt>
      <trkpt lat="43.58152" lon="3.35664">
        <ele>203.1</ele>
        <time>2016-05-24T12:47:40Z</time>
      </trkpt>
      <trkpt lat="43.58156" lon="3.35655">
        <ele>203.5</ele>
        <time>2016-05-24T12:47:43Z</time>
      </trkpt>
      <trkpt lat="43.58161" lon="3.35642">
        <ele>204</ele>
        <time>2016-05-24T12:47:46Z</time>
      </trkpt>
      <trkpt lat="43.58164" lon="3.35633">
        <ele>204.1</ele>
        <time>2016-05-24T12:47:48Z</time>
      </trkpt>
      <trkpt lat="43.58167" lon="3.35622">
        <ele>205.3</ele>
        <time>2016-05-24T12:47:50Z</time>
      </trkpt>
      <trkpt lat="43.5817" lon="3.35612">
        <ele>206.2</ele>
        <time>2016-05-24T12:47:52Z</time>
      </trkpt>
      <trkpt lat="43.58173" lon="3.356">
        <ele>206.8</ele>
        <time>2016-05-24T12:47:54Z</time>
      </trkpt>
      <trkpt lat="43.58175" lon="3.35587">
        <ele>208.7</ele>
        <time>2016-05-24T12:47:56Z</time>
      </trkpt>
      <trkpt lat="43.58176" lon="3.35572">
        <ele>207</ele>
        <time>2016-05-24T12:47:58Z</time>
      </trkpt>
      <trkpt lat="43.58178" lon="3.35556">
        <ele>205.3</ele>
        <time>2016-05-24T12:48:00Z</time>
      </trkpt>
      <trkpt lat="43.5818" lon="3.3554">
        <ele>204.6</ele>
        <time>2016-05-24T12:48:02Z</time>
      </trkpt>
      <trkpt lat="43.58182" lon="3.3553">
        <ele>204.5</ele>
        <time>2016-05-24T12:48:03Z</time>
      </trkpt>
      <trkpt lat="43.58183" lon="3.35514">
        <ele>204.3</ele>
        <time>2016-05-24T12:48:05Z</time>
      </trkpt>
      <trkpt lat="43.58186" lon="3.35497">
        <ele>204</ele>
        <time>2016-05-24T12:48:07Z</time>
      </trkpt>
      <trkpt lat="43.58191" lon="3.35481">
        <ele>204.3</ele>
        <time>2016-05-24T12:48:09Z</time>
      </trkpt>
      <trkpt lat="43.58195" lon="3.35468">
        <ele>204.5</ele>
        <time>2016-05-24T12:48:11Z</time>
      </trkpt>
      <trkpt lat="43.58196" lon="3.35458">
        <ele>205.5</ele>
        <time>2016-05-24T12:48:13Z</time>
      </trkpt>
      <trkpt lat="43.58196" lon="3.35445">
        <ele>205.6</ele>
        <time>2016-05-24T12:48:16Z</time>
      </trkpt>
      <trkpt lat="43.58196" lon="3.35436">
        <ele>205.8</ele>
        <time>2016-05-24T12:48:18Z</time>
      </trkpt>
      <trkpt lat="43.58192" lon="3.35426">
        <ele>206.3</ele>
        <time>2016-05-24T12:48:21Z</time>
      </trkpt>
      <trkpt lat="43.58188" lon="3.35417">
        <ele>206.7</ele>
        <time>2016-05-24T12:48:24Z</time>
      </trkpt>
      <trkpt lat="43.58183" lon="3.35407">
        <ele>207.3</ele>
        <time>2016-05-24T12:48:27Z</time>
      </trkpt>
      <trkpt lat="43.58181" lon="3.35396">
        <ele>208.4</ele>
        <time>2016-05-24T12:48:31Z</time>
      </trkpt>
      <trkpt lat="43.58179" lon="3.35386">
        <ele>209.2</ele>
        <time>2016-05-24T12:48:34Z</time>
      </trkpt>
      <trkpt lat="43.58177" lon="3.35373">
        <ele>210</ele>
        <time>2016-05-24T12:48:37Z</time>
      </trkpt>
      <trkpt lat="43.58175" lon="3.35362">
        <ele>210.6</ele>
        <time>2016-05-24T12:48:41Z</time>
      </trkpt>
      <trkpt lat="43.58173" lon="3.35352">
        <ele>211.7</ele>
        <time>2016-05-24T12:48:46Z</time>
      </trkpt>
      <trkpt lat="43.58169" lon="3.35343">
        <ele>212.6</ele>
        <time>2016-05-24T12:48:49Z</time>
      </trkpt>
      <trkpt lat="43.58166" lon="3.35333">
        <ele>213.4</ele>
        <time>2016-05-24T12:48:53Z</time>
      </trkpt>
      <trkpt lat="43.58165" lon="3.35322">
        <ele>213.8</ele>
        <time>2016-05-24T12:48:56Z</time>
      </trkpt>
      <trkpt lat="43.58164" lon="3.35312">
        <ele>214.2</ele>
        <time>2016-05-24T12:49:00Z</time>
      </trkpt>
      <trkpt lat="43.58164" lon="3.35299">
        <ele>214.6</ele>
        <time>2016-05-24T12:49:03Z</time>
      </trkpt>
      <trkpt lat="43.58165" lon="3.35287">
        <ele>215.5</ele>
        <time>2016-05-24T12:49:08Z</time>
      </trkpt>
      <trkpt lat="43.58162" lon="3.35277">
        <ele>216.3</ele>
        <time>2016-05-24T12:49:12Z</time>
      </trkpt>
      <trkpt lat="43.5816" lon="3.35267">
        <ele>217.1</ele>
        <time>2016-05-24T12:49:16Z</time>
      </trkpt>
      <trkpt lat="43.58159" lon="3.35254">
        <ele>218</ele>
        <time>2016-05-24T12:49:20Z</time>
      </trkpt>
      <trkpt lat="43.58157" lon="3.35243">
        <ele>218.6</ele>
        <time>2016-05-24T12:49:24Z</time>
      </trkpt>
      <trkpt lat="43.58155" lon="3.35231">
        <ele>219.1</ele>
        <time>2016-05-24T12:49:29Z</time>
      </trkpt>
      <trkpt lat="43.58154" lon="3.3522">
        <ele>219.6</ele>
        <time>2016-05-24T12:49:33Z</time>
      </trkpt>
      <trkpt lat="43.58153" lon="3.35209">
        <ele>220.1</ele>
        <time>2016-05-24T12:49:37Z</time>
      </trkpt>
      <trkpt lat="43.58152" lon="3.35197">
        <ele>220.5</ele>
        <time>2016-05-24T12:49:41Z</time>
      </trkpt>
      <trkpt lat="43.5815" lon="3.35184">
        <ele>221</ele>
        <time>2016-05-24T12:49:45Z</time>
      </trkpt>
      <trkpt lat="43.58148" lon="3.35173">
        <ele>221.6</ele>
        <time>2016-05-24T12:49:49Z</time>
      </trkpt>
      <trkpt lat="43.58145" lon="3.35162">
        <ele>222.5</ele>
        <time>2016-05-24T12:49:53Z</time>
      </trkpt>
      <trkpt lat="43.58142" lon="3.35152">
        <ele>223.2</ele>
        <time>2016-05-24T12:49:57Z</time>
      </trkpt>
      <trkpt lat="43.58142" lon="3.35142">
        <ele>223.7</ele>
        <time>2016-05-24T12:50:00Z</time>
      </trkpt>
      <trkpt lat="43.58139" lon="3.35128">
        <ele>224.3</ele>
        <time>2016-05-24T12:50:04Z</time>
      </trkpt>
      <trkpt lat="43.58138" lon="3.35118">
        <ele>225</ele>
        <time>2016-05-24T12:50:08Z</time>
      </trkpt>
      <trkpt lat="43.58137" lon="3.35106">
        <ele>225.2</ele>
        <time>2016-05-24T12:50:12Z</time>
      </trkpt>
      <trkpt lat="43.58135" lon="3.35095">
        <ele>225.4</ele>
        <time>2016-05-24T12:50:16Z</time>
      </trkpt>
      <trkpt lat="43.58134" lon="3.35085">
        <ele>225.6</ele>
        <time>2016-05-24T12:50:19Z</time>
      </trkpt>
      <trkpt lat="43.58132" lon="3.35074">
        <ele>225.9</ele>
        <time>2016-05-24T12:50:23Z</time>
      </trkpt>
      <trkpt lat="43.5813" lon="3.35064">
        <ele>226.4</ele>
        <time>2016-05-24T12:50:27Z</time>
      </trkpt>
      <trkpt lat="43.5813" lon="3.35053">
        <ele>226.8</ele>
        <time>2016-05-24T12:50:31Z</time>
      </trkpt>
      <trkpt lat="43.58127" lon="3.35043">
        <ele>227.4</ele>
        <time>2016-05-24T12:50:35Z</time>
      </trkpt>
      <trkpt lat="43.58127" lon="3.35031">
        <ele>228</ele>
        <time>2016-05-24T12:50:39Z</time>
      </trkpt>
      <trkpt lat="43.58126" lon="3.3502">
        <ele>229.2</ele>
        <time>2016-05-24T12:50:44Z</time>
      </trkpt>
      <trkpt lat="43.58126" lon="3.3501">
        <ele>230.1</ele>
        <time>2016-05-24T12:50:48Z</time>
      </trkpt>
      <trkpt lat="43.58127" lon="3.34999">
        <ele>231</ele>
        <time>2016-05-24T12:50:52Z</time>
      </trkpt>
      <trkpt lat="43.58126" lon="3.34989">
        <ele>231.7</ele>
        <time>2016-05-24T12:50:56Z</time>
      </trkpt>
      <trkpt lat="43.58125" lon="3.34978">
        <ele>232.9</ele>
        <time>2016-05-24T12:51:01Z</time>
      </trkpt>
      <trkpt lat="43.58127" lon="3.34966">
        <ele>233.6</ele>
        <time>2016-05-24T12:51:04Z</time>
      </trkpt>
      <trkpt lat="43.5813" lon="3.34956">
        <ele>234.1</ele>
        <time>2016-05-24T12:51:08Z</time>
      </trkpt>
      <trkpt lat="43.5813" lon="3.34946">
        <ele>234.8</ele>
        <time>2016-05-24T12:51:12Z</time>
      </trkpt>
      <trkpt lat="43.58128" lon="3.34936">
        <ele>235.7</ele>
        <time>2016-05-24T12:51:16Z</time>
      </trkpt>
      <trkpt lat="43.58125" lon="3.34927">
        <ele>236.9</ele>
        <time>2016-05-24T12:51:20Z</time>
      </trkpt>
      <trkpt lat="43.58126" lon="3.34915">
        <ele>238.1</ele>
        <time>2016-05-24T12:51:24Z</time>
      </trkpt>
      <trkpt lat="43.58125" lon="3.34905">
        <ele>238.7</ele>
        <time>2016-05-24T12:51:28Z</time>
      </trkpt>
      <trkpt lat="43.58125" lon="3.34894">
        <ele>239.3</ele>
        <time>2016-05-24T12:51:32Z</time>
      </trkpt>
      <trkpt lat="43.58122" lon="3.34883">
        <ele>240.2</ele>
        <time>2016-05-24T12:51:36Z</time>
      </trkpt>
      <trkpt lat="43.58121" lon="3.34872">
        <ele>241.4</ele>
        <time>2016-05-24T12:51:40Z</time>
      </trkpt>
      <trkpt lat="43.5812" lon="3.3486">
        <ele>242.5</ele>
        <time>2016-05-24T12:51:44Z</time>
      </trkpt>
      <trkpt lat="43.58117" lon="3.34849">
        <ele>243.8</ele>
        <time>2016-05-24T12:51:48Z</time>
      </trkpt>
      <trkpt lat="43.58116" lon="3.34838">
        <ele>245</ele>
        <time>2016-05-24T12:51:53Z</time>
      </trkpt>
      <trkpt lat="43.58113" lon="3.34829">
        <ele>246.2</ele>
        <time>2016-05-24T12:51:57Z</time>
      </trkpt>
      <trkpt lat="43.58107" lon="3.34821">
        <ele>248.4</ele>
        <time>2016-05-24T12:52:02Z</time>
      </trkpt>
      <trkpt lat="43.58101" lon="3.34811">
        <ele>250.7</ele>
        <time>2016-05-24T12:52:07Z</time>
      </trkpt>
      <trkpt lat="43.58095" lon="3.34804">
        <ele>252.8</ele>
        <time>2016-05-24T12:52:12Z</time>
      </trkpt>
      <trkpt lat="43.5809" lon="3.34794">
        <ele>255.5</ele>
        <time>2016-05-24T12:52:18Z</time>
      </trkpt>
      <trkpt lat="43.58084" lon="3.34786">
        <ele>257.5</ele>
        <time>2016-05-24T12:52:22Z</time>
      </trkpt>
      <trkpt lat="43.5808" lon="3.34777">
        <ele>259.2</ele>
        <time>2016-05-24T12:52:26Z</time>
      </trkpt>
      <trkpt lat="43.58081" lon="3.34779">
        <ele>261</ele>
        <time>2016-05-24T12:52:39Z</time>
      </trkpt>
      <trkpt lat="43.58083" lon="3.34789">
        <ele>261.1</ele>
        <time>2016-05-24T12:52:43Z</time>
      </trkpt>
      <trkpt lat="43.58084" lon="3.34799">
        <ele>261.1</ele>
        <time>2016-05-24T12:52:46Z</time>
      </trkpt>
      <trkpt lat="43.58088" lon="3.34811">
        <ele>261.1</ele>
        <time>2016-05-24T12:52:49Z</time>
      </trkpt>
      <trkpt lat="43.58088" lon="3.34824">
        <ele>261.2</ele>
        <time>2016-05-24T12:52:52Z</time>
      </trkpt>
      <trkpt lat="43.58089" lon="3.34836">
        <ele>261.2</ele>
        <time>2016-05-24T12:52:55Z</time>
      </trkpt>
      <trkpt lat="43.5809" lon="3.34849">
        <ele>261.3</ele>
        <time>2016-05-24T12:52:58Z</time>
      </trkpt>
      <trkpt lat="43.58091" lon="3.3486">
        <ele>261.3</ele>
        <time>2016-05-24T12:53:01Z</time>
      </trkpt>
      <trkpt lat="43.58091" lon="3.34873">
        <ele>261.5</ele>
        <time>2016-05-24T12:53:04Z</time>
      </trkpt>
      <trkpt lat="43.5809" lon="3.34885">
        <ele>261.6</ele>
        <time>2016-05-24T12:53:07Z</time>
      </trkpt>
      <trkpt lat="43.58089" lon="3.34895">
        <ele>261.8</ele>
        <time>2016-05-24T12:53:10Z</time>
      </trkpt>
      <trkpt lat="43.58087" lon="3.34907">
        <ele>261.9</ele>
        <time>2016-05-24T12:53:13Z</time>
      </trkpt>
      <trkpt lat="43.58086" lon="3.34917">
        <ele>262</ele>
        <time>2016-05-24T12:53:16Z</time>
      </trkpt>
      <trkpt lat="43.58082" lon="3.34927">
        <ele>262</ele>
        <time>2016-05-24T12:53:20Z</time>
      </trkpt>
      <trkpt lat="43.58078" lon="3.34936">
        <ele>261.8</ele>
        <time>2016-05-24T12:53:23Z</time>
      </trkpt>
      <trkpt lat="43.58074" lon="3.34946">
        <ele>261.8</ele>
        <time>2016-05-24T12:53:26Z</time>
      </trkpt>
      <trkpt lat="43.5807" lon="3.34958">
        <ele>261.9</ele>
        <time>2016-05-24T12:53:30Z</time>
      </trkpt>
      <trkpt lat="43.58064" lon="3.3497">
        <ele>261.8</ele>
        <time>2016-05-24T12:53:34Z</time>
      </trkpt>
      <trkpt lat="43.58063" lon="3.3498">
        <ele>261.9</ele>
        <time>2016-05-24T12:53:37Z</time>
      </trkpt>
      <trkpt lat="43.58059" lon="3.34991">
        <ele>262.1</ele>
        <time>2016-05-24T12:53:41Z</time>
      </trkpt>
      <trkpt lat="43.58056" lon="3.35001">
        <ele>262.5</ele>
        <time>2016-05-24T12:53:45Z</time>
      </trkpt>
      <trkpt lat="43.58052" lon="3.35011">
        <ele>263</ele>
        <time>2016-05-24T12:53:49Z</time>
      </trkpt>
      <trkpt lat="43.58048" lon="3.35023">
        <ele>263.4</ele>
        <time>2016-05-24T12:53:53Z</time>
      </trkpt>
      <trkpt lat="43.58044" lon="3.35031">
        <ele>263.7</ele>
        <time>2016-05-24T12:53:56Z</time>
      </trkpt>
      <trkpt lat="43.5804" lon="3.35044">
        <ele>264</ele>
        <time>2016-05-24T12:54:00Z</time>
      </trkpt>
      <trkpt lat="43.58036" lon="3.35053">
        <ele>264.1</ele>
        <time>2016-05-24T12:54:03Z</time>
      </trkpt>
      <trkpt lat="43.5803" lon="3.35061">
        <ele>264.3</ele>
        <time>2016-05-24T12:54:06Z</time>
      </trkpt>
      <trkpt lat="43.58024" lon="3.35066">
        <ele>264.7</ele>
        <time>2016-05-24T12:54:09Z</time>
      </trkpt>
      <trkpt lat="43.58016" lon="3.35065">
        <ele>265.2</ele>
        <time>2016-05-24T12:54:13Z</time>
      </trkpt>
      <trkpt lat="43.58013" lon="3.35054">
        <ele>266.1</ele>
        <time>2016-05-24T12:54:17Z</time>
      </trkpt>
      <trkpt lat="43.58011" lon="3.35042">
        <ele>267.1</ele>
        <time>2016-05-24T12:54:21Z</time>
      </trkpt>
      <trkpt lat="43.5801" lon="3.35031">
        <ele>268.2</ele>
        <time>2016-05-24T12:54:25Z</time>
      </trkpt>
      <trkpt lat="43.5801" lon="3.35018">
        <ele>268.9</ele>
        <time>2016-05-24T12:54:29Z</time>
      </trkpt>
      <trkpt lat="43.58009" lon="3.35007">
        <ele>269.5</ele>
        <time>2016-05-24T12:54:33Z</time>
      </trkpt>
      <trkpt lat="43.58006" lon="3.34996">
        <ele>270.7</ele>
        <time>2016-05-24T12:54:38Z</time>
      </trkpt>
      <trkpt lat="43.58005" lon="3.34985">
        <ele>271.8</ele>
        <time>2016-05-24T12:54:42Z</time>
      </trkpt>
      <trkpt lat="43.58003" lon="3.34974">
        <ele>272.7</ele>
        <time>2016-05-24T12:54:46Z</time>
      </trkpt>
      <trkpt lat="43.58001" lon="3.34964">
        <ele>273.4</ele>
        <time>2016-05-24T12:54:49Z</time>
      </trkpt>
      <trkpt lat="43.57998" lon="3.34953">
        <ele>274</ele>
        <time>2016-05-24T12:54:53Z</time>
      </trkpt>
      <trkpt lat="43.57995" lon="3.34943">
        <ele>274.7</ele>
        <time>2016-05-24T12:54:57Z</time>
      </trkpt>
      <trkpt lat="43.57992" lon="3.34932">
        <ele>275.6</ele>
        <time>2016-05-24T12:55:02Z</time>
      </trkpt>
      <trkpt lat="43.5799" lon="3.34922">
        <ele>276.2</ele>
        <time>2016-05-24T12:55:05Z</time>
      </trkpt>
      <trkpt lat="43.57987" lon="3.34912">
        <ele>276.8</ele>
        <time>2016-05-24T12:55:08Z</time>
      </trkpt>
      <trkpt lat="43.57986" lon="3.34898">
        <ele>277.6</ele>
        <time>2016-05-24T12:55:12Z</time>
      </trkpt>
      <trkpt lat="43.57986" lon="3.34888">
        <ele>278.2</ele>
        <time>2016-05-24T12:55:15Z</time>
      </trkpt>
      <trkpt lat="43.57987" lon="3.34878">
        <ele>278.5</ele>
        <time>2016-05-24T12:55:18Z</time>
      </trkpt>
      <trkpt lat="43.5799" lon="3.34865">
        <ele>279.2</ele>
        <time>2016-05-24T12:55:22Z</time>
      </trkpt>
      <trkpt lat="43.57993" lon="3.34855">
        <ele>279.5</ele>
        <time>2016-05-24T12:55:25Z</time>
      </trkpt>
      <trkpt lat="43.57995" lon="3.34845">
        <ele>280.1</ele>
        <time>2016-05-24T12:55:29Z</time>
      </trkpt>
      <trkpt lat="43.57995" lon="3.34832">
        <ele>280.5</ele>
        <time>2016-05-24T12:55:33Z</time>
      </trkpt>
      <trkpt lat="43.57995" lon="3.34821">
        <ele>280.9</ele>
        <time>2016-05-24T12:55:36Z</time>
      </trkpt>
      <trkpt lat="43.57995" lon="3.34809">
        <ele>281.5</ele>
        <time>2016-05-24T12:55:39Z</time>
      </trkpt>
      <trkpt lat="43.57995" lon="3.34798">
        <ele>282</ele>
        <time>2016-05-24T12:55:42Z</time>
      </trkpt>
      <trkpt lat="43.57994" lon="3.34788">
        <ele>282.6</ele>
        <time>2016-05-24T12:55:45Z</time>
      </trkpt>
      <trkpt lat="43.57993" lon="3.34777">
        <ele>283.2</ele>
        <time>2016-05-24T12:55:48Z</time>
      </trkpt>
      <trkpt lat="43.57994" lon="3.34767">
        <ele>283.7</ele>
        <time>2016-05-24T12:55:51Z</time>
      </trkpt>
      <trkpt lat="43.57993" lon="3.34755">
        <ele>284.3</ele>
        <time>2016-05-24T12:55:55Z</time>
      </trkpt>
      <trkpt lat="43.57995" lon="3.34743">
        <ele>284.6</ele>
        <time>2016-05-24T12:55:58Z</time>
      </trkpt>
      <trkpt lat="43.57998" lon="3.3473">
        <ele>284.9</ele>
        <time>2016-05-24T12:56:02Z</time>
      </trkpt>
      <trkpt lat="43.57998" lon="3.34718">
        <ele>285.2</ele>
        <time>2016-05-24T12:56:06Z</time>
      </trkpt>
      <trkpt lat="43.57997" lon="3.34708">
        <ele>285.5</ele>
        <time>2016-05-24T12:56:10Z</time>
      </trkpt>
      <trkpt lat="43.57995" lon="3.34695">
        <ele>285.7</ele>
        <time>2016-05-24T12:56:15Z</time>
      </trkpt>
      <trkpt lat="43.57993" lon="3.34685">
        <ele>285.9</ele>
        <time>2016-05-24T12:56:19Z</time>
      </trkpt>
      <trkpt lat="43.57992" lon="3.34672">
        <ele>286.7</ele>
        <time>2016-05-24T12:56:24Z</time>
      </trkpt>
      <trkpt lat="43.57992" lon="3.34662">
        <ele>287.3</ele>
        <time>2016-05-24T12:56:28Z</time>
      </trkpt>
      <trkpt lat="43.57992" lon="3.34651">
        <ele>287.7</ele>
        <time>2016-05-24T12:56:33Z</time>
      </trkpt>
      <trkpt lat="43.57991" lon="3.34641">
        <ele>288</ele>
        <time>2016-05-24T12:56:37Z</time>
      </trkpt>
      <trkpt lat="43.57988" lon="3.3463">
        <ele>288.6</ele>
        <time>2016-05-24T12:56:41Z</time>
      </trkpt>
      <trkpt lat="43.57986" lon="3.34618">
        <ele>289.1</ele>
        <time>2016-05-24T12:56:46Z</time>
      </trkpt>
      <trkpt lat="43.57985" lon="3.34606">
        <ele>289.7</ele>
        <time>2016-05-24T12:56:51Z</time>
      </trkpt>
      <trkpt lat="43.57985" lon="3.34595">
        <ele>290.4</ele>
        <time>2016-05-24T12:56:55Z</time>
      </trkpt>
      <trkpt lat="43.57984" lon="3.34583">
        <ele>291.3</ele>
        <time>2016-05-24T12:57:00Z</time>
      </trkpt>
      <trkpt lat="43.57981" lon="3.34572">
        <ele>292.3</ele>
        <time>2016-05-24T12:57:05Z</time>
      </trkpt>
      <trkpt lat="43.57979" lon="3.34563">
        <ele>293.1</ele>
        <time>2016-05-24T12:57:09Z</time>
      </trkpt>
      <trkpt lat="43.57978" lon="3.34552">
        <ele>294</ele>
        <time>2016-05-24T12:57:13Z</time>
      </trkpt>
      <trkpt lat="43.57976" lon="3.34541">
        <ele>294.9</ele>
        <time>2016-05-24T12:57:18Z</time>
      </trkpt>
      <trkpt lat="43.57975" lon="3.3453">
        <ele>295.7</ele>
        <time>2016-05-24T12:57:22Z</time>
      </trkpt>
      <trkpt lat="43.57971" lon="3.34521">
        <ele>296.5</ele>
        <time>2016-05-24T12:57:27Z</time>
      </trkpt>
      <trkpt lat="43.57967" lon="3.34511">
        <ele>297</ele>
        <time>2016-05-24T12:57:31Z</time>
      </trkpt>
      <trkpt lat="43.57964" lon="3.34502">
        <ele>297.8</ele>
        <time>2016-05-24T12:57:35Z</time>
      </trkpt>
      <trkpt lat="43.57962" lon="3.34491">
        <ele>298.9</ele>
        <time>2016-05-24T12:57:40Z</time>
      </trkpt>
      <trkpt lat="43.57961" lon="3.3448">
        <ele>299.8</ele>
        <time>2016-05-24T12:57:44Z</time>
      </trkpt>
      <trkpt lat="43.5796" lon="3.34468">
        <ele>301.3</ele>
        <time>2016-05-24T12:57:50Z</time>
      </trkpt>
      <trkpt lat="43.5796" lon="3.34456">
        <ele>302.5</ele>
        <time>2016-05-24T12:57:54Z</time>
      </trkpt>
      <trkpt lat="43.5796" lon="3.34445">
        <ele>303.3</ele>
        <time>2016-05-24T12:57:57Z</time>
      </trkpt>
      <trkpt lat="43.57958" lon="3.34434">
        <ele>304.4</ele>
        <time>2016-05-24T12:58:01Z</time>
      </trkpt>
      <trkpt lat="43.57957" lon="3.34424">
        <ele>305.5</ele>
        <time>2016-05-24T12:58:06Z</time>
      </trkpt>
      <trkpt lat="43.57959" lon="3.34414">
        <ele>306.2</ele>
        <time>2016-05-24T12:58:10Z</time>
      </trkpt>
      <trkpt lat="43.57961" lon="3.34402">
        <ele>306.6</ele>
        <time>2016-05-24T12:58:14Z</time>
      </trkpt>
      <trkpt lat="43.57961" lon="3.34391">
        <ele>307.2</ele>
        <time>2016-05-24T12:58:20Z</time>
      </trkpt>
      <trkpt lat="43.57963" lon="3.34378">
        <ele>307.8</ele>
        <time>2016-05-24T12:58:25Z</time>
      </trkpt>
      <trkpt lat="43.57964" lon="3.34367">
        <ele>308.8</ele>
        <time>2016-05-24T12:58:31Z</time>
      </trkpt>
      <trkpt lat="43.57966" lon="3.34357">
        <ele>309.3</ele>
        <time>2016-05-24T12:58:35Z</time>
      </trkpt>
      <trkpt lat="43.57969" lon="3.34347">
        <ele>309.8</ele>
        <time>2016-05-24T12:58:39Z</time>
      </trkpt>
      <trkpt lat="43.57971" lon="3.34337">
        <ele>310.4</ele>
        <time>2016-05-24T12:58:44Z</time>
      </trkpt>
      <trkpt lat="43.57974" lon="3.34324">
        <ele>311.2</ele>
        <time>2016-05-24T12:58:48Z</time>
      </trkpt>
      <trkpt lat="43.57979" lon="3.34313">
        <ele>311.9</ele>
        <time>2016-05-24T12:58:52Z</time>
      </trkpt>
      <trkpt lat="43.57983" lon="3.34303">
        <ele>312.5</ele>
        <time>2016-05-24T12:58:56Z</time>
      </trkpt>
      <trkpt lat="43.57986" lon="3.34293">
        <ele>313.4</ele>
        <time>2016-05-24T12:59:00Z</time>
      </trkpt>
      <trkpt lat="43.5799" lon="3.34283">
        <ele>314</ele>
        <time>2016-05-24T12:59:04Z</time>
      </trkpt>
      <trkpt lat="43.57997" lon="3.34275">
        <ele>314.4</ele>
        <time>2016-05-24T12:59:08Z</time>
      </trkpt>
      <trkpt lat="43.58002" lon="3.34268">
        <ele>314.9</ele>
        <time>2016-05-24T12:59:13Z</time>
      </trkpt>
      <trkpt lat="43.58009" lon="3.34261">
        <ele>315.1</ele>
        <time>2016-05-24T12:59:18Z</time>
      </trkpt>
      <trkpt lat="43.58017" lon="3.34255">
        <ele>315.7</ele>
        <time>2016-05-24T12:59:22Z</time>
      </trkpt>
      <trkpt lat="43.58023" lon="3.34249">
        <ele>316.3</ele>
        <time>2016-05-24T12:59:27Z</time>
      </trkpt>
      <trkpt lat="43.58031" lon="3.34243">
        <ele>317.3</ele>
        <time>2016-05-24T12:59:32Z</time>
      </trkpt>
      <trkpt lat="43.58039" lon="3.3424">
        <ele>318.4</ele>
        <time>2016-05-24T12:59:36Z</time>
      </trkpt>
      <trkpt lat="43.58047" lon="3.34239">
        <ele>320</ele>
        <time>2016-05-24T12:59:41Z</time>
      </trkpt>
      <trkpt lat="43.58055" lon="3.34236">
        <ele>321.6</ele>
        <time>2016-05-24T12:59:45Z</time>
      </trkpt>
      <trkpt lat="43.58062" lon="3.34233">
        <ele>323.1</ele>
        <time>2016-05-24T12:59:49Z</time>
      </trkpt>
      <trkpt lat="43.58069" lon="3.3423">
        <ele>324.8</ele>
        <time>2016-05-24T12:59:55Z</time>
      </trkpt>
      <trkpt lat="43.58077" lon="3.34229">
        <ele>325.7</ele>
        <time>2016-05-24T12:59:58Z</time>
      </trkpt>
      <trkpt lat="43.58085" lon="3.34227">
        <ele>326.3</ele>
        <time>2016-05-24T13:00:01Z</time>
      </trkpt>
      <trkpt lat="43.58095" lon="3.34227">
        <ele>327.3</ele>
        <time>2016-05-24T13:00:06Z</time>
      </trkpt>
      <trkpt lat="43.58102" lon="3.34233">
        <ele>328.8</ele>
        <time>2016-05-24T13:00:12Z</time>
      </trkpt>
      <trkpt lat="43.58109" lon="3.3424">
        <ele>330</ele>
        <time>2016-05-24T13:00:16Z</time>
      </trkpt>
      <trkpt lat="43.58113" lon="3.34249">
        <ele>331</ele>
        <time>2016-05-24T13:00:20Z</time>
      </trkpt>
      <trkpt lat="43.58117" lon="3.34258">
        <ele>331.9</ele>
        <time>2016-05-24T13:00:24Z</time>
      </trkpt>
      <trkpt lat="43.58121" lon="3.34268">
        <ele>332.7</ele>
        <time>2016-05-24T13:00:28Z</time>
      </trkpt>
      <trkpt lat="43.58124" lon="3.34279">
        <ele>333.4</ele>
        <time>2016-05-24T13:00:33Z</time>
      </trkpt>
      <trkpt lat="43.58125" lon="3.34291">
        <ele>334.1</ele>
        <time>2016-05-24T13:00:37Z</time>
      </trkpt>
      <trkpt lat="43.58128" lon="3.34302">
        <ele>334.4</ele>
        <time>2016-05-24T13:00:41Z</time>
      </trkpt>
      <trkpt lat="43.58132" lon="3.34313">
        <ele>334.8</ele>
        <time>2016-05-24T13:00:45Z</time>
      </trkpt>
      <trkpt lat="43.58134" lon="3.34323">
        <ele>335.1</ele>
        <time>2016-05-24T13:00:49Z</time>
      </trkpt>
      <trkpt lat="43.58137" lon="3.34333">
        <ele>335.5</ele>
        <time>2016-05-24T13:00:54Z</time>
      </trkpt>
      <trkpt lat="43.5814" lon="3.34343">
        <ele>336</ele>
        <time>2016-05-24T13:00:58Z</time>
      </trkpt>
      <trkpt lat="43.58144" lon="3.34354">
        <ele>336.7</ele>
        <time>2016-05-24T13:01:02Z</time>
      </trkpt>
      <trkpt lat="43.58147" lon="3.34363">
        <ele>337.4</ele>
        <time>2016-05-24T13:01:06Z</time>
      </trkpt>
      <trkpt lat="43.58152" lon="3.34371">
        <ele>337.6</ele>
        <time>2016-05-24T13:01:10Z</time>
      </trkpt>
      <trkpt lat="43.58155" lon="3.34381">
        <ele>337.8</ele>
        <time>2016-05-24T13:01:14Z</time>
      </trkpt>
      <trkpt lat="43.5816" lon="3.34392">
        <ele>338.4</ele>
        <time>2016-05-24T13:01:19Z</time>
      </trkpt>
      <trkpt lat="43.58165" lon="3.344">
        <ele>339.1</ele>
        <time>2016-05-24T13:01:24Z</time>
      </trkpt>
      <trkpt lat="43.58172" lon="3.34408">
        <ele>340</ele>
        <time>2016-05-24T13:01:29Z</time>
      </trkpt>
      <trkpt lat="43.58178" lon="3.34416">
        <ele>340.8</ele>
        <time>2016-05-24T13:01:33Z</time>
      </trkpt>
      <trkpt lat="43.58184" lon="3.34424">
        <ele>341.8</ele>
        <time>2016-05-24T13:01:38Z</time>
      </trkpt>
      <trkpt lat="43.58189" lon="3.34433">
        <ele>342.7</ele>
        <time>2016-05-24T13:01:43Z</time>
      </trkpt>
      <trkpt lat="43.58195" lon="3.34442">
        <ele>343.4</ele>
        <time>2016-05-24T13:01:48Z</time>
      </trkpt>
      <trkpt lat="43.58202" lon="3.34449">
        <ele>344.5</ele>
        <time>2016-05-24T13:01:53Z</time>
      </trkpt>
      <trkpt lat="43.5821" lon="3.34452">
        <ele>345.4</ele>
        <time>2016-05-24T13:01:57Z</time>
      </trkpt>
      <trkpt lat="43.58217" lon="3.34456">
        <ele>346</ele>
        <time>2016-05-24T13:02:01Z</time>
      </trkpt>
      <trkpt lat="43.58225" lon="3.34459">
        <ele>346.9</ele>
        <time>2016-05-24T13:02:05Z</time>
      </trkpt>
      <trkpt lat="43.58234" lon="3.34461">
        <ele>347.8</ele>
        <time>2016-05-24T13:02:11Z</time>
      </trkpt>
      <trkpt lat="43.58242" lon="3.34462">
        <ele>348.8</ele>
        <time>2016-05-24T13:02:16Z</time>
      </trkpt>
      <trkpt lat="43.5825" lon="3.34461">
        <ele>349.8</ele>
        <time>2016-05-24T13:02:21Z</time>
      </trkpt>
      <trkpt lat="43.58258" lon="3.3446">
        <ele>350.5</ele>
        <time>2016-05-24T13:02:26Z</time>
      </trkpt>
      <trkpt lat="43.58267" lon="3.34458">
        <ele>350.9</ele>
        <time>2016-05-24T13:02:30Z</time>
      </trkpt>
      <trkpt lat="43.58274" lon="3.34455">
        <ele>351.4</ele>
        <time>2016-05-24T13:02:34Z</time>
      </trkpt>
      <trkpt lat="43.58281" lon="3.34451">
        <ele>351.9</ele>
        <time>2016-05-24T13:02:38Z</time>
      </trkpt>
      <trkpt lat="43.58285" lon="3.34443">
        <ele>352.7</ele>
        <time>2016-05-24T13:02:43Z</time>
      </trkpt>
      <trkpt lat="43.58281" lon="3.34434">
        <ele>354.2</ele>
        <time>2016-05-24T13:02:50Z</time>
      </trkpt>
      <trkpt lat="43.58272" lon="3.34432">
        <ele>355.1</ele>
        <time>2016-05-24T13:02:55Z</time>
      </trkpt>
      <trkpt lat="43.58265" lon="3.34428">
        <ele>356</ele>
        <time>2016-05-24T13:03:00Z</time>
      </trkpt>
      <trkpt lat="43.58258" lon="3.34421">
        <ele>356.7</ele>
        <time>2016-05-24T13:03:04Z</time>
      </trkpt>
      <trkpt lat="43.58252" lon="3.34413">
        <ele>357.4</ele>
        <time>2016-05-24T13:03:08Z</time>
      </trkpt>
      <trkpt lat="43.58247" lon="3.34403">
        <ele>358.3</ele>
        <time>2016-05-24T13:03:12Z</time>
      </trkpt>
      <trkpt lat="43.58244" lon="3.34394">
        <ele>359.6</ele>
        <time>2016-05-24T13:03:17Z</time>
      </trkpt>
      <trkpt lat="43.5824" lon="3.34382">
        <ele>360.7</ele>
        <time>2016-05-24T13:03:22Z</time>
      </trkpt>
      <trkpt lat="43.58235" lon="3.34372">
        <ele>361.3</ele>
        <time>2016-05-24T13:03:26Z</time>
      </trkpt>
      <trkpt lat="43.5823" lon="3.3436">
        <ele>362.4</ele>
        <time>2016-05-24T13:03:31Z</time>
      </trkpt>
      <trkpt lat="43.58227" lon="3.34349">
        <ele>363.1</ele>
        <time>2016-05-24T13:03:35Z</time>
      </trkpt>
      <trkpt lat="43.58225" lon="3.34339">
        <ele>363.9</ele>
        <time>2016-05-24T13:03:39Z</time>
      </trkpt>
      <trkpt lat="43.58223" lon="3.34329">
        <ele>364.7</ele>
        <time>2016-05-24T13:03:43Z</time>
      </trkpt>
      <trkpt lat="43.58221" lon="3.34317">
        <ele>365.5</ele>
        <time>2016-05-24T13:03:48Z</time>
      </trkpt>
      <trkpt lat="43.58219" lon="3.34307">
        <ele>366.4</ele>
        <time>2016-05-24T13:03:52Z</time>
      </trkpt>
      <trkpt lat="43.58219" lon="3.34296">
        <ele>367.3</ele>
        <time>2016-05-24T13:03:56Z</time>
      </trkpt>
      <trkpt lat="43.5822" lon="3.34284">
        <ele>368.2</ele>
        <time>2016-05-24T13:04:01Z</time>
      </trkpt>
      <trkpt lat="43.5822" lon="3.34273">
        <ele>368.7</ele>
        <time>2016-05-24T13:04:05Z</time>
      </trkpt>
      <trkpt lat="43.58221" lon="3.34261">
        <ele>369.5</ele>
        <time>2016-05-24T13:04:10Z</time>
      </trkpt>
      <trkpt lat="43.5822" lon="3.34251">
        <ele>370</ele>
        <time>2016-05-24T13:04:14Z</time>
      </trkpt>
      <trkpt lat="43.5822" lon="3.34239">
        <ele>370.6</ele>
        <time>2016-05-24T13:04:18Z</time>
      </trkpt>
      <trkpt lat="43.58221" lon="3.34229">
        <ele>371.1</ele>
        <time>2016-05-24T13:04:21Z</time>
      </trkpt>
      <trkpt lat="43.58223" lon="3.34216">
        <ele>371.6</ele>
        <time>2016-05-24T13:04:25Z</time>
      </trkpt>
      <trkpt lat="43.58226" lon="3.34206">
        <ele>372.4</ele>
        <time>2016-05-24T13:04:29Z</time>
      </trkpt>
      <trkpt lat="43.58228" lon="3.34195">
        <ele>373</ele>
        <time>2016-05-24T13:04:33Z</time>
      </trkpt>
      <trkpt lat="43.58231" lon="3.34186">
        <ele>373.7</ele>
        <time>2016-05-24T13:04:37Z</time>
      </trkpt>
      <trkpt lat="43.58236" lon="3.34177">
        <ele>374.5</ele>
        <time>2016-05-24T13:04:41Z</time>
      </trkpt>
      <trkpt lat="43.5824" lon="3.34167">
        <ele>375</ele>
        <time>2016-05-24T13:04:45Z</time>
      </trkpt>
      <trkpt lat="43.58245" lon="3.34156">
        <ele>375.2</ele>
        <time>2016-05-24T13:04:49Z</time>
      </trkpt>
      <trkpt lat="43.5825" lon="3.34148">
        <ele>375.7</ele>
        <time>2016-05-24T13:04:52Z</time>
      </trkpt>
      <trkpt lat="43.58254" lon="3.34138">
        <ele>376.2</ele>
        <time>2016-05-24T13:04:56Z</time>
      </trkpt>
      <trkpt lat="43.5826" lon="3.34129">
        <ele>376.8</ele>
        <time>2016-05-24T13:05:00Z</time>
      </trkpt>
      <trkpt lat="43.58265" lon="3.34119">
        <ele>377.2</ele>
        <time>2016-05-24T13:05:04Z</time>
      </trkpt>
      <trkpt lat="43.5827" lon="3.34111">
        <ele>377.6</ele>
        <time>2016-05-24T13:05:07Z</time>
      </trkpt>
      <trkpt lat="43.58274" lon="3.34103">
        <ele>377.8</ele>
        <time>2016-05-24T13:05:11Z</time>
      </trkpt>
      <trkpt lat="43.58279" lon="3.34094">
        <ele>378</ele>
        <time>2016-05-24T13:05:15Z</time>
      </trkpt>
      <trkpt lat="43.58281" lon="3.34084">
        <ele>378.4</ele>
        <time>2016-05-24T13:05:19Z</time>
      </trkpt>
      <trkpt lat="43.58283" lon="3.34074">
        <ele>378.7</ele>
        <time>2016-05-24T13:05:23Z</time>
      </trkpt>
      <trkpt lat="43.58283" lon="3.34062">
        <ele>379.6</ele>
        <time>2016-05-24T13:05:28Z</time>
      </trkpt>
      <trkpt lat="43.58278" lon="3.34052">
        <ele>380.4</ele>
        <time>2016-05-24T13:05:33Z</time>
      </trkpt>
      <trkpt lat="43.58271" lon="3.34047">
        <ele>380.8</ele>
        <time>2016-05-24T13:05:37Z</time>
      </trkpt>
      <trkpt lat="43.58264" lon="3.34042">
        <ele>381.3</ele>
        <time>2016-05-24T13:05:41Z</time>
      </trkpt>
      <trkpt lat="43.58256" lon="3.34038">
        <ele>381.8</ele>
        <time>2016-05-24T13:05:46Z</time>
      </trkpt>
      <trkpt lat="43.58251" lon="3.3403">
        <ele>382.3</ele>
        <time>2016-05-24T13:05:50Z</time>
      </trkpt>
      <trkpt lat="43.58245" lon="3.34023">
        <ele>383</ele>
        <time>2016-05-24T13:05:54Z</time>
      </trkpt>
      <trkpt lat="43.58238" lon="3.34014">
        <ele>383.6</ele>
        <time>2016-05-24T13:05:58Z</time>
      </trkpt>
      <trkpt lat="43.58233" lon="3.34006">
        <ele>384.1</ele>
        <time>2016-05-24T13:06:01Z</time>
      </trkpt>
      <trkpt lat="43.58227" lon="3.33998">
        <ele>385</ele>
        <time>2016-05-24T13:06:05Z</time>
      </trkpt>
      <trkpt lat="43.58221" lon="3.33989">
        <ele>385.8</ele>
        <time>2016-05-24T13:06:09Z</time>
      </trkpt>
      <trkpt lat="43.58215" lon="3.33979">
        <ele>386.8</ele>
        <time>2016-05-24T13:06:13Z</time>
      </trkpt>
      <trkpt lat="43.58209" lon="3.33971">
        <ele>387.5</ele>
        <time>2016-05-24T13:06:16Z</time>
      </trkpt>
      <trkpt lat="43.58207" lon="3.33961">
        <ele>388.3</ele>
        <time>2016-05-24T13:06:19Z</time>
      </trkpt>
      <trkpt lat="43.58205" lon="3.33949">
        <ele>389.3</ele>
        <time>2016-05-24T13:06:23Z</time>
      </trkpt>
      <trkpt lat="43.58204" lon="3.33937">
        <ele>390</ele>
        <time>2016-05-24T13:06:26Z</time>
      </trkpt>
      <trkpt lat="43.58205" lon="3.33925">
        <ele>390.7</ele>
        <time>2016-05-24T13:06:29Z</time>
      </trkpt>
      <trkpt lat="43.58206" lon="3.33915">
        <ele>391.3</ele>
        <time>2016-05-24T13:06:32Z</time>
      </trkpt>
      <trkpt lat="43.58207" lon="3.33904">
        <ele>391.6</ele>
        <time>2016-05-24T13:06:35Z</time>
      </trkpt>
      <trkpt lat="43.58209" lon="3.3389">
        <ele>392</ele>
        <time>2016-05-24T13:06:39Z</time>
      </trkpt>
      <trkpt lat="43.58211" lon="3.33878">
        <ele>392.6</ele>
        <time>2016-05-24T13:06:43Z</time>
      </trkpt>
      <trkpt lat="43.58213" lon="3.33868">
        <ele>392.9</ele>
        <time>2016-05-24T13:06:46Z</time>
      </trkpt>
      <trkpt lat="43.58216" lon="3.33858">
        <ele>393.2</ele>
        <time>2016-05-24T13:06:49Z</time>
      </trkpt>
      <trkpt lat="43.5822" lon="3.33849">
        <ele>393.4</ele>
        <time>2016-05-24T13:06:52Z</time>
      </trkpt>
      <trkpt lat="43.58225" lon="3.3384">
        <ele>393.7</ele>
        <time>2016-05-24T13:06:55Z</time>
      </trkpt>
      <trkpt lat="43.5823" lon="3.33828">
        <ele>394</ele>
        <time>2016-05-24T13:06:59Z</time>
      </trkpt>
      <trkpt lat="43.58233" lon="3.33819">
        <ele>394.3</ele>
        <time>2016-05-24T13:07:02Z</time>
      </trkpt>
      <trkpt lat="43.58236" lon="3.33808">
        <ele>394.7</ele>
        <time>2016-05-24T13:07:05Z</time>
      </trkpt>
      <trkpt lat="43.58238" lon="3.33797">
        <ele>395.1</ele>
        <time>2016-05-24T13:07:09Z</time>
      </trkpt>
      <trkpt lat="43.58239" lon="3.33785">
        <ele>395.4</ele>
        <time>2016-05-24T13:07:12Z</time>
      </trkpt>
      <trkpt lat="43.58241" lon="3.33772">
        <ele>396</ele>
        <time>2016-05-24T13:07:16Z</time>
      </trkpt>
      <trkpt lat="43.58243" lon="3.3376">
        <ele>396.7</ele>
        <time>2016-05-24T13:07:20Z</time>
      </trkpt>
      <trkpt lat="43.58242" lon="3.33749">
        <ele>397.4</ele>
        <time>2016-05-24T13:07:24Z</time>
      </trkpt>
      <trkpt lat="43.58242" lon="3.33736">
        <ele>398.3</ele>
        <time>2016-05-24T13:07:28Z</time>
      </trkpt>
      <trkpt lat="43.58242" lon="3.33725">
        <ele>399</ele>
        <time>2016-05-24T13:07:31Z</time>
      </trkpt>
      <trkpt lat="43.58241" lon="3.33715">
        <ele>399.8</ele>
        <time>2016-05-24T13:07:34Z</time>
      </trkpt>
      <trkpt lat="43.58239" lon="3.33702">
        <ele>400.8</ele>
        <time>2016-05-24T13:07:38Z</time>
      </trkpt>
      <trkpt lat="43.58238" lon="3.33691">
        <ele>401.4</ele>
        <time>2016-05-24T13:07:41Z</time>
      </trkpt>
      <trkpt lat="43.5824" lon="3.33679">
        <ele>402.1</ele>
        <time>2016-05-24T13:07:44Z</time>
      </trkpt>
      <trkpt lat="43.5824" lon="3.33668">
        <ele>402.7</ele>
        <time>2016-05-24T13:07:47Z</time>
      </trkpt>
      <trkpt lat="43.58242" lon="3.33655">
        <ele>403.3</ele>
        <time>2016-05-24T13:07:50Z</time>
      </trkpt>
      <trkpt lat="43.58245" lon="3.33645">
        <ele>403.7</ele>
        <time>2016-05-24T13:07:53Z</time>
      </trkpt>
      <trkpt lat="43.58247" lon="3.33632">
        <ele>404.3</ele>
        <time>2016-05-24T13:07:57Z</time>
      </trkpt>
      <trkpt lat="43.58249" lon="3.33621">
        <ele>404.7</ele>
        <time>2016-05-24T13:08:00Z</time>
      </trkpt>
      <trkpt lat="43.58252" lon="3.33611">
        <ele>405.1</ele>
        <time>2016-05-24T13:08:03Z</time>
      </trkpt>
      <trkpt lat="43.58256" lon="3.33601">
        <ele>405.4</ele>
        <time>2016-05-24T13:08:06Z</time>
      </trkpt>
      <trkpt lat="43.58261" lon="3.33591">
        <ele>405.6</ele>
        <time>2016-05-24T13:08:09Z</time>
      </trkpt>
      <trkpt lat="43.58267" lon="3.33581">
        <ele>405.8</ele>
        <time>2016-05-24T13:08:12Z</time>
      </trkpt>
      <trkpt lat="43.58272" lon="3.33573">
        <ele>405.8</ele>
        <time>2016-05-24T13:08:14Z</time>
      </trkpt>
      <trkpt lat="43.58277" lon="3.3356">
        <ele>406.1</ele>
        <time>2016-05-24T13:08:17Z</time>
      </trkpt>
      <trkpt lat="43.58281" lon="3.33548">
        <ele>406.6</ele>
        <time>2016-05-24T13:08:20Z</time>
      </trkpt>
      <trkpt lat="43.58283" lon="3.33537">
        <ele>406.7</ele>
        <time>2016-05-24T13:08:22Z</time>
      </trkpt>
      <trkpt lat="43.58285" lon="3.33525">
        <ele>406.8</ele>
        <time>2016-05-24T13:08:24Z</time>
      </trkpt>
      <trkpt lat="43.58287" lon="3.33513">
        <ele>408.6</ele>
        <time>2016-05-24T13:08:27Z</time>
      </trkpt>
      <trkpt lat="43.58288" lon="3.335">
        <ele>410.2</ele>
        <time>2016-05-24T13:08:29Z</time>
      </trkpt>
      <trkpt lat="43.5829" lon="3.33487">
        <ele>410.1</ele>
        <time>2016-05-24T13:08:32Z</time>
      </trkpt>
      <trkpt lat="43.5829" lon="3.33476">
        <ele>409.6</ele>
        <time>2016-05-24T13:08:34Z</time>
      </trkpt>
      <trkpt lat="43.58291" lon="3.33464">
        <ele>409.5</ele>
        <time>2016-05-24T13:08:36Z</time>
      </trkpt>
      <trkpt lat="43.58292" lon="3.33452">
        <ele>409.2</ele>
        <time>2016-05-24T13:08:38Z</time>
      </trkpt>
      <trkpt lat="43.58295" lon="3.3344">
        <ele>408.8</ele>
        <time>2016-05-24T13:08:40Z</time>
      </trkpt>
      <trkpt lat="43.58298" lon="3.33429">
        <ele>408.8</ele>
        <time>2016-05-24T13:08:42Z</time>
      </trkpt>
      <trkpt lat="43.58299" lon="3.33418">
        <ele>408.7</ele>
        <time>2016-05-24T13:08:44Z</time>
      </trkpt>
      <trkpt lat="43.58301" lon="3.33405">
        <ele>408.2</ele>
        <time>2016-05-24T13:08:46Z</time>
      </trkpt>
      <trkpt lat="43.58303" lon="3.33394">
        <ele>407.4</ele>
        <time>2016-05-24T13:08:48Z</time>
      </trkpt>
      <trkpt lat="43.58305" lon="3.3338">
        <ele>407.8</ele>
        <time>2016-05-24T13:08:50Z</time>
      </trkpt>
      <trkpt lat="43.58308" lon="3.33366">
        <ele>407.7</ele>
        <time>2016-05-24T13:08:52Z</time>
      </trkpt>
      <trkpt lat="43.58309" lon="3.33351">
        <ele>406.6</ele>
        <time>2016-05-24T13:08:54Z</time>
      </trkpt>
      <trkpt lat="43.5831" lon="3.33338">
        <ele>406.7</ele>
        <time>2016-05-24T13:08:56Z</time>
      </trkpt>
      <trkpt lat="43.5831" lon="3.33322">
        <ele>407.5</ele>
        <time>2016-05-24T13:08:58Z</time>
      </trkpt>
      <trkpt lat="43.58309" lon="3.33305">
        <ele>409.3</ele>
        <time>2016-05-24T13:09:00Z</time>
      </trkpt>
      <trkpt lat="43.58309" lon="3.33285">
        <ele>409.8</ele>
        <time>2016-05-24T13:09:02Z</time>
      </trkpt>
      <trkpt lat="43.58309" lon="3.33266">
        <ele>408.3</ele>
        <time>2016-05-24T13:09:04Z</time>
      </trkpt>
      <trkpt lat="43.58308" lon="3.33248">
        <ele>407.5</ele>
        <time>2016-05-24T13:09:06Z</time>
      </trkpt>
      <trkpt lat="43.58308" lon="3.33231">
        <ele>406.6</ele>
        <time>2016-05-24T13:09:08Z</time>
      </trkpt>
      <trkpt lat="43.58311" lon="3.33214">
        <ele>407.2</ele>
        <time>2016-05-24T13:09:10Z</time>
      </trkpt>
      <trkpt lat="43.58315" lon="3.33198">
        <ele>407.2</ele>
        <time>2016-05-24T13:09:12Z</time>
      </trkpt>
      <trkpt lat="43.58318" lon="3.33182">
        <ele>407.5</ele>
        <time>2016-05-24T13:09:14Z</time>
      </trkpt>
      <trkpt lat="43.58322" lon="3.33169">
        <ele>405.9</ele>
        <time>2016-05-24T13:09:16Z</time>
      </trkpt>
      <trkpt lat="43.58326" lon="3.33155">
        <ele>404.8</ele>
        <time>2016-05-24T13:09:18Z</time>
      </trkpt>
      <trkpt lat="43.58327" lon="3.33139">
        <ele>402.2</ele>
        <time>2016-05-24T13:09:20Z</time>
      </trkpt>
      <trkpt lat="43.58326" lon="3.33124">
        <ele>400.9</ele>
        <time>2016-05-24T13:09:22Z</time>
      </trkpt>
      <trkpt lat="43.58323" lon="3.33107">
        <ele>401</ele>
        <time>2016-05-24T13:09:24Z</time>
      </trkpt>
      <trkpt lat="43.58321" lon="3.3309">
        <ele>400.6</ele>
        <time>2016-05-24T13:09:26Z</time>
      </trkpt>
      <trkpt lat="43.58322" lon="3.33073">
        <ele>400.4</ele>
        <time>2016-05-24T13:09:28Z</time>
      </trkpt>
      <trkpt lat="43.58326" lon="3.33054">
        <ele>400</ele>
        <time>2016-05-24T13:09:30Z</time>
      </trkpt>
      <trkpt lat="43.5833" lon="3.33035">
        <ele>400.6</ele>
        <time>2016-05-24T13:09:32Z</time>
      </trkpt>
      <trkpt lat="43.58333" lon="3.33026">
        <ele>400</ele>
        <time>2016-05-24T13:09:33Z</time>
      </trkpt>
      <trkpt lat="43.58336" lon="3.33016">
        <ele>399.1</ele>
        <time>2016-05-24T13:09:34Z</time>
      </trkpt>
      <trkpt lat="43.58342" lon="3.32999">
        <ele>398.7</ele>
        <time>2016-05-24T13:09:36Z</time>
      </trkpt>
      <trkpt lat="43.58347" lon="3.32979">
        <ele>397.8</ele>
        <time>2016-05-24T13:09:38Z</time>
      </trkpt>
      <trkpt lat="43.58349" lon="3.3297">
        <ele>397.3</ele>
        <time>2016-05-24T13:09:39Z</time>
      </trkpt>
      <trkpt lat="43.58351" lon="3.32951">
        <ele>397.2</ele>
        <time>2016-05-24T13:09:41Z</time>
      </trkpt>
      <trkpt lat="43.58353" lon="3.32932">
        <ele>396.6</ele>
        <time>2016-05-24T13:09:43Z</time>
      </trkpt>
      <trkpt lat="43.58353" lon="3.32915">
        <ele>396.5</ele>
        <time>2016-05-24T13:09:45Z</time>
      </trkpt>
      <trkpt lat="43.58352" lon="3.32901">
        <ele>396.7</ele>
        <time>2016-05-24T13:09:47Z</time>
      </trkpt>
      <trkpt lat="43.58351" lon="3.32885">
        <ele>396.4</ele>
        <time>2016-05-24T13:09:49Z</time>
      </trkpt>
      <trkpt lat="43.5835" lon="3.3287">
        <ele>395.9</ele>
        <time>2016-05-24T13:09:51Z</time>
      </trkpt>
      <trkpt lat="43.58349" lon="3.32856">
        <ele>394.8</ele>
        <time>2016-05-24T13:09:53Z</time>
      </trkpt>
      <trkpt lat="43.58345" lon="3.32847">
        <ele>395.1</ele>
        <time>2016-05-24T13:09:55Z</time>
      </trkpt>
      <trkpt lat="43.58338" lon="3.32837">
        <ele>395.2</ele>
        <time>2016-05-24T13:09:58Z</time>
      </trkpt>
      <trkpt lat="43.5833" lon="3.32833">
        <ele>395.3</ele>
        <time>2016-05-24T13:10:02Z</time>
      </trkpt>
      <trkpt lat="43.58323" lon="3.32826">
        <ele>395.6</ele>
        <time>2016-05-24T13:10:05Z</time>
      </trkpt>
      <trkpt lat="43.58314" lon="3.32822">
        <ele>395.8</ele>
        <time>2016-05-24T13:10:08Z</time>
      </trkpt>
      <trkpt lat="43.58308" lon="3.32816">
        <ele>395.8</ele>
        <time>2016-05-24T13:10:10Z</time>
      </trkpt>
      <trkpt lat="43.58299" lon="3.3281">
        <ele>395.8</ele>
        <time>2016-05-24T13:10:13Z</time>
      </trkpt>
      <trkpt lat="43.58289" lon="3.32803">
        <ele>395.8</ele>
        <time>2016-05-24T13:10:16Z</time>
      </trkpt>
      <trkpt lat="43.58283" lon="3.32798">
        <ele>395.1</ele>
        <time>2016-05-24T13:10:18Z</time>
      </trkpt>
      <trkpt lat="43.58276" lon="3.32794">
        <ele>395</ele>
        <time>2016-05-24T13:10:20Z</time>
      </trkpt>
      <trkpt lat="43.58268" lon="3.32789">
        <ele>395</ele>
        <time>2016-05-24T13:10:22Z</time>
      </trkpt>
      <trkpt lat="43.58259" lon="3.32784">
        <ele>395.2</ele>
        <time>2016-05-24T13:10:25Z</time>
      </trkpt>
      <trkpt lat="43.58251" lon="3.32778">
        <ele>395</ele>
        <time>2016-05-24T13:10:27Z</time>
      </trkpt>
      <trkpt lat="43.58244" lon="3.32767">
        <ele>394.9</ele>
        <time>2016-05-24T13:10:30Z</time>
      </trkpt>
      <trkpt lat="43.58238" lon="3.32756">
        <ele>395.1</ele>
        <time>2016-05-24T13:10:33Z</time>
      </trkpt>
      <trkpt lat="43.58234" lon="3.32746">
        <ele>395.2</ele>
        <time>2016-05-24T13:10:35Z</time>
      </trkpt>
      <trkpt lat="43.58231" lon="3.32734">
        <ele>395.4</ele>
        <time>2016-05-24T13:10:38Z</time>
      </trkpt>
      <trkpt lat="43.58229" lon="3.32719">
        <ele>395.7</ele>
        <time>2016-05-24T13:10:41Z</time>
      </trkpt>
      <trkpt lat="43.58228" lon="3.32704">
        <ele>396.1</ele>
        <time>2016-05-24T13:10:44Z</time>
      </trkpt>
      <trkpt lat="43.58227" lon="3.32693">
        <ele>396.4</ele>
        <time>2016-05-24T13:10:46Z</time>
      </trkpt>
      <trkpt lat="43.58228" lon="3.32681">
        <ele>396.8</ele>
        <time>2016-05-24T13:10:49Z</time>
      </trkpt>
      <trkpt lat="43.58229" lon="3.32666">
        <ele>397.2</ele>
        <time>2016-05-24T13:10:52Z</time>
      </trkpt>
      <trkpt lat="43.5823" lon="3.32655">
        <ele>397.3</ele>
        <time>2016-05-24T13:10:54Z</time>
      </trkpt>
      <trkpt lat="43.58231" lon="3.32641">
        <ele>397.5</ele>
        <time>2016-05-24T13:10:57Z</time>
      </trkpt>
      <trkpt lat="43.58233" lon="3.32626">
        <ele>397.9</ele>
        <time>2016-05-24T13:11:00Z</time>
      </trkpt>
      <trkpt lat="43.58234" lon="3.32615">
        <ele>398.2</ele>
        <time>2016-05-24T13:11:03Z</time>
      </trkpt>
      <trkpt lat="43.58236" lon="3.32601">
        <ele>398.5</ele>
        <time>2016-05-24T13:11:06Z</time>
      </trkpt>
      <trkpt lat="43.58238" lon="3.32589">
        <ele>399.1</ele>
        <time>2016-05-24T13:11:09Z</time>
      </trkpt>
      <trkpt lat="43.5824" lon="3.3258">
        <ele>399.6</ele>
        <time>2016-05-24T13:11:12Z</time>
      </trkpt>
      <trkpt lat="43.58243" lon="3.32569">
        <ele>400.1</ele>
        <time>2016-05-24T13:11:15Z</time>
      </trkpt>
      <trkpt lat="43.58246" lon="3.32558">
        <ele>400.6</ele>
        <time>2016-05-24T13:11:18Z</time>
      </trkpt>
      <trkpt lat="43.58247" lon="3.32545">
        <ele>401</ele>
        <time>2016-05-24T13:11:21Z</time>
      </trkpt>
      <trkpt lat="43.58245" lon="3.32536">
        <ele>401.4</ele>
        <time>2016-05-24T13:11:24Z</time>
      </trkpt>
      <trkpt lat="43.58241" lon="3.32526">
        <ele>402</ele>
        <time>2016-05-24T13:11:28Z</time>
      </trkpt>
      <trkpt lat="43.5824" lon="3.32515">
        <ele>402.7</ele>
        <time>2016-05-24T13:11:31Z</time>
      </trkpt>
      <trkpt lat="43.58238" lon="3.32504">
        <ele>403.3</ele>
        <time>2016-05-24T13:11:34Z</time>
      </trkpt>
      <trkpt lat="43.58237" lon="3.32494">
        <ele>403.6</ele>
        <time>2016-05-24T13:11:37Z</time>
      </trkpt>
      <trkpt lat="43.58238" lon="3.32481">
        <ele>404.1</ele>
        <time>2016-05-24T13:11:41Z</time>
      </trkpt>
      <trkpt lat="43.58241" lon="3.32468">
        <ele>404.2</ele>
        <time>2016-05-24T13:11:44Z</time>
      </trkpt>
      <trkpt lat="43.58245" lon="3.32458">
        <ele>404.6</ele>
        <time>2016-05-24T13:11:47Z</time>
      </trkpt>
      <trkpt lat="43.58251" lon="3.32448">
        <ele>405.3</ele>
        <time>2016-05-24T13:11:51Z</time>
      </trkpt>
      <trkpt lat="43.58256" lon="3.32441">
        <ele>405.7</ele>
        <time>2016-05-24T13:11:54Z</time>
      </trkpt>
      <trkpt lat="43.58262" lon="3.32433">
        <ele>406</ele>
        <time>2016-05-24T13:11:57Z</time>
      </trkpt>
      <trkpt lat="43.58268" lon="3.32426">
        <ele>406.3</ele>
        <time>2016-05-24T13:12:00Z</time>
      </trkpt>
      <trkpt lat="43.58275" lon="3.32418">
        <ele>406.7</ele>
        <time>2016-05-24T13:12:03Z</time>
      </trkpt>
      <trkpt lat="43.58283" lon="3.32412">
        <ele>407</ele>
        <time>2016-05-24T13:12:06Z</time>
      </trkpt>
      <trkpt lat="43.5829" lon="3.32403">
        <ele>407.2</ele>
        <time>2016-05-24T13:12:09Z</time>
      </trkpt>
      <trkpt lat="43.58297" lon="3.32397">
        <ele>407.5</ele>
        <time>2016-05-24T13:12:12Z</time>
      </trkpt>
      <trkpt lat="43.58305" lon="3.32393">
        <ele>407.7</ele>
        <time>2016-05-24T13:12:15Z</time>
      </trkpt>
      <trkpt lat="43.58313" lon="3.3239">
        <ele>407.9</ele>
        <time>2016-05-24T13:12:18Z</time>
      </trkpt>
      <trkpt lat="43.58322" lon="3.32389">
        <ele>408.2</ele>
        <time>2016-05-24T13:12:22Z</time>
      </trkpt>
      <trkpt lat="43.58331" lon="3.32388">
        <ele>408.7</ele>
        <time>2016-05-24T13:12:25Z</time>
      </trkpt>
      <trkpt lat="43.5834" lon="3.32388">
        <ele>409</ele>
        <time>2016-05-24T13:12:29Z</time>
      </trkpt>
      <trkpt lat="43.58348" lon="3.32388">
        <ele>409.1</ele>
        <time>2016-05-24T13:12:32Z</time>
      </trkpt>
      <trkpt lat="43.58356" lon="3.3239">
        <ele>409.2</ele>
        <time>2016-05-24T13:12:35Z</time>
      </trkpt>
      <trkpt lat="43.58365" lon="3.32391">
        <ele>409.5</ele>
        <time>2016-05-24T13:12:39Z</time>
      </trkpt>
      <trkpt lat="43.58374" lon="3.32392">
        <ele>409.8</ele>
        <time>2016-05-24T13:12:43Z</time>
      </trkpt>
      <trkpt lat="43.58381" lon="3.32391">
        <ele>410.2</ele>
        <time>2016-05-24T13:12:46Z</time>
      </trkpt>
      <trkpt lat="43.58389" lon="3.32388">
        <ele>410.6</ele>
        <time>2016-05-24T13:12:49Z</time>
      </trkpt>
      <trkpt lat="43.58396" lon="3.32383">
        <ele>411.1</ele>
        <time>2016-05-24T13:12:52Z</time>
      </trkpt>
      <trkpt lat="43.58403" lon="3.32376">
        <ele>412.1</ele>
        <time>2016-05-24T13:12:56Z</time>
      </trkpt>
      <trkpt lat="43.5841" lon="3.32371">
        <ele>413</ele>
        <time>2016-05-24T13:13:00Z</time>
      </trkpt>
      <trkpt lat="43.58417" lon="3.32365">
        <ele>413.6</ele>
        <time>2016-05-24T13:13:03Z</time>
      </trkpt>
      <trkpt lat="43.58424" lon="3.32359">
        <ele>414.2</ele>
        <time>2016-05-24T13:13:07Z</time>
      </trkpt>
      <trkpt lat="43.5843" lon="3.32354">
        <ele>414.7</ele>
        <time>2016-05-24T13:13:10Z</time>
      </trkpt>
      <trkpt lat="43.58438" lon="3.32346">
        <ele>415.5</ele>
        <time>2016-05-24T13:13:14Z</time>
      </trkpt>
      <trkpt lat="43.58446" lon="3.32339">
        <ele>416.3</ele>
        <time>2016-05-24T13:13:18Z</time>
      </trkpt>
      <trkpt lat="43.58452" lon="3.32333">
        <ele>417</ele>
        <time>2016-05-24T13:13:21Z</time>
      </trkpt>
      <trkpt lat="43.5846" lon="3.32326">
        <ele>418</ele>
        <time>2016-05-24T13:13:25Z</time>
      </trkpt>
      <trkpt lat="43.58467" lon="3.32319">
        <ele>418.9</ele>
        <time>2016-05-24T13:13:29Z</time>
      </trkpt>
      <trkpt lat="43.58475" lon="3.32313">
        <ele>419.5</ele>
        <time>2016-05-24T13:13:32Z</time>
      </trkpt>
      <trkpt lat="43.58481" lon="3.32306">
        <ele>420</ele>
        <time>2016-05-24T13:13:35Z</time>
      </trkpt>
      <trkpt lat="43.58484" lon="3.32295">
        <ele>420.4</ele>
        <time>2016-05-24T13:13:38Z</time>
      </trkpt>
      <trkpt lat="43.58488" lon="3.32287">
        <ele>421</ele>
        <time>2016-05-24T13:13:41Z</time>
      </trkpt>
      <trkpt lat="43.58495" lon="3.32281">
        <ele>421.6</ele>
        <time>2016-05-24T13:13:44Z</time>
      </trkpt>
      <trkpt lat="43.58501" lon="3.32273">
        <ele>422</ele>
        <time>2016-05-24T13:13:48Z</time>
      </trkpt>
      <trkpt lat="43.58506" lon="3.32264">
        <ele>422.4</ele>
        <time>2016-05-24T13:13:51Z</time>
      </trkpt>
      <trkpt lat="43.58511" lon="3.32253">
        <ele>422.9</ele>
        <time>2016-05-24T13:13:54Z</time>
      </trkpt>
      <trkpt lat="43.58513" lon="3.32242">
        <ele>423.5</ele>
        <time>2016-05-24T13:13:57Z</time>
      </trkpt>
      <trkpt lat="43.58516" lon="3.3223">
        <ele>424.2</ele>
        <time>2016-05-24T13:14:01Z</time>
      </trkpt>
      <trkpt lat="43.58518" lon="3.32217">
        <ele>425.1</ele>
        <time>2016-05-24T13:14:05Z</time>
      </trkpt>
      <trkpt lat="43.58518" lon="3.32205">
        <ele>425.9</ele>
        <time>2016-05-24T13:14:09Z</time>
      </trkpt>
      <trkpt lat="43.58514" lon="3.32195">
        <ele>427.1</ele>
        <time>2016-05-24T13:14:13Z</time>
      </trkpt>
      <trkpt lat="43.58509" lon="3.32187">
        <ele>428</ele>
        <time>2016-05-24T13:14:16Z</time>
      </trkpt>
      <trkpt lat="43.58501" lon="3.32176">
        <ele>428.9</ele>
        <time>2016-05-24T13:14:19Z</time>
      </trkpt>
      <trkpt lat="43.58496" lon="3.32168">
        <ele>429.8</ele>
        <time>2016-05-24T13:14:22Z</time>
      </trkpt>
      <trkpt lat="43.58492" lon="3.32157">
        <ele>430.9</ele>
        <time>2016-05-24T13:14:26Z</time>
      </trkpt>
      <trkpt lat="43.58489" lon="3.32141">
        <ele>431.3</ele>
        <time>2016-05-24T13:14:29Z</time>
      </trkpt>
      <trkpt lat="43.58488" lon="3.32128">
        <ele>431.5</ele>
        <time>2016-05-24T13:14:31Z</time>
      </trkpt>
      <trkpt lat="43.58485" lon="3.32115">
        <ele>431.8</ele>
        <time>2016-05-24T13:14:34Z</time>
      </trkpt>
      <trkpt lat="43.58482" lon="3.32105">
        <ele>432</ele>
        <time>2016-05-24T13:14:37Z</time>
      </trkpt>
      <trkpt lat="43.58476" lon="3.32099">
        <ele>432.5</ele>
        <time>2016-05-24T13:14:40Z</time>
      </trkpt>
      <trkpt lat="43.58468" lon="3.32094">
        <ele>432.9</ele>
        <time>2016-05-24T13:14:43Z</time>
      </trkpt>
      <trkpt lat="43.5846" lon="3.32092">
        <ele>433.3</ele>
        <time>2016-05-24T13:14:48Z</time>
      </trkpt>
      <trkpt lat="43.58451" lon="3.32089">
        <ele>433.8</ele>
        <time>2016-05-24T13:14:52Z</time>
      </trkpt>
      <trkpt lat="43.58444" lon="3.32088">
        <ele>434.2</ele>
        <time>2016-05-24T13:14:55Z</time>
      </trkpt>
      <trkpt lat="43.58436" lon="3.32088">
        <ele>434.8</ele>
        <time>2016-05-24T13:14:59Z</time>
      </trkpt>
      <trkpt lat="43.58427" lon="3.32089">
        <ele>435.3</ele>
        <time>2016-05-24T13:15:03Z</time>
      </trkpt>
      <trkpt lat="43.58417" lon="3.32091">
        <ele>435.8</ele>
        <time>2016-05-24T13:15:07Z</time>
      </trkpt>
      <trkpt lat="43.58409" lon="3.32095">
        <ele>435.9</ele>
        <time>2016-05-24T13:15:09Z</time>
      </trkpt>
      <trkpt lat="43.584" lon="3.32097">
        <ele>435.8</ele>
        <time>2016-05-24T13:15:11Z</time>
      </trkpt>
      <trkpt lat="43.5839" lon="3.32102">
        <ele>435.5</ele>
        <time>2016-05-24T13:15:13Z</time>
      </trkpt>
      <trkpt lat="43.58383" lon="3.32106">
        <ele>434.5</ele>
        <time>2016-05-24T13:15:14Z</time>
      </trkpt>
      <trkpt lat="43.58371" lon="3.32112">
        <ele>432.8</ele>
        <time>2016-05-24T13:15:16Z</time>
      </trkpt>
      <trkpt lat="43.58363" lon="3.32115">
        <ele>432.5</ele>
        <time>2016-05-24T13:15:17Z</time>
      </trkpt>
      <trkpt lat="43.58355" lon="3.32117">
        <ele>431.6</ele>
        <time>2016-05-24T13:15:18Z</time>
      </trkpt>
      <trkpt lat="43.58346" lon="3.32119">
        <ele>431.4</ele>
        <time>2016-05-24T13:15:19Z</time>
      </trkpt>
      <trkpt lat="43.58338" lon="3.32119">
        <ele>430.9</ele>
        <time>2016-05-24T13:15:20Z</time>
      </trkpt>
      <trkpt lat="43.58324" lon="3.32121">
        <ele>431.1</ele>
        <time>2016-05-24T13:15:22Z</time>
      </trkpt>
      <trkpt lat="43.58316" lon="3.32122">
        <ele>430.5</ele>
        <time>2016-05-24T13:15:23Z</time>
      </trkpt>
      <trkpt lat="43.58309" lon="3.32123">
        <ele>429.9</ele>
        <time>2016-05-24T13:15:24Z</time>
      </trkpt>
      <trkpt lat="43.58296" lon="3.32124">
        <ele>429.2</ele>
        <time>2016-05-24T13:15:26Z</time>
      </trkpt>
      <trkpt lat="43.58283" lon="3.32124">
        <ele>428.4</ele>
        <time>2016-05-24T13:15:28Z</time>
      </trkpt>
      <trkpt lat="43.58271" lon="3.32126">
        <ele>427.4</ele>
        <time>2016-05-24T13:15:30Z</time>
      </trkpt>
      <trkpt lat="43.58258" lon="3.3213">
        <ele>427.5</ele>
        <time>2016-05-24T13:15:32Z</time>
      </trkpt>
      <trkpt lat="43.58245" lon="3.32136">
        <ele>427.5</ele>
        <time>2016-05-24T13:15:34Z</time>
      </trkpt>
      <trkpt lat="43.58234" lon="3.32143">
        <ele>426.9</ele>
        <time>2016-05-24T13:15:36Z</time>
      </trkpt>
      <trkpt lat="43.58222" lon="3.32152">
        <ele>425.5</ele>
        <time>2016-05-24T13:15:38Z</time>
      </trkpt>
      <trkpt lat="43.58214" lon="3.32157">
        <ele>424.7</ele>
        <time>2016-05-24T13:15:39Z</time>
      </trkpt>
      <trkpt lat="43.58207" lon="3.32161">
        <ele>424</ele>
        <time>2016-05-24T13:15:40Z</time>
      </trkpt>
      <trkpt lat="43.58199" lon="3.32165">
        <ele>423.2</ele>
        <time>2016-05-24T13:15:41Z</time>
      </trkpt>
      <trkpt lat="43.58192" lon="3.3217">
        <ele>422.5</ele>
        <time>2016-05-24T13:15:42Z</time>
      </trkpt>
      <trkpt lat="43.58185" lon="3.32175">
        <ele>421.9</ele>
        <time>2016-05-24T13:15:43Z</time>
      </trkpt>
      <trkpt lat="43.58178" lon="3.32179">
        <ele>421.6</ele>
        <time>2016-05-24T13:15:44Z</time>
      </trkpt>
      <trkpt lat="43.58171" lon="3.32185">
        <ele>421.3</ele>
        <time>2016-05-24T13:15:45Z</time>
      </trkpt>
      <trkpt lat="43.58165" lon="3.3219">
        <ele>420.9</ele>
        <time>2016-05-24T13:15:46Z</time>
      </trkpt>
      <trkpt lat="43.58158" lon="3.32195">
        <ele>420.4</ele>
        <time>2016-05-24T13:15:47Z</time>
      </trkpt>
      <trkpt lat="43.58147" lon="3.32202">
        <ele>420.5</ele>
        <time>2016-05-24T13:15:49Z</time>
      </trkpt>
      <trkpt lat="43.58138" lon="3.32209">
        <ele>420.5</ele>
        <time>2016-05-24T13:15:51Z</time>
      </trkpt>
      <trkpt lat="43.58133" lon="3.32213">
        <ele>420.1</ele>
        <time>2016-05-24T13:15:58Z</time>
      </trkpt>
      <trkpt lat="43.58137" lon="3.32205">
        <ele>419.9</ele>
        <time>2016-05-24T13:16:05Z</time>
      </trkpt>
      <trkpt lat="43.58138" lon="3.32205">
        <ele>419.9</ele>
        <time>2016-05-24T13:16:12Z</time>
      </trkpt>
      <trkpt lat="43.5813" lon="3.32214">
        <ele>419.3</ele>
        <time>2016-05-24T13:16:37Z</time>
      </trkpt>
      <trkpt lat="43.58121" lon="3.32225">
        <ele>419.3</ele>
        <time>2016-05-24T13:16:39Z</time>
      </trkpt>
      <trkpt lat="43.58113" lon="3.32232">
        <ele>417.9</ele>
        <time>2016-05-24T13:16:41Z</time>
      </trkpt>
      <trkpt lat="43.58103" lon="3.32243">
        <ele>417.2</ele>
        <time>2016-05-24T13:16:43Z</time>
      </trkpt>
      <trkpt lat="43.58093" lon="3.32254">
        <ele>416.6</ele>
        <time>2016-05-24T13:16:45Z</time>
      </trkpt>
      <trkpt lat="43.58084" lon="3.32267">
        <ele>416.2</ele>
        <time>2016-05-24T13:16:47Z</time>
      </trkpt>
      <trkpt lat="43.58079" lon="3.32275">
        <ele>415.8</ele>
        <time>2016-05-24T13:16:48Z</time>
      </trkpt>
      <trkpt lat="43.58069" lon="3.3229">
        <ele>415</ele>
        <time>2016-05-24T13:16:50Z</time>
      </trkpt>
      <trkpt lat="43.58064" lon="3.32298">
        <ele>414.9</ele>
        <time>2016-05-24T13:16:51Z</time>
      </trkpt>
      <trkpt lat="43.58059" lon="3.32307">
        <ele>414.7</ele>
        <time>2016-05-24T13:16:52Z</time>
      </trkpt>
      <trkpt lat="43.5805" lon="3.32321">
        <ele>413.5</ele>
        <time>2016-05-24T13:16:54Z</time>
      </trkpt>
      <trkpt lat="43.58041" lon="3.32333">
        <ele>411.7</ele>
        <time>2016-05-24T13:16:56Z</time>
      </trkpt>
      <trkpt lat="43.58033" lon="3.32344">
        <ele>410.5</ele>
        <time>2016-05-24T13:16:58Z</time>
      </trkpt>
      <trkpt lat="43.58026" lon="3.32355">
        <ele>409</ele>
        <time>2016-05-24T13:17:00Z</time>
      </trkpt>
      <trkpt lat="43.58019" lon="3.32368">
        <ele>407.9</ele>
        <time>2016-05-24T13:17:02Z</time>
      </trkpt>
      <trkpt lat="43.58013" lon="3.3238">
        <ele>407.2</ele>
        <time>2016-05-24T13:17:04Z</time>
      </trkpt>
      <trkpt lat="43.58005" lon="3.32395">
        <ele>406.7</ele>
        <time>2016-05-24T13:17:06Z</time>
      </trkpt>
      <trkpt lat="43.58" lon="3.32403">
        <ele>406.5</ele>
        <time>2016-05-24T13:17:07Z</time>
      </trkpt>
      <trkpt lat="43.57991" lon="3.32415">
        <ele>405.8</ele>
        <time>2016-05-24T13:17:09Z</time>
      </trkpt>
      <trkpt lat="43.57981" lon="3.3243">
        <ele>404.9</ele>
        <time>2016-05-24T13:17:11Z</time>
      </trkpt>
      <trkpt lat="43.57973" lon="3.32438">
        <ele>403.9</ele>
        <time>2016-05-24T13:17:13Z</time>
      </trkpt>
      <trkpt lat="43.57967" lon="3.32426">
        <ele>403.7</ele>
        <time>2016-05-24T13:17:17Z</time>
      </trkpt>
      <trkpt lat="43.57972" lon="3.32417">
        <ele>402.4</ele>
        <time>2016-05-24T13:17:19Z</time>
      </trkpt>
      <trkpt lat="43.57975" lon="3.32403">
        <ele>401.7</ele>
        <time>2016-05-24T13:17:21Z</time>
      </trkpt>
      <trkpt lat="43.57977" lon="3.32385">
        <ele>400.2</ele>
        <time>2016-05-24T13:17:23Z</time>
      </trkpt>
      <trkpt lat="43.57978" lon="3.32375">
        <ele>399.3</ele>
        <time>2016-05-24T13:17:24Z</time>
      </trkpt>
      <trkpt lat="43.5798" lon="3.32363">
        <ele>398.9</ele>
        <time>2016-05-24T13:17:25Z</time>
      </trkpt>
      <trkpt lat="43.57981" lon="3.32349">
        <ele>398.1</ele>
        <time>2016-05-24T13:17:26Z</time>
      </trkpt>
      <trkpt lat="43.57982" lon="3.32337">
        <ele>397.6</ele>
        <time>2016-05-24T13:17:27Z</time>
      </trkpt>
      <trkpt lat="43.57984" lon="3.32324">
        <ele>396.6</ele>
        <time>2016-05-24T13:17:28Z</time>
      </trkpt>
      <trkpt lat="43.57985" lon="3.32311">
        <ele>395.9</ele>
        <time>2016-05-24T13:17:29Z</time>
      </trkpt>
      <trkpt lat="43.57988" lon="3.32298">
        <ele>395</ele>
        <time>2016-05-24T13:17:30Z</time>
      </trkpt>
      <trkpt lat="43.5799" lon="3.32287">
        <ele>394.2</ele>
        <time>2016-05-24T13:17:31Z</time>
      </trkpt>
      <trkpt lat="43.57992" lon="3.32278">
        <ele>394</ele>
        <time>2016-05-24T13:17:32Z</time>
      </trkpt>
      <trkpt lat="43.57995" lon="3.32266">
        <ele>393.1</ele>
        <time>2016-05-24T13:17:33Z</time>
      </trkpt>
      <trkpt lat="43.58" lon="3.32241">
        <ele>391.4</ele>
        <time>2016-05-24T13:17:35Z</time>
      </trkpt>
      <trkpt lat="43.58002" lon="3.32228">
        <ele>391</ele>
        <time>2016-05-24T13:17:36Z</time>
      </trkpt>
      <trkpt lat="43.58004" lon="3.32214">
        <ele>390.9</ele>
        <time>2016-05-24T13:17:37Z</time>
      </trkpt>
      <trkpt lat="43.58006" lon="3.32202">
        <ele>390.3</ele>
        <time>2016-05-24T13:17:38Z</time>
      </trkpt>
      <trkpt lat="43.58007" lon="3.3219">
        <ele>390.4</ele>
        <time>2016-05-24T13:17:39Z</time>
      </trkpt>
      <trkpt lat="43.58009" lon="3.32179">
        <ele>389.8</ele>
        <time>2016-05-24T13:17:40Z</time>
      </trkpt>
      <trkpt lat="43.58011" lon="3.32167">
        <ele>388.9</ele>
        <time>2016-05-24T13:17:41Z</time>
      </trkpt>
      <trkpt lat="43.58014" lon="3.32157">
        <ele>388</ele>
        <time>2016-05-24T13:17:42Z</time>
      </trkpt>
      <trkpt lat="43.58016" lon="3.32146">
        <ele>387.6</ele>
        <time>2016-05-24T13:17:43Z</time>
      </trkpt>
      <trkpt lat="43.58019" lon="3.32133">
        <ele>387.7</ele>
        <time>2016-05-24T13:17:44Z</time>
      </trkpt>
      <trkpt lat="43.58022" lon="3.32122">
        <ele>387.7</ele>
        <time>2016-05-24T13:17:45Z</time>
      </trkpt>
      <trkpt lat="43.58026" lon="3.32111">
        <ele>387.6</ele>
        <time>2016-05-24T13:17:46Z</time>
      </trkpt>
      <trkpt lat="43.58032" lon="3.32094">
        <ele>387.1</ele>
        <time>2016-05-24T13:17:48Z</time>
      </trkpt>
      <trkpt lat="43.58037" lon="3.32085">
        <ele>387.3</ele>
        <time>2016-05-24T13:17:49Z</time>
      </trkpt>
      <trkpt lat="43.58041" lon="3.32077">
        <ele>387.4</ele>
        <time>2016-05-24T13:17:50Z</time>
      </trkpt>
      <trkpt lat="43.58047" lon="3.32068">
        <ele>386.8</ele>
        <time>2016-05-24T13:17:51Z</time>
      </trkpt>
      <trkpt lat="43.58053" lon="3.3206">
        <ele>386.9</ele>
        <time>2016-05-24T13:17:52Z</time>
      </trkpt>
      <trkpt lat="43.5806" lon="3.32054">
        <ele>387.2</ele>
        <time>2016-05-24T13:17:53Z</time>
      </trkpt>
      <trkpt lat="43.58067" lon="3.32051">
        <ele>387.3</ele>
        <time>2016-05-24T13:17:54Z</time>
      </trkpt>
      <trkpt lat="43.58074" lon="3.32047">
        <ele>387.4</ele>
        <time>2016-05-24T13:17:55Z</time>
      </trkpt>
      <trkpt lat="43.58081" lon="3.32044">
        <ele>387.5</ele>
        <time>2016-05-24T13:17:56Z</time>
      </trkpt>
      <trkpt lat="43.58095" lon="3.3204">
        <ele>386.6</ele>
        <time>2016-05-24T13:17:58Z</time>
      </trkpt>
      <trkpt lat="43.58107" lon="3.32035">
        <ele>385.6</ele>
        <time>2016-05-24T13:18:00Z</time>
      </trkpt>
      <trkpt lat="43.58118" lon="3.32027">
        <ele>384.2</ele>
        <time>2016-05-24T13:18:02Z</time>
      </trkpt>
      <trkpt lat="43.58129" lon="3.3202">
        <ele>382.5</ele>
        <time>2016-05-24T13:18:04Z</time>
      </trkpt>
      <trkpt lat="43.58138" lon="3.32013">
        <ele>382.2</ele>
        <time>2016-05-24T13:18:06Z</time>
      </trkpt>
      <trkpt lat="43.58131" lon="3.3201">
        <ele>382.3</ele>
        <time>2016-05-24T13:18:13Z</time>
      </trkpt>
      <trkpt lat="43.58123" lon="3.32015">
        <ele>381.4</ele>
        <time>2016-05-24T13:18:15Z</time>
      </trkpt>
      <trkpt lat="43.58111" lon="3.32015">
        <ele>379.6</ele>
        <time>2016-05-24T13:18:17Z</time>
      </trkpt>
      <trkpt lat="43.58104" lon="3.32016">
        <ele>378.9</ele>
        <time>2016-05-24T13:18:18Z</time>
      </trkpt>
      <trkpt lat="43.58095" lon="3.32016">
        <ele>378</ele>
        <time>2016-05-24T13:18:19Z</time>
      </trkpt>
      <trkpt lat="43.58088" lon="3.32013">
        <ele>376.9</ele>
        <time>2016-05-24T13:18:20Z</time>
      </trkpt>
      <trkpt lat="43.58079" lon="3.3201">
        <ele>376.1</ele>
        <time>2016-05-24T13:18:21Z</time>
      </trkpt>
      <trkpt lat="43.58071" lon="3.32006">
        <ele>375.1</ele>
        <time>2016-05-24T13:18:22Z</time>
      </trkpt>
      <trkpt lat="43.58061" lon="3.32003">
        <ele>374.5</ele>
        <time>2016-05-24T13:18:23Z</time>
      </trkpt>
      <trkpt lat="43.58051" lon="3.32001">
        <ele>373.5</ele>
        <time>2016-05-24T13:18:24Z</time>
      </trkpt>
      <trkpt lat="43.58041" lon="3.32003">
        <ele>373</ele>
        <time>2016-05-24T13:18:25Z</time>
      </trkpt>
      <trkpt lat="43.58032" lon="3.32008">
        <ele>371.7</ele>
        <time>2016-05-24T13:18:26Z</time>
      </trkpt>
      <trkpt lat="43.58024" lon="3.32013">
        <ele>370.6</ele>
        <time>2016-05-24T13:18:27Z</time>
      </trkpt>
      <trkpt lat="43.58017" lon="3.32019">
        <ele>369.8</ele>
        <time>2016-05-24T13:18:28Z</time>
      </trkpt>
      <trkpt lat="43.5801" lon="3.32027">
        <ele>368.3</ele>
        <time>2016-05-24T13:18:29Z</time>
      </trkpt>
      <trkpt lat="43.58004" lon="3.32035">
        <ele>367.3</ele>
        <time>2016-05-24T13:18:30Z</time>
      </trkpt>
      <trkpt lat="43.57997" lon="3.32043">
        <ele>366.5</ele>
        <time>2016-05-24T13:18:31Z</time>
      </trkpt>
      <trkpt lat="43.5799" lon="3.32051">
        <ele>365</ele>
        <time>2016-05-24T13:18:32Z</time>
      </trkpt>
      <trkpt lat="43.57981" lon="3.32059">
        <ele>364</ele>
        <time>2016-05-24T13:18:33Z</time>
      </trkpt>
      <trkpt lat="43.57973" lon="3.32067">
        <ele>362.9</ele>
        <time>2016-05-24T13:18:34Z</time>
      </trkpt>
      <trkpt lat="43.57964" lon="3.32076">
        <ele>362.2</ele>
        <time>2016-05-24T13:18:35Z</time>
      </trkpt>
      <trkpt lat="43.57956" lon="3.32085">
        <ele>360.9</ele>
        <time>2016-05-24T13:18:36Z</time>
      </trkpt>
      <trkpt lat="43.57948" lon="3.32094">
        <ele>360.7</ele>
        <time>2016-05-24T13:18:37Z</time>
      </trkpt>
      <trkpt lat="43.57941" lon="3.32103">
        <ele>360.6</ele>
        <time>2016-05-24T13:18:38Z</time>
      </trkpt>
      <trkpt lat="43.57933" lon="3.32112">
        <ele>360.2</ele>
        <time>2016-05-24T13:18:39Z</time>
      </trkpt>
      <trkpt lat="43.57926" lon="3.32121">
        <ele>359.4</ele>
        <time>2016-05-24T13:18:40Z</time>
      </trkpt>
      <trkpt lat="43.57919" lon="3.3213">
        <ele>358.8</ele>
        <time>2016-05-24T13:18:41Z</time>
      </trkpt>
      <trkpt lat="43.57915" lon="3.32141">
        <ele>358.3</ele>
        <time>2016-05-24T13:18:42Z</time>
      </trkpt>
      <trkpt lat="43.57914" lon="3.32154">
        <ele>357.6</ele>
        <time>2016-05-24T13:18:43Z</time>
      </trkpt>
      <trkpt lat="43.57915" lon="3.32166">
        <ele>357.9</ele>
        <time>2016-05-24T13:18:44Z</time>
      </trkpt>
      <trkpt lat="43.57916" lon="3.32177">
        <ele>358.2</ele>
        <time>2016-05-24T13:18:45Z</time>
      </trkpt>
      <trkpt lat="43.57919" lon="3.32196">
        <ele>357.3</ele>
        <time>2016-05-24T13:18:47Z</time>
      </trkpt>
      <trkpt lat="43.57921" lon="3.32206">
        <ele>355.7</ele>
        <time>2016-05-24T13:18:48Z</time>
      </trkpt>
      <trkpt lat="43.57918" lon="3.32221">
        <ele>354</ele>
        <time>2016-05-24T13:18:50Z</time>
      </trkpt>
      <trkpt lat="43.5791" lon="3.32233">
        <ele>352.1</ele>
        <time>2016-05-24T13:18:52Z</time>
      </trkpt>
      <trkpt lat="43.57902" lon="3.32247">
        <ele>350.8</ele>
        <time>2016-05-24T13:18:54Z</time>
      </trkpt>
      <trkpt lat="43.57896" lon="3.3226">
        <ele>350.7</ele>
        <time>2016-05-24T13:18:56Z</time>
      </trkpt>
      <trkpt lat="43.57891" lon="3.32277">
        <ele>350.7</ele>
        <time>2016-05-24T13:18:58Z</time>
      </trkpt>
      <trkpt lat="43.57889" lon="3.32292">
        <ele>349.8</ele>
        <time>2016-05-24T13:19:00Z</time>
      </trkpt>
      <trkpt lat="43.57893" lon="3.32306">
        <ele>348.3</ele>
        <time>2016-05-24T13:19:02Z</time>
      </trkpt>
      <trkpt lat="43.57896" lon="3.32318">
        <ele>348.3</ele>
        <time>2016-05-24T13:19:04Z</time>
      </trkpt>
      <trkpt lat="43.57898" lon="3.32333">
        <ele>349.1</ele>
        <time>2016-05-24T13:19:06Z</time>
      </trkpt>
      <trkpt lat="43.57891" lon="3.32343">
        <ele>348.6</ele>
        <time>2016-05-24T13:19:08Z</time>
      </trkpt>
      <trkpt lat="43.57883" lon="3.32351">
        <ele>348.6</ele>
        <time>2016-05-24T13:19:10Z</time>
      </trkpt>
      <trkpt lat="43.57871" lon="3.32348">
        <ele>348.9</ele>
        <time>2016-05-24T13:19:13Z</time>
      </trkpt>
      <trkpt lat="43.57863" lon="3.32342">
        <ele>350.7</ele>
        <time>2016-05-24T13:19:14Z</time>
      </trkpt>
      <trkpt lat="43.57855" lon="3.32336">
        <ele>351.9</ele>
        <time>2016-05-24T13:19:15Z</time>
      </trkpt>
      <trkpt lat="43.57845" lon="3.3233">
        <ele>353.6</ele>
        <time>2016-05-24T13:19:16Z</time>
      </trkpt>
      <trkpt lat="43.57836" lon="3.32325">
        <ele>355.1</ele>
        <time>2016-05-24T13:19:17Z</time>
      </trkpt>
      <trkpt lat="43.57828" lon="3.32319">
        <ele>355.9</ele>
        <time>2016-05-24T13:19:18Z</time>
      </trkpt>
      <trkpt lat="43.57819" lon="3.32315">
        <ele>355.7</ele>
        <time>2016-05-24T13:19:19Z</time>
      </trkpt>
      <trkpt lat="43.57812" lon="3.32313">
        <ele>355.6</ele>
        <time>2016-05-24T13:19:20Z</time>
      </trkpt>
      <trkpt lat="43.57803" lon="3.3231">
        <ele>355.1</ele>
        <time>2016-05-24T13:19:21Z</time>
      </trkpt>
      <trkpt lat="43.57794" lon="3.32309">
        <ele>354</ele>
        <time>2016-05-24T13:19:22Z</time>
      </trkpt>
      <trkpt lat="43.57786" lon="3.32309">
        <ele>352.8</ele>
        <time>2016-05-24T13:19:23Z</time>
      </trkpt>
      <trkpt lat="43.57779" lon="3.32311">
        <ele>351.3</ele>
        <time>2016-05-24T13:19:24Z</time>
      </trkpt>
      <trkpt lat="43.57771" lon="3.32314">
        <ele>349.4</ele>
        <time>2016-05-24T13:19:25Z</time>
      </trkpt>
      <trkpt lat="43.57762" lon="3.32318">
        <ele>348.2</ele>
        <time>2016-05-24T13:19:26Z</time>
      </trkpt>
      <trkpt lat="43.57754" lon="3.32321">
        <ele>347.2</ele>
        <time>2016-05-24T13:19:27Z</time>
      </trkpt>
      <trkpt lat="43.57747" lon="3.32327">
        <ele>346.4</ele>
        <time>2016-05-24T13:19:28Z</time>
      </trkpt>
      <trkpt lat="43.57733" lon="3.32338">
        <ele>344.7</ele>
        <time>2016-05-24T13:19:30Z</time>
      </trkpt>
      <trkpt lat="43.57726" lon="3.32344">
        <ele>344.8</ele>
        <time>2016-05-24T13:19:31Z</time>
      </trkpt>
      <trkpt lat="43.57719" lon="3.32351">
        <ele>345.1</ele>
        <time>2016-05-24T13:19:32Z</time>
      </trkpt>
      <trkpt lat="43.57711" lon="3.32357">
        <ele>344.7</ele>
        <time>2016-05-24T13:19:33Z</time>
      </trkpt>
      <trkpt lat="43.57704" lon="3.32364">
        <ele>344.1</ele>
        <time>2016-05-24T13:19:34Z</time>
      </trkpt>
      <trkpt lat="43.57698" lon="3.3237">
        <ele>343.1</ele>
        <time>2016-05-24T13:19:35Z</time>
      </trkpt>
      <trkpt lat="43.5769" lon="3.32379">
        <ele>342.6</ele>
        <time>2016-05-24T13:19:36Z</time>
      </trkpt>
      <trkpt lat="43.57684" lon="3.32387">
        <ele>341.7</ele>
        <time>2016-05-24T13:19:37Z</time>
      </trkpt>
      <trkpt lat="43.57678" lon="3.32395">
        <ele>341.1</ele>
        <time>2016-05-24T13:19:38Z</time>
      </trkpt>
      <trkpt lat="43.57668" lon="3.32411">
        <ele>339.6</ele>
        <time>2016-05-24T13:19:40Z</time>
      </trkpt>
      <trkpt lat="43.57662" lon="3.32421">
        <ele>339</ele>
        <time>2016-05-24T13:19:41Z</time>
      </trkpt>
      <trkpt lat="43.57657" lon="3.32429">
        <ele>338.5</ele>
        <time>2016-05-24T13:19:42Z</time>
      </trkpt>
      <trkpt lat="43.57651" lon="3.32436">
        <ele>337.7</ele>
        <time>2016-05-24T13:19:43Z</time>
      </trkpt>
      <trkpt lat="43.5764" lon="3.32444">
        <ele>335.9</ele>
        <time>2016-05-24T13:19:45Z</time>
      </trkpt>
      <trkpt lat="43.57631" lon="3.32445">
        <ele>336.9</ele>
        <time>2016-05-24T13:19:47Z</time>
      </trkpt>
      <trkpt lat="43.57619" lon="3.32445">
        <ele>338.3</ele>
        <time>2016-05-24T13:19:49Z</time>
      </trkpt>
      <trkpt lat="43.57612" lon="3.32445">
        <ele>338.7</ele>
        <time>2016-05-24T13:19:50Z</time>
      </trkpt>
      <trkpt lat="43.57604" lon="3.32447">
        <ele>338.3</ele>
        <time>2016-05-24T13:19:51Z</time>
      </trkpt>
      <trkpt lat="43.57595" lon="3.32449">
        <ele>337.8</ele>
        <time>2016-05-24T13:19:52Z</time>
      </trkpt>
      <trkpt lat="43.57586" lon="3.32452">
        <ele>337.1</ele>
        <time>2016-05-24T13:19:53Z</time>
      </trkpt>
      <trkpt lat="43.57578" lon="3.32454">
        <ele>335.3</ele>
        <time>2016-05-24T13:19:54Z</time>
      </trkpt>
      <trkpt lat="43.5757" lon="3.32457">
        <ele>334</ele>
        <time>2016-05-24T13:19:55Z</time>
      </trkpt>
      <trkpt lat="43.57562" lon="3.32459">
        <ele>332.3</ele>
        <time>2016-05-24T13:19:56Z</time>
      </trkpt>
      <trkpt lat="43.57554" lon="3.32461">
        <ele>330.6</ele>
        <time>2016-05-24T13:19:57Z</time>
      </trkpt>
      <trkpt lat="43.57542" lon="3.32465">
        <ele>328.4</ele>
        <time>2016-05-24T13:19:59Z</time>
      </trkpt>
      <trkpt lat="43.57533" lon="3.32467">
        <ele>327.2</ele>
        <time>2016-05-24T13:20:00Z</time>
      </trkpt>
      <trkpt lat="43.57525" lon="3.3247">
        <ele>325.6</ele>
        <time>2016-05-24T13:20:01Z</time>
      </trkpt>
      <trkpt lat="43.57517" lon="3.32474">
        <ele>324.2</ele>
        <time>2016-05-24T13:20:02Z</time>
      </trkpt>
      <trkpt lat="43.57509" lon="3.32479">
        <ele>323.1</ele>
        <time>2016-05-24T13:20:03Z</time>
      </trkpt>
      <trkpt lat="43.57501" lon="3.32483">
        <ele>322</ele>
        <time>2016-05-24T13:20:04Z</time>
      </trkpt>
      <trkpt lat="43.57493" lon="3.32488">
        <ele>321</ele>
        <time>2016-05-24T13:20:05Z</time>
      </trkpt>
      <trkpt lat="43.57486" lon="3.32493">
        <ele>320</ele>
        <time>2016-05-24T13:20:06Z</time>
      </trkpt>
      <trkpt lat="43.57477" lon="3.325">
        <ele>317.3</ele>
        <time>2016-05-24T13:20:08Z</time>
      </trkpt>
      <trkpt lat="43.57479" lon="3.32488">
        <ele>318.1</ele>
        <time>2016-05-24T13:20:12Z</time>
      </trkpt>
      <trkpt lat="43.57489" lon="3.32479">
        <ele>319.7</ele>
        <time>2016-05-24T13:20:14Z</time>
      </trkpt>
      <trkpt lat="43.575" lon="3.32468">
        <ele>320.2</ele>
        <time>2016-05-24T13:20:16Z</time>
      </trkpt>
      <trkpt lat="43.57507" lon="3.32461">
        <ele>319.6</ele>
        <time>2016-05-24T13:20:17Z</time>
      </trkpt>
      <trkpt lat="43.57514" lon="3.32455">
        <ele>319.4</ele>
        <time>2016-05-24T13:20:18Z</time>
      </trkpt>
      <trkpt lat="43.57519" lon="3.32448">
        <ele>319</ele>
        <time>2016-05-24T13:20:19Z</time>
      </trkpt>
      <trkpt lat="43.57532" lon="3.32433">
        <ele>317.6</ele>
        <time>2016-05-24T13:20:21Z</time>
      </trkpt>
      <trkpt lat="43.57538" lon="3.32425">
        <ele>317</ele>
        <time>2016-05-24T13:20:22Z</time>
      </trkpt>
      <trkpt lat="43.57546" lon="3.32416">
        <ele>315.3</ele>
        <time>2016-05-24T13:20:23Z</time>
      </trkpt>
      <trkpt lat="43.57553" lon="3.32407">
        <ele>314.1</ele>
        <time>2016-05-24T13:20:24Z</time>
      </trkpt>
      <trkpt lat="43.57561" lon="3.32398">
        <ele>313.5</ele>
        <time>2016-05-24T13:20:25Z</time>
      </trkpt>
      <trkpt lat="43.57569" lon="3.3239">
        <ele>312.8</ele>
        <time>2016-05-24T13:20:26Z</time>
      </trkpt>
      <trkpt lat="43.57576" lon="3.32381">
        <ele>312</ele>
        <time>2016-05-24T13:20:27Z</time>
      </trkpt>
      <trkpt lat="43.57583" lon="3.32372">
        <ele>311.7</ele>
        <time>2016-05-24T13:20:28Z</time>
      </trkpt>
      <trkpt lat="43.57589" lon="3.32365">
        <ele>310.8</ele>
        <time>2016-05-24T13:20:29Z</time>
      </trkpt>
      <trkpt lat="43.57595" lon="3.32357">
        <ele>309.9</ele>
        <time>2016-05-24T13:20:30Z</time>
      </trkpt>
      <trkpt lat="43.57602" lon="3.32349">
        <ele>308.9</ele>
        <time>2016-05-24T13:20:31Z</time>
      </trkpt>
      <trkpt lat="43.57613" lon="3.32337">
        <ele>307.4</ele>
        <time>2016-05-24T13:20:33Z</time>
      </trkpt>
      <trkpt lat="43.57618" lon="3.32328">
        <ele>306.4</ele>
        <time>2016-05-24T13:20:34Z</time>
      </trkpt>
      <trkpt lat="43.57623" lon="3.3232">
        <ele>305.5</ele>
        <time>2016-05-24T13:20:35Z</time>
      </trkpt>
      <trkpt lat="43.57629" lon="3.32312">
        <ele>304.9</ele>
        <time>2016-05-24T13:20:36Z</time>
      </trkpt>
      <trkpt lat="43.57639" lon="3.323">
        <ele>304.8</ele>
        <time>2016-05-24T13:20:38Z</time>
      </trkpt>
      <trkpt lat="43.57649" lon="3.32289">
        <ele>305.1</ele>
        <time>2016-05-24T13:20:40Z</time>
      </trkpt>
      <trkpt lat="43.57658" lon="3.32281">
        <ele>305.6</ele>
        <time>2016-05-24T13:20:42Z</time>
      </trkpt>
      <trkpt lat="43.57663" lon="3.32273">
        <ele>306.4</ele>
        <time>2016-05-24T13:20:45Z</time>
      </trkpt>
      <trkpt lat="43.57669" lon="3.32264">
        <ele>306.4</ele>
        <time>2016-05-24T13:20:47Z</time>
      </trkpt>
      <trkpt lat="43.57676" lon="3.32254">
        <ele>306.2</ele>
        <time>2016-05-24T13:20:51Z</time>
      </trkpt>
      <trkpt lat="43.57682" lon="3.32241">
        <ele>306.3</ele>
        <time>2016-05-24T13:20:54Z</time>
      </trkpt>
      <trkpt lat="43.57688" lon="3.32231">
        <ele>306.3</ele>
        <time>2016-05-24T13:20:58Z</time>
      </trkpt>
      <trkpt lat="43.57691" lon="3.32219">
        <ele>306.2</ele>
        <time>2016-05-24T13:21:01Z</time>
      </trkpt>
      <trkpt lat="43.57688" lon="3.3221">
        <ele>306.3</ele>
        <time>2016-05-24T13:21:03Z</time>
      </trkpt>
      <trkpt lat="43.57684" lon="3.32198">
        <ele>306.4</ele>
        <time>2016-05-24T13:21:05Z</time>
      </trkpt>
      <trkpt lat="43.57685" lon="3.32186">
        <ele>306.5</ele>
        <time>2016-05-24T13:21:07Z</time>
      </trkpt>
      <trkpt lat="43.57691" lon="3.32178">
        <ele>306.4</ele>
        <time>2016-05-24T13:21:09Z</time>
      </trkpt>
      <trkpt lat="43.57696" lon="3.3217">
        <ele>306.8</ele>
        <time>2016-05-24T13:21:14Z</time>
      </trkpt>
      <trkpt lat="43.57704" lon="3.32162">
        <ele>307.2</ele>
        <time>2016-05-24T13:21:19Z</time>
      </trkpt>
      <trkpt lat="43.57708" lon="3.32155">
        <ele>307.5</ele>
        <time>2016-05-24T13:21:22Z</time>
      </trkpt>
      <trkpt lat="43.57714" lon="3.32146">
        <ele>307.9</ele>
        <time>2016-05-24T13:21:26Z</time>
      </trkpt>
      <trkpt lat="43.5772" lon="3.3214">
        <ele>307.9</ele>
        <time>2016-05-24T13:21:30Z</time>
      </trkpt>
      <trkpt lat="43.57726" lon="3.32131">
        <ele>307.9</ele>
        <time>2016-05-24T13:21:34Z</time>
      </trkpt>
      <trkpt lat="43.57731" lon="3.32124">
        <ele>308.1</ele>
        <time>2016-05-24T13:21:38Z</time>
      </trkpt>
      <trkpt lat="43.57737" lon="3.32118">
        <ele>308.4</ele>
        <time>2016-05-24T13:21:41Z</time>
      </trkpt>
      <trkpt lat="43.57743" lon="3.3211">
        <ele>308.7</ele>
        <time>2016-05-24T13:21:44Z</time>
      </trkpt>
      <trkpt lat="43.57748" lon="3.32101">
        <ele>309.2</ele>
        <time>2016-05-24T13:21:48Z</time>
      </trkpt>
      <trkpt lat="43.57744" lon="3.32102">
        <ele>310.4</ele>
        <time>2016-05-24T13:21:55Z</time>
      </trkpt>
      <trkpt lat="43.57742" lon="3.32113">
        <ele>311.4</ele>
        <time>2016-05-24T13:22:00Z</time>
      </trkpt>
      <trkpt lat="43.57738" lon="3.32123">
        <ele>311.9</ele>
        <time>2016-05-24T13:22:04Z</time>
      </trkpt>
      <trkpt lat="43.57732" lon="3.32131">
        <ele>312.2</ele>
        <time>2016-05-24T13:22:08Z</time>
      </trkpt>
      <trkpt lat="43.57726" lon="3.32137">
        <ele>312.3</ele>
        <time>2016-05-24T13:22:11Z</time>
      </trkpt>
      <trkpt lat="43.57717" lon="3.32143">
        <ele>312.7</ele>
        <time>2016-05-24T13:22:14Z</time>
      </trkpt>
      <trkpt lat="43.5771" lon="3.32148">
        <ele>313.7</ele>
        <time>2016-05-24T13:22:19Z</time>
      </trkpt>
      <trkpt lat="43.57702" lon="3.32151">
        <ele>314.1</ele>
        <time>2016-05-24T13:22:22Z</time>
      </trkpt>
      <trkpt lat="43.57693" lon="3.32155">
        <ele>314.3</ele>
        <time>2016-05-24T13:22:25Z</time>
      </trkpt>
      <trkpt lat="43.57681" lon="3.3216">
        <ele>315.7</ele>
        <time>2016-05-24T13:22:28Z</time>
      </trkpt>
      <trkpt lat="43.57674" lon="3.32163">
        <ele>316</ele>
        <time>2016-05-24T13:22:31Z</time>
      </trkpt>
      <trkpt lat="43.57667" lon="3.32166">
        <ele>316.6</ele>
        <time>2016-05-24T13:22:34Z</time>
      </trkpt>
      <trkpt lat="43.5766" lon="3.32173">
        <ele>317.9</ele>
        <time>2016-05-24T13:22:39Z</time>
      </trkpt>
      <trkpt lat="43.57652" lon="3.32175">
        <ele>318.6</ele>
        <time>2016-05-24T13:22:43Z</time>
      </trkpt>
      <trkpt lat="43.57645" lon="3.32179">
        <ele>319.1</ele>
        <time>2016-05-24T13:22:48Z</time>
      </trkpt>
      <trkpt lat="43.57637" lon="3.32184">
        <ele>319.5</ele>
        <time>2016-05-24T13:22:52Z</time>
      </trkpt>
      <trkpt lat="43.5763" lon="3.32189">
        <ele>319.9</ele>
        <time>2016-05-24T13:22:55Z</time>
      </trkpt>
      <trkpt lat="43.57623" lon="3.32194">
        <ele>320.5</ele>
        <time>2016-05-24T13:22:59Z</time>
      </trkpt>
      <trkpt lat="43.57617" lon="3.32195">
        <ele>321.4</ele>
        <time>2016-05-24T13:23:06Z</time>
      </trkpt>
      <trkpt lat="43.57609" lon="3.32198">
        <ele>321.5</ele>
        <time>2016-05-24T13:23:08Z</time>
      </trkpt>
      <trkpt lat="43.576" lon="3.32197">
        <ele>322.1</ele>
        <time>2016-05-24T13:23:12Z</time>
      </trkpt>
      <trkpt lat="43.57592" lon="3.32194">
        <ele>322.4</ele>
        <time>2016-05-24T13:23:15Z</time>
      </trkpt>
      <trkpt lat="43.57585" lon="3.3219">
        <ele>322.9</ele>
        <time>2016-05-24T13:23:18Z</time>
      </trkpt>
      <trkpt lat="43.57578" lon="3.32182">
        <ele>323.8</ele>
        <time>2016-05-24T13:23:22Z</time>
      </trkpt>
      <trkpt lat="43.5757" lon="3.32175">
        <ele>324.5</ele>
        <time>2016-05-24T13:23:25Z</time>
      </trkpt>
      <trkpt lat="43.57563" lon="3.32168">
        <ele>325.2</ele>
        <time>2016-05-24T13:23:28Z</time>
      </trkpt>
      <trkpt lat="43.57556" lon="3.32174">
        <ele>326.2</ele>
        <time>2016-05-24T13:23:35Z</time>
      </trkpt>
      <trkpt lat="43.57553" lon="3.32185">
        <ele>326.8</ele>
        <time>2016-05-24T13:23:40Z</time>
      </trkpt>
      <trkpt lat="43.57549" lon="3.32193">
        <ele>327.1</ele>
        <time>2016-05-24T13:23:44Z</time>
      </trkpt>
      <trkpt lat="43.57543" lon="3.32201">
        <ele>327.5</ele>
        <time>2016-05-24T13:23:48Z</time>
      </trkpt>
      <trkpt lat="43.57538" lon="3.32209">
        <ele>328</ele>
        <time>2016-05-24T13:23:52Z</time>
      </trkpt>
      <trkpt lat="43.5753" lon="3.32215">
        <ele>328.4</ele>
        <time>2016-05-24T13:23:56Z</time>
      </trkpt>
      <trkpt lat="43.57523" lon="3.32221">
        <ele>328.8</ele>
        <time>2016-05-24T13:24:00Z</time>
      </trkpt>
      <trkpt lat="43.57515" lon="3.32226">
        <ele>329.3</ele>
        <time>2016-05-24T13:24:04Z</time>
      </trkpt>
      <trkpt lat="43.57511" lon="3.32229">
        <ele>330.3</ele>
        <time>2016-05-24T13:24:11Z</time>
      </trkpt>
      <trkpt lat="43.57504" lon="3.32232">
        <ele>330.5</ele>
        <time>2016-05-24T13:24:12Z</time>
      </trkpt>
      <trkpt lat="43.57498" lon="3.32237">
        <ele>332.2</ele>
        <time>2016-05-24T13:24:19Z</time>
      </trkpt>
      <trkpt lat="43.57488" lon="3.32241">
        <ele>332.5</ele>
        <time>2016-05-24T13:24:21Z</time>
      </trkpt>
      <trkpt lat="43.57478" lon="3.32243">
        <ele>332.7</ele>
        <time>2016-05-24T13:24:24Z</time>
      </trkpt>
      <trkpt lat="43.57468" lon="3.32241">
        <ele>332.8</ele>
        <time>2016-05-24T13:24:26Z</time>
      </trkpt>
      <trkpt lat="43.57473" lon="3.32233">
        <ele>333.4</ele>
        <time>2016-05-24T13:24:33Z</time>
      </trkpt>
      <trkpt lat="43.57479" lon="3.32224">
        <ele>333.8</ele>
        <time>2016-05-24T13:24:37Z</time>
      </trkpt>
      <trkpt lat="43.57486" lon="3.32214">
        <ele>334.1</ele>
        <time>2016-05-24T13:24:40Z</time>
      </trkpt>
      <trkpt lat="43.5749" lon="3.32205">
        <ele>334.2</ele>
        <time>2016-05-24T13:24:43Z</time>
      </trkpt>
      <trkpt lat="43.57495" lon="3.32197">
        <ele>334.4</ele>
        <time>2016-05-24T13:24:48Z</time>
      </trkpt>
      <trkpt lat="43.57499" lon="3.32188">
        <ele>334.8</ele>
        <time>2016-05-24T13:24:54Z</time>
      </trkpt>
      <trkpt lat="43.57503" lon="3.32176">
        <ele>335</ele>
        <time>2016-05-24T13:24:58Z</time>
      </trkpt>
      <trkpt lat="43.57508" lon="3.32166">
        <ele>335</ele>
        <time>2016-05-24T13:25:03Z</time>
      </trkpt>
      <trkpt lat="43.57512" lon="3.32156">
        <ele>335.3</ele>
        <time>2016-05-24T13:25:08Z</time>
      </trkpt>
      <trkpt lat="43.57513" lon="3.32146">
        <ele>335.5</ele>
        <time>2016-05-24T13:25:12Z</time>
      </trkpt>
      <trkpt lat="43.57515" lon="3.32135">
        <ele>336</ele>
        <time>2016-05-24T13:25:16Z</time>
      </trkpt>
      <trkpt lat="43.57516" lon="3.32125">
        <ele>336.2</ele>
        <time>2016-05-24T13:25:20Z</time>
      </trkpt>
      <trkpt lat="43.57516" lon="3.32113">
        <ele>336.5</ele>
        <time>2016-05-24T13:25:25Z</time>
      </trkpt>
      <trkpt lat="43.57514" lon="3.32104">
        <ele>337</ele>
        <time>2016-05-24T13:25:29Z</time>
      </trkpt>
      <trkpt lat="43.57511" lon="3.32094">
        <ele>337.5</ele>
        <time>2016-05-24T13:25:34Z</time>
      </trkpt>
      <trkpt lat="43.57509" lon="3.32084">
        <ele>338</ele>
        <time>2016-05-24T13:25:37Z</time>
      </trkpt>
      <trkpt lat="43.57509" lon="3.32073">
        <ele>339.1</ele>
        <time>2016-05-24T13:25:42Z</time>
      </trkpt>
      <trkpt lat="43.57509" lon="3.32062">
        <ele>339.8</ele>
        <time>2016-05-24T13:25:46Z</time>
      </trkpt>
      <trkpt lat="43.57508" lon="3.32049">
        <ele>340.7</ele>
        <time>2016-05-24T13:25:50Z</time>
      </trkpt>
      <trkpt lat="43.57507" lon="3.32038">
        <ele>341.8</ele>
        <time>2016-05-24T13:25:55Z</time>
      </trkpt>
      <trkpt lat="43.57505" lon="3.32025">
        <ele>342.6</ele>
        <time>2016-05-24T13:25:59Z</time>
      </trkpt>
      <trkpt lat="43.57503" lon="3.32015">
        <ele>343.6</ele>
        <time>2016-05-24T13:26:05Z</time>
      </trkpt>
      <trkpt lat="43.57503" lon="3.32003">
        <ele>344.3</ele>
        <time>2016-05-24T13:26:09Z</time>
      </trkpt>
      <trkpt lat="43.57504" lon="3.3199">
        <ele>345.7</ele>
        <time>2016-05-24T13:26:14Z</time>
      </trkpt>
      <trkpt lat="43.57503" lon="3.31977">
        <ele>346.8</ele>
        <time>2016-05-24T13:26:18Z</time>
      </trkpt>
      <trkpt lat="43.57502" lon="3.31965">
        <ele>348.1</ele>
        <time>2016-05-24T13:26:24Z</time>
      </trkpt>
      <trkpt lat="43.57503" lon="3.31953">
        <ele>348.9</ele>
        <time>2016-05-24T13:26:29Z</time>
      </trkpt>
      <trkpt lat="43.57501" lon="3.31942">
        <ele>350.1</ele>
        <time>2016-05-24T13:26:35Z</time>
      </trkpt>
      <trkpt lat="43.57503" lon="3.3193">
        <ele>350.8</ele>
        <time>2016-05-24T13:26:39Z</time>
      </trkpt>
      <trkpt lat="43.57505" lon="3.31919">
        <ele>351.6</ele>
        <time>2016-05-24T13:26:42Z</time>
      </trkpt>
      <trkpt lat="43.57509" lon="3.31908">
        <ele>352.9</ele>
        <time>2016-05-24T13:26:47Z</time>
      </trkpt>
      <trkpt lat="43.57513" lon="3.31896">
        <ele>354.2</ele>
        <time>2016-05-24T13:26:52Z</time>
      </trkpt>
      <trkpt lat="43.57513" lon="3.31886">
        <ele>355</ele>
        <time>2016-05-24T13:26:56Z</time>
      </trkpt>
      <trkpt lat="43.57516" lon="3.31876">
        <ele>355.9</ele>
        <time>2016-05-24T13:27:00Z</time>
      </trkpt>
      <trkpt lat="43.57518" lon="3.31866">
        <ele>356.7</ele>
        <time>2016-05-24T13:27:04Z</time>
      </trkpt>
      <trkpt lat="43.57518" lon="3.31856">
        <ele>357.4</ele>
        <time>2016-05-24T13:27:07Z</time>
      </trkpt>
      <trkpt lat="43.5752" lon="3.31845">
        <ele>357.9</ele>
        <time>2016-05-24T13:27:10Z</time>
      </trkpt>
      <trkpt lat="43.57524" lon="3.31834">
        <ele>358.6</ele>
        <time>2016-05-24T13:27:14Z</time>
      </trkpt>
      <trkpt lat="43.57528" lon="3.31824">
        <ele>359.4</ele>
        <time>2016-05-24T13:27:18Z</time>
      </trkpt>
      <trkpt lat="43.57531" lon="3.31813">
        <ele>359.8</ele>
        <time>2016-05-24T13:27:22Z</time>
      </trkpt>
      <trkpt lat="43.57533" lon="3.31801">
        <ele>360.3</ele>
        <time>2016-05-24T13:27:27Z</time>
      </trkpt>
      <trkpt lat="43.57535" lon="3.3179">
        <ele>360.8</ele>
        <time>2016-05-24T13:27:31Z</time>
      </trkpt>
      <trkpt lat="43.5754" lon="3.3178">
        <ele>361.4</ele>
        <time>2016-05-24T13:27:35Z</time>
      </trkpt>
      <trkpt lat="43.57544" lon="3.31771">
        <ele>362.1</ele>
        <time>2016-05-24T13:27:39Z</time>
      </trkpt>
      <trkpt lat="43.57546" lon="3.31761">
        <ele>362.7</ele>
        <time>2016-05-24T13:27:43Z</time>
      </trkpt>
      <trkpt lat="43.57549" lon="3.31749">
        <ele>363.8</ele>
        <time>2016-05-24T13:27:48Z</time>
      </trkpt>
      <trkpt lat="43.57549" lon="3.31738">
        <ele>364.2</ele>
        <time>2016-05-24T13:27:52Z</time>
      </trkpt>
      <trkpt lat="43.57553" lon="3.31727">
        <ele>364.6</ele>
        <time>2016-05-24T13:27:56Z</time>
      </trkpt>
      <trkpt lat="43.57556" lon="3.31719">
        <ele>364.8</ele>
        <time>2016-05-24T13:27:59Z</time>
      </trkpt>
      <trkpt lat="43.5756" lon="3.31709">
        <ele>364.8</ele>
        <time>2016-05-24T13:28:03Z</time>
      </trkpt>
      <trkpt lat="43.57562" lon="3.31696">
        <ele>364.9</ele>
        <time>2016-05-24T13:28:07Z</time>
      </trkpt>
      <trkpt lat="43.57567" lon="3.31687">
        <ele>365.4</ele>
        <time>2016-05-24T13:28:12Z</time>
      </trkpt>
      <trkpt lat="43.57572" lon="3.31679">
        <ele>365.9</ele>
        <time>2016-05-24T13:28:16Z</time>
      </trkpt>
      <trkpt lat="43.57574" lon="3.31668">
        <ele>366.6</ele>
        <time>2016-05-24T13:28:21Z</time>
      </trkpt>
      <trkpt lat="43.57572" lon="3.31662">
        <ele>367.9</ele>
        <time>2016-05-24T13:28:28Z</time>
      </trkpt>
      <trkpt lat="43.57572" lon="3.3167">
        <ele>368.6</ele>
        <time>2016-05-24T13:28:35Z</time>
      </trkpt>
      <trkpt lat="43.57568" lon="3.31681">
        <ele>369.2</ele>
        <time>2016-05-24T13:28:40Z</time>
      </trkpt>
      <trkpt lat="43.57563" lon="3.31692">
        <ele>369.7</ele>
        <time>2016-05-24T13:28:44Z</time>
      </trkpt>
      <trkpt lat="43.57559" lon="3.31701">
        <ele>370</ele>
        <time>2016-05-24T13:28:48Z</time>
      </trkpt>
      <trkpt lat="43.57554" lon="3.31711">
        <ele>370.6</ele>
        <time>2016-05-24T13:28:53Z</time>
      </trkpt>
      <trkpt lat="43.5755" lon="3.3172">
        <ele>371.1</ele>
        <time>2016-05-24T13:28:57Z</time>
      </trkpt>
      <trkpt lat="43.57544" lon="3.31727">
        <ele>371.4</ele>
        <time>2016-05-24T13:29:01Z</time>
      </trkpt>
      <trkpt lat="43.57539" lon="3.31736">
        <ele>371.7</ele>
        <time>2016-05-24T13:29:05Z</time>
      </trkpt>
      <trkpt lat="43.57533" lon="3.31743">
        <ele>372.2</ele>
        <time>2016-05-24T13:29:09Z</time>
      </trkpt>
      <trkpt lat="43.57526" lon="3.31751">
        <ele>372.6</ele>
        <time>2016-05-24T13:29:13Z</time>
      </trkpt>
      <trkpt lat="43.5752" lon="3.31758">
        <ele>373.2</ele>
        <time>2016-05-24T13:29:17Z</time>
      </trkpt>
      <trkpt lat="43.57514" lon="3.31764">
        <ele>373.7</ele>
        <time>2016-05-24T13:29:21Z</time>
      </trkpt>
      <trkpt lat="43.57509" lon="3.31772">
        <ele>374</ele>
        <time>2016-05-24T13:29:24Z</time>
      </trkpt>
      <trkpt lat="43.57502" lon="3.31779">
        <ele>374.4</ele>
        <time>2016-05-24T13:29:28Z</time>
      </trkpt>
      <trkpt lat="43.57497" lon="3.31789">
        <ele>374.8</ele>
        <time>2016-05-24T13:29:33Z</time>
      </trkpt>
      <trkpt lat="43.57491" lon="3.31798">
        <ele>375.3</ele>
        <time>2016-05-24T13:29:37Z</time>
      </trkpt>
      <trkpt lat="43.57486" lon="3.31808">
        <ele>376.1</ele>
        <time>2016-05-24T13:29:42Z</time>
      </trkpt>
      <trkpt lat="43.57479" lon="3.31815">
        <ele>376.4</ele>
        <time>2016-05-24T13:29:47Z</time>
      </trkpt>
      <trkpt lat="43.57473" lon="3.31823">
        <ele>377</ele>
        <time>2016-05-24T13:29:51Z</time>
      </trkpt>
      <trkpt lat="43.57467" lon="3.31831">
        <ele>377.6</ele>
        <time>2016-05-24T13:29:55Z</time>
      </trkpt>
      <trkpt lat="43.5746" lon="3.31838">
        <ele>378.2</ele>
        <time>2016-05-24T13:29:59Z</time>
      </trkpt>
      <trkpt lat="43.57453" lon="3.31844">
        <ele>378.8</ele>
        <time>2016-05-24T13:30:03Z</time>
      </trkpt>
      <trkpt lat="43.57452" lon="3.31834">
        <ele>379.9</ele>
        <time>2016-05-24T13:30:09Z</time>
      </trkpt>
      <trkpt lat="43.57454" lon="3.31823">
        <ele>381.1</ele>
        <time>2016-05-24T13:30:15Z</time>
      </trkpt>
      <trkpt lat="43.57456" lon="3.31812">
        <ele>382</ele>
        <time>2016-05-24T13:30:19Z</time>
      </trkpt>
      <trkpt lat="43.57456" lon="3.31801">
        <ele>383.2</ele>
        <time>2016-05-24T13:30:25Z</time>
      </trkpt>
      <trkpt lat="43.57459" lon="3.31792">
        <ele>384</ele>
        <time>2016-05-24T13:30:30Z</time>
      </trkpt>
      <trkpt lat="43.57462" lon="3.3178">
        <ele>385.2</ele>
        <time>2016-05-24T13:30:36Z</time>
      </trkpt>
      <trkpt lat="43.57466" lon="3.31771">
        <ele>385.9</ele>
        <time>2016-05-24T13:30:39Z</time>
      </trkpt>
      <trkpt lat="43.57467" lon="3.31761">
        <ele>386.5</ele>
        <time>2016-05-24T13:30:43Z</time>
      </trkpt>
      <trkpt lat="43.57469" lon="3.3175">
        <ele>387.8</ele>
        <time>2016-05-24T13:30:49Z</time>
      </trkpt>
      <trkpt lat="43.57471" lon="3.31739">
        <ele>388.5</ele>
        <time>2016-05-24T13:30:54Z</time>
      </trkpt>
      <trkpt lat="43.57477" lon="3.3173">
        <ele>389</ele>
        <time>2016-05-24T13:30:58Z</time>
      </trkpt>
      <trkpt lat="43.5748" lon="3.31719">
        <ele>389.5</ele>
        <time>2016-05-24T13:31:02Z</time>
      </trkpt>
      <trkpt lat="43.57484" lon="3.31709">
        <ele>390</ele>
        <time>2016-05-24T13:31:06Z</time>
      </trkpt>
      <trkpt lat="43.57486" lon="3.31698">
        <ele>390.3</ele>
        <time>2016-05-24T13:31:11Z</time>
      </trkpt>
      <trkpt lat="43.57487" lon="3.31686">
        <ele>390.9</ele>
        <time>2016-05-24T13:31:17Z</time>
      </trkpt>
      <trkpt lat="43.5749" lon="3.31677">
        <ele>391.3</ele>
        <time>2016-05-24T13:31:21Z</time>
      </trkpt>
      <trkpt lat="43.57493" lon="3.31667">
        <ele>391.6</ele>
        <time>2016-05-24T13:31:25Z</time>
      </trkpt>
      <trkpt lat="43.57497" lon="3.31657">
        <ele>392.3</ele>
        <time>2016-05-24T13:31:30Z</time>
      </trkpt>
      <trkpt lat="43.57501" lon="3.31648">
        <ele>393.3</ele>
        <time>2016-05-24T13:31:35Z</time>
      </trkpt>
      <trkpt lat="43.57504" lon="3.31637">
        <ele>394.3</ele>
        <time>2016-05-24T13:31:41Z</time>
      </trkpt>
      <trkpt lat="43.57505" lon="3.31628">
        <ele>394.8</ele>
        <time>2016-05-24T13:31:47Z</time>
      </trkpt>
      <trkpt lat="43.57505" lon="3.31617">
        <ele>395.6</ele>
        <time>2016-05-24T13:31:54Z</time>
      </trkpt>
      <trkpt lat="43.57508" lon="3.31603">
        <ele>396.2</ele>
        <time>2016-05-24T13:31:58Z</time>
      </trkpt>
      <trkpt lat="43.57514" lon="3.31593">
        <ele>396.6</ele>
        <time>2016-05-24T13:32:00Z</time>
      </trkpt>
      <trkpt lat="43.5752" lon="3.31585">
        <ele>397.1</ele>
        <time>2016-05-24T13:32:03Z</time>
      </trkpt>
      <trkpt lat="43.57527" lon="3.31578">
        <ele>397.8</ele>
        <time>2016-05-24T13:32:06Z</time>
      </trkpt>
      <trkpt lat="43.57534" lon="3.31572">
        <ele>398.3</ele>
        <time>2016-05-24T13:32:09Z</time>
      </trkpt>
      <trkpt lat="43.57539" lon="3.31564">
        <ele>399</ele>
        <time>2016-05-24T13:32:14Z</time>
      </trkpt>
      <trkpt lat="43.57544" lon="3.31555">
        <ele>399.5</ele>
        <time>2016-05-24T13:32:17Z</time>
      </trkpt>
      <trkpt lat="43.57549" lon="3.31547">
        <ele>400.3</ele>
        <time>2016-05-24T13:32:21Z</time>
      </trkpt>
      <trkpt lat="43.57556" lon="3.31538">
        <ele>400.7</ele>
        <time>2016-05-24T13:32:24Z</time>
      </trkpt>
      <trkpt lat="43.57567" lon="3.31529">
        <ele>401.2</ele>
        <time>2016-05-24T13:32:27Z</time>
      </trkpt>
      <trkpt lat="43.57573" lon="3.31522">
        <ele>401.4</ele>
        <time>2016-05-24T13:32:29Z</time>
      </trkpt>
      <trkpt lat="43.57578" lon="3.31514">
        <ele>401.8</ele>
        <time>2016-05-24T13:32:34Z</time>
      </trkpt>
      <trkpt lat="43.57587" lon="3.31509">
        <ele>402.1</ele>
        <time>2016-05-24T13:32:36Z</time>
      </trkpt>
      <trkpt lat="43.57595" lon="3.31504">
        <ele>402.5</ele>
        <time>2016-05-24T13:32:39Z</time>
      </trkpt>
      <trkpt lat="43.57601" lon="3.315">
        <ele>403</ele>
        <time>2016-05-24T13:32:42Z</time>
      </trkpt>
      <trkpt lat="43.57609" lon="3.31498">
        <ele>403.6</ele>
        <time>2016-05-24T13:32:46Z</time>
      </trkpt>
      <trkpt lat="43.57618" lon="3.31497">
        <ele>404</ele>
        <time>2016-05-24T13:32:48Z</time>
      </trkpt>
      <trkpt lat="43.5763" lon="3.31497">
        <ele>404.3</ele>
        <time>2016-05-24T13:32:50Z</time>
      </trkpt>
      <trkpt lat="43.57638" lon="3.31497">
        <ele>404.6</ele>
        <time>2016-05-24T13:32:52Z</time>
      </trkpt>
      <trkpt lat="43.57646" lon="3.31499">
        <ele>404.8</ele>
        <time>2016-05-24T13:32:55Z</time>
      </trkpt>
      <trkpt lat="43.57655" lon="3.31501">
        <ele>405</ele>
        <time>2016-05-24T13:32:58Z</time>
      </trkpt>
      <trkpt lat="43.57662" lon="3.315">
        <ele>405.4</ele>
        <time>2016-05-24T13:33:01Z</time>
      </trkpt>
      <trkpt lat="43.57669" lon="3.31492">
        <ele>405.6</ele>
        <time>2016-05-24T13:33:04Z</time>
      </trkpt>
      <trkpt lat="43.57676" lon="3.3148">
        <ele>405.6</ele>
        <time>2016-05-24T13:33:06Z</time>
      </trkpt>
      <trkpt lat="43.57682" lon="3.3147">
        <ele>405.5</ele>
        <time>2016-05-24T13:33:08Z</time>
      </trkpt>
      <trkpt lat="43.5769" lon="3.31463">
        <ele>404.2</ele>
        <time>2016-05-24T13:33:10Z</time>
      </trkpt>
      <trkpt lat="43.57695" lon="3.31456">
        <ele>404.3</ele>
        <time>2016-05-24T13:33:12Z</time>
      </trkpt>
      <trkpt lat="43.57701" lon="3.31447">
        <ele>404.2</ele>
        <time>2016-05-24T13:33:15Z</time>
      </trkpt>
      <trkpt lat="43.57707" lon="3.31439">
        <ele>404.3</ele>
        <time>2016-05-24T13:33:17Z</time>
      </trkpt>
      <trkpt lat="43.57714" lon="3.31429">
        <ele>404.2</ele>
        <time>2016-05-24T13:33:19Z</time>
      </trkpt>
      <trkpt lat="43.57721" lon="3.31418">
        <ele>404.2</ele>
        <time>2016-05-24T13:33:21Z</time>
      </trkpt>
      <trkpt lat="43.57729" lon="3.3141">
        <ele>404.1</ele>
        <time>2016-05-24T13:33:23Z</time>
      </trkpt>
      <trkpt lat="43.57737" lon="3.31403">
        <ele>404</ele>
        <time>2016-05-24T13:33:25Z</time>
      </trkpt>
      <trkpt lat="43.57743" lon="3.31397">
        <ele>404</ele>
        <time>2016-05-24T13:33:27Z</time>
      </trkpt>
      <trkpt lat="43.57745" lon="3.31391">
        <ele>404.4</ele>
        <time>2016-05-24T13:33:34Z</time>
      </trkpt>
      <trkpt lat="43.57745" lon="3.3139">
        <ele>405.3</ele>
        <time>2016-05-24T13:33:50Z</time>
      </trkpt>
      <trkpt lat="43.57753" lon="3.3139">
        <ele>404.9</ele>
        <time>2016-05-24T13:33:56Z</time>
      </trkpt>
      <trkpt lat="43.5776" lon="3.31386">
        <ele>405</ele>
        <time>2016-05-24T13:34:02Z</time>
      </trkpt>
      <trkpt lat="43.57767" lon="3.31383">
        <ele>405.3</ele>
        <time>2016-05-24T13:34:09Z</time>
      </trkpt>
      <trkpt lat="43.57773" lon="3.3138">
        <ele>405.5</ele>
        <time>2016-05-24T13:34:16Z</time>
      </trkpt>
      <trkpt lat="43.57764" lon="3.31386">
        <ele>405.6</ele>
        <time>2016-05-24T13:34:21Z</time>
      </trkpt>
      <trkpt lat="43.5775" lon="3.3138">
        <ele>406.9</ele>
        <time>2016-05-24T13:34:24Z</time>
      </trkpt>
      <trkpt lat="43.57741" lon="3.31376">
        <ele>407.4</ele>
        <time>2016-05-24T13:34:26Z</time>
      </trkpt>
      <trkpt lat="43.5773" lon="3.31374">
        <ele>407.2</ele>
        <time>2016-05-24T13:34:28Z</time>
      </trkpt>
      <trkpt lat="43.5772" lon="3.3137">
        <ele>406.8</ele>
        <time>2016-05-24T13:34:30Z</time>
      </trkpt>
      <trkpt lat="43.57708" lon="3.31362">
        <ele>406.2</ele>
        <time>2016-05-24T13:34:32Z</time>
      </trkpt>
      <trkpt lat="43.57697" lon="3.31357">
        <ele>404.6</ele>
        <time>2016-05-24T13:34:34Z</time>
      </trkpt>
      <trkpt lat="43.57685" lon="3.31353">
        <ele>403.3</ele>
        <time>2016-05-24T13:34:36Z</time>
      </trkpt>
      <trkpt lat="43.57674" lon="3.31351">
        <ele>403</ele>
        <time>2016-05-24T13:34:38Z</time>
      </trkpt>
      <trkpt lat="43.57664" lon="3.31349">
        <ele>402.7</ele>
        <time>2016-05-24T13:34:41Z</time>
      </trkpt>
      <trkpt lat="43.57656" lon="3.31352">
        <ele>402.5</ele>
        <time>2016-05-24T13:34:43Z</time>
      </trkpt>
      <trkpt lat="43.57645" lon="3.31355">
        <ele>402.4</ele>
        <time>2016-05-24T13:34:45Z</time>
      </trkpt>
      <trkpt lat="43.57638" lon="3.31355">
        <ele>402.5</ele>
        <time>2016-05-24T13:34:46Z</time>
      </trkpt>
      <trkpt lat="43.57624" lon="3.31356">
        <ele>402.5</ele>
        <time>2016-05-24T13:34:48Z</time>
      </trkpt>
      <trkpt lat="43.57615" lon="3.31356">
        <ele>402.6</ele>
        <time>2016-05-24T13:34:50Z</time>
      </trkpt>
      <trkpt lat="43.57602" lon="3.31362">
        <ele>402.6</ele>
        <time>2016-05-24T13:34:52Z</time>
      </trkpt>
      <trkpt lat="43.5759" lon="3.31361">
        <ele>402.5</ele>
        <time>2016-05-24T13:34:55Z</time>
      </trkpt>
      <trkpt lat="43.5758" lon="3.31366">
        <ele>402.4</ele>
        <time>2016-05-24T13:34:59Z</time>
      </trkpt>
      <trkpt lat="43.57571" lon="3.31368">
        <ele>402.3</ele>
        <time>2016-05-24T13:35:01Z</time>
      </trkpt>
      <trkpt lat="43.5756" lon="3.31368">
        <ele>402</ele>
        <time>2016-05-24T13:35:03Z</time>
      </trkpt>
      <trkpt lat="43.57549" lon="3.31373">
        <ele>401.6</ele>
        <time>2016-05-24T13:35:05Z</time>
      </trkpt>
      <trkpt lat="43.57538" lon="3.31374">
        <ele>401.4</ele>
        <time>2016-05-24T13:35:07Z</time>
      </trkpt>
      <trkpt lat="43.57528" lon="3.31372">
        <ele>401.1</ele>
        <time>2016-05-24T13:35:09Z</time>
      </trkpt>
      <trkpt lat="43.5752" lon="3.31372">
        <ele>400.7</ele>
        <time>2016-05-24T13:35:11Z</time>
      </trkpt>
      <trkpt lat="43.57513" lon="3.31373">
        <ele>400.4</ele>
        <time>2016-05-24T13:35:13Z</time>
      </trkpt>
      <trkpt lat="43.57506" lon="3.31378">
        <ele>399.6</ele>
        <time>2016-05-24T13:35:17Z</time>
      </trkpt>
      <trkpt lat="43.57495" lon="3.3138">
        <ele>399.2</ele>
        <time>2016-05-24T13:35:19Z</time>
      </trkpt>
      <trkpt lat="43.57486" lon="3.31384">
        <ele>398.8</ele>
        <time>2016-05-24T13:35:21Z</time>
      </trkpt>
      <trkpt lat="43.57478" lon="3.3139">
        <ele>398.4</ele>
        <time>2016-05-24T13:35:23Z</time>
      </trkpt>
      <trkpt lat="43.57469" lon="3.31399">
        <ele>398.1</ele>
        <time>2016-05-24T13:35:25Z</time>
      </trkpt>
      <trkpt lat="43.57462" lon="3.31407">
        <ele>397.9</ele>
        <time>2016-05-24T13:35:27Z</time>
      </trkpt>
      <trkpt lat="43.57454" lon="3.31413">
        <ele>397.5</ele>
        <time>2016-05-24T13:35:30Z</time>
      </trkpt>
      <trkpt lat="43.57445" lon="3.3142">
        <ele>397.2</ele>
        <time>2016-05-24T13:35:32Z</time>
      </trkpt>
      <trkpt lat="43.57438" lon="3.31426">
        <ele>396.9</ele>
        <time>2016-05-24T13:35:34Z</time>
      </trkpt>
      <trkpt lat="43.5743" lon="3.31433">
        <ele>396.5</ele>
        <time>2016-05-24T13:35:37Z</time>
      </trkpt>
      <trkpt lat="43.57421" lon="3.31439">
        <ele>396.1</ele>
        <time>2016-05-24T13:35:41Z</time>
      </trkpt>
      <trkpt lat="43.57413" lon="3.3145">
        <ele>393.8</ele>
        <time>2016-05-24T13:35:44Z</time>
      </trkpt>
      <trkpt lat="43.57408" lon="3.31459">
        <ele>389.9</ele>
        <time>2016-05-24T13:35:46Z</time>
      </trkpt>
      <trkpt lat="43.574" lon="3.31466">
        <ele>388.9</ele>
        <time>2016-05-24T13:35:48Z</time>
      </trkpt>
      <trkpt lat="43.57393" lon="3.31465">
        <ele>388.7</ele>
        <time>2016-05-24T13:35:50Z</time>
      </trkpt>
      <trkpt lat="43.57386" lon="3.31449">
        <ele>388.1</ele>
        <time>2016-05-24T13:35:53Z</time>
      </trkpt>
      <trkpt lat="43.57382" lon="3.31436">
        <ele>386.2</ele>
        <time>2016-05-24T13:35:55Z</time>
      </trkpt>
      <trkpt lat="43.57373" lon="3.31417">
        <ele>385.9</ele>
        <time>2016-05-24T13:35:57Z</time>
      </trkpt>
      <trkpt lat="43.57363" lon="3.31404">
        <ele>383.9</ele>
        <time>2016-05-24T13:35:59Z</time>
      </trkpt>
      <trkpt lat="43.57356" lon="3.314">
        <ele>383.1</ele>
        <time>2016-05-24T13:36:00Z</time>
      </trkpt>
      <trkpt lat="43.57348" lon="3.31398">
        <ele>382.2</ele>
        <time>2016-05-24T13:36:01Z</time>
      </trkpt>
      <trkpt lat="43.57341" lon="3.31398">
        <ele>380.9</ele>
        <time>2016-05-24T13:36:02Z</time>
      </trkpt>
      <trkpt lat="43.57334" lon="3.31396">
        <ele>380.1</ele>
        <time>2016-05-24T13:36:03Z</time>
      </trkpt>
      <trkpt lat="43.5732" lon="3.31396">
        <ele>379.8</ele>
        <time>2016-05-24T13:36:05Z</time>
      </trkpt>
      <trkpt lat="43.57312" lon="3.31396">
        <ele>379.8</ele>
        <time>2016-05-24T13:36:06Z</time>
      </trkpt>
      <trkpt lat="43.57304" lon="3.31395">
        <ele>378.9</ele>
        <time>2016-05-24T13:36:07Z</time>
      </trkpt>
      <trkpt lat="43.57297" lon="3.31398">
        <ele>378.3</ele>
        <time>2016-05-24T13:36:08Z</time>
      </trkpt>
      <trkpt lat="43.57289" lon="3.314">
        <ele>377.5</ele>
        <time>2016-05-24T13:36:09Z</time>
      </trkpt>
      <trkpt lat="43.57281" lon="3.31403">
        <ele>376.9</ele>
        <time>2016-05-24T13:36:10Z</time>
      </trkpt>
      <trkpt lat="43.57273" lon="3.31402">
        <ele>376.1</ele>
        <time>2016-05-24T13:36:11Z</time>
      </trkpt>
      <trkpt lat="43.57265" lon="3.31401">
        <ele>375.5</ele>
        <time>2016-05-24T13:36:12Z</time>
      </trkpt>
      <trkpt lat="43.57257" lon="3.31399">
        <ele>374.7</ele>
        <time>2016-05-24T13:36:13Z</time>
      </trkpt>
      <trkpt lat="43.57244" lon="3.31401">
        <ele>373.9</ele>
        <time>2016-05-24T13:36:15Z</time>
      </trkpt>
      <trkpt lat="43.57237" lon="3.31402">
        <ele>373.4</ele>
        <time>2016-05-24T13:36:16Z</time>
      </trkpt>
      <trkpt lat="43.57224" lon="3.31402">
        <ele>372.8</ele>
        <time>2016-05-24T13:36:18Z</time>
      </trkpt>
      <trkpt lat="43.57213" lon="3.31402">
        <ele>372.7</ele>
        <time>2016-05-24T13:36:20Z</time>
      </trkpt>
      <trkpt lat="43.57202" lon="3.31398">
        <ele>372.2</ele>
        <time>2016-05-24T13:36:22Z</time>
      </trkpt>
      <trkpt lat="43.57191" lon="3.31398">
        <ele>372</ele>
        <time>2016-05-24T13:36:24Z</time>
      </trkpt>
      <trkpt lat="43.57178" lon="3.31396">
        <ele>371.4</ele>
        <time>2016-05-24T13:36:26Z</time>
      </trkpt>
      <trkpt lat="43.5717" lon="3.31393">
        <ele>371.1</ele>
        <time>2016-05-24T13:36:27Z</time>
      </trkpt>
      <trkpt lat="43.57162" lon="3.31389">
        <ele>371.5</ele>
        <time>2016-05-24T13:36:28Z</time>
      </trkpt>
      <trkpt lat="43.57152" lon="3.31385">
        <ele>372.2</ele>
        <time>2016-05-24T13:36:29Z</time>
      </trkpt>
      <trkpt lat="43.57143" lon="3.3138">
        <ele>371.9</ele>
        <time>2016-05-24T13:36:30Z</time>
      </trkpt>
      <trkpt lat="43.57133" lon="3.31375">
        <ele>372.5</ele>
        <time>2016-05-24T13:36:31Z</time>
      </trkpt>
      <trkpt lat="43.57124" lon="3.3137">
        <ele>372.1</ele>
        <time>2016-05-24T13:36:32Z</time>
      </trkpt>
      <trkpt lat="43.57112" lon="3.31361">
        <ele>371.7</ele>
        <time>2016-05-24T13:36:34Z</time>
      </trkpt>
      <trkpt lat="43.57103" lon="3.31354">
        <ele>371.3</ele>
        <time>2016-05-24T13:36:35Z</time>
      </trkpt>
      <trkpt lat="43.57095" lon="3.31348">
        <ele>370.8</ele>
        <time>2016-05-24T13:36:36Z</time>
      </trkpt>
      <trkpt lat="43.57088" lon="3.31341">
        <ele>370.2</ele>
        <time>2016-05-24T13:36:37Z</time>
      </trkpt>
      <trkpt lat="43.57077" lon="3.31327">
        <ele>370.2</ele>
        <time>2016-05-24T13:36:39Z</time>
      </trkpt>
      <trkpt lat="43.57071" lon="3.31316">
        <ele>370.2</ele>
        <time>2016-05-24T13:36:40Z</time>
      </trkpt>
      <trkpt lat="43.57067" lon="3.31304">
        <ele>369.6</ele>
        <time>2016-05-24T13:36:42Z</time>
      </trkpt>
      <trkpt lat="43.5706" lon="3.31298">
        <ele>369.2</ele>
        <time>2016-05-24T13:36:45Z</time>
      </trkpt>
      <trkpt lat="43.57052" lon="3.31298">
        <ele>366.8</ele>
        <time>2016-05-24T13:36:48Z</time>
      </trkpt>
      <trkpt lat="43.57043" lon="3.31301">
        <ele>365.1</ele>
        <time>2016-05-24T13:36:51Z</time>
      </trkpt>
      <trkpt lat="43.57033" lon="3.31301">
        <ele>364.3</ele>
        <time>2016-05-24T13:36:53Z</time>
      </trkpt>
      <trkpt lat="43.57025" lon="3.31302">
        <ele>364</ele>
        <time>2016-05-24T13:36:55Z</time>
      </trkpt>
      <trkpt lat="43.57018" lon="3.31305">
        <ele>363.7</ele>
        <time>2016-05-24T13:36:57Z</time>
      </trkpt>
      <trkpt lat="43.57008" lon="3.31309">
        <ele>363.3</ele>
        <time>2016-05-24T13:36:59Z</time>
      </trkpt>
      <trkpt lat="43.56999" lon="3.31314">
        <ele>362.8</ele>
        <time>2016-05-24T13:37:01Z</time>
      </trkpt>
      <trkpt lat="43.56989" lon="3.31319">
        <ele>360</ele>
        <time>2016-05-24T13:37:03Z</time>
      </trkpt>
      <trkpt lat="43.56978" lon="3.3133">
        <ele>357.5</ele>
        <time>2016-05-24T13:37:05Z</time>
      </trkpt>
      <trkpt lat="43.56968" lon="3.31338">
        <ele>355.2</ele>
        <time>2016-05-24T13:37:07Z</time>
      </trkpt>
      <trkpt lat="43.5696" lon="3.31347">
        <ele>355.1</ele>
        <time>2016-05-24T13:37:09Z</time>
      </trkpt>
      <trkpt lat="43.5695" lon="3.31355">
        <ele>354.9</ele>
        <time>2016-05-24T13:37:11Z</time>
      </trkpt>
      <trkpt lat="43.56942" lon="3.31363">
        <ele>354.6</ele>
        <time>2016-05-24T13:37:13Z</time>
      </trkpt>
      <trkpt lat="43.56934" lon="3.31369">
        <ele>354.2</ele>
        <time>2016-05-24T13:37:15Z</time>
      </trkpt>
      <trkpt lat="43.56927" lon="3.31375">
        <ele>353.7</ele>
        <time>2016-05-24T13:37:17Z</time>
      </trkpt>
      <trkpt lat="43.56919" lon="3.31379">
        <ele>353.2</ele>
        <time>2016-05-24T13:37:20Z</time>
      </trkpt>
      <trkpt lat="43.56911" lon="3.31382">
        <ele>352.8</ele>
        <time>2016-05-24T13:37:22Z</time>
      </trkpt>
      <trkpt lat="43.569" lon="3.31383">
        <ele>352.4</ele>
        <time>2016-05-24T13:37:25Z</time>
      </trkpt>
      <trkpt lat="43.56889" lon="3.31382">
        <ele>352.3</ele>
        <time>2016-05-24T13:37:27Z</time>
      </trkpt>
      <trkpt lat="43.56881" lon="3.31382">
        <ele>352.2</ele>
        <time>2016-05-24T13:37:29Z</time>
      </trkpt>
      <trkpt lat="43.56874" lon="3.31382">
        <ele>352.1</ele>
        <time>2016-05-24T13:37:31Z</time>
      </trkpt>
      <trkpt lat="43.56865" lon="3.31383">
        <ele>351.8</ele>
        <time>2016-05-24T13:37:34Z</time>
      </trkpt>
      <trkpt lat="43.56856" lon="3.31385">
        <ele>351.5</ele>
        <time>2016-05-24T13:37:37Z</time>
      </trkpt>
      <trkpt lat="43.56848" lon="3.31385">
        <ele>351.3</ele>
        <time>2016-05-24T13:37:39Z</time>
      </trkpt>
      <trkpt lat="43.56841" lon="3.31383">
        <ele>351.1</ele>
        <time>2016-05-24T13:37:41Z</time>
      </trkpt>
      <trkpt lat="43.56833" lon="3.31383">
        <ele>350.9</ele>
        <time>2016-05-24T13:37:43Z</time>
      </trkpt>
      <trkpt lat="43.56824" lon="3.31384">
        <ele>350.7</ele>
        <time>2016-05-24T13:37:45Z</time>
      </trkpt>
      <trkpt lat="43.56813" lon="3.31386">
        <ele>349.1</ele>
        <time>2016-05-24T13:37:47Z</time>
      </trkpt>
      <trkpt lat="43.56806" lon="3.31391">
        <ele>347.5</ele>
        <time>2016-05-24T13:37:49Z</time>
      </trkpt>
      <trkpt lat="43.56798" lon="3.31397">
        <ele>346.9</ele>
        <time>2016-05-24T13:37:51Z</time>
      </trkpt>
      <trkpt lat="43.56788" lon="3.31402">
        <ele>346.9</ele>
        <time>2016-05-24T13:37:53Z</time>
      </trkpt>
      <trkpt lat="43.56778" lon="3.31409">
        <ele>347.3</ele>
        <time>2016-05-24T13:37:55Z</time>
      </trkpt>
      <trkpt lat="43.5677" lon="3.31412">
        <ele>347.4</ele>
        <time>2016-05-24T13:37:57Z</time>
      </trkpt>
      <trkpt lat="43.56761" lon="3.31407">
        <ele>347.4</ele>
        <time>2016-05-24T13:37:59Z</time>
      </trkpt>
      <trkpt lat="43.56751" lon="3.31408">
        <ele>347.4</ele>
        <time>2016-05-24T13:38:01Z</time>
      </trkpt>
      <trkpt lat="43.56739" lon="3.31409">
        <ele>345.8</ele>
        <time>2016-05-24T13:38:03Z</time>
      </trkpt>
      <trkpt lat="43.56729" lon="3.31409">
        <ele>345.4</ele>
        <time>2016-05-24T13:38:05Z</time>
      </trkpt>
      <trkpt lat="43.56716" lon="3.31408">
        <ele>345.6</ele>
        <time>2016-05-24T13:38:07Z</time>
      </trkpt>
      <trkpt lat="43.56704" lon="3.31408">
        <ele>346.9</ele>
        <time>2016-05-24T13:38:09Z</time>
      </trkpt>
      <trkpt lat="43.56692" lon="3.31409">
        <ele>345.9</ele>
        <time>2016-05-24T13:38:11Z</time>
      </trkpt>
      <trkpt lat="43.56681" lon="3.31409">
        <ele>345.9</ele>
        <time>2016-05-24T13:38:13Z</time>
      </trkpt>
      <trkpt lat="43.56667" lon="3.31412">
        <ele>345.5</ele>
        <time>2016-05-24T13:38:15Z</time>
      </trkpt>
      <trkpt lat="43.56656" lon="3.31419">
        <ele>343.5</ele>
        <time>2016-05-24T13:38:17Z</time>
      </trkpt>
      <trkpt lat="43.56646" lon="3.31423">
        <ele>341.9</ele>
        <time>2016-05-24T13:38:19Z</time>
      </trkpt>
      <trkpt lat="43.56638" lon="3.31418">
        <ele>341.5</ele>
        <time>2016-05-24T13:38:21Z</time>
      </trkpt>
      <trkpt lat="43.5663" lon="3.31419">
        <ele>341.2</ele>
        <time>2016-05-24T13:38:23Z</time>
      </trkpt>
      <trkpt lat="43.56623" lon="3.31414">
        <ele>340.9</ele>
        <time>2016-05-24T13:38:25Z</time>
      </trkpt>
      <trkpt lat="43.56614" lon="3.31415">
        <ele>340.6</ele>
        <time>2016-05-24T13:38:27Z</time>
      </trkpt>
      <trkpt lat="43.56604" lon="3.31415">
        <ele>340.3</ele>
        <time>2016-05-24T13:38:30Z</time>
      </trkpt>
      <trkpt lat="43.56596" lon="3.31416">
        <ele>340.1</ele>
        <time>2016-05-24T13:38:32Z</time>
      </trkpt>
      <trkpt lat="43.56589" lon="3.31413">
        <ele>339.6</ele>
        <time>2016-05-24T13:38:35Z</time>
      </trkpt>
      <trkpt lat="43.56575" lon="3.31406">
        <ele>338.9</ele>
        <time>2016-05-24T13:38:40Z</time>
      </trkpt>
      <trkpt lat="43.56566" lon="3.31404">
        <ele>338.5</ele>
        <time>2016-05-24T13:38:44Z</time>
      </trkpt>
      <trkpt lat="43.56558" lon="3.31404">
        <ele>337.9</ele>
        <time>2016-05-24T13:38:47Z</time>
      </trkpt>
      <trkpt lat="43.56548" lon="3.31403">
        <ele>337.2</ele>
        <time>2016-05-24T13:38:50Z</time>
      </trkpt>
      <trkpt lat="43.5654" lon="3.31401">
        <ele>336.8</ele>
        <time>2016-05-24T13:38:52Z</time>
      </trkpt>
      <trkpt lat="43.5653" lon="3.31398">
        <ele>336.2</ele>
        <time>2016-05-24T13:38:55Z</time>
      </trkpt>
      <trkpt lat="43.56518" lon="3.31396">
        <ele>335.8</ele>
        <time>2016-05-24T13:38:58Z</time>
      </trkpt>
      <trkpt lat="43.56511" lon="3.31394">
        <ele>335.5</ele>
        <time>2016-05-24T13:39:00Z</time>
      </trkpt>
      <trkpt lat="43.56503" lon="3.31393">
        <ele>335.3</ele>
        <time>2016-05-24T13:39:02Z</time>
      </trkpt>
      <trkpt lat="43.56493" lon="3.3139">
        <ele>335.2</ele>
        <time>2016-05-24T13:39:04Z</time>
      </trkpt>
      <trkpt lat="43.56483" lon="3.31387">
        <ele>334.9</ele>
        <time>2016-05-24T13:39:06Z</time>
      </trkpt>
      <trkpt lat="43.56475" lon="3.31384">
        <ele>334.7</ele>
        <time>2016-05-24T13:39:08Z</time>
      </trkpt>
      <trkpt lat="43.56467" lon="3.31383">
        <ele>334.4</ele>
        <time>2016-05-24T13:39:11Z</time>
      </trkpt>
      <trkpt lat="43.56456" lon="3.31381">
        <ele>334.1</ele>
        <time>2016-05-24T13:39:14Z</time>
      </trkpt>
      <trkpt lat="43.56448" lon="3.31379">
        <ele>333.8</ele>
        <time>2016-05-24T13:39:16Z</time>
      </trkpt>
      <trkpt lat="43.56438" lon="3.31377">
        <ele>333.7</ele>
        <time>2016-05-24T13:39:19Z</time>
      </trkpt>
      <trkpt lat="43.56429" lon="3.31376">
        <ele>333.7</ele>
        <time>2016-05-24T13:39:22Z</time>
      </trkpt>
      <trkpt lat="43.56419" lon="3.31373">
        <ele>333.5</ele>
        <time>2016-05-24T13:39:25Z</time>
      </trkpt>
      <trkpt lat="43.56408" lon="3.31368">
        <ele>333.3</ele>
        <time>2016-05-24T13:39:28Z</time>
      </trkpt>
      <trkpt lat="43.56401" lon="3.31363">
        <ele>333.2</ele>
        <time>2016-05-24T13:39:30Z</time>
      </trkpt>
      <trkpt lat="43.56393" lon="3.31356">
        <ele>333.2</ele>
        <time>2016-05-24T13:39:32Z</time>
      </trkpt>
      <trkpt lat="43.56385" lon="3.31349">
        <ele>333.2</ele>
        <time>2016-05-24T13:39:35Z</time>
      </trkpt>
      <trkpt lat="43.56378" lon="3.31342">
        <ele>333.2</ele>
        <time>2016-05-24T13:39:38Z</time>
      </trkpt>
      <trkpt lat="43.56371" lon="3.31336">
        <ele>333.3</ele>
        <time>2016-05-24T13:39:42Z</time>
      </trkpt>
      <trkpt lat="43.56363" lon="3.31329">
        <ele>333.2</ele>
        <time>2016-05-24T13:39:46Z</time>
      </trkpt>
      <trkpt lat="43.56355" lon="3.31322">
        <ele>333.4</ele>
        <time>2016-05-24T13:39:50Z</time>
      </trkpt>
      <trkpt lat="43.5635" lon="3.31315">
        <ele>333.4</ele>
        <time>2016-05-24T13:39:53Z</time>
      </trkpt>
      <trkpt lat="43.56343" lon="3.31303">
        <ele>334</ele>
        <time>2016-05-24T13:40:00Z</time>
      </trkpt>
      <trkpt lat="43.56336" lon="3.31295">
        <ele>334.6</ele>
        <time>2016-05-24T13:40:04Z</time>
      </trkpt>
      <trkpt lat="43.56331" lon="3.31289">
        <ele>335.5</ele>
        <time>2016-05-24T13:40:11Z</time>
      </trkpt>
      <trkpt lat="43.56325" lon="3.31284">
        <ele>335.7</ele>
        <time>2016-05-24T13:40:14Z</time>
      </trkpt>
      <trkpt lat="43.56314" lon="3.31281">
        <ele>336</ele>
        <time>2016-05-24T13:40:19Z</time>
      </trkpt>
      <trkpt lat="43.56306" lon="3.31277">
        <ele>335.4</ele>
        <time>2016-05-24T13:40:21Z</time>
      </trkpt>
      <trkpt lat="43.56298" lon="3.31275">
        <ele>335.4</ele>
        <time>2016-05-24T13:40:23Z</time>
      </trkpt>
      <trkpt lat="43.5629" lon="3.3127">
        <ele>335.3</ele>
        <time>2016-05-24T13:40:25Z</time>
      </trkpt>
      <trkpt lat="43.56284" lon="3.31265">
        <ele>335.6</ele>
        <time>2016-05-24T13:40:26Z</time>
      </trkpt>
      <trkpt lat="43.56273" lon="3.31256">
        <ele>337</ele>
        <time>2016-05-24T13:40:28Z</time>
      </trkpt>
      <trkpt lat="43.56263" lon="3.31249">
        <ele>336.8</ele>
        <time>2016-05-24T13:40:30Z</time>
      </trkpt>
      <trkpt lat="43.56251" lon="3.31241">
        <ele>335.4</ele>
        <time>2016-05-24T13:40:32Z</time>
      </trkpt>
      <trkpt lat="43.56242" lon="3.31227">
        <ele>334.2</ele>
        <time>2016-05-24T13:40:34Z</time>
      </trkpt>
      <trkpt lat="43.5623" lon="3.31217">
        <ele>333.4</ele>
        <time>2016-05-24T13:40:36Z</time>
      </trkpt>
      <trkpt lat="43.56219" lon="3.31206">
        <ele>333</ele>
        <time>2016-05-24T13:40:38Z</time>
      </trkpt>
      <trkpt lat="43.56213" lon="3.312">
        <ele>333</ele>
        <time>2016-05-24T13:40:39Z</time>
      </trkpt>
      <trkpt lat="43.56203" lon="3.3119">
        <ele>332.4</ele>
        <time>2016-05-24T13:40:41Z</time>
      </trkpt>
      <trkpt lat="43.56195" lon="3.31178">
        <ele>331.8</ele>
        <time>2016-05-24T13:40:43Z</time>
      </trkpt>
      <trkpt lat="43.56187" lon="3.31167">
        <ele>331.7</ele>
        <time>2016-05-24T13:40:45Z</time>
      </trkpt>
      <trkpt lat="43.56182" lon="3.31156">
        <ele>331.6</ele>
        <time>2016-05-24T13:40:47Z</time>
      </trkpt>
      <trkpt lat="43.56177" lon="3.31139">
        <ele>330</ele>
        <time>2016-05-24T13:40:49Z</time>
      </trkpt>
      <trkpt lat="43.5617" lon="3.31126">
        <ele>328.8</ele>
        <time>2016-05-24T13:40:51Z</time>
      </trkpt>
      <trkpt lat="43.56163" lon="3.31115">
        <ele>328.9</ele>
        <time>2016-05-24T13:40:53Z</time>
      </trkpt>
      <trkpt lat="43.56157" lon="3.31105">
        <ele>328.6</ele>
        <time>2016-05-24T13:40:55Z</time>
      </trkpt>
      <trkpt lat="43.5615" lon="3.31095">
        <ele>326.7</ele>
        <time>2016-05-24T13:40:57Z</time>
      </trkpt>
      <trkpt lat="43.56142" lon="3.31084">
        <ele>326.6</ele>
        <time>2016-05-24T13:40:59Z</time>
      </trkpt>
      <trkpt lat="43.56138" lon="3.31075">
        <ele>326.1</ele>
        <time>2016-05-24T13:41:00Z</time>
      </trkpt>
      <trkpt lat="43.56132" lon="3.31067">
        <ele>326</ele>
        <time>2016-05-24T13:41:01Z</time>
      </trkpt>
      <trkpt lat="43.56128" lon="3.31058">
        <ele>325.7</ele>
        <time>2016-05-24T13:41:02Z</time>
      </trkpt>
      <trkpt lat="43.56121" lon="3.31046">
        <ele>325.4</ele>
        <time>2016-05-24T13:41:07Z</time>
      </trkpt>
      <trkpt lat="43.56113" lon="3.31039">
        <ele>325.2</ele>
        <time>2016-05-24T13:41:10Z</time>
      </trkpt>
      <trkpt lat="43.56106" lon="3.31036">
        <ele>324.4</ele>
        <time>2016-05-24T13:41:12Z</time>
      </trkpt>
      <trkpt lat="43.56097" lon="3.31034">
        <ele>324.1</ele>
        <time>2016-05-24T13:41:15Z</time>
      </trkpt>
      <trkpt lat="43.56087" lon="3.31035">
        <ele>323.8</ele>
        <time>2016-05-24T13:41:18Z</time>
      </trkpt>
      <trkpt lat="43.56078" lon="3.31037">
        <ele>323.7</ele>
        <time>2016-05-24T13:41:21Z</time>
      </trkpt>
      <trkpt lat="43.56069" lon="3.31039">
        <ele>323.5</ele>
        <time>2016-05-24T13:41:24Z</time>
      </trkpt>
      <trkpt lat="43.56061" lon="3.31044">
        <ele>323.2</ele>
        <time>2016-05-24T13:41:28Z</time>
      </trkpt>
      <trkpt lat="43.56052" lon="3.31047">
        <ele>323</ele>
        <time>2016-05-24T13:41:33Z</time>
      </trkpt>
      <trkpt lat="43.56045" lon="3.31047">
        <ele>322.5</ele>
        <time>2016-05-24T13:41:38Z</time>
      </trkpt>
      <trkpt lat="43.56036" lon="3.31047">
        <ele>322.2</ele>
        <time>2016-05-24T13:41:42Z</time>
      </trkpt>
      <trkpt lat="43.56027" lon="3.31046">
        <ele>322</ele>
        <time>2016-05-24T13:41:45Z</time>
      </trkpt>
      <trkpt lat="43.56018" lon="3.31043">
        <ele>321.8</ele>
        <time>2016-05-24T13:41:48Z</time>
      </trkpt>
      <trkpt lat="43.56009" lon="3.31045">
        <ele>321.6</ele>
        <time>2016-05-24T13:41:51Z</time>
      </trkpt>
      <trkpt lat="43.56005" lon="3.31047">
        <ele>321.9</ele>
        <time>2016-05-24T13:41:58Z</time>
      </trkpt>
      <trkpt lat="43.56004" lon="3.31059">
        <ele>322.2</ele>
        <time>2016-05-24T13:42:01Z</time>
      </trkpt>
      <trkpt lat="43.56008" lon="3.31073">
        <ele>322.3</ele>
        <time>2016-05-24T13:42:03Z</time>
      </trkpt>
      <trkpt lat="43.56012" lon="3.31084">
        <ele>322.4</ele>
        <time>2016-05-24T13:42:05Z</time>
      </trkpt>
      <trkpt lat="43.56015" lon="3.31097">
        <ele>323</ele>
        <time>2016-05-24T13:42:07Z</time>
      </trkpt>
      <trkpt lat="43.56019" lon="3.31111">
        <ele>322.6</ele>
        <time>2016-05-24T13:42:09Z</time>
      </trkpt>
      <trkpt lat="43.56023" lon="3.31126">
        <ele>322.5</ele>
        <time>2016-05-24T13:42:11Z</time>
      </trkpt>
      <trkpt lat="43.56025" lon="3.31138">
        <ele>322.3</ele>
        <time>2016-05-24T13:42:13Z</time>
      </trkpt>
      <trkpt lat="43.56025" lon="3.31148">
        <ele>322.1</ele>
        <time>2016-05-24T13:42:15Z</time>
      </trkpt>
      <trkpt lat="43.56023" lon="3.31162">
        <ele>321.9</ele>
        <time>2016-05-24T13:42:17Z</time>
      </trkpt>
      <trkpt lat="43.56021" lon="3.31174">
        <ele>321.6</ele>
        <time>2016-05-24T13:42:19Z</time>
      </trkpt>
      <trkpt lat="43.56024" lon="3.31187">
        <ele>321.4</ele>
        <time>2016-05-24T13:42:22Z</time>
      </trkpt>
      <trkpt lat="43.56029" lon="3.31194">
        <ele>321</ele>
        <time>2016-05-24T13:42:24Z</time>
      </trkpt>
      <trkpt lat="43.56033" lon="3.31206">
        <ele>319.9</ele>
        <time>2016-05-24T13:42:26Z</time>
      </trkpt>
      <trkpt lat="43.56039" lon="3.31217">
        <ele>319</ele>
        <time>2016-05-24T13:42:28Z</time>
      </trkpt>
      <trkpt lat="43.56045" lon="3.31228">
        <ele>318.9</ele>
        <time>2016-05-24T13:42:30Z</time>
      </trkpt>
      <trkpt lat="43.56052" lon="3.3124">
        <ele>318.7</ele>
        <time>2016-05-24T13:42:32Z</time>
      </trkpt>
      <trkpt lat="43.56053" lon="3.31252">
        <ele>318</ele>
        <time>2016-05-24T13:42:33Z</time>
      </trkpt>
      <trkpt lat="43.56054" lon="3.31266">
        <ele>316.9</ele>
        <time>2016-05-24T13:42:34Z</time>
      </trkpt>
      <trkpt lat="43.56056" lon="3.31277">
        <ele>316.1</ele>
        <time>2016-05-24T13:42:35Z</time>
      </trkpt>
      <trkpt lat="43.56056" lon="3.3129">
        <ele>315.9</ele>
        <time>2016-05-24T13:42:37Z</time>
      </trkpt>
      <trkpt lat="43.56057" lon="3.31302">
        <ele>315.3</ele>
        <time>2016-05-24T13:42:41Z</time>
      </trkpt>
      <trkpt lat="43.56057" lon="3.31315">
        <ele>315.1</ele>
        <time>2016-05-24T13:42:43Z</time>
      </trkpt>
      <trkpt lat="43.56057" lon="3.31327">
        <ele>314.7</ele>
        <time>2016-05-24T13:42:45Z</time>
      </trkpt>
      <trkpt lat="43.56058" lon="3.31341">
        <ele>314.4</ele>
        <time>2016-05-24T13:42:47Z</time>
      </trkpt>
      <trkpt lat="43.56057" lon="3.31356">
        <ele>314.1</ele>
        <time>2016-05-24T13:42:49Z</time>
      </trkpt>
      <trkpt lat="43.56056" lon="3.31369">
        <ele>313.9</ele>
        <time>2016-05-24T13:42:51Z</time>
      </trkpt>
      <trkpt lat="43.56056" lon="3.31382">
        <ele>313.6</ele>
        <time>2016-05-24T13:42:53Z</time>
      </trkpt>
      <trkpt lat="43.56056" lon="3.31398">
        <ele>312.1</ele>
        <time>2016-05-24T13:42:55Z</time>
      </trkpt>
      <trkpt lat="43.56056" lon="3.31412">
        <ele>311.8</ele>
        <time>2016-05-24T13:42:57Z</time>
      </trkpt>
      <trkpt lat="43.56055" lon="3.31427">
        <ele>311.5</ele>
        <time>2016-05-24T13:42:59Z</time>
      </trkpt>
      <trkpt lat="43.56054" lon="3.31443">
        <ele>311</ele>
        <time>2016-05-24T13:43:01Z</time>
      </trkpt>
      <trkpt lat="43.56056" lon="3.31457">
        <ele>310.4</ele>
        <time>2016-05-24T13:43:03Z</time>
      </trkpt>
      <trkpt lat="43.56053" lon="3.31477">
        <ele>305.8</ele>
        <time>2016-05-24T13:43:05Z</time>
      </trkpt>
      <trkpt lat="43.56048" lon="3.31495">
        <ele>303.7</ele>
        <time>2016-05-24T13:43:07Z</time>
      </trkpt>
      <trkpt lat="43.56041" lon="3.31507">
        <ele>303.4</ele>
        <time>2016-05-24T13:43:09Z</time>
      </trkpt>
      <trkpt lat="43.56037" lon="3.31518">
        <ele>303.1</ele>
        <time>2016-05-24T13:43:11Z</time>
      </trkpt>
      <trkpt lat="43.56033" lon="3.31536">
        <ele>302.7</ele>
        <time>2016-05-24T13:43:13Z</time>
      </trkpt>
      <trkpt lat="43.5603" lon="3.31549">
        <ele>302.4</ele>
        <time>2016-05-24T13:43:15Z</time>
      </trkpt>
      <trkpt lat="43.56029" lon="3.31565">
        <ele>300</ele>
        <time>2016-05-24T13:43:17Z</time>
      </trkpt>
      <trkpt lat="43.56029" lon="3.31581">
        <ele>299.6</ele>
        <time>2016-05-24T13:43:19Z</time>
      </trkpt>
      <trkpt lat="43.56024" lon="3.316">
        <ele>299.6</ele>
        <time>2016-05-24T13:43:21Z</time>
      </trkpt>
      <trkpt lat="43.5602" lon="3.31609">
        <ele>299.5</ele>
        <time>2016-05-24T13:43:23Z</time>
      </trkpt>
      <trkpt lat="43.56012" lon="3.31628">
        <ele>299.5</ele>
        <time>2016-05-24T13:43:31Z</time>
      </trkpt>
      <trkpt lat="43.56011" lon="3.31638">
        <ele>299</ele>
        <time>2016-05-24T13:43:34Z</time>
      </trkpt>
      <trkpt lat="43.5601" lon="3.31654">
        <ele>298.7</ele>
        <time>2016-05-24T13:43:36Z</time>
      </trkpt>
      <trkpt lat="43.56009" lon="3.31665">
        <ele>298.1</ele>
        <time>2016-05-24T13:43:39Z</time>
      </trkpt>
      <trkpt lat="43.56011" lon="3.31676">
        <ele>297.8</ele>
        <time>2016-05-24T13:43:42Z</time>
      </trkpt>
      <trkpt lat="43.56017" lon="3.31688">
        <ele>297.5</ele>
        <time>2016-05-24T13:43:44Z</time>
      </trkpt>
      <trkpt lat="43.56021" lon="3.31696">
        <ele>297.3</ele>
        <time>2016-05-24T13:43:46Z</time>
      </trkpt>
      <trkpt lat="43.5603" lon="3.31702">
        <ele>297.1</ele>
        <time>2016-05-24T13:43:49Z</time>
      </trkpt>
      <trkpt lat="43.56038" lon="3.31712">
        <ele>296.7</ele>
        <time>2016-05-24T13:43:52Z</time>
      </trkpt>
      <trkpt lat="43.56045" lon="3.31714">
        <ele>294.1</ele>
        <time>2016-05-24T13:43:54Z</time>
      </trkpt>
      <trkpt lat="43.56054" lon="3.31718">
        <ele>293.8</ele>
        <time>2016-05-24T13:43:56Z</time>
      </trkpt>
      <trkpt lat="43.56063" lon="3.31727">
        <ele>293.6</ele>
        <time>2016-05-24T13:43:58Z</time>
      </trkpt>
      <trkpt lat="43.5607" lon="3.31731">
        <ele>292.7</ele>
        <time>2016-05-24T13:43:59Z</time>
      </trkpt>
      <trkpt lat="43.56082" lon="3.31742">
        <ele>292.1</ele>
        <time>2016-05-24T13:44:01Z</time>
      </trkpt>
      <trkpt lat="43.56087" lon="3.31749">
        <ele>292</ele>
        <time>2016-05-24T13:44:02Z</time>
      </trkpt>
      <trkpt lat="43.56093" lon="3.31759">
        <ele>291.9</ele>
        <time>2016-05-24T13:44:03Z</time>
      </trkpt>
      <trkpt lat="43.56097" lon="3.31768">
        <ele>291.6</ele>
        <time>2016-05-24T13:44:04Z</time>
      </trkpt>
      <trkpt lat="43.561" lon="3.31778">
        <ele>291.4</ele>
        <time>2016-05-24T13:44:05Z</time>
      </trkpt>
      <trkpt lat="43.56103" lon="3.31789">
        <ele>289</ele>
        <time>2016-05-24T13:44:06Z</time>
      </trkpt>
      <trkpt lat="43.56106" lon="3.31806">
        <ele>287</ele>
        <time>2016-05-24T13:44:08Z</time>
      </trkpt>
      <trkpt lat="43.56111" lon="3.31814">
        <ele>286.7</ele>
        <time>2016-05-24T13:44:10Z</time>
      </trkpt>
      <trkpt lat="43.56118" lon="3.3182">
        <ele>286.4</ele>
        <time>2016-05-24T13:44:12Z</time>
      </trkpt>
      <trkpt lat="43.56129" lon="3.31826">
        <ele>283.6</ele>
        <time>2016-05-24T13:44:14Z</time>
      </trkpt>
      <trkpt lat="43.56133" lon="3.31838">
        <ele>283.2</ele>
        <time>2016-05-24T13:44:15Z</time>
      </trkpt>
      <trkpt lat="43.56137" lon="3.31849">
        <ele>282.3</ele>
        <time>2016-05-24T13:44:16Z</time>
      </trkpt>
      <trkpt lat="43.56146" lon="3.31861">
        <ele>280.9</ele>
        <time>2016-05-24T13:44:18Z</time>
      </trkpt>
      <trkpt lat="43.56153" lon="3.31874">
        <ele>279.8</ele>
        <time>2016-05-24T13:44:20Z</time>
      </trkpt>
      <trkpt lat="43.56156" lon="3.31884">
        <ele>278.9</ele>
        <time>2016-05-24T13:44:21Z</time>
      </trkpt>
      <trkpt lat="43.56163" lon="3.31899">
        <ele>276.3</ele>
        <time>2016-05-24T13:44:23Z</time>
      </trkpt>
      <trkpt lat="43.56169" lon="3.31913">
        <ele>271.5</ele>
        <time>2016-05-24T13:44:25Z</time>
      </trkpt>
      <trkpt lat="43.56172" lon="3.31923">
        <ele>268.9</ele>
        <time>2016-05-24T13:44:29Z</time>
      </trkpt>
      <trkpt lat="43.56176" lon="3.31935">
        <ele>267.5</ele>
        <time>2016-05-24T13:44:35Z</time>
      </trkpt>
      <trkpt lat="43.56178" lon="3.31947">
        <ele>267.1</ele>
        <time>2016-05-24T13:44:37Z</time>
      </trkpt>
      <trkpt lat="43.56187" lon="3.31955">
        <ele>264.6</ele>
        <time>2016-05-24T13:44:40Z</time>
      </trkpt>
      <trkpt lat="43.56191" lon="3.31966">
        <ele>264.3</ele>
        <time>2016-05-24T13:44:42Z</time>
      </trkpt>
      <trkpt lat="43.56198" lon="3.31978">
        <ele>262.4</ele>
        <time>2016-05-24T13:44:44Z</time>
      </trkpt>
      <trkpt lat="43.56204" lon="3.31986">
        <ele>262.1</ele>
        <time>2016-05-24T13:44:46Z</time>
      </trkpt>
      <trkpt lat="43.5621" lon="3.31997">
        <ele>261.9</ele>
        <time>2016-05-24T13:44:48Z</time>
      </trkpt>
      <trkpt lat="43.56215" lon="3.32004">
        <ele>261.5</ele>
        <time>2016-05-24T13:44:50Z</time>
      </trkpt>
      <trkpt lat="43.56217" lon="3.3203">
        <ele>260.5</ele>
        <time>2016-05-24T13:44:55Z</time>
      </trkpt>
      <trkpt lat="43.56225" lon="3.32032">
        <ele>257.5</ele>
        <time>2016-05-24T13:44:59Z</time>
      </trkpt>
      <trkpt lat="43.56232" lon="3.3204">
        <ele>256.7</ele>
        <time>2016-05-24T13:45:02Z</time>
      </trkpt>
      <trkpt lat="43.56239" lon="3.32049">
        <ele>256.1</ele>
        <time>2016-05-24T13:45:04Z</time>
      </trkpt>
      <trkpt lat="43.56239" lon="3.32063">
        <ele>255.4</ele>
        <time>2016-05-24T13:45:06Z</time>
      </trkpt>
      <trkpt lat="43.56246" lon="3.32068">
        <ele>254.5</ele>
        <time>2016-05-24T13:45:10Z</time>
      </trkpt>
      <trkpt lat="43.56257" lon="3.32071">
        <ele>253.7</ele>
        <time>2016-05-24T13:45:13Z</time>
      </trkpt>
      <trkpt lat="43.56266" lon="3.3208">
        <ele>251.5</ele>
        <time>2016-05-24T13:45:15Z</time>
      </trkpt>
      <trkpt lat="43.56272" lon="3.32089">
        <ele>250.2</ele>
        <time>2016-05-24T13:45:17Z</time>
      </trkpt>
      <trkpt lat="43.56278" lon="3.32102">
        <ele>248.7</ele>
        <time>2016-05-24T13:45:19Z</time>
      </trkpt>
      <trkpt lat="43.5628" lon="3.32121">
        <ele>246.1</ele>
        <time>2016-05-24T13:45:21Z</time>
      </trkpt>
      <trkpt lat="43.56281" lon="3.32137">
        <ele>245.7</ele>
        <time>2016-05-24T13:45:23Z</time>
      </trkpt>
      <trkpt lat="43.56284" lon="3.32154">
        <ele>243.4</ele>
        <time>2016-05-24T13:45:25Z</time>
      </trkpt>
      <trkpt lat="43.56283" lon="3.32172">
        <ele>241.2</ele>
        <time>2016-05-24T13:45:27Z</time>
      </trkpt>
      <trkpt lat="43.56289" lon="3.32185">
        <ele>238.9</ele>
        <time>2016-05-24T13:45:29Z</time>
      </trkpt>
      <trkpt lat="43.56297" lon="3.32197">
        <ele>236.2</ele>
        <time>2016-05-24T13:45:31Z</time>
      </trkpt>
      <trkpt lat="43.56302" lon="3.32204">
        <ele>235.2</ele>
        <time>2016-05-24T13:45:32Z</time>
      </trkpt>
      <trkpt lat="43.56309" lon="3.32213">
        <ele>235.3</ele>
        <time>2016-05-24T13:45:34Z</time>
      </trkpt>
      <trkpt lat="43.56315" lon="3.32223">
        <ele>235.1</ele>
        <time>2016-05-24T13:45:36Z</time>
      </trkpt>
      <trkpt lat="43.56319" lon="3.32236">
        <ele>235.3</ele>
        <time>2016-05-24T13:45:38Z</time>
      </trkpt>
      <trkpt lat="43.5632" lon="3.32253">
        <ele>235.1</ele>
        <time>2016-05-24T13:45:40Z</time>
      </trkpt>
      <trkpt lat="43.56316" lon="3.32266">
        <ele>234.9</ele>
        <time>2016-05-24T13:45:42Z</time>
      </trkpt>
      <trkpt lat="43.56312" lon="3.32276">
        <ele>234.4</ele>
        <time>2016-05-24T13:45:46Z</time>
      </trkpt>
      <trkpt lat="43.56309" lon="3.32286">
        <ele>233.7</ele>
        <time>2016-05-24T13:45:49Z</time>
      </trkpt>
      <trkpt lat="43.56306" lon="3.32298">
        <ele>233.3</ele>
        <time>2016-05-24T13:45:53Z</time>
      </trkpt>
      <trkpt lat="43.56303" lon="3.32309">
        <ele>233.3</ele>
        <time>2016-05-24T13:45:58Z</time>
      </trkpt>
      <trkpt lat="43.56298" lon="3.3232">
        <ele>233</ele>
        <time>2016-05-24T13:46:02Z</time>
      </trkpt>
      <trkpt lat="43.56295" lon="3.32329">
        <ele>232.7</ele>
        <time>2016-05-24T13:46:06Z</time>
      </trkpt>
      <trkpt lat="43.56291" lon="3.3234">
        <ele>232.7</ele>
        <time>2016-05-24T13:46:10Z</time>
      </trkpt>
      <trkpt lat="43.56289" lon="3.32352">
        <ele>232.4</ele>
        <time>2016-05-24T13:46:15Z</time>
      </trkpt>
      <trkpt lat="43.56286" lon="3.32365">
        <ele>232</ele>
        <time>2016-05-24T13:46:19Z</time>
      </trkpt>
      <trkpt lat="43.56285" lon="3.32379">
        <ele>230.6</ele>
        <time>2016-05-24T13:46:21Z</time>
      </trkpt>
      <trkpt lat="43.56282" lon="3.32394">
        <ele>228.5</ele>
        <time>2016-05-24T13:46:23Z</time>
      </trkpt>
      <trkpt lat="43.56279" lon="3.32405">
        <ele>226.9</ele>
        <time>2016-05-24T13:46:25Z</time>
      </trkpt>
      <trkpt lat="43.56276" lon="3.32419">
        <ele>227.2</ele>
        <time>2016-05-24T13:46:27Z</time>
      </trkpt>
      <trkpt lat="43.56274" lon="3.3243">
        <ele>227.8</ele>
        <time>2016-05-24T13:46:29Z</time>
      </trkpt>
      <trkpt lat="43.56271" lon="3.32446">
        <ele>228.6</ele>
        <time>2016-05-24T13:46:31Z</time>
      </trkpt>
      <trkpt lat="43.56271" lon="3.32461">
        <ele>227.9</ele>
        <time>2016-05-24T13:46:33Z</time>
      </trkpt>
      <trkpt lat="43.5627" lon="3.32474">
        <ele>226.4</ele>
        <time>2016-05-24T13:46:35Z</time>
      </trkpt>
      <trkpt lat="43.56269" lon="3.3249">
        <ele>224.9</ele>
        <time>2016-05-24T13:46:37Z</time>
      </trkpt>
      <trkpt lat="43.56268" lon="3.32506">
        <ele>222.8</ele>
        <time>2016-05-24T13:46:39Z</time>
      </trkpt>
      <trkpt lat="43.56267" lon="3.32517">
        <ele>221.9</ele>
        <time>2016-05-24T13:46:40Z</time>
      </trkpt>
      <trkpt lat="43.56266" lon="3.32536">
        <ele>219.5</ele>
        <time>2016-05-24T13:46:42Z</time>
      </trkpt>
      <trkpt lat="43.56269" lon="3.32553">
        <ele>218.1</ele>
        <time>2016-05-24T13:46:44Z</time>
      </trkpt>
      <trkpt lat="43.5627" lon="3.32573">
        <ele>218.1</ele>
        <time>2016-05-24T13:46:46Z</time>
      </trkpt>
      <trkpt lat="43.56271" lon="3.32583">
        <ele>218.5</ele>
        <time>2016-05-24T13:46:47Z</time>
      </trkpt>
      <trkpt lat="43.56272" lon="3.32592">
        <ele>218.7</ele>
        <time>2016-05-24T13:46:48Z</time>
      </trkpt>
      <trkpt lat="43.56273" lon="3.32603">
        <ele>218.6</ele>
        <time>2016-05-24T13:46:49Z</time>
      </trkpt>
      <trkpt lat="43.56274" lon="3.32613">
        <ele>218.4</ele>
        <time>2016-05-24T13:46:50Z</time>
      </trkpt>
      <trkpt lat="43.56275" lon="3.32624">
        <ele>218.1</ele>
        <time>2016-05-24T13:46:51Z</time>
      </trkpt>
      <trkpt lat="43.56276" lon="3.32636">
        <ele>217.6</ele>
        <time>2016-05-24T13:46:52Z</time>
      </trkpt>
      <trkpt lat="43.56277" lon="3.32646">
        <ele>217.2</ele>
        <time>2016-05-24T13:46:53Z</time>
      </trkpt>
      <trkpt lat="43.56277" lon="3.32657">
        <ele>217.3</ele>
        <time>2016-05-24T13:46:54Z</time>
      </trkpt>
      <trkpt lat="43.56278" lon="3.32669">
        <ele>217.5</ele>
        <time>2016-05-24T13:46:55Z</time>
      </trkpt>
      <trkpt lat="43.56279" lon="3.32679">
        <ele>216.9</ele>
        <time>2016-05-24T13:46:56Z</time>
      </trkpt>
      <trkpt lat="43.56279" lon="3.3269">
        <ele>216</ele>
        <time>2016-05-24T13:46:57Z</time>
      </trkpt>
      <trkpt lat="43.5628" lon="3.32701">
        <ele>215.5</ele>
        <time>2016-05-24T13:46:58Z</time>
      </trkpt>
      <trkpt lat="43.56281" lon="3.32713">
        <ele>215.1</ele>
        <time>2016-05-24T13:46:59Z</time>
      </trkpt>
      <trkpt lat="43.56282" lon="3.32724">
        <ele>214.1</ele>
        <time>2016-05-24T13:47:00Z</time>
      </trkpt>
      <trkpt lat="43.56282" lon="3.32735">
        <ele>213.6</ele>
        <time>2016-05-24T13:47:01Z</time>
      </trkpt>
      <trkpt lat="43.56282" lon="3.32745">
        <ele>212.9</ele>
        <time>2016-05-24T13:47:02Z</time>
      </trkpt>
      <trkpt lat="43.56282" lon="3.32757">
        <ele>211.6</ele>
        <time>2016-05-24T13:47:03Z</time>
      </trkpt>
      <trkpt lat="43.56281" lon="3.32768">
        <ele>211.4</ele>
        <time>2016-05-24T13:47:04Z</time>
      </trkpt>
      <trkpt lat="43.56277" lon="3.32778">
        <ele>211.4</ele>
        <time>2016-05-24T13:47:05Z</time>
      </trkpt>
      <trkpt lat="43.56272" lon="3.32787">
        <ele>212</ele>
        <time>2016-05-24T13:47:06Z</time>
      </trkpt>
      <trkpt lat="43.56268" lon="3.32796">
        <ele>212.7</ele>
        <time>2016-05-24T13:47:07Z</time>
      </trkpt>
      <trkpt lat="43.56267" lon="3.32813">
        <ele>214.4</ele>
        <time>2016-05-24T13:47:09Z</time>
      </trkpt>
      <trkpt lat="43.56267" lon="3.32824">
        <ele>214.6</ele>
        <time>2016-05-24T13:47:10Z</time>
      </trkpt>
      <trkpt lat="43.56266" lon="3.32843">
        <ele>214.6</ele>
        <time>2016-05-24T13:47:12Z</time>
      </trkpt>
      <trkpt lat="43.56265" lon="3.32854">
        <ele>214.7</ele>
        <time>2016-05-24T13:47:13Z</time>
      </trkpt>
      <trkpt lat="43.56265" lon="3.32864">
        <ele>214.8</ele>
        <time>2016-05-24T13:47:14Z</time>
      </trkpt>
      <trkpt lat="43.56265" lon="3.32883">
        <ele>215.4</ele>
        <time>2016-05-24T13:47:16Z</time>
      </trkpt>
      <trkpt lat="43.56266" lon="3.32893">
        <ele>215.5</ele>
        <time>2016-05-24T13:47:17Z</time>
      </trkpt>
      <trkpt lat="43.56266" lon="3.32911">
        <ele>216</ele>
        <time>2016-05-24T13:47:19Z</time>
      </trkpt>
      <trkpt lat="43.56266" lon="3.32923">
        <ele>215.8</ele>
        <time>2016-05-24T13:47:20Z</time>
      </trkpt>
      <trkpt lat="43.56266" lon="3.32934">
        <ele>215.4</ele>
        <time>2016-05-24T13:47:21Z</time>
      </trkpt>
      <trkpt lat="43.56265" lon="3.32943">
        <ele>214.8</ele>
        <time>2016-05-24T13:47:22Z</time>
      </trkpt>
      <trkpt lat="43.56269" lon="3.32959">
        <ele>213</ele>
        <time>2016-05-24T13:47:24Z</time>
      </trkpt>
      <trkpt lat="43.56277" lon="3.32966">
        <ele>211.3</ele>
        <time>2016-05-24T13:47:26Z</time>
      </trkpt>
      <trkpt lat="43.56286" lon="3.32969">
        <ele>210.4</ele>
        <time>2016-05-24T13:47:28Z</time>
      </trkpt>
      <trkpt lat="43.56294" lon="3.32973">
        <ele>211</ele>
        <time>2016-05-24T13:47:30Z</time>
      </trkpt>
      <trkpt lat="43.56302" lon="3.32983">
        <ele>212.1</ele>
        <time>2016-05-24T13:47:32Z</time>
      </trkpt>
      <trkpt lat="43.56306" lon="3.32999">
        <ele>213.1</ele>
        <time>2016-05-24T13:47:34Z</time>
      </trkpt>
      <trkpt lat="43.56306" lon="3.33012">
        <ele>213</ele>
        <time>2016-05-24T13:47:36Z</time>
      </trkpt>
      <trkpt lat="43.56306" lon="3.33023">
        <ele>211.7</ele>
        <time>2016-05-24T13:47:38Z</time>
      </trkpt>
      <trkpt lat="43.56304" lon="3.33035">
        <ele>210</ele>
        <time>2016-05-24T13:47:40Z</time>
      </trkpt>
      <trkpt lat="43.56302" lon="3.3305">
        <ele>209.8</ele>
        <time>2016-05-24T13:47:42Z</time>
      </trkpt>
      <trkpt lat="43.563" lon="3.33066">
        <ele>209.2</ele>
        <time>2016-05-24T13:47:44Z</time>
      </trkpt>
      <trkpt lat="43.56298" lon="3.33083">
        <ele>207.2</ele>
        <time>2016-05-24T13:47:46Z</time>
      </trkpt>
      <trkpt lat="43.56298" lon="3.33096">
        <ele>205.9</ele>
        <time>2016-05-24T13:47:48Z</time>
      </trkpt>
      <trkpt lat="43.56302" lon="3.3311">
        <ele>204.3</ele>
        <time>2016-05-24T13:47:50Z</time>
      </trkpt>
      <trkpt lat="43.56306" lon="3.33124">
        <ele>202.1</ele>
        <time>2016-05-24T13:47:52Z</time>
      </trkpt>
      <trkpt lat="43.56309" lon="3.3314">
        <ele>201.7</ele>
        <time>2016-05-24T13:47:54Z</time>
      </trkpt>
      <trkpt lat="43.56311" lon="3.33156">
        <ele>202</ele>
        <time>2016-05-24T13:47:56Z</time>
      </trkpt>
      <trkpt lat="43.56313" lon="3.33173">
        <ele>203.3</ele>
        <time>2016-05-24T13:47:58Z</time>
      </trkpt>
      <trkpt lat="43.56315" lon="3.33191">
        <ele>204.7</ele>
        <time>2016-05-24T13:48:00Z</time>
      </trkpt>
      <trkpt lat="43.56318" lon="3.33208">
        <ele>204.9</ele>
        <time>2016-05-24T13:48:02Z</time>
      </trkpt>
      <trkpt lat="43.56321" lon="3.33225">
        <ele>204.7</ele>
        <time>2016-05-24T13:48:04Z</time>
      </trkpt>
      <trkpt lat="43.56325" lon="3.3324">
        <ele>205.1</ele>
        <time>2016-05-24T13:48:06Z</time>
      </trkpt>
      <trkpt lat="43.56329" lon="3.33255">
        <ele>205.2</ele>
        <time>2016-05-24T13:48:08Z</time>
      </trkpt>
      <trkpt lat="43.56335" lon="3.33268">
        <ele>204.6</ele>
        <time>2016-05-24T13:48:10Z</time>
      </trkpt>
      <trkpt lat="43.56341" lon="3.33281">
        <ele>204.1</ele>
        <time>2016-05-24T13:48:12Z</time>
      </trkpt>
      <trkpt lat="43.56346" lon="3.33296">
        <ele>203.3</ele>
        <time>2016-05-24T13:48:14Z</time>
      </trkpt>
      <trkpt lat="43.56353" lon="3.3331">
        <ele>202.3</ele>
        <time>2016-05-24T13:48:16Z</time>
      </trkpt>
      <trkpt lat="43.56358" lon="3.33325">
        <ele>201.7</ele>
        <time>2016-05-24T13:48:18Z</time>
      </trkpt>
      <trkpt lat="43.56363" lon="3.33339">
        <ele>202</ele>
        <time>2016-05-24T13:48:20Z</time>
      </trkpt>
      <trkpt lat="43.56368" lon="3.33353">
        <ele>202.5</ele>
        <time>2016-05-24T13:48:22Z</time>
      </trkpt>
      <trkpt lat="43.56374" lon="3.33371">
        <ele>202.1</ele>
        <time>2016-05-24T13:48:24Z</time>
      </trkpt>
      <trkpt lat="43.5638" lon="3.33386">
        <ele>200.7</ele>
        <time>2016-05-24T13:48:26Z</time>
      </trkpt>
      <trkpt lat="43.56385" lon="3.33398">
        <ele>200.4</ele>
        <time>2016-05-24T13:48:28Z</time>
      </trkpt>
      <trkpt lat="43.56389" lon="3.33406">
        <ele>201</ele>
        <time>2016-05-24T13:48:30Z</time>
      </trkpt>
      <trkpt lat="43.56398" lon="3.33417">
        <ele>201.1</ele>
        <time>2016-05-24T13:48:33Z</time>
      </trkpt>
      <trkpt lat="43.56403" lon="3.33425">
        <ele>201.2</ele>
        <time>2016-05-24T13:48:35Z</time>
      </trkpt>
      <trkpt lat="43.56407" lon="3.33434">
        <ele>201.3</ele>
        <time>2016-05-24T13:48:37Z</time>
      </trkpt>
      <trkpt lat="43.56412" lon="3.33443">
        <ele>201.3</ele>
        <time>2016-05-24T13:48:40Z</time>
      </trkpt>
      <trkpt lat="43.56418" lon="3.33452">
        <ele>201.5</ele>
        <time>2016-05-24T13:48:43Z</time>
      </trkpt>
      <trkpt lat="43.56424" lon="3.33461">
        <ele>201.7</ele>
        <time>2016-05-24T13:48:45Z</time>
      </trkpt>
      <trkpt lat="43.56431" lon="3.33471">
        <ele>201.9</ele>
        <time>2016-05-24T13:48:48Z</time>
      </trkpt>
      <trkpt lat="43.56434" lon="3.33482">
        <ele>202.3</ele>
        <time>2016-05-24T13:48:53Z</time>
      </trkpt>
      <trkpt lat="43.56442" lon="3.3349">
        <ele>202.3</ele>
        <time>2016-05-24T13:48:56Z</time>
      </trkpt>
      <trkpt lat="43.56448" lon="3.33497">
        <ele>203.3</ele>
        <time>2016-05-24T13:48:58Z</time>
      </trkpt>
      <trkpt lat="43.56455" lon="3.33506">
        <ele>204.7</ele>
        <time>2016-05-24T13:49:00Z</time>
      </trkpt>
      <trkpt lat="43.56463" lon="3.33518">
        <ele>204.8</ele>
        <time>2016-05-24T13:49:02Z</time>
      </trkpt>
      <trkpt lat="43.5647" lon="3.33532">
        <ele>203.9</ele>
        <time>2016-05-24T13:49:04Z</time>
      </trkpt>
      <trkpt lat="43.56474" lon="3.33547">
        <ele>203.2</ele>
        <time>2016-05-24T13:49:06Z</time>
      </trkpt>
      <trkpt lat="43.56478" lon="3.33563">
        <ele>203.6</ele>
        <time>2016-05-24T13:49:08Z</time>
      </trkpt>
      <trkpt lat="43.56486" lon="3.3358">
        <ele>204.4</ele>
        <time>2016-05-24T13:49:10Z</time>
      </trkpt>
      <trkpt lat="43.56497" lon="3.33593">
        <ele>204.6</ele>
        <time>2016-05-24T13:49:12Z</time>
      </trkpt>
      <trkpt lat="43.56501" lon="3.33601">
        <ele>203.7</ele>
        <time>2016-05-24T13:49:13Z</time>
      </trkpt>
      <trkpt lat="43.56504" lon="3.33613">
        <ele>202.8</ele>
        <time>2016-05-24T13:49:14Z</time>
      </trkpt>
      <trkpt lat="43.56509" lon="3.33622">
        <ele>202.1</ele>
        <time>2016-05-24T13:49:15Z</time>
      </trkpt>
      <trkpt lat="43.56519" lon="3.33634">
        <ele>201.1</ele>
        <time>2016-05-24T13:49:17Z</time>
      </trkpt>
      <trkpt lat="43.56527" lon="3.33645">
        <ele>200.8</ele>
        <time>2016-05-24T13:49:19Z</time>
      </trkpt>
      <trkpt lat="43.5653" lon="3.33655">
        <ele>200.1</ele>
        <time>2016-05-24T13:49:20Z</time>
      </trkpt>
      <trkpt lat="43.56535" lon="3.33675">
        <ele>198.1</ele>
        <time>2016-05-24T13:49:22Z</time>
      </trkpt>
      <trkpt lat="43.56538" lon="3.33688">
        <ele>197.2</ele>
        <time>2016-05-24T13:49:23Z</time>
      </trkpt>
      <trkpt lat="43.56542" lon="3.33701">
        <ele>196.2</ele>
        <time>2016-05-24T13:49:24Z</time>
      </trkpt>
      <trkpt lat="43.56544" lon="3.33712">
        <ele>195.7</ele>
        <time>2016-05-24T13:49:25Z</time>
      </trkpt>
      <trkpt lat="43.56545" lon="3.33722">
        <ele>195.7</ele>
        <time>2016-05-24T13:49:26Z</time>
      </trkpt>
      <trkpt lat="43.5655" lon="3.33734">
        <ele>194.1</ele>
        <time>2016-05-24T13:49:28Z</time>
      </trkpt>
      <trkpt lat="43.56559" lon="3.33737">
        <ele>194.2</ele>
        <time>2016-05-24T13:49:30Z</time>
      </trkpt>
      <trkpt lat="43.56569" lon="3.33736">
        <ele>194.4</ele>
        <time>2016-05-24T13:49:33Z</time>
      </trkpt>
      <trkpt lat="43.56576" lon="3.33739">
        <ele>195.5</ele>
        <time>2016-05-24T13:49:36Z</time>
      </trkpt>
      <trkpt lat="43.56582" lon="3.3375">
        <ele>196.1</ele>
        <time>2016-05-24T13:49:39Z</time>
      </trkpt>
      <trkpt lat="43.56587" lon="3.33763">
        <ele>196.2</ele>
        <time>2016-05-24T13:49:42Z</time>
      </trkpt>
      <trkpt lat="43.56589" lon="3.33775">
        <ele>196.3</ele>
        <time>2016-05-24T13:49:45Z</time>
      </trkpt>
      <trkpt lat="43.56591" lon="3.33788">
        <ele>196.5</ele>
        <time>2016-05-24T13:49:48Z</time>
      </trkpt>
      <trkpt lat="43.56592" lon="3.33801">
        <ele>196.6</ele>
        <time>2016-05-24T13:49:51Z</time>
      </trkpt>
      <trkpt lat="43.56595" lon="3.33812">
        <ele>196.7</ele>
        <time>2016-05-24T13:49:55Z</time>
      </trkpt>
      <trkpt lat="43.56597" lon="3.33825">
        <ele>196.8</ele>
        <time>2016-05-24T13:49:59Z</time>
      </trkpt>
      <trkpt lat="43.56597" lon="3.33835">
        <ele>197</ele>
        <time>2016-05-24T13:50:03Z</time>
      </trkpt>
      <trkpt lat="43.56597" lon="3.33848">
        <ele>197.3</ele>
        <time>2016-05-24T13:50:07Z</time>
      </trkpt>
      <trkpt lat="43.56596" lon="3.3386">
        <ele>197.7</ele>
        <time>2016-05-24T13:50:12Z</time>
      </trkpt>
      <trkpt lat="43.56595" lon="3.33872">
        <ele>198.2</ele>
        <time>2016-05-24T13:50:16Z</time>
      </trkpt>
      <trkpt lat="43.56597" lon="3.33882">
        <ele>198.6</ele>
        <time>2016-05-24T13:50:19Z</time>
      </trkpt>
      <trkpt lat="43.56596" lon="3.33892">
        <ele>198.9</ele>
        <time>2016-05-24T13:50:21Z</time>
      </trkpt>
      <trkpt lat="43.56597" lon="3.33904">
        <ele>199.1</ele>
        <time>2016-05-24T13:50:24Z</time>
      </trkpt>
      <trkpt lat="43.56595" lon="3.33915">
        <ele>199.5</ele>
        <time>2016-05-24T13:50:27Z</time>
      </trkpt>
      <trkpt lat="43.56593" lon="3.33925">
        <ele>199.9</ele>
        <time>2016-05-24T13:50:30Z</time>
      </trkpt>
      <trkpt lat="43.56595" lon="3.33939">
        <ele>200.5</ele>
        <time>2016-05-24T13:50:34Z</time>
      </trkpt>
      <trkpt lat="43.56599" lon="3.3395">
        <ele>200.9</ele>
        <time>2016-05-24T13:50:38Z</time>
      </trkpt>
      <trkpt lat="43.56602" lon="3.33962">
        <ele>201.4</ele>
        <time>2016-05-24T13:50:42Z</time>
      </trkpt>
      <trkpt lat="43.56608" lon="3.3397">
        <ele>201.8</ele>
        <time>2016-05-24T13:50:46Z</time>
      </trkpt>
      <trkpt lat="43.56617" lon="3.3397">
        <ele>202.3</ele>
        <time>2016-05-24T13:50:50Z</time>
      </trkpt>
      <trkpt lat="43.56626" lon="3.33968">
        <ele>202.9</ele>
        <time>2016-05-24T13:50:54Z</time>
      </trkpt>
      <trkpt lat="43.56636" lon="3.33967">
        <ele>203.4</ele>
        <time>2016-05-24T13:50:58Z</time>
      </trkpt>
      <trkpt lat="43.56644" lon="3.33967">
        <ele>203.9</ele>
        <time>2016-05-24T13:51:02Z</time>
      </trkpt>
      <trkpt lat="43.56653" lon="3.3397">
        <ele>204.6</ele>
        <time>2016-05-24T13:51:06Z</time>
      </trkpt>
      <trkpt lat="43.56662" lon="3.33977">
        <ele>204.8</ele>
        <time>2016-05-24T13:51:09Z</time>
      </trkpt>
      <trkpt lat="43.56669" lon="3.3398">
        <ele>205.2</ele>
        <time>2016-05-24T13:51:12Z</time>
      </trkpt>
      <trkpt lat="43.56675" lon="3.33987">
        <ele>206.1</ele>
        <time>2016-05-24T13:51:16Z</time>
      </trkpt>
      <trkpt lat="43.56684" lon="3.33993">
        <ele>206.9</ele>
        <time>2016-05-24T13:51:20Z</time>
      </trkpt>
      <trkpt lat="43.56692" lon="3.33998">
        <ele>207.7</ele>
        <time>2016-05-24T13:51:24Z</time>
      </trkpt>
      <trkpt lat="43.567" lon="3.34003">
        <ele>208.1</ele>
        <time>2016-05-24T13:51:27Z</time>
      </trkpt>
      <trkpt lat="43.56709" lon="3.34007">
        <ele>208.9</ele>
        <time>2016-05-24T13:51:31Z</time>
      </trkpt>
      <trkpt lat="43.56716" lon="3.34012">
        <ele>209.3</ele>
        <time>2016-05-24T13:51:34Z</time>
      </trkpt>
      <trkpt lat="43.56724" lon="3.34018">
        <ele>209.7</ele>
        <time>2016-05-24T13:51:38Z</time>
      </trkpt>
      <trkpt lat="43.5673" lon="3.34024">
        <ele>210.3</ele>
        <time>2016-05-24T13:51:42Z</time>
      </trkpt>
      <trkpt lat="43.56738" lon="3.3403">
        <ele>211.2</ele>
        <time>2016-05-24T13:51:47Z</time>
      </trkpt>
      <trkpt lat="43.56746" lon="3.34031">
        <ele>212</ele>
        <time>2016-05-24T13:51:52Z</time>
      </trkpt>
      <trkpt lat="43.56754" lon="3.34035">
        <ele>212.5</ele>
        <time>2016-05-24T13:51:56Z</time>
      </trkpt>
      <trkpt lat="43.5676" lon="3.34042">
        <ele>212.9</ele>
        <time>2016-05-24T13:51:59Z</time>
      </trkpt>
      <trkpt lat="43.56765" lon="3.34051">
        <ele>214.2</ele>
        <time>2016-05-24T13:52:04Z</time>
      </trkpt>
      <trkpt lat="43.5677" lon="3.34061">
        <ele>215.2</ele>
        <time>2016-05-24T13:52:08Z</time>
      </trkpt>
      <trkpt lat="43.56774" lon="3.34069">
        <ele>215.9</ele>
        <time>2016-05-24T13:52:12Z</time>
      </trkpt>
      <trkpt lat="43.56778" lon="3.34079">
        <ele>216.8</ele>
        <time>2016-05-24T13:52:16Z</time>
      </trkpt>
      <trkpt lat="43.56781" lon="3.3409">
        <ele>217.7</ele>
        <time>2016-05-24T13:52:20Z</time>
      </trkpt>
      <trkpt lat="43.56783" lon="3.34101">
        <ele>218.6</ele>
        <time>2016-05-24T13:52:25Z</time>
      </trkpt>
      <trkpt lat="43.56786" lon="3.34111">
        <ele>219.7</ele>
        <time>2016-05-24T13:52:29Z</time>
      </trkpt>
      <trkpt lat="43.5679" lon="3.34122">
        <ele>220.5</ele>
        <time>2016-05-24T13:52:33Z</time>
      </trkpt>
      <trkpt lat="43.56793" lon="3.34132">
        <ele>221</ele>
        <time>2016-05-24T13:52:37Z</time>
      </trkpt>
      <trkpt lat="43.56796" lon="3.34143">
        <ele>221.5</ele>
        <time>2016-05-24T13:52:41Z</time>
      </trkpt>
      <trkpt lat="43.56796" lon="3.34154">
        <ele>221.8</ele>
        <time>2016-05-24T13:52:45Z</time>
      </trkpt>
      <trkpt lat="43.56797" lon="3.34165">
        <ele>222</ele>
        <time>2016-05-24T13:52:49Z</time>
      </trkpt>
      <trkpt lat="43.56795" lon="3.34176">
        <ele>222.5</ele>
        <time>2016-05-24T13:52:53Z</time>
      </trkpt>
      <trkpt lat="43.56799" lon="3.34185">
        <ele>223.4</ele>
        <time>2016-05-24T13:52:57Z</time>
      </trkpt>
      <trkpt lat="43.56802" lon="3.34196">
        <ele>224.4</ele>
        <time>2016-05-24T13:53:02Z</time>
      </trkpt>
      <trkpt lat="43.56804" lon="3.34208">
        <ele>225.3</ele>
        <time>2016-05-24T13:53:06Z</time>
      </trkpt>
      <trkpt lat="43.56806" lon="3.34219">
        <ele>226.1</ele>
        <time>2016-05-24T13:53:10Z</time>
      </trkpt>
      <trkpt lat="43.56806" lon="3.34231">
        <ele>226.6</ele>
        <time>2016-05-24T13:53:13Z</time>
      </trkpt>
      <trkpt lat="43.56804" lon="3.34242">
        <ele>227.2</ele>
        <time>2016-05-24T13:53:16Z</time>
      </trkpt>
      <trkpt lat="43.56805" lon="3.34253">
        <ele>227.9</ele>
        <time>2016-05-24T13:53:21Z</time>
      </trkpt>
      <trkpt lat="43.56805" lon="3.34265">
        <ele>228.6</ele>
        <time>2016-05-24T13:53:25Z</time>
      </trkpt>
      <trkpt lat="43.56805" lon="3.34278">
        <ele>228.9</ele>
        <time>2016-05-24T13:53:29Z</time>
      </trkpt>
      <trkpt lat="43.56809" lon="3.34289">
        <ele>229.3</ele>
        <time>2016-05-24T13:53:33Z</time>
      </trkpt>
      <trkpt lat="43.56814" lon="3.34298">
        <ele>230.6</ele>
        <time>2016-05-24T13:53:35Z</time>
      </trkpt>
      <trkpt lat="43.56819" lon="3.34308">
        <ele>230.8</ele>
        <time>2016-05-24T13:53:37Z</time>
      </trkpt>
      <trkpt lat="43.56825" lon="3.34316">
        <ele>231.8</ele>
        <time>2016-05-24T13:53:39Z</time>
      </trkpt>
      <trkpt lat="43.56834" lon="3.34322">
        <ele>232.5</ele>
        <time>2016-05-24T13:53:41Z</time>
      </trkpt>
      <trkpt lat="43.56843" lon="3.34321">
        <ele>232.9</ele>
        <time>2016-05-24T13:53:45Z</time>
      </trkpt>
      <trkpt lat="43.56854" lon="3.34322">
        <ele>233.3</ele>
        <time>2016-05-24T13:53:48Z</time>
      </trkpt>
      <trkpt lat="43.5686" lon="3.34334">
        <ele>233.6</ele>
        <time>2016-05-24T13:53:51Z</time>
      </trkpt>
      <trkpt lat="43.56863" lon="3.34345">
        <ele>233.8</ele>
        <time>2016-05-24T13:53:54Z</time>
      </trkpt>
      <trkpt lat="43.5686" lon="3.34353">
        <ele>234.3</ele>
        <time>2016-05-24T13:54:01Z</time>
      </trkpt>
      <trkpt lat="43.56859" lon="3.34366">
        <ele>234.6</ele>
        <time>2016-05-24T13:54:05Z</time>
      </trkpt>
      <trkpt lat="43.56858" lon="3.34379">
        <ele>235</ele>
        <time>2016-05-24T13:54:09Z</time>
      </trkpt>
      <trkpt lat="43.5685" lon="3.3439">
        <ele>235.3</ele>
        <time>2016-05-24T13:54:12Z</time>
      </trkpt>
      <trkpt lat="43.5684" lon="3.34394">
        <ele>235.8</ele>
        <time>2016-05-24T13:54:20Z</time>
      </trkpt>
      <trkpt lat="43.56833" lon="3.34387">
        <ele>235.8</ele>
        <time>2016-05-24T13:54:23Z</time>
      </trkpt>
      <trkpt lat="43.56825" lon="3.34384">
        <ele>235.8</ele>
        <time>2016-05-24T13:54:25Z</time>
      </trkpt>
      <trkpt lat="43.56818" lon="3.3438">
        <ele>235.7</ele>
        <time>2016-05-24T13:54:28Z</time>
      </trkpt>
      <trkpt lat="43.5681" lon="3.34379">
        <ele>235.6</ele>
        <time>2016-05-24T13:54:30Z</time>
      </trkpt>
      <trkpt lat="43.56802" lon="3.3438">
        <ele>235.3</ele>
        <time>2016-05-24T13:54:34Z</time>
      </trkpt>
      <trkpt lat="43.56792" lon="3.34379">
        <ele>234.8</ele>
        <time>2016-05-24T13:54:37Z</time>
      </trkpt>
      <trkpt lat="43.56785" lon="3.34378">
        <ele>234.4</ele>
        <time>2016-05-24T13:54:39Z</time>
      </trkpt>
      <trkpt lat="43.56774" lon="3.34379">
        <ele>234.1</ele>
        <time>2016-05-24T13:54:41Z</time>
      </trkpt>
      <trkpt lat="43.56763" lon="3.34383">
        <ele>233.5</ele>
        <time>2016-05-24T13:54:43Z</time>
      </trkpt>
      <trkpt lat="43.56754" lon="3.34386">
        <ele>233.1</ele>
        <time>2016-05-24T13:54:45Z</time>
      </trkpt>
      <trkpt lat="43.56744" lon="3.34393">
        <ele>227</ele>
        <time>2016-05-24T13:54:47Z</time>
      </trkpt>
      <trkpt lat="43.56734" lon="3.34399">
        <ele>221.1</ele>
        <time>2016-05-24T13:54:49Z</time>
      </trkpt>
      <trkpt lat="43.56723" lon="3.34405">
        <ele>218.6</ele>
        <time>2016-05-24T13:54:51Z</time>
      </trkpt>
      <trkpt lat="43.56716" lon="3.34407">
        <ele>218.4</ele>
        <time>2016-05-24T13:54:53Z</time>
      </trkpt>
      <trkpt lat="43.56707" lon="3.34407">
        <ele>218.1</ele>
        <time>2016-05-24T13:54:55Z</time>
      </trkpt>
      <trkpt lat="43.56698" lon="3.3441">
        <ele>217.9</ele>
        <time>2016-05-24T13:54:57Z</time>
      </trkpt>
      <trkpt lat="43.5669" lon="3.3442">
        <ele>216.1</ele>
        <time>2016-05-24T13:54:59Z</time>
      </trkpt>
      <trkpt lat="43.56683" lon="3.34433">
        <ele>215.8</ele>
        <time>2016-05-24T13:55:02Z</time>
      </trkpt>
      <trkpt lat="43.56678" lon="3.34441">
        <ele>214.1</ele>
        <time>2016-05-24T13:55:04Z</time>
      </trkpt>
      <trkpt lat="43.56668" lon="3.34451">
        <ele>209.9</ele>
        <time>2016-05-24T13:55:06Z</time>
      </trkpt>
      <trkpt lat="43.56659" lon="3.34461">
        <ele>208.7</ele>
        <time>2016-05-24T13:55:09Z</time>
      </trkpt>
      <trkpt lat="43.56649" lon="3.34473">
        <ele>207.1</ele>
        <time>2016-05-24T13:55:11Z</time>
      </trkpt>
      <trkpt lat="43.56642" lon="3.34484">
        <ele>205.3</ele>
        <time>2016-05-24T13:55:13Z</time>
      </trkpt>
      <trkpt lat="43.56635" lon="3.34497">
        <ele>203.9</ele>
        <time>2016-05-24T13:55:15Z</time>
      </trkpt>
      <trkpt lat="43.56628" lon="3.34509">
        <ele>201.6</ele>
        <time>2016-05-24T13:55:17Z</time>
      </trkpt>
      <trkpt lat="43.56623" lon="3.34521">
        <ele>199.3</ele>
        <time>2016-05-24T13:55:19Z</time>
      </trkpt>
      <trkpt lat="43.56616" lon="3.34534">
        <ele>198.2</ele>
        <time>2016-05-24T13:55:21Z</time>
      </trkpt>
      <trkpt lat="43.56613" lon="3.34549">
        <ele>198.2</ele>
        <time>2016-05-24T13:55:23Z</time>
      </trkpt>
      <trkpt lat="43.56609" lon="3.34562">
        <ele>198.7</ele>
        <time>2016-05-24T13:55:25Z</time>
      </trkpt>
      <trkpt lat="43.56607" lon="3.34575">
        <ele>198.6</ele>
        <time>2016-05-24T13:55:27Z</time>
      </trkpt>
      <trkpt lat="43.56605" lon="3.34587">
        <ele>199.1</ele>
        <time>2016-05-24T13:55:29Z</time>
      </trkpt>
      <trkpt lat="43.56602" lon="3.34599">
        <ele>199.8</ele>
        <time>2016-05-24T13:55:31Z</time>
      </trkpt>
      <trkpt lat="43.56599" lon="3.3461">
        <ele>199.7</ele>
        <time>2016-05-24T13:55:33Z</time>
      </trkpt>
      <trkpt lat="43.56599" lon="3.3462">
        <ele>199.7</ele>
        <time>2016-05-24T13:55:35Z</time>
      </trkpt>
      <trkpt lat="43.56596" lon="3.3463">
        <ele>199.5</ele>
        <time>2016-05-24T13:55:37Z</time>
      </trkpt>
      <trkpt lat="43.56593" lon="3.34645">
        <ele>199</ele>
        <time>2016-05-24T13:55:39Z</time>
      </trkpt>
      <trkpt lat="43.56591" lon="3.34659">
        <ele>199.2</ele>
        <time>2016-05-24T13:55:41Z</time>
      </trkpt>
      <trkpt lat="43.56586" lon="3.34673">
        <ele>199.7</ele>
        <time>2016-05-24T13:55:43Z</time>
      </trkpt>
      <trkpt lat="43.56584" lon="3.34685">
        <ele>200.4</ele>
        <time>2016-05-24T13:55:45Z</time>
      </trkpt>
      <trkpt lat="43.56582" lon="3.34697">
        <ele>200.2</ele>
        <time>2016-05-24T13:55:47Z</time>
      </trkpt>
      <trkpt lat="43.56579" lon="3.34711">
        <ele>198.6</ele>
        <time>2016-05-24T13:55:49Z</time>
      </trkpt>
      <trkpt lat="43.56578" lon="3.34723">
        <ele>196.3</ele>
        <time>2016-05-24T13:55:51Z</time>
      </trkpt>
      <trkpt lat="43.56575" lon="3.34735">
        <ele>195.8</ele>
        <time>2016-05-24T13:55:53Z</time>
      </trkpt>
      <trkpt lat="43.56573" lon="3.34746">
        <ele>196.3</ele>
        <time>2016-05-24T13:55:55Z</time>
      </trkpt>
      <trkpt lat="43.56573" lon="3.34756">
        <ele>196.2</ele>
        <time>2016-05-24T13:55:57Z</time>
      </trkpt>
      <trkpt lat="43.56571" lon="3.34768">
        <ele>196.6</ele>
        <time>2016-05-24T13:55:59Z</time>
      </trkpt>
      <trkpt lat="43.5657" lon="3.3478">
        <ele>196.6</ele>
        <time>2016-05-24T13:56:02Z</time>
      </trkpt>
      <trkpt lat="43.56568" lon="3.3479">
        <ele>196.7</ele>
        <time>2016-05-24T13:56:04Z</time>
      </trkpt>
      <trkpt lat="43.56566" lon="3.34801">
        <ele>196.8</ele>
        <time>2016-05-24T13:56:06Z</time>
      </trkpt>
      <trkpt lat="43.56565" lon="3.34811">
        <ele>196.8</ele>
        <time>2016-05-24T13:56:08Z</time>
      </trkpt>
      <trkpt lat="43.56565" lon="3.34822">
        <ele>196.8</ele>
        <time>2016-05-24T13:56:10Z</time>
      </trkpt>
      <trkpt lat="43.56566" lon="3.34837">
        <ele>196.9</ele>
        <time>2016-05-24T13:56:13Z</time>
      </trkpt>
      <trkpt lat="43.56567" lon="3.34848">
        <ele>196.8</ele>
        <time>2016-05-24T13:56:15Z</time>
      </trkpt>
      <trkpt lat="43.5657" lon="3.3486">
        <ele>196.9</ele>
        <time>2016-05-24T13:56:17Z</time>
      </trkpt>
      <trkpt lat="43.56574" lon="3.34873">
        <ele>196.9</ele>
        <time>2016-05-24T13:56:20Z</time>
      </trkpt>
      <trkpt lat="43.56577" lon="3.34883">
        <ele>196.9</ele>
        <time>2016-05-24T13:56:22Z</time>
      </trkpt>
      <trkpt lat="43.56581" lon="3.34894">
        <ele>197</ele>
        <time>2016-05-24T13:56:24Z</time>
      </trkpt>
      <trkpt lat="43.56586" lon="3.34902">
        <ele>197.2</ele>
        <time>2016-05-24T13:56:27Z</time>
      </trkpt>
      <trkpt lat="43.5659" lon="3.34913">
        <ele>197.4</ele>
        <time>2016-05-24T13:56:30Z</time>
      </trkpt>
      <trkpt lat="43.56594" lon="3.34923">
        <ele>197.5</ele>
        <time>2016-05-24T13:56:32Z</time>
      </trkpt>
      <trkpt lat="43.56596" lon="3.34935">
        <ele>198.6</ele>
        <time>2016-05-24T13:56:34Z</time>
      </trkpt>
      <trkpt lat="43.56599" lon="3.34949">
        <ele>199.2</ele>
        <time>2016-05-24T13:56:36Z</time>
      </trkpt>
      <trkpt lat="43.56605" lon="3.34958">
        <ele>199</ele>
        <time>2016-05-24T13:56:38Z</time>
      </trkpt>
      <trkpt lat="43.56611" lon="3.34964">
        <ele>199</ele>
        <time>2016-05-24T13:56:40Z</time>
      </trkpt>
      <trkpt lat="43.56619" lon="3.34974">
        <ele>199.2</ele>
        <time>2016-05-24T13:56:43Z</time>
      </trkpt>
      <trkpt lat="43.56624" lon="3.34988">
        <ele>199.8</ele>
        <time>2016-05-24T13:56:45Z</time>
      </trkpt>
      <trkpt lat="43.56629" lon="3.34997">
        <ele>200.2</ele>
        <time>2016-05-24T13:56:46Z</time>
      </trkpt>
      <trkpt lat="43.56633" lon="3.35015">
        <ele>201.1</ele>
        <time>2016-05-24T13:56:48Z</time>
      </trkpt>
      <trkpt lat="43.56635" lon="3.3503">
        <ele>200</ele>
        <time>2016-05-24T13:56:50Z</time>
      </trkpt>
      <trkpt lat="43.56639" lon="3.35044">
        <ele>199.7</ele>
        <time>2016-05-24T13:56:52Z</time>
      </trkpt>
      <trkpt lat="43.56643" lon="3.35059">
        <ele>198.2</ele>
        <time>2016-05-24T13:56:54Z</time>
      </trkpt>
      <trkpt lat="43.56647" lon="3.35077">
        <ele>196.9</ele>
        <time>2016-05-24T13:56:56Z</time>
      </trkpt>
      <trkpt lat="43.5665" lon="3.35088">
        <ele>196.3</ele>
        <time>2016-05-24T13:56:57Z</time>
      </trkpt>
      <trkpt lat="43.5665" lon="3.351">
        <ele>195.3</ele>
        <time>2016-05-24T13:56:58Z</time>
      </trkpt>
      <trkpt lat="43.56649" lon="3.35113">
        <ele>194.7</ele>
        <time>2016-05-24T13:56:59Z</time>
      </trkpt>
      <trkpt lat="43.56648" lon="3.35133">
        <ele>193.3</ele>
        <time>2016-05-24T13:57:01Z</time>
      </trkpt>
      <trkpt lat="43.56649" lon="3.35144">
        <ele>192.1</ele>
        <time>2016-05-24T13:57:02Z</time>
      </trkpt>
      <trkpt lat="43.56648" lon="3.35156">
        <ele>191.6</ele>
        <time>2016-05-24T13:57:03Z</time>
      </trkpt>
      <trkpt lat="43.56647" lon="3.3517">
        <ele>190.6</ele>
        <time>2016-05-24T13:57:04Z</time>
      </trkpt>
      <trkpt lat="43.56647" lon="3.35182">
        <ele>189.6</ele>
        <time>2016-05-24T13:57:05Z</time>
      </trkpt>
      <trkpt lat="43.56646" lon="3.35194">
        <ele>188.4</ele>
        <time>2016-05-24T13:57:06Z</time>
      </trkpt>
      <trkpt lat="43.56646" lon="3.35205">
        <ele>187.4</ele>
        <time>2016-05-24T13:57:07Z</time>
      </trkpt>
      <trkpt lat="43.56645" lon="3.35216">
        <ele>186.2</ele>
        <time>2016-05-24T13:57:08Z</time>
      </trkpt>
      <trkpt lat="43.56652" lon="3.35231">
        <ele>184.4</ele>
        <time>2016-05-24T13:57:10Z</time>
      </trkpt>
      <trkpt lat="43.56657" lon="3.35246">
        <ele>183.1</ele>
        <time>2016-05-24T13:57:12Z</time>
      </trkpt>
      <trkpt lat="43.56662" lon="3.35261">
        <ele>182.3</ele>
        <time>2016-05-24T13:57:14Z</time>
      </trkpt>
      <trkpt lat="43.56668" lon="3.35277">
        <ele>181.8</ele>
        <time>2016-05-24T13:57:16Z</time>
      </trkpt>
      <trkpt lat="43.56671" lon="3.35286">
        <ele>181.6</ele>
        <time>2016-05-24T13:57:17Z</time>
      </trkpt>
      <trkpt lat="43.56675" lon="3.35295">
        <ele>181.2</ele>
        <time>2016-05-24T13:57:18Z</time>
      </trkpt>
      <trkpt lat="43.56679" lon="3.35304">
        <ele>181.6</ele>
        <time>2016-05-24T13:57:19Z</time>
      </trkpt>
      <trkpt lat="43.56687" lon="3.3532">
        <ele>181.9</ele>
        <time>2016-05-24T13:57:21Z</time>
      </trkpt>
      <trkpt lat="43.56693" lon="3.35336">
        <ele>183.2</ele>
        <time>2016-05-24T13:57:23Z</time>
      </trkpt>
      <trkpt lat="43.56697" lon="3.35353">
        <ele>183.2</ele>
        <time>2016-05-24T13:57:25Z</time>
      </trkpt>
      <trkpt lat="43.56699" lon="3.35368">
        <ele>183.6</ele>
        <time>2016-05-24T13:57:27Z</time>
      </trkpt>
      <trkpt lat="43.56702" lon="3.35385">
        <ele>182.4</ele>
        <time>2016-05-24T13:57:29Z</time>
      </trkpt>
      <trkpt lat="43.56704" lon="3.35399">
        <ele>180.9</ele>
        <time>2016-05-24T13:57:31Z</time>
      </trkpt>
      <trkpt lat="43.56703" lon="3.35416">
        <ele>179.9</ele>
        <time>2016-05-24T13:57:33Z</time>
      </trkpt>
      <trkpt lat="43.56702" lon="3.35428">
        <ele>179.1</ele>
        <time>2016-05-24T13:57:34Z</time>
      </trkpt>
      <trkpt lat="43.56701" lon="3.35439">
        <ele>178.5</ele>
        <time>2016-05-24T13:57:35Z</time>
      </trkpt>
      <trkpt lat="43.56701" lon="3.35457">
        <ele>177</ele>
        <time>2016-05-24T13:57:37Z</time>
      </trkpt>
      <trkpt lat="43.56702" lon="3.35468">
        <ele>176.3</ele>
        <time>2016-05-24T13:57:38Z</time>
      </trkpt>
      <trkpt lat="43.56702" lon="3.3548">
        <ele>176.3</ele>
        <time>2016-05-24T13:57:39Z</time>
      </trkpt>
      <trkpt lat="43.56702" lon="3.35491">
        <ele>176.4</ele>
        <time>2016-05-24T13:57:40Z</time>
      </trkpt>
      <trkpt lat="43.56702" lon="3.35504">
        <ele>177</ele>
        <time>2016-05-24T13:57:41Z</time>
      </trkpt>
      <trkpt lat="43.56702" lon="3.35517">
        <ele>176.6</ele>
        <time>2016-05-24T13:57:42Z</time>
      </trkpt>
      <trkpt lat="43.56702" lon="3.35529">
        <ele>176</ele>
        <time>2016-05-24T13:57:43Z</time>
      </trkpt>
      <trkpt lat="43.56702" lon="3.35541">
        <ele>176.4</ele>
        <time>2016-05-24T13:57:44Z</time>
      </trkpt>
      <trkpt lat="43.56702" lon="3.35557">
        <ele>176.6</ele>
        <time>2016-05-24T13:57:45Z</time>
      </trkpt>
      <trkpt lat="43.56702" lon="3.35571">
        <ele>177.1</ele>
        <time>2016-05-24T13:57:46Z</time>
      </trkpt>
      <trkpt lat="43.56702" lon="3.35584">
        <ele>177.5</ele>
        <time>2016-05-24T13:57:47Z</time>
      </trkpt>
      <trkpt lat="43.56702" lon="3.35596">
        <ele>177</ele>
        <time>2016-05-24T13:57:48Z</time>
      </trkpt>
      <trkpt lat="43.56703" lon="3.35609">
        <ele>176.3</ele>
        <time>2016-05-24T13:57:49Z</time>
      </trkpt>
      <trkpt lat="43.56706" lon="3.3562">
        <ele>174.8</ele>
        <time>2016-05-24T13:57:50Z</time>
      </trkpt>
      <trkpt lat="43.5671" lon="3.35631">
        <ele>173.6</ele>
        <time>2016-05-24T13:57:51Z</time>
      </trkpt>
      <trkpt lat="43.56709" lon="3.35644">
        <ele>172.6</ele>
        <time>2016-05-24T13:57:52Z</time>
      </trkpt>
      <trkpt lat="43.56709" lon="3.35656">
        <ele>171.9</ele>
        <time>2016-05-24T13:57:53Z</time>
      </trkpt>
      <trkpt lat="43.56708" lon="3.35667">
        <ele>171.4</ele>
        <time>2016-05-24T13:57:54Z</time>
      </trkpt>
      <trkpt lat="43.56707" lon="3.35677">
        <ele>170.7</ele>
        <time>2016-05-24T13:57:55Z</time>
      </trkpt>
      <trkpt lat="43.56705" lon="3.35688">
        <ele>171</ele>
        <time>2016-05-24T13:57:56Z</time>
      </trkpt>
      <trkpt lat="43.56704" lon="3.35698">
        <ele>170.8</ele>
        <time>2016-05-24T13:57:57Z</time>
      </trkpt>
      <trkpt lat="43.56704" lon="3.3571">
        <ele>170.8</ele>
        <time>2016-05-24T13:57:58Z</time>
      </trkpt>
      <trkpt lat="43.56704" lon="3.3572">
        <ele>171.2</ele>
        <time>2016-05-24T13:57:59Z</time>
      </trkpt>
      <trkpt lat="43.56704" lon="3.35731">
        <ele>170.9</ele>
        <time>2016-05-24T13:58:00Z</time>
      </trkpt>
      <trkpt lat="43.56704" lon="3.35742">
        <ele>170.8</ele>
        <time>2016-05-24T13:58:01Z</time>
      </trkpt>
      <trkpt lat="43.56705" lon="3.35753">
        <ele>170.6</ele>
        <time>2016-05-24T13:58:02Z</time>
      </trkpt>
      <trkpt lat="43.56706" lon="3.35763">
        <ele>170.3</ele>
        <time>2016-05-24T13:58:03Z</time>
      </trkpt>
      <trkpt lat="43.56709" lon="3.35781">
        <ele>169.9</ele>
        <time>2016-05-24T13:58:05Z</time>
      </trkpt>
      <trkpt lat="43.56711" lon="3.358">
        <ele>169.8</ele>
        <time>2016-05-24T13:58:07Z</time>
      </trkpt>
      <trkpt lat="43.56714" lon="3.35819">
        <ele>170</ele>
        <time>2016-05-24T13:58:09Z</time>
      </trkpt>
      <trkpt lat="43.56716" lon="3.3583">
        <ele>169.6</ele>
        <time>2016-05-24T13:58:10Z</time>
      </trkpt>
      <trkpt lat="43.56721" lon="3.35847">
        <ele>168.3</ele>
        <time>2016-05-24T13:58:12Z</time>
      </trkpt>
      <trkpt lat="43.56726" lon="3.35863">
        <ele>168</ele>
        <time>2016-05-24T13:58:14Z</time>
      </trkpt>
      <trkpt lat="43.56729" lon="3.35879">
        <ele>167.8</ele>
        <time>2016-05-24T13:58:16Z</time>
      </trkpt>
      <trkpt lat="43.56732" lon="3.35895">
        <ele>167.1</ele>
        <time>2016-05-24T13:58:18Z</time>
      </trkpt>
      <trkpt lat="43.56738" lon="3.35911">
        <ele>166</ele>
        <time>2016-05-24T13:58:20Z</time>
      </trkpt>
      <trkpt lat="43.56742" lon="3.35926">
        <ele>164.2</ele>
        <time>2016-05-24T13:58:22Z</time>
      </trkpt>
      <trkpt lat="43.56747" lon="3.35942">
        <ele>162.7</ele>
        <time>2016-05-24T13:58:24Z</time>
      </trkpt>
      <trkpt lat="43.56749" lon="3.35952">
        <ele>162.2</ele>
        <time>2016-05-24T13:58:25Z</time>
      </trkpt>
      <trkpt lat="43.56752" lon="3.35961">
        <ele>161.9</ele>
        <time>2016-05-24T13:58:26Z</time>
      </trkpt>
      <trkpt lat="43.56755" lon="3.35979">
        <ele>160.8</ele>
        <time>2016-05-24T13:58:28Z</time>
      </trkpt>
      <trkpt lat="43.56758" lon="3.35996">
        <ele>160.4</ele>
        <time>2016-05-24T13:58:30Z</time>
      </trkpt>
      <trkpt lat="43.56759" lon="3.36006">
        <ele>160.8</ele>
        <time>2016-05-24T13:58:31Z</time>
      </trkpt>
      <trkpt lat="43.56761" lon="3.36016">
        <ele>160.6</ele>
        <time>2016-05-24T13:58:32Z</time>
      </trkpt>
      <trkpt lat="43.56764" lon="3.36034">
        <ele>159.9</ele>
        <time>2016-05-24T13:58:34Z</time>
      </trkpt>
      <trkpt lat="43.56766" lon="3.36044">
        <ele>159.3</ele>
        <time>2016-05-24T13:58:35Z</time>
      </trkpt>
      <trkpt lat="43.56768" lon="3.36055">
        <ele>159.1</ele>
        <time>2016-05-24T13:58:36Z</time>
      </trkpt>
      <trkpt lat="43.5677" lon="3.36066">
        <ele>158.9</ele>
        <time>2016-05-24T13:58:37Z</time>
      </trkpt>
      <trkpt lat="43.56772" lon="3.36077">
        <ele>158.9</ele>
        <time>2016-05-24T13:58:38Z</time>
      </trkpt>
      <trkpt lat="43.56773" lon="3.36087">
        <ele>158.9</ele>
        <time>2016-05-24T13:58:39Z</time>
      </trkpt>
      <trkpt lat="43.56774" lon="3.36105">
        <ele>159.1</ele>
        <time>2016-05-24T13:58:41Z</time>
      </trkpt>
      <trkpt lat="43.56775" lon="3.36123">
        <ele>160.5</ele>
        <time>2016-05-24T13:58:43Z</time>
      </trkpt>
      <trkpt lat="43.56779" lon="3.36138">
        <ele>162.3</ele>
        <time>2016-05-24T13:58:45Z</time>
      </trkpt>
      <trkpt lat="43.56784" lon="3.3615">
        <ele>164</ele>
        <time>2016-05-24T13:58:47Z</time>
      </trkpt>
      <trkpt lat="43.56791" lon="3.36161">
        <ele>164.3</ele>
        <time>2016-05-24T13:58:49Z</time>
      </trkpt>
      <trkpt lat="43.56798" lon="3.36172">
        <ele>165.3</ele>
        <time>2016-05-24T13:58:51Z</time>
      </trkpt>
      <trkpt lat="43.56805" lon="3.36183">
        <ele>165</ele>
        <time>2016-05-24T13:58:53Z</time>
      </trkpt>
      <trkpt lat="43.56812" lon="3.36196">
        <ele>165.3</ele>
        <time>2016-05-24T13:58:56Z</time>
      </trkpt>
      <trkpt lat="43.56818" lon="3.36207">
        <ele>165.4</ele>
        <time>2016-05-24T13:58:58Z</time>
      </trkpt>
      <trkpt lat="43.56826" lon="3.36222">
        <ele>165.4</ele>
        <time>2016-05-24T13:59:00Z</time>
      </trkpt>
      <trkpt lat="43.56837" lon="3.36231">
        <ele>164.1</ele>
        <time>2016-05-24T13:59:02Z</time>
      </trkpt>
      <trkpt lat="43.56849" lon="3.36238">
        <ele>164.1</ele>
        <time>2016-05-24T13:59:04Z</time>
      </trkpt>
      <trkpt lat="43.56861" lon="3.36246">
        <ele>165.4</ele>
        <time>2016-05-24T13:59:06Z</time>
      </trkpt>
      <trkpt lat="43.56868" lon="3.36251">
        <ele>165.4</ele>
        <time>2016-05-24T13:59:07Z</time>
      </trkpt>
      <trkpt lat="43.56875" lon="3.36256">
        <ele>164.8</ele>
        <time>2016-05-24T13:59:08Z</time>
      </trkpt>
      <trkpt lat="43.56882" lon="3.36262">
        <ele>163.9</ele>
        <time>2016-05-24T13:59:09Z</time>
      </trkpt>
      <trkpt lat="43.56888" lon="3.36267">
        <ele>162.4</ele>
        <time>2016-05-24T13:59:10Z</time>
      </trkpt>
      <trkpt lat="43.56902" lon="3.36276">
        <ele>159.9</ele>
        <time>2016-05-24T13:59:12Z</time>
      </trkpt>
      <trkpt lat="43.56909" lon="3.36278">
        <ele>159.2</ele>
        <time>2016-05-24T13:59:13Z</time>
      </trkpt>
      <trkpt lat="43.56917" lon="3.36279">
        <ele>158.9</ele>
        <time>2016-05-24T13:59:14Z</time>
      </trkpt>
      <trkpt lat="43.56925" lon="3.36277">
        <ele>159.1</ele>
        <time>2016-05-24T13:59:15Z</time>
      </trkpt>
      <trkpt lat="43.56933" lon="3.36274">
        <ele>158.9</ele>
        <time>2016-05-24T13:59:16Z</time>
      </trkpt>
      <trkpt lat="43.56942" lon="3.3627">
        <ele>159.4</ele>
        <time>2016-05-24T13:59:17Z</time>
      </trkpt>
      <trkpt lat="43.56951" lon="3.36265">
        <ele>159.8</ele>
        <time>2016-05-24T13:59:18Z</time>
      </trkpt>
      <trkpt lat="43.56959" lon="3.36261">
        <ele>159.7</ele>
        <time>2016-05-24T13:59:19Z</time>
      </trkpt>
      <trkpt lat="43.56967" lon="3.36256">
        <ele>159.3</ele>
        <time>2016-05-24T13:59:20Z</time>
      </trkpt>
      <trkpt lat="43.56975" lon="3.36252">
        <ele>158.2</ele>
        <time>2016-05-24T13:59:21Z</time>
      </trkpt>
      <trkpt lat="43.56983" lon="3.36252">
        <ele>157.2</ele>
        <time>2016-05-24T13:59:22Z</time>
      </trkpt>
      <trkpt lat="43.56991" lon="3.36252">
        <ele>156.5</ele>
        <time>2016-05-24T13:59:23Z</time>
      </trkpt>
      <trkpt lat="43.56999" lon="3.36252">
        <ele>155.8</ele>
        <time>2016-05-24T13:59:24Z</time>
      </trkpt>
      <trkpt lat="43.57007" lon="3.36253">
        <ele>155.6</ele>
        <time>2016-05-24T13:59:25Z</time>
      </trkpt>
      <trkpt lat="43.57015" lon="3.36254">
        <ele>154.8</ele>
        <time>2016-05-24T13:59:26Z</time>
      </trkpt>
      <trkpt lat="43.57023" lon="3.36255">
        <ele>154.6</ele>
        <time>2016-05-24T13:59:27Z</time>
      </trkpt>
      <trkpt lat="43.57031" lon="3.36256">
        <ele>154.1</ele>
        <time>2016-05-24T13:59:28Z</time>
      </trkpt>
      <trkpt lat="43.57041" lon="3.36258">
        <ele>153.6</ele>
        <time>2016-05-24T13:59:30Z</time>
      </trkpt>
      <trkpt lat="43.57052" lon="3.3626">
        <ele>153.4</ele>
        <time>2016-05-24T13:59:32Z</time>
      </trkpt>
      <trkpt lat="43.57061" lon="3.36263">
        <ele>152.7</ele>
        <time>2016-05-24T13:59:34Z</time>
      </trkpt>
      <trkpt lat="43.5707" lon="3.36265">
        <ele>153.4</ele>
        <time>2016-05-24T13:59:36Z</time>
      </trkpt>
      <trkpt lat="43.57078" lon="3.36268">
        <ele>153.9</ele>
        <time>2016-05-24T13:59:38Z</time>
      </trkpt>
      <trkpt lat="43.57086" lon="3.36272">
        <ele>153.5</ele>
        <time>2016-05-24T13:59:40Z</time>
      </trkpt>
      <trkpt lat="43.57097" lon="3.36274">
        <ele>153.1</ele>
        <time>2016-05-24T13:59:42Z</time>
      </trkpt>
      <trkpt lat="43.57107" lon="3.36278">
        <ele>153.5</ele>
        <time>2016-05-24T13:59:44Z</time>
      </trkpt>
      <trkpt lat="43.57117" lon="3.36285">
        <ele>153.8</ele>
        <time>2016-05-24T13:59:46Z</time>
      </trkpt>
      <trkpt lat="43.57127" lon="3.36292">
        <ele>153.9</ele>
        <time>2016-05-24T13:59:48Z</time>
      </trkpt>
      <trkpt lat="43.57135" lon="3.36298">
        <ele>153.8</ele>
        <time>2016-05-24T13:59:50Z</time>
      </trkpt>
      <trkpt lat="43.57149" lon="3.36307">
        <ele>154.8</ele>
        <time>2016-05-24T13:59:52Z</time>
      </trkpt>
      <trkpt lat="43.57161" lon="3.36313">
        <ele>155.5</ele>
        <time>2016-05-24T13:59:54Z</time>
      </trkpt>
      <trkpt lat="43.57173" lon="3.36319">
        <ele>155.1</ele>
        <time>2016-05-24T13:59:56Z</time>
      </trkpt>
      <trkpt lat="43.57186" lon="3.36323">
        <ele>154.3</ele>
        <time>2016-05-24T13:59:58Z</time>
      </trkpt>
      <trkpt lat="43.57196" lon="3.36325">
        <ele>155</ele>
        <time>2016-05-24T14:00:00Z</time>
      </trkpt>
      <trkpt lat="43.57206" lon="3.36328">
        <ele>155.6</ele>
        <time>2016-05-24T14:00:02Z</time>
      </trkpt>
      <trkpt lat="43.57218" lon="3.3633">
        <ele>155.4</ele>
        <time>2016-05-24T14:00:04Z</time>
      </trkpt>
      <trkpt lat="43.5723" lon="3.36332">
        <ele>154.7</ele>
        <time>2016-05-24T14:00:06Z</time>
      </trkpt>
      <trkpt lat="43.5724" lon="3.36335">
        <ele>154.4</ele>
        <time>2016-05-24T14:00:08Z</time>
      </trkpt>
      <trkpt lat="43.57251" lon="3.36338">
        <ele>155.1</ele>
        <time>2016-05-24T14:00:10Z</time>
      </trkpt>
      <trkpt lat="43.57263" lon="3.36341">
        <ele>155.1</ele>
        <time>2016-05-24T14:00:12Z</time>
      </trkpt>
      <trkpt lat="43.57274" lon="3.36342">
        <ele>154.2</ele>
        <time>2016-05-24T14:00:14Z</time>
      </trkpt>
      <trkpt lat="43.57285" lon="3.36344">
        <ele>155.1</ele>
        <time>2016-05-24T14:00:16Z</time>
      </trkpt>
      <trkpt lat="43.57295" lon="3.36345">
        <ele>155.5</ele>
        <time>2016-05-24T14:00:18Z</time>
      </trkpt>
      <trkpt lat="43.57306" lon="3.36346">
        <ele>154.9</ele>
        <time>2016-05-24T14:00:20Z</time>
      </trkpt>
      <trkpt lat="43.57315" lon="3.36347">
        <ele>156</ele>
        <time>2016-05-24T14:00:22Z</time>
      </trkpt>
      <trkpt lat="43.57324" lon="3.36348">
        <ele>156.5</ele>
        <time>2016-05-24T14:00:24Z</time>
      </trkpt>
      <trkpt lat="43.57335" lon="3.36349">
        <ele>157.4</ele>
        <time>2016-05-24T14:00:26Z</time>
      </trkpt>
      <trkpt lat="43.57344" lon="3.36349">
        <ele>157.5</ele>
        <time>2016-05-24T14:00:28Z</time>
      </trkpt>
      <trkpt lat="43.57355" lon="3.36352">
        <ele>156.5</ele>
        <time>2016-05-24T14:00:30Z</time>
      </trkpt>
      <trkpt lat="43.57365" lon="3.36357">
        <ele>155.5</ele>
        <time>2016-05-24T14:00:32Z</time>
      </trkpt>
      <trkpt lat="43.57375" lon="3.36359">
        <ele>153.5</ele>
        <time>2016-05-24T14:00:34Z</time>
      </trkpt>
      <trkpt lat="43.57385" lon="3.3636">
        <ele>152.9</ele>
        <time>2016-05-24T14:00:36Z</time>
      </trkpt>
      <trkpt lat="43.57395" lon="3.36358">
        <ele>152.2</ele>
        <time>2016-05-24T14:00:38Z</time>
      </trkpt>
      <trkpt lat="43.57404" lon="3.36357">
        <ele>151.6</ele>
        <time>2016-05-24T14:00:40Z</time>
      </trkpt>
      <trkpt lat="43.57414" lon="3.36354">
        <ele>150.5</ele>
        <time>2016-05-24T14:00:42Z</time>
      </trkpt>
      <trkpt lat="43.57424" lon="3.36349">
        <ele>147.6</ele>
        <time>2016-05-24T14:00:44Z</time>
      </trkpt>
      <trkpt lat="43.57433" lon="3.36347">
        <ele>146.1</ele>
        <time>2016-05-24T14:00:46Z</time>
      </trkpt>
      <trkpt lat="43.57442" lon="3.36347">
        <ele>145.1</ele>
        <time>2016-05-24T14:00:48Z</time>
      </trkpt>
      <trkpt lat="43.57453" lon="3.36346">
        <ele>144.9</ele>
        <time>2016-05-24T14:00:50Z</time>
      </trkpt>
      <trkpt lat="43.57461" lon="3.36345">
        <ele>146.4</ele>
        <time>2016-05-24T14:00:52Z</time>
      </trkpt>
      <trkpt lat="43.57469" lon="3.36346">
        <ele>146.6</ele>
        <time>2016-05-24T14:00:54Z</time>
      </trkpt>
      <trkpt lat="43.57478" lon="3.36347">
        <ele>146.9</ele>
        <time>2016-05-24T14:00:56Z</time>
      </trkpt>
      <trkpt lat="43.57488" lon="3.36348">
        <ele>148.8</ele>
        <time>2016-05-24T14:00:58Z</time>
      </trkpt>
      <trkpt lat="43.57497" lon="3.36351">
        <ele>148.8</ele>
        <time>2016-05-24T14:01:00Z</time>
      </trkpt>
      <trkpt lat="43.57505" lon="3.36355">
        <ele>149.6</ele>
        <time>2016-05-24T14:01:02Z</time>
      </trkpt>
      <trkpt lat="43.57512" lon="3.36355">
        <ele>150.3</ele>
        <time>2016-05-24T14:01:04Z</time>
      </trkpt>
      <trkpt lat="43.5752" lon="3.36357">
        <ele>152.3</ele>
        <time>2016-05-24T14:01:06Z</time>
      </trkpt>
      <trkpt lat="43.57528" lon="3.36359">
        <ele>152.9</ele>
        <time>2016-05-24T14:01:08Z</time>
      </trkpt>
      <trkpt lat="43.57535" lon="3.3636">
        <ele>153.2</ele>
        <time>2016-05-24T14:01:10Z</time>
      </trkpt>
      <trkpt lat="43.57544" lon="3.36363">
        <ele>153.4</ele>
        <time>2016-05-24T14:01:12Z</time>
      </trkpt>
      <trkpt lat="43.57554" lon="3.36364">
        <ele>156.3</ele>
        <time>2016-05-24T14:01:15Z</time>
      </trkpt>
      <trkpt lat="43.57562" lon="3.36365">
        <ele>156.6</ele>
        <time>2016-05-24T14:01:17Z</time>
      </trkpt>
      <trkpt lat="43.57571" lon="3.36367">
        <ele>157</ele>
        <time>2016-05-24T14:01:19Z</time>
      </trkpt>
      <trkpt lat="43.57581" lon="3.3637">
        <ele>157.3</ele>
        <time>2016-05-24T14:01:22Z</time>
      </trkpt>
      <trkpt lat="43.57591" lon="3.36372">
        <ele>157.6</ele>
        <time>2016-05-24T14:01:25Z</time>
      </trkpt>
      <trkpt lat="43.57599" lon="3.36373">
        <ele>161</ele>
        <time>2016-05-24T14:01:27Z</time>
      </trkpt>
      <trkpt lat="43.57608" lon="3.36374">
        <ele>164.3</ele>
        <time>2016-05-24T14:01:29Z</time>
      </trkpt>
      <trkpt lat="43.57617" lon="3.36373">
        <ele>164.7</ele>
        <time>2016-05-24T14:01:32Z</time>
      </trkpt>
      <trkpt lat="43.57625" lon="3.36375">
        <ele>164.5</ele>
        <time>2016-05-24T14:01:34Z</time>
      </trkpt>
      <trkpt lat="43.57633" lon="3.36376">
        <ele>163.8</ele>
        <time>2016-05-24T14:01:36Z</time>
      </trkpt>
      <trkpt lat="43.57641" lon="3.36379">
        <ele>163.9</ele>
        <time>2016-05-24T14:01:38Z</time>
      </trkpt>
      <trkpt lat="43.57649" lon="3.36383">
        <ele>163.9</ele>
        <time>2016-05-24T14:01:40Z</time>
      </trkpt>
      <trkpt lat="43.57656" lon="3.36385">
        <ele>164.1</ele>
        <time>2016-05-24T14:01:42Z</time>
      </trkpt>
      <trkpt lat="43.57663" lon="3.36386">
        <ele>164.4</ele>
        <time>2016-05-24T14:01:44Z</time>
      </trkpt>
      <trkpt lat="43.57672" lon="3.36388">
        <ele>164.4</ele>
        <time>2016-05-24T14:01:46Z</time>
      </trkpt>
      <trkpt lat="43.57681" lon="3.36387">
        <ele>163.9</ele>
        <time>2016-05-24T14:01:48Z</time>
      </trkpt>
      <trkpt lat="43.57689" lon="3.36387">
        <ele>163.9</ele>
        <time>2016-05-24T14:01:50Z</time>
      </trkpt>
      <trkpt lat="43.57698" lon="3.36387">
        <ele>165.2</ele>
        <time>2016-05-24T14:01:52Z</time>
      </trkpt>
      <trkpt lat="43.57708" lon="3.36387">
        <ele>165.2</ele>
        <time>2016-05-24T14:01:54Z</time>
      </trkpt>
      <trkpt lat="43.57717" lon="3.3639">
        <ele>164.9</ele>
        <time>2016-05-24T14:01:56Z</time>
      </trkpt>
      <trkpt lat="43.57726" lon="3.36393">
        <ele>163.5</ele>
        <time>2016-05-24T14:01:58Z</time>
      </trkpt>
      <trkpt lat="43.57736" lon="3.36394">
        <ele>162.6</ele>
        <time>2016-05-24T14:02:01Z</time>
      </trkpt>
      <trkpt lat="43.57745" lon="3.36395">
        <ele>162.2</ele>
        <time>2016-05-24T14:02:03Z</time>
      </trkpt>
      <trkpt lat="43.57753" lon="3.36397">
        <ele>161.6</ele>
        <time>2016-05-24T14:02:05Z</time>
      </trkpt>
      <trkpt lat="43.57762" lon="3.36395">
        <ele>160</ele>
        <time>2016-05-24T14:02:07Z</time>
      </trkpt>
      <trkpt lat="43.5777" lon="3.36395">
        <ele>160</ele>
        <time>2016-05-24T14:02:09Z</time>
      </trkpt>
      <trkpt lat="43.57777" lon="3.36393">
        <ele>160.3</ele>
        <time>2016-05-24T14:02:11Z</time>
      </trkpt>
      <trkpt lat="43.57786" lon="3.36392">
        <ele>160.5</ele>
        <time>2016-05-24T14:02:13Z</time>
      </trkpt>
      <trkpt lat="43.57796" lon="3.36392">
        <ele>160.2</ele>
        <time>2016-05-24T14:02:15Z</time>
      </trkpt>
      <trkpt lat="43.57805" lon="3.36391">
        <ele>159.6</ele>
        <time>2016-05-24T14:02:17Z</time>
      </trkpt>
      <trkpt lat="43.57813" lon="3.36389">
        <ele>159.5</ele>
        <time>2016-05-24T14:02:19Z</time>
      </trkpt>
      <trkpt lat="43.5782" lon="3.36386">
        <ele>159.6</ele>
        <time>2016-05-24T14:02:21Z</time>
      </trkpt>
      <trkpt lat="43.57828" lon="3.36385">
        <ele>160</ele>
        <time>2016-05-24T14:02:23Z</time>
      </trkpt>
      <trkpt lat="43.57839" lon="3.36383">
        <ele>158.9</ele>
        <time>2016-05-24T14:02:26Z</time>
      </trkpt>
      <trkpt lat="43.57849" lon="3.36381">
        <ele>157.5</ele>
        <time>2016-05-24T14:02:28Z</time>
      </trkpt>
      <trkpt lat="43.57858" lon="3.36379">
        <ele>157.6</ele>
        <time>2016-05-24T14:02:30Z</time>
      </trkpt>
      <trkpt lat="43.57868" lon="3.36378">
        <ele>157.2</ele>
        <time>2016-05-24T14:02:33Z</time>
      </trkpt>
      <trkpt lat="43.57877" lon="3.36376">
        <ele>157.2</ele>
        <time>2016-05-24T14:02:35Z</time>
      </trkpt>
      <trkpt lat="43.57882" lon="3.36383">
        <ele>156.7</ele>
        <time>2016-05-24T14:02:37Z</time>
      </trkpt>
      <trkpt lat="43.57887" lon="3.36396">
        <ele>155.5</ele>
        <time>2016-05-24T14:02:39Z</time>
      </trkpt>
      <trkpt lat="43.57891" lon="3.36412">
        <ele>155</ele>
        <time>2016-05-24T14:02:41Z</time>
      </trkpt>
      <trkpt lat="43.57894" lon="3.36428">
        <ele>155.5</ele>
        <time>2016-05-24T14:02:43Z</time>
      </trkpt>
      <trkpt lat="43.57896" lon="3.36438">
        <ele>156.3</ele>
        <time>2016-05-24T14:02:44Z</time>
      </trkpt>
      <trkpt lat="43.57898" lon="3.36454">
        <ele>158.2</ele>
        <time>2016-05-24T14:02:46Z</time>
      </trkpt>
      <trkpt lat="43.57906" lon="3.36469">
        <ele>157.7</ele>
        <time>2016-05-24T14:02:48Z</time>
      </trkpt>
      <trkpt lat="43.57912" lon="3.36484">
        <ele>157.5</ele>
        <time>2016-05-24T14:02:50Z</time>
      </trkpt>
      <trkpt lat="43.57917" lon="3.36502">
        <ele>158.2</ele>
        <time>2016-05-24T14:02:52Z</time>
      </trkpt>
      <trkpt lat="43.57916" lon="3.36516">
        <ele>158.6</ele>
        <time>2016-05-24T14:02:54Z</time>
      </trkpt>
      <trkpt lat="43.5791" lon="3.36524">
        <ele>158.6</ele>
        <time>2016-05-24T14:02:58Z</time>
      </trkpt>
      <trkpt lat="43.57901" lon="3.36529">
        <ele>159</ele>
        <time>2016-05-24T14:03:02Z</time>
      </trkpt>
      <trkpt lat="43.57892" lon="3.36532">
        <ele>159.1</ele>
        <time>2016-05-24T14:03:06Z</time>
      </trkpt>
      <trkpt lat="43.57884" lon="3.36536">
        <ele>159</ele>
        <time>2016-05-24T14:03:10Z</time>
      </trkpt>
      <trkpt lat="43.57874" lon="3.36538">
        <ele>158.8</ele>
        <time>2016-05-24T14:03:14Z</time>
      </trkpt>
      <trkpt lat="43.57866" lon="3.36541">
        <ele>158.6</ele>
        <time>2016-05-24T14:03:17Z</time>
      </trkpt>
      <trkpt lat="43.57859" lon="3.36544">
        <ele>158.6</ele>
        <time>2016-05-24T14:03:20Z</time>
      </trkpt>
      <trkpt lat="43.57851" lon="3.36548">
        <ele>158.6</ele>
        <time>2016-05-24T14:03:23Z</time>
      </trkpt>
      <trkpt lat="43.57846" lon="3.36558">
        <ele>158.7</ele>
        <time>2016-05-24T14:03:26Z</time>
      </trkpt>
      <trkpt lat="43.57842" lon="3.3657">
        <ele>158.7</ele>
        <time>2016-05-24T14:03:29Z</time>
      </trkpt>
      <trkpt lat="43.57839" lon="3.36579">
        <ele>158.7</ele>
        <time>2016-05-24T14:03:31Z</time>
      </trkpt>
      <trkpt lat="43.57836" lon="3.36589">
        <ele>158.9</ele>
        <time>2016-05-24T14:03:33Z</time>
      </trkpt>
      <trkpt lat="43.57833" lon="3.36601">
        <ele>159.1</ele>
        <time>2016-05-24T14:03:36Z</time>
      </trkpt>
      <trkpt lat="43.57828" lon="3.36615">
        <ele>159.4</ele>
        <time>2016-05-24T14:03:39Z</time>
      </trkpt>
      <trkpt lat="43.57822" lon="3.36626">
        <ele>159.7</ele>
        <time>2016-05-24T14:03:42Z</time>
      </trkpt>
      <trkpt lat="43.57817" lon="3.36638">
        <ele>160.2</ele>
        <time>2016-05-24T14:03:45Z</time>
      </trkpt>
      <trkpt lat="43.57812" lon="3.36646">
        <ele>161.3</ele>
        <time>2016-05-24T14:03:47Z</time>
      </trkpt>
      <trkpt lat="43.57806" lon="3.36654">
        <ele>161.4</ele>
        <time>2016-05-24T14:03:49Z</time>
      </trkpt>
      <trkpt lat="43.578" lon="3.36662">
        <ele>161.5</ele>
        <time>2016-05-24T14:03:51Z</time>
      </trkpt>
      <trkpt lat="43.57793" lon="3.36671">
        <ele>161.7</ele>
        <time>2016-05-24T14:03:54Z</time>
      </trkpt>
      <trkpt lat="43.57787" lon="3.3668">
        <ele>161.8</ele>
        <time>2016-05-24T14:03:57Z</time>
      </trkpt>
      <trkpt lat="43.57781" lon="3.36688">
        <ele>162.1</ele>
        <time>2016-05-24T14:04:00Z</time>
      </trkpt>
      <trkpt lat="43.57777" lon="3.36699">
        <ele>162.3</ele>
        <time>2016-05-24T14:04:03Z</time>
      </trkpt>
      <trkpt lat="43.57774" lon="3.36708">
        <ele>162.4</ele>
        <time>2016-05-24T14:04:06Z</time>
      </trkpt>
      <trkpt lat="43.57775" lon="3.36721">
        <ele>162.7</ele>
        <time>2016-05-24T14:04:09Z</time>
      </trkpt>
      <trkpt lat="43.57779" lon="3.36734">
        <ele>163.2</ele>
        <time>2016-05-24T14:04:12Z</time>
      </trkpt>
      <trkpt lat="43.57782" lon="3.36744">
        <ele>163.7</ele>
        <time>2016-05-24T14:04:15Z</time>
      </trkpt>
      <trkpt lat="43.57786" lon="3.36758">
        <ele>164.1</ele>
        <time>2016-05-24T14:04:18Z</time>
      </trkpt>
      <trkpt lat="43.57788" lon="3.36767">
        <ele>164.5</ele>
        <time>2016-05-24T14:04:21Z</time>
      </trkpt>
      <trkpt lat="43.57789" lon="3.3678">
        <ele>164.8</ele>
        <time>2016-05-24T14:04:24Z</time>
      </trkpt>
      <trkpt lat="43.5779" lon="3.36794">
        <ele>165.1</ele>
        <time>2016-05-24T14:04:27Z</time>
      </trkpt>
      <trkpt lat="43.57793" lon="3.36805">
        <ele>165.3</ele>
        <time>2016-05-24T14:04:30Z</time>
      </trkpt>
      <trkpt lat="43.57797" lon="3.36817">
        <ele>165.7</ele>
        <time>2016-05-24T14:04:34Z</time>
      </trkpt>
      <trkpt lat="43.578" lon="3.36827">
        <ele>166.2</ele>
        <time>2016-05-24T14:04:37Z</time>
      </trkpt>
      <trkpt lat="43.57804" lon="3.36838">
        <ele>166.9</ele>
        <time>2016-05-24T14:04:41Z</time>
      </trkpt>
      <trkpt lat="43.57806" lon="3.3685">
        <ele>167.4</ele>
        <time>2016-05-24T14:04:44Z</time>
      </trkpt>
      <trkpt lat="43.57808" lon="3.36863">
        <ele>167.8</ele>
        <time>2016-05-24T14:04:47Z</time>
      </trkpt>
      <trkpt lat="43.5781" lon="3.36876">
        <ele>168.6</ele>
        <time>2016-05-24T14:04:50Z</time>
      </trkpt>
      <trkpt lat="43.57811" lon="3.36889">
        <ele>170</ele>
        <time>2016-05-24T14:04:52Z</time>
      </trkpt>
      <trkpt lat="43.57813" lon="3.36905">
        <ele>170.7</ele>
        <time>2016-05-24T14:04:54Z</time>
      </trkpt>
      <trkpt lat="43.57812" lon="3.36919">
        <ele>171.2</ele>
        <time>2016-05-24T14:04:56Z</time>
      </trkpt>
      <trkpt lat="43.57809" lon="3.36935">
        <ele>172.2</ele>
        <time>2016-05-24T14:04:58Z</time>
      </trkpt>
      <trkpt lat="43.57807" lon="3.36954">
        <ele>171.7</ele>
        <time>2016-05-24T14:05:00Z</time>
      </trkpt>
      <trkpt lat="43.57805" lon="3.36971">
        <ele>170.4</ele>
        <time>2016-05-24T14:05:02Z</time>
      </trkpt>
      <trkpt lat="43.57802" lon="3.3698">
        <ele>170.2</ele>
        <time>2016-05-24T14:05:03Z</time>
      </trkpt>
      <trkpt lat="43.57798" lon="3.3699">
        <ele>169.3</ele>
        <time>2016-05-24T14:05:04Z</time>
      </trkpt>
      <trkpt lat="43.57793" lon="3.37004">
        <ele>168.3</ele>
        <time>2016-05-24T14:05:06Z</time>
      </trkpt>
      <trkpt lat="43.57789" lon="3.37014">
        <ele>167.5</ele>
        <time>2016-05-24T14:05:07Z</time>
      </trkpt>
      <trkpt lat="43.57786" lon="3.37023">
        <ele>165.9</ele>
        <time>2016-05-24T14:05:08Z</time>
      </trkpt>
      <trkpt lat="43.57784" lon="3.37033">
        <ele>164.9</ele>
        <time>2016-05-24T14:05:09Z</time>
      </trkpt>
      <trkpt lat="43.5778" lon="3.37049">
        <ele>165.6</ele>
        <time>2016-05-24T14:05:11Z</time>
      </trkpt>
      <trkpt lat="43.57778" lon="3.37062">
        <ele>165.8</ele>
        <time>2016-05-24T14:05:13Z</time>
      </trkpt>
      <trkpt lat="43.5778" lon="3.37075">
        <ele>166</ele>
        <time>2016-05-24T14:05:16Z</time>
      </trkpt>
      <trkpt lat="43.5778" lon="3.37086">
        <ele>166.2</ele>
        <time>2016-05-24T14:05:19Z</time>
      </trkpt>
      <trkpt lat="43.5778" lon="3.37096">
        <ele>166.4</ele>
        <time>2016-05-24T14:05:22Z</time>
      </trkpt>
      <trkpt lat="43.57778" lon="3.3711">
        <ele>166.8</ele>
        <time>2016-05-24T14:05:26Z</time>
      </trkpt>
      <trkpt lat="43.57776" lon="3.37121">
        <ele>167.3</ele>
        <time>2016-05-24T14:05:30Z</time>
      </trkpt>
      <trkpt lat="43.57775" lon="3.37133">
        <ele>167.7</ele>
        <time>2016-05-24T14:05:33Z</time>
      </trkpt>
      <trkpt lat="43.57773" lon="3.37146">
        <ele>168.4</ele>
        <time>2016-05-24T14:05:37Z</time>
      </trkpt>
      <trkpt lat="43.57773" lon="3.37158">
        <ele>169</ele>
        <time>2016-05-24T14:05:41Z</time>
      </trkpt>
      <trkpt lat="43.57777" lon="3.37167">
        <ele>170.3</ele>
        <time>2016-05-24T14:05:47Z</time>
      </trkpt>
      <trkpt lat="43.57784" lon="3.37173">
        <ele>171.3</ele>
        <time>2016-05-24T14:05:52Z</time>
      </trkpt>
      <trkpt lat="43.57792" lon="3.37178">
        <ele>172.1</ele>
        <time>2016-05-24T14:05:56Z</time>
      </trkpt>
      <trkpt lat="43.57798" lon="3.37183">
        <ele>172.6</ele>
        <time>2016-05-24T14:05:59Z</time>
      </trkpt>
      <trkpt lat="43.57806" lon="3.3719">
        <ele>173.5</ele>
        <time>2016-05-24T14:06:03Z</time>
      </trkpt>
      <trkpt lat="43.57812" lon="3.37195">
        <ele>174.3</ele>
        <time>2016-05-24T14:06:06Z</time>
      </trkpt>
      <trkpt lat="43.5782" lon="3.372">
        <ele>175.5</ele>
        <time>2016-05-24T14:06:10Z</time>
      </trkpt>
      <trkpt lat="43.57828" lon="3.37206">
        <ele>176.6</ele>
        <time>2016-05-24T14:06:14Z</time>
      </trkpt>
      <trkpt lat="43.57834" lon="3.37211">
        <ele>177.3</ele>
        <time>2016-05-24T14:06:17Z</time>
      </trkpt>
      <trkpt lat="43.57842" lon="3.37218">
        <ele>178.2</ele>
        <time>2016-05-24T14:06:21Z</time>
      </trkpt>
      <trkpt lat="43.57849" lon="3.37225">
        <ele>179.2</ele>
        <time>2016-05-24T14:06:25Z</time>
      </trkpt>
      <trkpt lat="43.57857" lon="3.37231">
        <ele>180</ele>
        <time>2016-05-24T14:06:28Z</time>
      </trkpt>
      <trkpt lat="43.57866" lon="3.37236">
        <ele>180.7</ele>
        <time>2016-05-24T14:06:31Z</time>
      </trkpt>
      <trkpt lat="43.57872" lon="3.37241">
        <ele>181.3</ele>
        <time>2016-05-24T14:06:34Z</time>
      </trkpt>
      <trkpt lat="43.57879" lon="3.37247">
        <ele>182.1</ele>
        <time>2016-05-24T14:06:38Z</time>
      </trkpt>
      <trkpt lat="43.57889" lon="3.37253">
        <ele>183.1</ele>
        <time>2016-05-24T14:06:42Z</time>
      </trkpt>
      <trkpt lat="43.57898" lon="3.37256">
        <ele>183.7</ele>
        <time>2016-05-24T14:06:46Z</time>
      </trkpt>
      <trkpt lat="43.57905" lon="3.37261">
        <ele>184.2</ele>
        <time>2016-05-24T14:06:48Z</time>
      </trkpt>
      <trkpt lat="43.57914" lon="3.37266">
        <ele>189</ele>
        <time>2016-05-24T14:06:50Z</time>
      </trkpt>
      <trkpt lat="43.57923" lon="3.37272">
        <ele>190.8</ele>
        <time>2016-05-24T14:06:52Z</time>
      </trkpt>
      <trkpt lat="43.57931" lon="3.37278">
        <ele>191.1</ele>
        <time>2016-05-24T14:06:54Z</time>
      </trkpt>
      <trkpt lat="43.57938" lon="3.37282">
        <ele>191.1</ele>
        <time>2016-05-24T14:06:56Z</time>
      </trkpt>
      <trkpt lat="43.57945" lon="3.37287">
        <ele>191</ele>
        <time>2016-05-24T14:06:58Z</time>
      </trkpt>
      <trkpt lat="43.57952" lon="3.37294">
        <ele>191</ele>
        <time>2016-05-24T14:07:00Z</time>
      </trkpt>
      <trkpt lat="43.57959" lon="3.37301">
        <ele>190.8</ele>
        <time>2016-05-24T14:07:02Z</time>
      </trkpt>
      <trkpt lat="43.57968" lon="3.37307">
        <ele>190.5</ele>
        <time>2016-05-24T14:07:04Z</time>
      </trkpt>
      <trkpt lat="43.57976" lon="3.37313">
        <ele>189.8</ele>
        <time>2016-05-24T14:07:06Z</time>
      </trkpt>
      <trkpt lat="43.57984" lon="3.37319">
        <ele>189.3</ele>
        <time>2016-05-24T14:07:08Z</time>
      </trkpt>
      <trkpt lat="43.57994" lon="3.37328">
        <ele>187.9</ele>
        <time>2016-05-24T14:07:11Z</time>
      </trkpt>
      <trkpt lat="43.58" lon="3.37334">
        <ele>187.7</ele>
        <time>2016-05-24T14:07:13Z</time>
      </trkpt>
      <trkpt lat="43.58004" lon="3.37343">
        <ele>187.7</ele>
        <time>2016-05-24T14:07:15Z</time>
      </trkpt>
      <trkpt lat="43.58008" lon="3.37355">
        <ele>187.6</ele>
        <time>2016-05-24T14:07:17Z</time>
      </trkpt>
      <trkpt lat="43.5801" lon="3.37366">
        <ele>187.5</ele>
        <time>2016-05-24T14:07:19Z</time>
      </trkpt>
      <trkpt lat="43.58012" lon="3.37377">
        <ele>187.5</ele>
        <time>2016-05-24T14:07:22Z</time>
      </trkpt>
      <trkpt lat="43.58015" lon="3.37386">
        <ele>187.5</ele>
        <time>2016-05-24T14:07:24Z</time>
      </trkpt>
      <trkpt lat="43.58018" lon="3.37398">
        <ele>187.5</ele>
        <time>2016-05-24T14:07:27Z</time>
      </trkpt>
      <trkpt lat="43.58021" lon="3.37408">
        <ele>187.6</ele>
        <time>2016-05-24T14:07:30Z</time>
      </trkpt>
      <trkpt lat="43.58025" lon="3.3742">
        <ele>187.8</ele>
        <time>2016-05-24T14:07:33Z</time>
      </trkpt>
      <trkpt lat="43.58029" lon="3.3743">
        <ele>188.2</ele>
        <time>2016-05-24T14:07:37Z</time>
      </trkpt>
      <trkpt lat="43.58031" lon="3.37441">
        <ele>188.5</ele>
        <time>2016-05-24T14:07:40Z</time>
      </trkpt>
      <trkpt lat="43.58034" lon="3.37451">
        <ele>189.1</ele>
        <time>2016-05-24T14:07:43Z</time>
      </trkpt>
      <trkpt lat="43.5804" lon="3.37461">
        <ele>189.5</ele>
        <time>2016-05-24T14:07:46Z</time>
      </trkpt>
      <trkpt lat="43.58045" lon="3.37471">
        <ele>189.9</ele>
        <time>2016-05-24T14:07:50Z</time>
      </trkpt>
      <trkpt lat="43.58049" lon="3.3748">
        <ele>190.4</ele>
        <time>2016-05-24T14:07:53Z</time>
      </trkpt>
      <trkpt lat="43.58054" lon="3.37488">
        <ele>191</ele>
        <time>2016-05-24T14:07:57Z</time>
      </trkpt>
      <trkpt lat="43.58059" lon="3.37497">
        <ele>191.6</ele>
        <time>2016-05-24T14:08:01Z</time>
      </trkpt>
      <trkpt lat="43.58064" lon="3.37506">
        <ele>192.1</ele>
        <time>2016-05-24T14:08:05Z</time>
      </trkpt>
      <trkpt lat="43.5807" lon="3.37515">
        <ele>192.8</ele>
        <time>2016-05-24T14:08:09Z</time>
      </trkpt>
      <trkpt lat="43.58075" lon="3.37524">
        <ele>193.8</ele>
        <time>2016-05-24T14:08:14Z</time>
      </trkpt>
      <trkpt lat="43.58082" lon="3.37529">
        <ele>195.1</ele>
        <time>2016-05-24T14:08:19Z</time>
      </trkpt>
      <trkpt lat="43.58088" lon="3.37535">
        <ele>196.9</ele>
        <time>2016-05-24T14:08:25Z</time>
      </trkpt>
      <trkpt lat="43.58095" lon="3.37541">
        <ele>197.8</ele>
        <time>2016-05-24T14:08:28Z</time>
      </trkpt>
      <trkpt lat="43.58101" lon="3.37548">
        <ele>198.8</ele>
        <time>2016-05-24T14:08:33Z</time>
      </trkpt>
      <trkpt lat="43.58105" lon="3.37559">
        <ele>200</ele>
        <time>2016-05-24T14:08:39Z</time>
      </trkpt>
      <trkpt lat="43.58109" lon="3.37568">
        <ele>201.1</ele>
        <time>2016-05-24T14:08:43Z</time>
      </trkpt>
      <trkpt lat="43.58113" lon="3.37579">
        <ele>202.5</ele>
        <time>2016-05-24T14:08:47Z</time>
      </trkpt>
      <trkpt lat="43.58117" lon="3.37589">
        <ele>203.1</ele>
        <time>2016-05-24T14:08:50Z</time>
      </trkpt>
      <trkpt lat="43.58122" lon="3.37596">
        <ele>203.5</ele>
        <time>2016-05-24T14:08:54Z</time>
      </trkpt>
      <trkpt lat="43.58127" lon="3.37605">
        <ele>204.2</ele>
        <time>2016-05-24T14:08:58Z</time>
      </trkpt>
      <trkpt lat="43.5813" lon="3.37615">
        <ele>205</ele>
        <time>2016-05-24T14:09:03Z</time>
      </trkpt>
      <trkpt lat="43.58129" lon="3.37627">
        <ele>205.7</ele>
        <time>2016-05-24T14:09:07Z</time>
      </trkpt>
      <trkpt lat="43.58129" lon="3.37639">
        <ele>206.4</ele>
        <time>2016-05-24T14:09:11Z</time>
      </trkpt>
      <trkpt lat="43.58127" lon="3.3765">
        <ele>207</ele>
        <time>2016-05-24T14:09:15Z</time>
      </trkpt>
      <trkpt lat="43.58125" lon="3.37662">
        <ele>207.5</ele>
        <time>2016-05-24T14:09:19Z</time>
      </trkpt>
      <trkpt lat="43.58124" lon="3.37673">
        <ele>208.1</ele>
        <time>2016-05-24T14:09:23Z</time>
      </trkpt>
      <trkpt lat="43.58122" lon="3.37685">
        <ele>208.8</ele>
        <time>2016-05-24T14:09:27Z</time>
      </trkpt>
      <trkpt lat="43.58121" lon="3.37697">
        <ele>209.6</ele>
        <time>2016-05-24T14:09:32Z</time>
      </trkpt>
      <trkpt lat="43.58121" lon="3.37708">
        <ele>210.1</ele>
        <time>2016-05-24T14:09:36Z</time>
      </trkpt>
      <trkpt lat="43.58126" lon="3.37718">
        <ele>210.8</ele>
        <time>2016-05-24T14:09:41Z</time>
      </trkpt>
      <trkpt lat="43.58133" lon="3.37723">
        <ele>211.3</ele>
        <time>2016-05-24T14:09:45Z</time>
      </trkpt>
      <trkpt lat="43.58139" lon="3.37731">
        <ele>211.8</ele>
        <time>2016-05-24T14:09:49Z</time>
      </trkpt>
      <trkpt lat="43.58142" lon="3.3774">
        <ele>212.4</ele>
        <time>2016-05-24T14:09:53Z</time>
      </trkpt>
      <trkpt lat="43.58147" lon="3.37749">
        <ele>212.8</ele>
        <time>2016-05-24T14:09:56Z</time>
      </trkpt>
      <trkpt lat="43.58153" lon="3.37758">
        <ele>213.2</ele>
        <time>2016-05-24T14:09:59Z</time>
      </trkpt>
      <trkpt lat="43.58158" lon="3.37768">
        <ele>214.1</ele>
        <time>2016-05-24T14:10:04Z</time>
      </trkpt>
      <trkpt lat="43.58162" lon="3.3778">
        <ele>214.5</ele>
        <time>2016-05-24T14:10:08Z</time>
      </trkpt>
      <trkpt lat="43.58164" lon="3.3779">
        <ele>214.8</ele>
        <time>2016-05-24T14:10:11Z</time>
      </trkpt>
      <trkpt lat="43.5817" lon="3.37799">
        <ele>215</ele>
        <time>2016-05-24T14:10:14Z</time>
      </trkpt>
      <trkpt lat="43.58176" lon="3.37804">
        <ele>215.3</ele>
        <time>2016-05-24T14:10:16Z</time>
      </trkpt>
      <trkpt lat="43.58185" lon="3.37809">
        <ele>215.9</ele>
        <time>2016-05-24T14:10:19Z</time>
      </trkpt>
      <trkpt lat="43.58194" lon="3.37814">
        <ele>216.3</ele>
        <time>2016-05-24T14:10:22Z</time>
      </trkpt>
      <trkpt lat="43.58202" lon="3.37822">
        <ele>216.6</ele>
        <time>2016-05-24T14:10:25Z</time>
      </trkpt>
      <trkpt lat="43.58209" lon="3.37831">
        <ele>216.8</ele>
        <time>2016-05-24T14:10:28Z</time>
      </trkpt>
      <trkpt lat="43.58215" lon="3.37842">
        <ele>216.9</ele>
        <time>2016-05-24T14:10:31Z</time>
      </trkpt>
      <trkpt lat="43.58221" lon="3.37853">
        <ele>217</ele>
        <time>2016-05-24T14:10:34Z</time>
      </trkpt>
      <trkpt lat="43.58227" lon="3.37861">
        <ele>216.7</ele>
        <time>2016-05-24T14:10:36Z</time>
      </trkpt>
      <trkpt lat="43.58236" lon="3.37866">
        <ele>216.7</ele>
        <time>2016-05-24T14:10:38Z</time>
      </trkpt>
      <trkpt lat="43.58245" lon="3.3787">
        <ele>216.5</ele>
        <time>2016-05-24T14:10:40Z</time>
      </trkpt>
      <trkpt lat="43.58254" lon="3.37875">
        <ele>217.1</ele>
        <time>2016-05-24T14:10:42Z</time>
      </trkpt>
      <trkpt lat="43.58263" lon="3.37884">
        <ele>218.3</ele>
        <time>2016-05-24T14:10:44Z</time>
      </trkpt>
      <trkpt lat="43.58274" lon="3.37897">
        <ele>218.2</ele>
        <time>2016-05-24T14:10:46Z</time>
      </trkpt>
      <trkpt lat="43.5828" lon="3.37903">
        <ele>217.9</ele>
        <time>2016-05-24T14:10:47Z</time>
      </trkpt>
      <trkpt lat="43.58285" lon="3.3791">
        <ele>217.2</ele>
        <time>2016-05-24T14:10:48Z</time>
      </trkpt>
      <trkpt lat="43.58296" lon="3.37922">
        <ele>215.6</ele>
        <time>2016-05-24T14:10:50Z</time>
      </trkpt>
      <trkpt lat="43.58307" lon="3.37932">
        <ele>215.6</ele>
        <time>2016-05-24T14:10:52Z</time>
      </trkpt>
      <trkpt lat="43.58317" lon="3.3794">
        <ele>215.2</ele>
        <time>2016-05-24T14:10:54Z</time>
      </trkpt>
      <trkpt lat="43.58322" lon="3.37949">
        <ele>213.5</ele>
        <time>2016-05-24T14:10:56Z</time>
      </trkpt>
      <trkpt lat="43.58326" lon="3.3796">
        <ele>212.1</ele>
        <time>2016-05-24T14:10:58Z</time>
      </trkpt>
      <trkpt lat="43.58326" lon="3.3797">
        <ele>211.9</ele>
        <time>2016-05-24T14:11:00Z</time>
      </trkpt>
      <trkpt lat="43.58326" lon="3.37985">
        <ele>212</ele>
        <time>2016-05-24T14:11:03Z</time>
      </trkpt>
      <trkpt lat="43.58329" lon="3.37997">
        <ele>212.2</ele>
        <time>2016-05-24T14:11:07Z</time>
      </trkpt>
      <trkpt lat="43.58331" lon="3.38007">
        <ele>212.5</ele>
        <time>2016-05-24T14:11:10Z</time>
      </trkpt>
      <trkpt lat="43.58332" lon="3.3802">
        <ele>212.7</ele>
        <time>2016-05-24T14:11:13Z</time>
      </trkpt>
      <trkpt lat="43.58334" lon="3.38032">
        <ele>213</ele>
        <time>2016-05-24T14:11:17Z</time>
      </trkpt>
      <trkpt lat="43.58339" lon="3.3804">
        <ele>213.3</ele>
        <time>2016-05-24T14:11:20Z</time>
      </trkpt>
      <trkpt lat="43.58343" lon="3.38048">
        <ele>213.6</ele>
        <time>2016-05-24T14:11:23Z</time>
      </trkpt>
      <trkpt lat="43.58348" lon="3.38058">
        <ele>214.3</ele>
        <time>2016-05-24T14:11:27Z</time>
      </trkpt>
      <trkpt lat="43.58352" lon="3.38066">
        <ele>214.7</ele>
        <time>2016-05-24T14:11:30Z</time>
      </trkpt>
      <trkpt lat="43.58355" lon="3.38078">
        <ele>215</ele>
        <time>2016-05-24T14:11:32Z</time>
      </trkpt>
      <trkpt lat="43.58356" lon="3.3809">
        <ele>215.3</ele>
        <time>2016-05-24T14:11:35Z</time>
      </trkpt>
      <trkpt lat="43.58357" lon="3.381">
        <ele>215.5</ele>
        <time>2016-05-24T14:11:38Z</time>
      </trkpt>
      <trkpt lat="43.5836" lon="3.38111">
        <ele>215.8</ele>
        <time>2016-05-24T14:11:41Z</time>
      </trkpt>
      <trkpt lat="43.58366" lon="3.38124">
        <ele>216</ele>
        <time>2016-05-24T14:11:44Z</time>
      </trkpt>
      <trkpt lat="43.58371" lon="3.38133">
        <ele>216.1</ele>
        <time>2016-05-24T14:11:46Z</time>
      </trkpt>
      <trkpt lat="43.58375" lon="3.38143">
        <ele>216.4</ele>
        <time>2016-05-24T14:11:49Z</time>
      </trkpt>
      <trkpt lat="43.58382" lon="3.38152">
        <ele>216.5</ele>
        <time>2016-05-24T14:11:52Z</time>
      </trkpt>
      <trkpt lat="43.58388" lon="3.38161">
        <ele>216.8</ele>
        <time>2016-05-24T14:11:55Z</time>
      </trkpt>
      <trkpt lat="43.58395" lon="3.38168">
        <ele>217</ele>
        <time>2016-05-24T14:11:58Z</time>
      </trkpt>
      <trkpt lat="43.58401" lon="3.38174">
        <ele>217.3</ele>
        <time>2016-05-24T14:12:00Z</time>
      </trkpt>
      <trkpt lat="43.58407" lon="3.3818">
        <ele>217.5</ele>
        <time>2016-05-24T14:12:02Z</time>
      </trkpt>
      <trkpt lat="43.58413" lon="3.38186">
        <ele>217.8</ele>
        <time>2016-05-24T14:12:04Z</time>
      </trkpt>
      <trkpt lat="43.58414" lon="3.38198">
        <ele>219.8</ele>
        <time>2016-05-24T14:12:06Z</time>
      </trkpt>
      <trkpt lat="43.58413" lon="3.38209">
        <ele>220.1</ele>
        <time>2016-05-24T14:12:08Z</time>
      </trkpt>
      <trkpt lat="43.58412" lon="3.38222">
        <ele>220.2</ele>
        <time>2016-05-24T14:12:11Z</time>
      </trkpt>
      <trkpt lat="43.58413" lon="3.38233">
        <ele>220.2</ele>
        <time>2016-05-24T14:12:15Z</time>
      </trkpt>
      <trkpt lat="43.58417" lon="3.38243">
        <ele>220.6</ele>
        <time>2016-05-24T14:12:19Z</time>
      </trkpt>
      <trkpt lat="43.58421" lon="3.38251">
        <ele>221.2</ele>
        <time>2016-05-24T14:12:24Z</time>
      </trkpt>
      <trkpt lat="43.58425" lon="3.38259">
        <ele>221.8</ele>
        <time>2016-05-24T14:12:28Z</time>
      </trkpt>
      <trkpt lat="43.58426" lon="3.38271">
        <ele>222.6</ele>
        <time>2016-05-24T14:12:33Z</time>
      </trkpt>
      <trkpt lat="43.58428" lon="3.38282">
        <ele>223.5</ele>
        <time>2016-05-24T14:12:38Z</time>
      </trkpt>
      <trkpt lat="43.58429" lon="3.38293">
        <ele>224.2</ele>
        <time>2016-05-24T14:12:43Z</time>
      </trkpt>
      <trkpt lat="43.58432" lon="3.38303">
        <ele>224.8</ele>
        <time>2016-05-24T14:12:49Z</time>
      </trkpt>
      <trkpt lat="43.58434" lon="3.38314">
        <ele>226</ele>
        <time>2016-05-24T14:12:54Z</time>
      </trkpt>
      <trkpt lat="43.58434" lon="3.38324">
        <ele>226.8</ele>
        <time>2016-05-24T14:12:59Z</time>
      </trkpt>
      <trkpt lat="43.58436" lon="3.38335">
        <ele>228</ele>
        <time>2016-05-24T14:13:04Z</time>
      </trkpt>
      <trkpt lat="43.58438" lon="3.38346">
        <ele>229.4</ele>
        <time>2016-05-24T14:13:10Z</time>
      </trkpt>
      <trkpt lat="43.5844" lon="3.38355">
        <ele>230.7</ele>
        <time>2016-05-24T14:13:15Z</time>
      </trkpt>
      <trkpt lat="43.58441" lon="3.38365">
        <ele>231.3</ele>
        <time>2016-05-24T14:13:19Z</time>
      </trkpt>
      <trkpt lat="43.58442" lon="3.38377">
        <ele>231.9</ele>
        <time>2016-05-24T14:13:24Z</time>
      </trkpt>
      <trkpt lat="43.58442" lon="3.38389">
        <ele>232.6</ele>
        <time>2016-05-24T14:13:29Z</time>
      </trkpt>
      <trkpt lat="43.58441" lon="3.38401">
        <ele>233.1</ele>
        <time>2016-05-24T14:13:34Z</time>
      </trkpt>
      <trkpt lat="43.58442" lon="3.38412">
        <ele>233.5</ele>
        <time>2016-05-24T14:13:38Z</time>
      </trkpt>
      <trkpt lat="43.58442" lon="3.38424">
        <ele>234.1</ele>
        <time>2016-05-24T14:13:42Z</time>
      </trkpt>
      <trkpt lat="43.58439" lon="3.38433">
        <ele>234.8</ele>
        <time>2016-05-24T14:13:47Z</time>
      </trkpt>
      <trkpt lat="43.58435" lon="3.38443">
        <ele>234.9</ele>
        <time>2016-05-24T14:13:51Z</time>
      </trkpt>
      <trkpt lat="43.58436" lon="3.38453">
        <ele>235.5</ele>
        <time>2016-05-24T14:13:56Z</time>
      </trkpt>
      <trkpt lat="43.58444" lon="3.38459">
        <ele>236.6</ele>
        <time>2016-05-24T14:14:02Z</time>
      </trkpt>
      <trkpt lat="43.58452" lon="3.38461">
        <ele>237.2</ele>
        <time>2016-05-24T14:14:05Z</time>
      </trkpt>
      <trkpt lat="43.5846" lon="3.3846">
        <ele>237.8</ele>
        <time>2016-05-24T14:14:08Z</time>
      </trkpt>
      <trkpt lat="43.58468" lon="3.38466">
        <ele>240.1</ele>
        <time>2016-05-24T14:14:10Z</time>
      </trkpt>
      <trkpt lat="43.58477" lon="3.38474">
        <ele>241.7</ele>
        <time>2016-05-24T14:14:12Z</time>
      </trkpt>
      <trkpt lat="43.58486" lon="3.38481">
        <ele>243</ele>
        <time>2016-05-24T14:14:14Z</time>
      </trkpt>
      <trkpt lat="43.58491" lon="3.38492">
        <ele>243.1</ele>
        <time>2016-05-24T14:14:16Z</time>
      </trkpt>
      <trkpt lat="43.58496" lon="3.38508">
        <ele>240.6</ele>
        <time>2016-05-24T14:14:18Z</time>
      </trkpt>
      <trkpt lat="43.58498" lon="3.38523">
        <ele>238</ele>
        <time>2016-05-24T14:14:20Z</time>
      </trkpt>
      <trkpt lat="43.58498" lon="3.38536">
        <ele>237</ele>
        <time>2016-05-24T14:14:22Z</time>
      </trkpt>
      <trkpt lat="43.58497" lon="3.38547">
        <ele>238</ele>
        <time>2016-05-24T14:14:24Z</time>
      </trkpt>
      <trkpt lat="43.58498" lon="3.38558">
        <ele>238.2</ele>
        <time>2016-05-24T14:14:26Z</time>
      </trkpt>
      <trkpt lat="43.58499" lon="3.3857">
        <ele>238.1</ele>
        <time>2016-05-24T14:14:29Z</time>
      </trkpt>
      <trkpt lat="43.585" lon="3.38581">
        <ele>238.1</ele>
        <time>2016-05-24T14:14:32Z</time>
      </trkpt>
      <trkpt lat="43.58502" lon="3.38592">
        <ele>238.2</ele>
        <time>2016-05-24T14:14:35Z</time>
      </trkpt>
      <trkpt lat="43.58504" lon="3.38605">
        <ele>238.4</ele>
        <time>2016-05-24T14:14:39Z</time>
      </trkpt>
      <trkpt lat="43.58506" lon="3.38617">
        <ele>238.6</ele>
        <time>2016-05-24T14:14:42Z</time>
      </trkpt>
      <trkpt lat="43.58507" lon="3.38628">
        <ele>238.9</ele>
        <time>2016-05-24T14:14:45Z</time>
      </trkpt>
      <trkpt lat="43.58508" lon="3.38641">
        <ele>239.2</ele>
        <time>2016-05-24T14:14:49Z</time>
      </trkpt>
      <trkpt lat="43.58509" lon="3.38651">
        <ele>239.7</ele>
        <time>2016-05-24T14:14:52Z</time>
      </trkpt>
      <trkpt lat="43.5851" lon="3.38661">
        <ele>240</ele>
        <time>2016-05-24T14:14:55Z</time>
      </trkpt>
      <trkpt lat="43.58512" lon="3.38672">
        <ele>240.3</ele>
        <time>2016-05-24T14:14:58Z</time>
      </trkpt>
      <trkpt lat="43.58515" lon="3.38684">
        <ele>240.6</ele>
        <time>2016-05-24T14:15:02Z</time>
      </trkpt>
      <trkpt lat="43.58517" lon="3.38695">
        <ele>240.7</ele>
        <time>2016-05-24T14:15:05Z</time>
      </trkpt>
      <trkpt lat="43.5852" lon="3.38707">
        <ele>240.9</ele>
        <time>2016-05-24T14:15:08Z</time>
      </trkpt>
      <trkpt lat="43.5852" lon="3.38718">
        <ele>241.1</ele>
        <time>2016-05-24T14:15:11Z</time>
      </trkpt>
      <trkpt lat="43.5852" lon="3.38731">
        <ele>241.3</ele>
        <time>2016-05-24T14:15:14Z</time>
      </trkpt>
      <trkpt lat="43.58518" lon="3.38741">
        <ele>241.6</ele>
        <time>2016-05-24T14:15:17Z</time>
      </trkpt>
      <trkpt lat="43.58519" lon="3.38753">
        <ele>242.1</ele>
        <time>2016-05-24T14:15:21Z</time>
      </trkpt>
      <trkpt lat="43.5852" lon="3.38765">
        <ele>242.5</ele>
        <time>2016-05-24T14:15:25Z</time>
      </trkpt>
      <trkpt lat="43.58521" lon="3.38776">
        <ele>242.7</ele>
        <time>2016-05-24T14:15:28Z</time>
      </trkpt>
      <trkpt lat="43.5852" lon="3.38789">
        <ele>243</ele>
        <time>2016-05-24T14:15:31Z</time>
      </trkpt>
      <trkpt lat="43.58518" lon="3.388">
        <ele>243.2</ele>
        <time>2016-05-24T14:15:34Z</time>
      </trkpt>
      <trkpt lat="43.58517" lon="3.3881">
        <ele>243.5</ele>
        <time>2016-05-24T14:15:38Z</time>
      </trkpt>
      <trkpt lat="43.58514" lon="3.3882">
        <ele>244.2</ele>
        <time>2016-05-24T14:15:42Z</time>
      </trkpt>
      <trkpt lat="43.58512" lon="3.38831">
        <ele>244.6</ele>
        <time>2016-05-24T14:15:46Z</time>
      </trkpt>
      <trkpt lat="43.58513" lon="3.38842">
        <ele>245.1</ele>
        <time>2016-05-24T14:15:50Z</time>
      </trkpt>
      <trkpt lat="43.58514" lon="3.38853">
        <ele>245.6</ele>
        <time>2016-05-24T14:15:54Z</time>
      </trkpt>
      <trkpt lat="43.58513" lon="3.38867">
        <ele>245.9</ele>
        <time>2016-05-24T14:15:57Z</time>
      </trkpt>
      <trkpt lat="43.58512" lon="3.38876">
        <ele>246.1</ele>
        <time>2016-05-24T14:16:00Z</time>
      </trkpt>
      <trkpt lat="43.58508" lon="3.38887">
        <ele>246.5</ele>
        <time>2016-05-24T14:16:04Z</time>
      </trkpt>
      <trkpt lat="43.58501" lon="3.38896">
        <ele>247</ele>
        <time>2016-05-24T14:16:09Z</time>
      </trkpt>
      <trkpt lat="43.58494" lon="3.38902">
        <ele>247.1</ele>
        <time>2016-05-24T14:16:12Z</time>
      </trkpt>
      <trkpt lat="43.58487" lon="3.38908">
        <ele>247.3</ele>
        <time>2016-05-24T14:16:15Z</time>
      </trkpt>
      <trkpt lat="43.58479" lon="3.38915">
        <ele>247.8</ele>
        <time>2016-05-24T14:16:19Z</time>
      </trkpt>
      <trkpt lat="43.58473" lon="3.38923">
        <ele>248.7</ele>
        <time>2016-05-24T14:16:25Z</time>
      </trkpt>
      <trkpt lat="43.58468" lon="3.38932">
        <ele>249</ele>
        <time>2016-05-24T14:16:29Z</time>
      </trkpt>
      <trkpt lat="43.58465" lon="3.38942">
        <ele>249.4</ele>
        <time>2016-05-24T14:16:34Z</time>
      </trkpt>
      <trkpt lat="43.58463" lon="3.38953">
        <ele>249.6</ele>
        <time>2016-05-24T14:16:38Z</time>
      </trkpt>
      <trkpt lat="43.58459" lon="3.38964">
        <ele>250.2</ele>
        <time>2016-05-24T14:16:42Z</time>
      </trkpt>
      <trkpt lat="43.58457" lon="3.38976">
        <ele>250.7</ele>
        <time>2016-05-24T14:16:47Z</time>
      </trkpt>
      <trkpt lat="43.58456" lon="3.38989">
        <ele>251.8</ele>
        <time>2016-05-24T14:16:53Z</time>
      </trkpt>
      <trkpt lat="43.58455" lon="3.39001">
        <ele>252.7</ele>
        <time>2016-05-24T14:16:58Z</time>
      </trkpt>
      <trkpt lat="43.58453" lon="3.39011">
        <ele>253.3</ele>
        <time>2016-05-24T14:17:02Z</time>
      </trkpt>
      <trkpt lat="43.58451" lon="3.39021">
        <ele>253.6</ele>
        <time>2016-05-24T14:17:06Z</time>
      </trkpt>
      <trkpt lat="43.58447" lon="3.39032">
        <ele>254.1</ele>
        <time>2016-05-24T14:17:10Z</time>
      </trkpt>
      <trkpt lat="43.58442" lon="3.39043">
        <ele>254.6</ele>
        <time>2016-05-24T14:17:14Z</time>
      </trkpt>
      <trkpt lat="43.5844" lon="3.39054">
        <ele>255.3</ele>
        <time>2016-05-24T14:17:18Z</time>
      </trkpt>
      <trkpt lat="43.58436" lon="3.39064">
        <ele>256.2</ele>
        <time>2016-05-24T14:17:22Z</time>
      </trkpt>
      <trkpt lat="43.5843" lon="3.39072">
        <ele>256.7</ele>
        <time>2016-05-24T14:17:25Z</time>
      </trkpt>
      <trkpt lat="43.58424" lon="3.3908">
        <ele>257.3</ele>
        <time>2016-05-24T14:17:29Z</time>
      </trkpt>
      <trkpt lat="43.5842" lon="3.39089">
        <ele>258.5</ele>
        <time>2016-05-24T14:17:34Z</time>
      </trkpt>
      <trkpt lat="43.5842" lon="3.39101">
        <ele>259.7</ele>
        <time>2016-05-24T14:17:39Z</time>
      </trkpt>
      <trkpt lat="43.5842" lon="3.39112">
        <ele>260.5</ele>
        <time>2016-05-24T14:17:43Z</time>
      </trkpt>
      <trkpt lat="43.58418" lon="3.39124">
        <ele>261.3</ele>
        <time>2016-05-24T14:17:47Z</time>
      </trkpt>
      <trkpt lat="43.58414" lon="3.39135">
        <ele>262.1</ele>
        <time>2016-05-24T14:17:52Z</time>
      </trkpt>
      <trkpt lat="43.5841" lon="3.39144">
        <ele>262.5</ele>
        <time>2016-05-24T14:17:55Z</time>
      </trkpt>
      <trkpt lat="43.58405" lon="3.39152">
        <ele>263.2</ele>
        <time>2016-05-24T14:17:59Z</time>
      </trkpt>
      <trkpt lat="43.584" lon="3.39161">
        <ele>263.9</ele>
        <time>2016-05-24T14:18:03Z</time>
      </trkpt>
      <trkpt lat="43.58396" lon="3.3917">
        <ele>265</ele>
        <time>2016-05-24T14:18:08Z</time>
      </trkpt>
      <trkpt lat="43.58392" lon="3.3918">
        <ele>265.6</ele>
        <time>2016-05-24T14:18:12Z</time>
      </trkpt>
      <trkpt lat="43.58389" lon="3.3919">
        <ele>266.1</ele>
        <time>2016-05-24T14:18:17Z</time>
      </trkpt>
      <trkpt lat="43.58384" lon="3.392">
        <ele>266.7</ele>
        <time>2016-05-24T14:18:21Z</time>
      </trkpt>
      <trkpt lat="43.58379" lon="3.39209">
        <ele>267.2</ele>
        <time>2016-05-24T14:18:24Z</time>
      </trkpt>
      <trkpt lat="43.58371" lon="3.39215">
        <ele>267.7</ele>
        <time>2016-05-24T14:18:28Z</time>
      </trkpt>
      <trkpt lat="43.58365" lon="3.39221">
        <ele>268</ele>
        <time>2016-05-24T14:18:32Z</time>
      </trkpt>
      <trkpt lat="43.58359" lon="3.39228">
        <ele>268.5</ele>
        <time>2016-05-24T14:18:36Z</time>
      </trkpt>
      <trkpt lat="43.58351" lon="3.39236">
        <ele>268.9</ele>
        <time>2016-05-24T14:18:40Z</time>
      </trkpt>
      <trkpt lat="43.58346" lon="3.39246">
        <ele>269.5</ele>
        <time>2016-05-24T14:18:44Z</time>
      </trkpt>
      <trkpt lat="43.5834" lon="3.39254">
        <ele>270</ele>
        <time>2016-05-24T14:18:48Z</time>
      </trkpt>
      <trkpt lat="43.58334" lon="3.39262">
        <ele>270.6</ele>
        <time>2016-05-24T14:18:52Z</time>
      </trkpt>
      <trkpt lat="43.58327" lon="3.39271">
        <ele>271</ele>
        <time>2016-05-24T14:18:56Z</time>
      </trkpt>
      <trkpt lat="43.58322" lon="3.39278">
        <ele>271.5</ele>
        <time>2016-05-24T14:19:00Z</time>
      </trkpt>
      <trkpt lat="43.58316" lon="3.39287">
        <ele>272</ele>
        <time>2016-05-24T14:19:04Z</time>
      </trkpt>
      <trkpt lat="43.58312" lon="3.39296">
        <ele>272.3</ele>
        <time>2016-05-24T14:19:08Z</time>
      </trkpt>
      <trkpt lat="43.58308" lon="3.39308">
        <ele>273</ele>
        <time>2016-05-24T14:19:13Z</time>
      </trkpt>
      <trkpt lat="43.58305" lon="3.39319">
        <ele>273.7</ele>
        <time>2016-05-24T14:19:17Z</time>
      </trkpt>
      <trkpt lat="43.58303" lon="3.39329">
        <ele>274.2</ele>
        <time>2016-05-24T14:19:21Z</time>
      </trkpt>
      <trkpt lat="43.583" lon="3.3934">
        <ele>274.7</ele>
        <time>2016-05-24T14:19:25Z</time>
      </trkpt>
      <trkpt lat="43.58295" lon="3.39351">
        <ele>275</ele>
        <time>2016-05-24T14:19:29Z</time>
      </trkpt>
      <trkpt lat="43.58288" lon="3.3936">
        <ele>275.6</ele>
        <time>2016-05-24T14:19:33Z</time>
      </trkpt>
      <trkpt lat="43.58283" lon="3.39367">
        <ele>276.4</ele>
        <time>2016-05-24T14:19:38Z</time>
      </trkpt>
      <trkpt lat="43.58288" lon="3.39372">
        <ele>277.5</ele>
        <time>2016-05-24T14:19:45Z</time>
      </trkpt>
      <trkpt lat="43.58295" lon="3.39377">
        <ele>278.3</ele>
        <time>2016-05-24T14:19:49Z</time>
      </trkpt>
      <trkpt lat="43.58303" lon="3.39382">
        <ele>278.9</ele>
        <time>2016-05-24T14:19:54Z</time>
      </trkpt>
      <trkpt lat="43.58309" lon="3.3939">
        <ele>279.8</ele>
        <time>2016-05-24T14:19:59Z</time>
      </trkpt>
      <trkpt lat="43.58316" lon="3.39395">
        <ele>280.6</ele>
        <time>2016-05-24T14:20:04Z</time>
      </trkpt>
      <trkpt lat="43.58321" lon="3.39403">
        <ele>281.5</ele>
        <time>2016-05-24T14:20:08Z</time>
      </trkpt>
      <trkpt lat="43.58327" lon="3.39409">
        <ele>282.5</ele>
        <time>2016-05-24T14:20:12Z</time>
      </trkpt>
      <trkpt lat="43.58334" lon="3.39417">
        <ele>283.2</ele>
        <time>2016-05-24T14:20:16Z</time>
      </trkpt>
      <trkpt lat="43.58342" lon="3.39424">
        <ele>283.6</ele>
        <time>2016-05-24T14:20:20Z</time>
      </trkpt>
      <trkpt lat="43.58349" lon="3.3943">
        <ele>283.8</ele>
        <time>2016-05-24T14:20:24Z</time>
      </trkpt>
      <trkpt lat="43.58354" lon="3.3944">
        <ele>284.2</ele>
        <time>2016-05-24T14:20:28Z</time>
      </trkpt>
      <trkpt lat="43.58359" lon="3.39451">
        <ele>284.6</ele>
        <time>2016-05-24T14:20:32Z</time>
      </trkpt>
      <trkpt lat="43.58361" lon="3.3946">
        <ele>284.9</ele>
        <time>2016-05-24T14:20:35Z</time>
      </trkpt>
      <trkpt lat="43.58364" lon="3.3947">
        <ele>285.5</ele>
        <time>2016-05-24T14:20:39Z</time>
      </trkpt>
      <trkpt lat="43.58368" lon="3.39482">
        <ele>286</ele>
        <time>2016-05-24T14:20:43Z</time>
      </trkpt>
      <trkpt lat="43.58373" lon="3.39492">
        <ele>286.2</ele>
        <time>2016-05-24T14:20:47Z</time>
      </trkpt>
      <trkpt lat="43.58375" lon="3.39503">
        <ele>286.5</ele>
        <time>2016-05-24T14:20:50Z</time>
      </trkpt>
      <trkpt lat="43.58377" lon="3.39514">
        <ele>286.7</ele>
        <time>2016-05-24T14:20:53Z</time>
      </trkpt>
      <trkpt lat="43.5838" lon="3.39524">
        <ele>287.1</ele>
        <time>2016-05-24T14:20:57Z</time>
      </trkpt>
      <trkpt lat="43.58383" lon="3.39533">
        <ele>287.6</ele>
        <time>2016-05-24T14:21:02Z</time>
      </trkpt>
      <trkpt lat="43.58388" lon="3.39541">
        <ele>288</ele>
        <time>2016-05-24T14:21:06Z</time>
      </trkpt>
      <trkpt lat="43.58394" lon="3.39549">
        <ele>289.1</ele>
        <time>2016-05-24T14:21:11Z</time>
      </trkpt>
      <trkpt lat="43.58399" lon="3.3956">
        <ele>290.1</ele>
        <time>2016-05-24T14:21:16Z</time>
      </trkpt>
      <trkpt lat="43.58399" lon="3.3957">
        <ele>290.9</ele>
        <time>2016-05-24T14:21:20Z</time>
      </trkpt>
      <trkpt lat="43.58399" lon="3.3958">
        <ele>291.6</ele>
        <time>2016-05-24T14:21:24Z</time>
      </trkpt>
      <trkpt lat="43.58394" lon="3.39588">
        <ele>292.3</ele>
        <time>2016-05-24T14:21:29Z</time>
      </trkpt>
      <trkpt lat="43.58387" lon="3.39596">
        <ele>293</ele>
        <time>2016-05-24T14:21:34Z</time>
      </trkpt>
      <trkpt lat="43.58381" lon="3.39602">
        <ele>293.7</ele>
        <time>2016-05-24T14:21:39Z</time>
      </trkpt>
      <trkpt lat="43.58377" lon="3.39611">
        <ele>294.2</ele>
        <time>2016-05-24T14:21:44Z</time>
      </trkpt>
      <trkpt lat="43.58372" lon="3.39621">
        <ele>295.3</ele>
        <time>2016-05-24T14:21:49Z</time>
      </trkpt>
      <trkpt lat="43.58371" lon="3.39631">
        <ele>296.5</ele>
        <time>2016-05-24T14:21:56Z</time>
      </trkpt>
      <trkpt lat="43.58372" lon="3.39642">
        <ele>297.5</ele>
        <time>2016-05-24T14:22:02Z</time>
      </trkpt>
      <trkpt lat="43.58373" lon="3.39654">
        <ele>298.2</ele>
        <time>2016-05-24T14:22:08Z</time>
      </trkpt>
      <trkpt lat="43.58376" lon="3.39667">
        <ele>298.8</ele>
        <time>2016-05-24T14:22:13Z</time>
      </trkpt>
      <trkpt lat="43.58377" lon="3.39679">
        <ele>299.6</ele>
        <time>2016-05-24T14:22:18Z</time>
      </trkpt>
      <trkpt lat="43.58377" lon="3.39689">
        <ele>300</ele>
        <time>2016-05-24T14:22:21Z</time>
      </trkpt>
      <trkpt lat="43.58379" lon="3.397">
        <ele>300.3</ele>
        <time>2016-05-24T14:22:26Z</time>
      </trkpt>
      <trkpt lat="43.5838" lon="3.39711">
        <ele>301</ele>
        <time>2016-05-24T14:22:31Z</time>
      </trkpt>
      <trkpt lat="43.58378" lon="3.39722">
        <ele>301.5</ele>
        <time>2016-05-24T14:22:34Z</time>
      </trkpt>
      <trkpt lat="43.58377" lon="3.39732">
        <ele>302.3</ele>
        <time>2016-05-24T14:22:38Z</time>
      </trkpt>
      <trkpt lat="43.58378" lon="3.39743">
        <ele>303.4</ele>
        <time>2016-05-24T14:22:43Z</time>
      </trkpt>
      <trkpt lat="43.58383" lon="3.39751">
        <ele>304.3</ele>
        <time>2016-05-24T14:22:49Z</time>
      </trkpt>
      <trkpt lat="43.58389" lon="3.39759">
        <ele>305.1</ele>
        <time>2016-05-24T14:22:55Z</time>
      </trkpt>
      <trkpt lat="43.58395" lon="3.39766">
        <ele>306.3</ele>
        <time>2016-05-24T14:23:01Z</time>
      </trkpt>
      <trkpt lat="43.58403" lon="3.39772">
        <ele>307.6</ele>
        <time>2016-05-24T14:23:06Z</time>
      </trkpt>
      <trkpt lat="43.58411" lon="3.39779">
        <ele>308.3</ele>
        <time>2016-05-24T14:23:10Z</time>
      </trkpt>
      <trkpt lat="43.58418" lon="3.39785">
        <ele>308.9</ele>
        <time>2016-05-24T14:23:15Z</time>
      </trkpt>
      <trkpt lat="43.58426" lon="3.3979">
        <ele>309.6</ele>
        <time>2016-05-24T14:23:20Z</time>
      </trkpt>
      <trkpt lat="43.58433" lon="3.39797">
        <ele>310.5</ele>
        <time>2016-05-24T14:23:25Z</time>
      </trkpt>
      <trkpt lat="43.58437" lon="3.39806">
        <ele>310.8</ele>
        <time>2016-05-24T14:23:28Z</time>
      </trkpt>
      <trkpt lat="43.58437" lon="3.39816">
        <ele>311.3</ele>
        <time>2016-05-24T14:23:32Z</time>
      </trkpt>
      <trkpt lat="43.58432" lon="3.39826">
        <ele>311.8</ele>
        <time>2016-05-24T14:23:36Z</time>
      </trkpt>
      <trkpt lat="43.58429" lon="3.39835">
        <ele>312.6</ele>
        <time>2016-05-24T14:23:41Z</time>
      </trkpt>
      <trkpt lat="43.58424" lon="3.39844">
        <ele>313.3</ele>
        <time>2016-05-24T14:23:46Z</time>
      </trkpt>
      <trkpt lat="43.5842" lon="3.39853">
        <ele>313.8</ele>
        <time>2016-05-24T14:23:51Z</time>
      </trkpt>
      <trkpt lat="43.58417" lon="3.39864">
        <ele>314.5</ele>
        <time>2016-05-24T14:23:57Z</time>
      </trkpt>
      <trkpt lat="43.58411" lon="3.39874">
        <ele>315.7</ele>
        <time>2016-05-24T14:24:02Z</time>
      </trkpt>
      <trkpt lat="43.58407" lon="3.39885">
        <ele>316.9</ele>
        <time>2016-05-24T14:24:08Z</time>
      </trkpt>
      <trkpt lat="43.58403" lon="3.39893">
        <ele>317.7</ele>
        <time>2016-05-24T14:24:13Z</time>
      </trkpt>
      <trkpt lat="43.584" lon="3.39903">
        <ele>318.8</ele>
        <time>2016-05-24T14:24:18Z</time>
      </trkpt>
      <trkpt lat="43.58397" lon="3.39913">
        <ele>319.2</ele>
        <time>2016-05-24T14:24:21Z</time>
      </trkpt>
      <trkpt lat="43.584" lon="3.39923">
        <ele>319.7</ele>
        <time>2016-05-24T14:24:25Z</time>
      </trkpt>
      <trkpt lat="43.58405" lon="3.39932">
        <ele>320.2</ele>
        <time>2016-05-24T14:24:29Z</time>
      </trkpt>
      <trkpt lat="43.58412" lon="3.39933">
        <ele>321.3</ele>
        <time>2016-05-24T14:24:35Z</time>
      </trkpt>
      <trkpt lat="43.5842" lon="3.39931">
        <ele>322.5</ele>
        <time>2016-05-24T14:24:42Z</time>
      </trkpt>
      <trkpt lat="43.58428" lon="3.39928">
        <ele>323.3</ele>
        <time>2016-05-24T14:24:47Z</time>
      </trkpt>
      <trkpt lat="43.58435" lon="3.39926">
        <ele>324</ele>
        <time>2016-05-24T14:24:51Z</time>
      </trkpt>
      <trkpt lat="43.58444" lon="3.39924">
        <ele>324.9</ele>
        <time>2016-05-24T14:24:56Z</time>
      </trkpt>
      <trkpt lat="43.58452" lon="3.39923">
        <ele>325.7</ele>
        <time>2016-05-24T14:25:00Z</time>
      </trkpt>
      <trkpt lat="43.58459" lon="3.39923">
        <ele>326.3</ele>
        <time>2016-05-24T14:25:04Z</time>
      </trkpt>
      <trkpt lat="43.58467" lon="3.39924">
        <ele>327.2</ele>
        <time>2016-05-24T14:25:09Z</time>
      </trkpt>
      <trkpt lat="43.58475" lon="3.39926">
        <ele>327.8</ele>
        <time>2016-05-24T14:25:13Z</time>
      </trkpt>
      <trkpt lat="43.58483" lon="3.39925">
        <ele>328.4</ele>
        <time>2016-05-24T14:25:17Z</time>
      </trkpt>
      <trkpt lat="43.58493" lon="3.39923">
        <ele>329.1</ele>
        <time>2016-05-24T14:25:21Z</time>
      </trkpt>
      <trkpt lat="43.58503" lon="3.3992">
        <ele>329.6</ele>
        <time>2016-05-24T14:25:24Z</time>
      </trkpt>
      <trkpt lat="43.5851" lon="3.39917">
        <ele>329.8</ele>
        <time>2016-05-24T14:25:26Z</time>
      </trkpt>
      <trkpt lat="43.58519" lon="3.39914">
        <ele>330</ele>
        <time>2016-05-24T14:25:29Z</time>
      </trkpt>
      <trkpt lat="43.58527" lon="3.39913">
        <ele>330.2</ele>
        <time>2016-05-24T14:25:31Z</time>
      </trkpt>
      <trkpt lat="43.58535" lon="3.39911">
        <ele>330</ele>
        <time>2016-05-24T14:25:33Z</time>
      </trkpt>
      <trkpt lat="43.58543" lon="3.39907">
        <ele>329.2</ele>
        <time>2016-05-24T14:25:35Z</time>
      </trkpt>
      <trkpt lat="43.58551" lon="3.39903">
        <ele>329.1</ele>
        <time>2016-05-24T14:25:37Z</time>
      </trkpt>
      <trkpt lat="43.58558" lon="3.39898">
        <ele>329</ele>
        <time>2016-05-24T14:25:39Z</time>
      </trkpt>
      <trkpt lat="43.58567" lon="3.39892">
        <ele>328.9</ele>
        <time>2016-05-24T14:25:42Z</time>
      </trkpt>
      <trkpt lat="43.58577" lon="3.39885">
        <ele>329.5</ele>
        <time>2016-05-24T14:25:45Z</time>
      </trkpt>
      <trkpt lat="43.58584" lon="3.39878">
        <ele>329.8</ele>
        <time>2016-05-24T14:25:47Z</time>
      </trkpt>
      <trkpt lat="43.58592" lon="3.3987">
        <ele>329.7</ele>
        <time>2016-05-24T14:25:49Z</time>
      </trkpt>
      <trkpt lat="43.586" lon="3.39863">
        <ele>329.3</ele>
        <time>2016-05-24T14:25:51Z</time>
      </trkpt>
      <trkpt lat="43.58611" lon="3.39854">
        <ele>330</ele>
        <time>2016-05-24T14:25:53Z</time>
      </trkpt>
      <trkpt lat="43.58619" lon="3.39848">
        <ele>330.4</ele>
        <time>2016-05-24T14:25:54Z</time>
      </trkpt>
      <trkpt lat="43.58627" lon="3.39843">
        <ele>330.8</ele>
        <time>2016-05-24T14:25:55Z</time>
      </trkpt>
      <trkpt lat="43.58635" lon="3.39841">
        <ele>330.8</ele>
        <time>2016-05-24T14:25:56Z</time>
      </trkpt>
      <trkpt lat="43.58644" lon="3.39838">
        <ele>331.2</ele>
        <time>2016-05-24T14:25:57Z</time>
      </trkpt>
      <trkpt lat="43.58654" lon="3.39837">
        <ele>331.7</ele>
        <time>2016-05-24T14:25:58Z</time>
      </trkpt>
      <trkpt lat="43.58662" lon="3.39835">
        <ele>332.2</ele>
        <time>2016-05-24T14:25:59Z</time>
      </trkpt>
      <trkpt lat="43.58672" lon="3.39833">
        <ele>331.7</ele>
        <time>2016-05-24T14:26:00Z</time>
      </trkpt>
      <trkpt lat="43.58682" lon="3.39831">
        <ele>330.6</ele>
        <time>2016-05-24T14:26:01Z</time>
      </trkpt>
      <trkpt lat="43.58692" lon="3.39831">
        <ele>329.3</ele>
        <time>2016-05-24T14:26:02Z</time>
      </trkpt>
      <trkpt lat="43.587" lon="3.39831">
        <ele>328.7</ele>
        <time>2016-05-24T14:26:03Z</time>
      </trkpt>
      <trkpt lat="43.58708" lon="3.39831">
        <ele>328.8</ele>
        <time>2016-05-24T14:26:04Z</time>
      </trkpt>
      <trkpt lat="43.58717" lon="3.39832">
        <ele>329.4</ele>
        <time>2016-05-24T14:26:05Z</time>
      </trkpt>
      <trkpt lat="43.58724" lon="3.39833">
        <ele>330.3</ele>
        <time>2016-05-24T14:26:06Z</time>
      </trkpt>
      <trkpt lat="43.58733" lon="3.39835">
        <ele>330</ele>
        <time>2016-05-24T14:26:07Z</time>
      </trkpt>
      <trkpt lat="43.58742" lon="3.39836">
        <ele>330</ele>
        <time>2016-05-24T14:26:08Z</time>
      </trkpt>
      <trkpt lat="43.5875" lon="3.39837">
        <ele>330.2</ele>
        <time>2016-05-24T14:26:09Z</time>
      </trkpt>
      <trkpt lat="43.58758" lon="3.39838">
        <ele>329.8</ele>
        <time>2016-05-24T14:26:10Z</time>
      </trkpt>
      <trkpt lat="43.58767" lon="3.39838">
        <ele>329.3</ele>
        <time>2016-05-24T14:26:11Z</time>
      </trkpt>
      <trkpt lat="43.58775" lon="3.39838">
        <ele>329.9</ele>
        <time>2016-05-24T14:26:12Z</time>
      </trkpt>
      <trkpt lat="43.58787" lon="3.39837">
        <ele>330.7</ele>
        <time>2016-05-24T14:26:14Z</time>
      </trkpt>
      <trkpt lat="43.58801" lon="3.39835">
        <ele>331</ele>
        <time>2016-05-24T14:26:16Z</time>
      </trkpt>
      <trkpt lat="43.58812" lon="3.39834">
        <ele>331</ele>
        <time>2016-05-24T14:26:18Z</time>
      </trkpt>
      <trkpt lat="43.58824" lon="3.39834">
        <ele>331.2</ele>
        <time>2016-05-24T14:26:20Z</time>
      </trkpt>
      <trkpt lat="43.58835" lon="3.39834">
        <ele>332.2</ele>
        <time>2016-05-24T14:26:22Z</time>
      </trkpt>
      <trkpt lat="43.58847" lon="3.39833">
        <ele>331.7</ele>
        <time>2016-05-24T14:26:24Z</time>
      </trkpt>
      <trkpt lat="43.58859" lon="3.39831">
        <ele>331</ele>
        <time>2016-05-24T14:26:26Z</time>
      </trkpt>
      <trkpt lat="43.58871" lon="3.39828">
        <ele>331.9</ele>
        <time>2016-05-24T14:26:28Z</time>
      </trkpt>
      <trkpt lat="43.58883" lon="3.39823">
        <ele>331.8</ele>
        <time>2016-05-24T14:26:30Z</time>
      </trkpt>
      <trkpt lat="43.58894" lon="3.3982">
        <ele>332.2</ele>
        <time>2016-05-24T14:26:32Z</time>
      </trkpt>
      <trkpt lat="43.58905" lon="3.39815">
        <ele>332.6</ele>
        <time>2016-05-24T14:26:34Z</time>
      </trkpt>
      <trkpt lat="43.58916" lon="3.3981">
        <ele>332.1</ele>
        <time>2016-05-24T14:26:36Z</time>
      </trkpt>
      <trkpt lat="43.58928" lon="3.39806">
        <ele>331.6</ele>
        <time>2016-05-24T14:26:38Z</time>
      </trkpt>
      <trkpt lat="43.58939" lon="3.39804">
        <ele>331.1</ele>
        <time>2016-05-24T14:26:40Z</time>
      </trkpt>
      <trkpt lat="43.58949" lon="3.39804">
        <ele>331.5</ele>
        <time>2016-05-24T14:26:42Z</time>
      </trkpt>
      <trkpt lat="43.58959" lon="3.39804">
        <ele>331.5</ele>
        <time>2016-05-24T14:26:44Z</time>
      </trkpt>
      <trkpt lat="43.58971" lon="3.39804">
        <ele>331.7</ele>
        <time>2016-05-24T14:26:46Z</time>
      </trkpt>
      <trkpt lat="43.58979" lon="3.39809">
        <ele>332.7</ele>
        <time>2016-05-24T14:26:48Z</time>
      </trkpt>
      <trkpt lat="43.58985" lon="3.39818">
        <ele>334.3</ele>
        <time>2016-05-24T14:26:50Z</time>
      </trkpt>
      <trkpt lat="43.5899" lon="3.3983">
        <ele>334</ele>
        <time>2016-05-24T14:26:52Z</time>
      </trkpt>
      <trkpt lat="43.58999" lon="3.3984">
        <ele>333.7</ele>
        <time>2016-05-24T14:26:54Z</time>
      </trkpt>
      <trkpt lat="43.59007" lon="3.39847">
        <ele>333.8</ele>
        <time>2016-05-24T14:26:56Z</time>
      </trkpt>
      <trkpt lat="43.59016" lon="3.39851">
        <ele>333.5</ele>
        <time>2016-05-24T14:26:58Z</time>
      </trkpt>
      <trkpt lat="43.59024" lon="3.39855">
        <ele>333</ele>
        <time>2016-05-24T14:27:00Z</time>
      </trkpt>
      <trkpt lat="43.59032" lon="3.3986">
        <ele>332.2</ele>
        <time>2016-05-24T14:27:02Z</time>
      </trkpt>
      <trkpt lat="43.59039" lon="3.39866">
        <ele>331.1</ele>
        <time>2016-05-24T14:27:04Z</time>
      </trkpt>
      <trkpt lat="43.59047" lon="3.3987">
        <ele>331.1</ele>
        <time>2016-05-24T14:27:07Z</time>
      </trkpt>
      <trkpt lat="43.59048" lon="3.39882">
        <ele>331</ele>
        <time>2016-05-24T14:27:10Z</time>
      </trkpt>
      <trkpt lat="43.59041" lon="3.3989">
        <ele>330.8</ele>
        <time>2016-05-24T14:27:13Z</time>
      </trkpt>
      <trkpt lat="43.59033" lon="3.399">
        <ele>330.6</ele>
        <time>2016-05-24T14:27:16Z</time>
      </trkpt>
      <trkpt lat="43.59028" lon="3.39909">
        <ele>330.6</ele>
        <time>2016-05-24T14:27:18Z</time>
      </trkpt>
      <trkpt lat="43.59024" lon="3.3992">
        <ele>330.5</ele>
        <time>2016-05-24T14:27:20Z</time>
      </trkpt>
      <trkpt lat="43.59014" lon="3.39933">
        <ele>328.6</ele>
        <time>2016-05-24T14:27:22Z</time>
      </trkpt>
      <trkpt lat="43.59006" lon="3.39945">
        <ele>326.7</ele>
        <time>2016-05-24T14:27:24Z</time>
      </trkpt>
      <trkpt lat="43.58997" lon="3.39955">
        <ele>325.5</ele>
        <time>2016-05-24T14:27:26Z</time>
      </trkpt>
      <trkpt lat="43.58988" lon="3.39963">
        <ele>324.7</ele>
        <time>2016-05-24T14:27:28Z</time>
      </trkpt>
      <trkpt lat="43.58979" lon="3.3997">
        <ele>324.3</ele>
        <time>2016-05-24T14:27:30Z</time>
      </trkpt>
      <trkpt lat="43.58968" lon="3.39977">
        <ele>323.8</ele>
        <time>2016-05-24T14:27:32Z</time>
      </trkpt>
      <trkpt lat="43.5896" lon="3.39986">
        <ele>324.1</ele>
        <time>2016-05-24T14:27:34Z</time>
      </trkpt>
      <trkpt lat="43.58952" lon="3.39995">
        <ele>323.3</ele>
        <time>2016-05-24T14:27:36Z</time>
      </trkpt>
      <trkpt lat="43.58943" lon="3.40003">
        <ele>323.1</ele>
        <time>2016-05-24T14:27:38Z</time>
      </trkpt>
      <trkpt lat="43.58936" lon="3.40011">
        <ele>322.5</ele>
        <time>2016-05-24T14:27:40Z</time>
      </trkpt>
      <trkpt lat="43.58932" lon="3.40021">
        <ele>321.6</ele>
        <time>2016-05-24T14:27:42Z</time>
      </trkpt>
      <trkpt lat="43.58927" lon="3.40033">
        <ele>321.2</ele>
        <time>2016-05-24T14:27:44Z</time>
      </trkpt>
      <trkpt lat="43.58921" lon="3.40045">
        <ele>320.6</ele>
        <time>2016-05-24T14:27:46Z</time>
      </trkpt>
      <trkpt lat="43.58914" lon="3.40057">
        <ele>320.3</ele>
        <time>2016-05-24T14:27:48Z</time>
      </trkpt>
      <trkpt lat="43.58909" lon="3.40068">
        <ele>320</ele>
        <time>2016-05-24T14:27:50Z</time>
      </trkpt>
      <trkpt lat="43.58904" lon="3.40081">
        <ele>318.8</ele>
        <time>2016-05-24T14:27:52Z</time>
      </trkpt>
      <trkpt lat="43.58899" lon="3.40091">
        <ele>318.1</ele>
        <time>2016-05-24T14:27:55Z</time>
      </trkpt>
      <trkpt lat="43.58894" lon="3.40104">
        <ele>318.2</ele>
        <time>2016-05-24T14:27:58Z</time>
      </trkpt>
      <trkpt lat="43.5889" lon="3.40117">
        <ele>318.4</ele>
        <time>2016-05-24T14:28:01Z</time>
      </trkpt>
      <trkpt lat="43.58889" lon="3.40128">
        <ele>318.5</ele>
        <time>2016-05-24T14:28:03Z</time>
      </trkpt>
      <trkpt lat="43.58886" lon="3.40141">
        <ele>318.5</ele>
        <time>2016-05-24T14:28:06Z</time>
      </trkpt>
      <trkpt lat="43.58883" lon="3.40155">
        <ele>318.5</ele>
        <time>2016-05-24T14:28:09Z</time>
      </trkpt>
      <trkpt lat="43.58881" lon="3.40166">
        <ele>318.4</ele>
        <time>2016-05-24T14:28:11Z</time>
      </trkpt>
      <trkpt lat="43.58877" lon="3.40177">
        <ele>318.6</ele>
        <time>2016-05-24T14:28:13Z</time>
      </trkpt>
      <trkpt lat="43.58873" lon="3.40186">
        <ele>318.6</ele>
        <time>2016-05-24T14:28:15Z</time>
      </trkpt>
      <trkpt lat="43.58867" lon="3.40197">
        <ele>318.8</ele>
        <time>2016-05-24T14:28:19Z</time>
      </trkpt>
      <trkpt lat="43.58863" lon="3.40205">
        <ele>319</ele>
        <time>2016-05-24T14:28:23Z</time>
      </trkpt>
      <trkpt lat="43.58859" lon="3.40217">
        <ele>319</ele>
        <time>2016-05-24T14:28:27Z</time>
      </trkpt>
      <trkpt lat="43.58857" lon="3.40227">
        <ele>318.8</ele>
        <time>2016-05-24T14:28:29Z</time>
      </trkpt>
      <trkpt lat="43.58855" lon="3.40238">
        <ele>318.6</ele>
        <time>2016-05-24T14:28:32Z</time>
      </trkpt>
      <trkpt lat="43.58853" lon="3.40251">
        <ele>318.6</ele>
        <time>2016-05-24T14:28:35Z</time>
      </trkpt>
      <trkpt lat="43.58851" lon="3.40262">
        <ele>318.9</ele>
        <time>2016-05-24T14:28:37Z</time>
      </trkpt>
      <trkpt lat="43.58846" lon="3.40274">
        <ele>318.9</ele>
        <time>2016-05-24T14:28:39Z</time>
      </trkpt>
      <trkpt lat="43.58842" lon="3.40283">
        <ele>318.2</ele>
        <time>2016-05-24T14:28:41Z</time>
      </trkpt>
      <trkpt lat="43.58836" lon="3.40294">
        <ele>318.7</ele>
        <time>2016-05-24T14:28:43Z</time>
      </trkpt>
      <trkpt lat="43.58831" lon="3.40306">
        <ele>319.1</ele>
        <time>2016-05-24T14:28:45Z</time>
      </trkpt>
      <trkpt lat="43.58828" lon="3.40316">
        <ele>319.4</ele>
        <time>2016-05-24T14:28:46Z</time>
      </trkpt>
      <trkpt lat="43.58825" lon="3.40325">
        <ele>319.5</ele>
        <time>2016-05-24T14:28:47Z</time>
      </trkpt>
      <trkpt lat="43.58822" lon="3.40335">
        <ele>319.7</ele>
        <time>2016-05-24T14:28:48Z</time>
      </trkpt>
      <trkpt lat="43.5882" lon="3.40344">
        <ele>319.6</ele>
        <time>2016-05-24T14:28:49Z</time>
      </trkpt>
      <trkpt lat="43.58817" lon="3.40354">
        <ele>319.4</ele>
        <time>2016-05-24T14:28:50Z</time>
      </trkpt>
      <trkpt lat="43.58815" lon="3.40364">
        <ele>318.8</ele>
        <time>2016-05-24T14:28:51Z</time>
      </trkpt>
      <trkpt lat="43.58813" lon="3.40375">
        <ele>317.9</ele>
        <time>2016-05-24T14:28:52Z</time>
      </trkpt>
      <trkpt lat="43.58811" lon="3.40387">
        <ele>317</ele>
        <time>2016-05-24T14:28:53Z</time>
      </trkpt>
      <trkpt lat="43.5881" lon="3.40401">
        <ele>316.1</ele>
        <time>2016-05-24T14:28:54Z</time>
      </trkpt>
      <trkpt lat="43.58808" lon="3.40414">
        <ele>315.1</ele>
        <time>2016-05-24T14:28:55Z</time>
      </trkpt>
      <trkpt lat="43.58806" lon="3.40427">
        <ele>313.8</ele>
        <time>2016-05-24T14:28:56Z</time>
      </trkpt>
      <trkpt lat="43.58805" lon="3.40442">
        <ele>312.5</ele>
        <time>2016-05-24T14:28:57Z</time>
      </trkpt>
      <trkpt lat="43.58803" lon="3.40457">
        <ele>311.8</ele>
        <time>2016-05-24T14:28:58Z</time>
      </trkpt>
      <trkpt lat="43.58802" lon="3.40471">
        <ele>310.4</ele>
        <time>2016-05-24T14:28:59Z</time>
      </trkpt>
      <trkpt lat="43.588" lon="3.40485">
        <ele>309.5</ele>
        <time>2016-05-24T14:29:00Z</time>
      </trkpt>
      <trkpt lat="43.58799" lon="3.40499">
        <ele>308.6</ele>
        <time>2016-05-24T14:29:01Z</time>
      </trkpt>
      <trkpt lat="43.58797" lon="3.40513">
        <ele>307.3</ele>
        <time>2016-05-24T14:29:02Z</time>
      </trkpt>
      <trkpt lat="43.58796" lon="3.40528">
        <ele>306.2</ele>
        <time>2016-05-24T14:29:03Z</time>
      </trkpt>
      <trkpt lat="43.58793" lon="3.40541">
        <ele>305.4</ele>
        <time>2016-05-24T14:29:04Z</time>
      </trkpt>
      <trkpt lat="43.58789" lon="3.40553">
        <ele>304.5</ele>
        <time>2016-05-24T14:29:05Z</time>
      </trkpt>
      <trkpt lat="43.58784" lon="3.40566">
        <ele>303.6</ele>
        <time>2016-05-24T14:29:06Z</time>
      </trkpt>
      <trkpt lat="43.58779" lon="3.40575">
        <ele>302.5</ele>
        <time>2016-05-24T14:29:07Z</time>
      </trkpt>
      <trkpt lat="43.58776" lon="3.40586">
        <ele>301</ele>
        <time>2016-05-24T14:29:09Z</time>
      </trkpt>
      <trkpt lat="43.58774" lon="3.40597">
        <ele>298.6</ele>
        <time>2016-05-24T14:29:11Z</time>
      </trkpt>
      <trkpt lat="43.58779" lon="3.40609">
        <ele>296.3</ele>
        <time>2016-05-24T14:29:13Z</time>
      </trkpt>
      <trkpt lat="43.58781" lon="3.40619">
        <ele>295.8</ele>
        <time>2016-05-24T14:29:14Z</time>
      </trkpt>
      <trkpt lat="43.58785" lon="3.40639">
        <ele>294.2</ele>
        <time>2016-05-24T14:29:16Z</time>
      </trkpt>
      <trkpt lat="43.58786" lon="3.40651">
        <ele>293.4</ele>
        <time>2016-05-24T14:29:17Z</time>
      </trkpt>
      <trkpt lat="43.58787" lon="3.40662">
        <ele>292.7</ele>
        <time>2016-05-24T14:29:18Z</time>
      </trkpt>
      <trkpt lat="43.58795" lon="3.40681">
        <ele>290.6</ele>
        <time>2016-05-24T14:29:20Z</time>
      </trkpt>
      <trkpt lat="43.58801" lon="3.40692">
        <ele>289.2</ele>
        <time>2016-05-24T14:29:21Z</time>
      </trkpt>
      <trkpt lat="43.58808" lon="3.40702">
        <ele>288.1</ele>
        <time>2016-05-24T14:29:22Z</time>
      </trkpt>
      <trkpt lat="43.58816" lon="3.40713">
        <ele>287.1</ele>
        <time>2016-05-24T14:29:23Z</time>
      </trkpt>
      <trkpt lat="43.58823" lon="3.40725">
        <ele>286.1</ele>
        <time>2016-05-24T14:29:24Z</time>
      </trkpt>
      <trkpt lat="43.58831" lon="3.40738">
        <ele>284.3</ele>
        <time>2016-05-24T14:29:25Z</time>
      </trkpt>
      <trkpt lat="43.58837" lon="3.4075">
        <ele>282.5</ele>
        <time>2016-05-24T14:29:26Z</time>
      </trkpt>
      <trkpt lat="43.58843" lon="3.40762">
        <ele>281</ele>
        <time>2016-05-24T14:29:27Z</time>
      </trkpt>
      <trkpt lat="43.58849" lon="3.40773">
        <ele>279.4</ele>
        <time>2016-05-24T14:29:28Z</time>
      </trkpt>
      <trkpt lat="43.58854" lon="3.40785">
        <ele>278.7</ele>
        <time>2016-05-24T14:29:29Z</time>
      </trkpt>
      <trkpt lat="43.58859" lon="3.40795">
        <ele>277.9</ele>
        <time>2016-05-24T14:29:30Z</time>
      </trkpt>
      <trkpt lat="43.58864" lon="3.40805">
        <ele>277.2</ele>
        <time>2016-05-24T14:29:31Z</time>
      </trkpt>
      <trkpt lat="43.58869" lon="3.40817">
        <ele>276.5</ele>
        <time>2016-05-24T14:29:32Z</time>
      </trkpt>
      <trkpt lat="43.58876" lon="3.40829">
        <ele>275.9</ele>
        <time>2016-05-24T14:29:33Z</time>
      </trkpt>
      <trkpt lat="43.58881" lon="3.40838">
        <ele>275.7</ele>
        <time>2016-05-24T14:29:34Z</time>
      </trkpt>
      <trkpt lat="43.58887" lon="3.40848">
        <ele>275.1</ele>
        <time>2016-05-24T14:29:35Z</time>
      </trkpt>
      <trkpt lat="43.58893" lon="3.40857">
        <ele>275</ele>
        <time>2016-05-24T14:29:36Z</time>
      </trkpt>
      <trkpt lat="43.58898" lon="3.40866">
        <ele>275.1</ele>
        <time>2016-05-24T14:29:37Z</time>
      </trkpt>
      <trkpt lat="43.58905" lon="3.40875">
        <ele>275.6</ele>
        <time>2016-05-24T14:29:38Z</time>
      </trkpt>
      <trkpt lat="43.58912" lon="3.40883">
        <ele>275.6</ele>
        <time>2016-05-24T14:29:39Z</time>
      </trkpt>
      <trkpt lat="43.58919" lon="3.40892">
        <ele>275.1</ele>
        <time>2016-05-24T14:29:40Z</time>
      </trkpt>
      <trkpt lat="43.58926" lon="3.40901">
        <ele>274.2</ele>
        <time>2016-05-24T14:29:41Z</time>
      </trkpt>
      <trkpt lat="43.58933" lon="3.40911">
        <ele>273.6</ele>
        <time>2016-05-24T14:29:42Z</time>
      </trkpt>
      <trkpt lat="43.5894" lon="3.4092">
        <ele>273.4</ele>
        <time>2016-05-24T14:29:43Z</time>
      </trkpt>
      <trkpt lat="43.58948" lon="3.4093">
        <ele>273</ele>
        <time>2016-05-24T14:29:44Z</time>
      </trkpt>
      <trkpt lat="43.58956" lon="3.4094">
        <ele>272</ele>
        <time>2016-05-24T14:29:45Z</time>
      </trkpt>
      <trkpt lat="43.58963" lon="3.4095">
        <ele>270.9</ele>
        <time>2016-05-24T14:29:46Z</time>
      </trkpt>
      <trkpt lat="43.58969" lon="3.4096">
        <ele>270.2</ele>
        <time>2016-05-24T14:29:47Z</time>
      </trkpt>
      <trkpt lat="43.58975" lon="3.4097">
        <ele>269.3</ele>
        <time>2016-05-24T14:29:48Z</time>
      </trkpt>
      <trkpt lat="43.58982" lon="3.40981">
        <ele>268.4</ele>
        <time>2016-05-24T14:29:49Z</time>
      </trkpt>
      <trkpt lat="43.58987" lon="3.40992">
        <ele>267.3</ele>
        <time>2016-05-24T14:29:50Z</time>
      </trkpt>
      <trkpt lat="43.5899" lon="3.41003">
        <ele>266.2</ele>
        <time>2016-05-24T14:29:51Z</time>
      </trkpt>
      <trkpt lat="43.58993" lon="3.41013">
        <ele>265.2</ele>
        <time>2016-05-24T14:29:52Z</time>
      </trkpt>
      <trkpt lat="43.58996" lon="3.41023">
        <ele>264.5</ele>
        <time>2016-05-24T14:29:53Z</time>
      </trkpt>
      <trkpt lat="43.58998" lon="3.41033">
        <ele>264</ele>
        <time>2016-05-24T14:29:54Z</time>
      </trkpt>
      <trkpt lat="43.59001" lon="3.41043">
        <ele>264</ele>
        <time>2016-05-24T14:29:55Z</time>
      </trkpt>
      <trkpt lat="43.59004" lon="3.41062">
        <ele>264</ele>
        <time>2016-05-24T14:29:57Z</time>
      </trkpt>
      <trkpt lat="43.59006" lon="3.41071">
        <ele>264.3</ele>
        <time>2016-05-24T14:29:58Z</time>
      </trkpt>
      <trkpt lat="43.59008" lon="3.41082">
        <ele>264.6</ele>
        <time>2016-05-24T14:29:59Z</time>
      </trkpt>
      <trkpt lat="43.5901" lon="3.41092">
        <ele>264.7</ele>
        <time>2016-05-24T14:30:00Z</time>
      </trkpt>
      <trkpt lat="43.59011" lon="3.41104">
        <ele>264.4</ele>
        <time>2016-05-24T14:30:01Z</time>
      </trkpt>
      <trkpt lat="43.59011" lon="3.41115">
        <ele>264</ele>
        <time>2016-05-24T14:30:02Z</time>
      </trkpt>
      <trkpt lat="43.5901" lon="3.41134">
        <ele>263.4</ele>
        <time>2016-05-24T14:30:04Z</time>
      </trkpt>
      <trkpt lat="43.5901" lon="3.41151">
        <ele>262.5</ele>
        <time>2016-05-24T14:30:06Z</time>
      </trkpt>
      <trkpt lat="43.5901" lon="3.41162">
        <ele>263.1</ele>
        <time>2016-05-24T14:30:07Z</time>
      </trkpt>
      <trkpt lat="43.5901" lon="3.41178">
        <ele>263.6</ele>
        <time>2016-05-24T14:30:09Z</time>
      </trkpt>
      <trkpt lat="43.59008" lon="3.41196">
        <ele>263.2</ele>
        <time>2016-05-24T14:30:11Z</time>
      </trkpt>
      <trkpt lat="43.59006" lon="3.41208">
        <ele>263.2</ele>
        <time>2016-05-24T14:30:13Z</time>
      </trkpt>
      <trkpt lat="43.59005" lon="3.41226">
        <ele>263.9</ele>
        <time>2016-05-24T14:30:15Z</time>
      </trkpt>
      <trkpt lat="43.59004" lon="3.41242">
        <ele>264</ele>
        <time>2016-05-24T14:30:17Z</time>
      </trkpt>
      <trkpt lat="43.59005" lon="3.41259">
        <ele>263.6</ele>
        <time>2016-05-24T14:30:19Z</time>
      </trkpt>
      <trkpt lat="43.59007" lon="3.41275">
        <ele>262.1</ele>
        <time>2016-05-24T14:30:21Z</time>
      </trkpt>
      <trkpt lat="43.59011" lon="3.41293">
        <ele>260.8</ele>
        <time>2016-05-24T14:30:23Z</time>
      </trkpt>
      <trkpt lat="43.59013" lon="3.41311">
        <ele>260.2</ele>
        <time>2016-05-24T14:30:25Z</time>
      </trkpt>
      <trkpt lat="43.59013" lon="3.41329">
        <ele>260.6</ele>
        <time>2016-05-24T14:30:27Z</time>
      </trkpt>
      <trkpt lat="43.59013" lon="3.41339">
        <ele>260.3</ele>
        <time>2016-05-24T14:30:28Z</time>
      </trkpt>
      <trkpt lat="43.59011" lon="3.41351">
        <ele>260.2</ele>
        <time>2016-05-24T14:30:29Z</time>
      </trkpt>
      <trkpt lat="43.59011" lon="3.41361">
        <ele>260.2</ele>
        <time>2016-05-24T14:30:30Z</time>
      </trkpt>
      <trkpt lat="43.59009" lon="3.41371">
        <ele>260.1</ele>
        <time>2016-05-24T14:30:31Z</time>
      </trkpt>
      <trkpt lat="43.59007" lon="3.4139">
        <ele>260</ele>
        <time>2016-05-24T14:30:33Z</time>
      </trkpt>
      <trkpt lat="43.59006" lon="3.41411">
        <ele>260.4</ele>
        <time>2016-05-24T14:30:35Z</time>
      </trkpt>
      <trkpt lat="43.59006" lon="3.41431">
        <ele>259.6</ele>
        <time>2016-05-24T14:30:37Z</time>
      </trkpt>
      <trkpt lat="43.59006" lon="3.41444">
        <ele>259</ele>
        <time>2016-05-24T14:30:38Z</time>
      </trkpt>
      <trkpt lat="43.59007" lon="3.41456">
        <ele>258.3</ele>
        <time>2016-05-24T14:30:39Z</time>
      </trkpt>
      <trkpt lat="43.59007" lon="3.41469">
        <ele>257.9</ele>
        <time>2016-05-24T14:30:40Z</time>
      </trkpt>
      <trkpt lat="43.59007" lon="3.41482">
        <ele>256.9</ele>
        <time>2016-05-24T14:30:41Z</time>
      </trkpt>
      <trkpt lat="43.59008" lon="3.41494">
        <ele>256.2</ele>
        <time>2016-05-24T14:30:42Z</time>
      </trkpt>
      <trkpt lat="43.59008" lon="3.41507">
        <ele>256.3</ele>
        <time>2016-05-24T14:30:43Z</time>
      </trkpt>
      <trkpt lat="43.59008" lon="3.4152">
        <ele>255.5</ele>
        <time>2016-05-24T14:30:44Z</time>
      </trkpt>
      <trkpt lat="43.59008" lon="3.41534">
        <ele>254.3</ele>
        <time>2016-05-24T14:30:45Z</time>
      </trkpt>
      <trkpt lat="43.59008" lon="3.41547">
        <ele>253.2</ele>
        <time>2016-05-24T14:30:46Z</time>
      </trkpt>
      <trkpt lat="43.59008" lon="3.41562">
        <ele>252.1</ele>
        <time>2016-05-24T14:30:47Z</time>
      </trkpt>
      <trkpt lat="43.59007" lon="3.41577">
        <ele>250.3</ele>
        <time>2016-05-24T14:30:48Z</time>
      </trkpt>
      <trkpt lat="43.59004" lon="3.41589">
        <ele>249.2</ele>
        <time>2016-05-24T14:30:49Z</time>
      </trkpt>
      <trkpt lat="43.59" lon="3.41602">
        <ele>248.4</ele>
        <time>2016-05-24T14:30:50Z</time>
      </trkpt>
      <trkpt lat="43.58997" lon="3.41615">
        <ele>247.9</ele>
        <time>2016-05-24T14:30:51Z</time>
      </trkpt>
      <trkpt lat="43.58994" lon="3.41628">
        <ele>248.3</ele>
        <time>2016-05-24T14:30:52Z</time>
      </trkpt>
      <trkpt lat="43.58991" lon="3.4164">
        <ele>247.6</ele>
        <time>2016-05-24T14:30:53Z</time>
      </trkpt>
      <trkpt lat="43.58988" lon="3.41653">
        <ele>247.1</ele>
        <time>2016-05-24T14:30:54Z</time>
      </trkpt>
      <trkpt lat="43.58988" lon="3.41669">
        <ele>246.1</ele>
        <time>2016-05-24T14:30:56Z</time>
      </trkpt>
      <trkpt lat="43.58997" lon="3.41668">
        <ele>244.9</ele>
        <time>2016-05-24T14:30:59Z</time>
      </trkpt>
      <trkpt lat="43.59001" lon="3.41658">
        <ele>241.6</ele>
        <time>2016-05-24T14:31:01Z</time>
      </trkpt>
      <trkpt lat="43.59009" lon="3.41648">
        <ele>238.5</ele>
        <time>2016-05-24T14:31:03Z</time>
      </trkpt>
      <trkpt lat="43.59015" lon="3.41636">
        <ele>237.6</ele>
        <time>2016-05-24T14:31:05Z</time>
      </trkpt>
      <trkpt lat="43.59023" lon="3.41622">
        <ele>237.7</ele>
        <time>2016-05-24T14:31:07Z</time>
      </trkpt>
      <trkpt lat="43.59033" lon="3.41633">
        <ele>235.9</ele>
        <time>2016-05-24T14:31:10Z</time>
      </trkpt>
      <trkpt lat="43.5903" lon="3.41645">
        <ele>233</ele>
        <time>2016-05-24T14:31:12Z</time>
      </trkpt>
      <trkpt lat="43.59026" lon="3.41656">
        <ele>232.2</ele>
        <time>2016-05-24T14:31:14Z</time>
      </trkpt>
      <trkpt lat="43.59022" lon="3.41674">
        <ele>232</ele>
        <time>2016-05-24T14:31:16Z</time>
      </trkpt>
      <trkpt lat="43.59019" lon="3.41684">
        <ele>232</ele>
        <time>2016-05-24T14:31:17Z</time>
      </trkpt>
      <trkpt lat="43.59016" lon="3.41695">
        <ele>231.8</ele>
        <time>2016-05-24T14:31:18Z</time>
      </trkpt>
      <trkpt lat="43.59013" lon="3.41706">
        <ele>232.1</ele>
        <time>2016-05-24T14:31:19Z</time>
      </trkpt>
      <trkpt lat="43.5901" lon="3.41717">
        <ele>232.3</ele>
        <time>2016-05-24T14:31:20Z</time>
      </trkpt>
      <trkpt lat="43.59004" lon="3.41727">
        <ele>232</ele>
        <time>2016-05-24T14:31:21Z</time>
      </trkpt>
      <trkpt lat="43.59" lon="3.41737">
        <ele>231.7</ele>
        <time>2016-05-24T14:31:22Z</time>
      </trkpt>
      <trkpt lat="43.58995" lon="3.41748">
        <ele>231.4</ele>
        <time>2016-05-24T14:31:23Z</time>
      </trkpt>
      <trkpt lat="43.5899" lon="3.4176">
        <ele>230.8</ele>
        <time>2016-05-24T14:31:24Z</time>
      </trkpt>
      <trkpt lat="43.58987" lon="3.41773">
        <ele>230.3</ele>
        <time>2016-05-24T14:31:25Z</time>
      </trkpt>
      <trkpt lat="43.58988" lon="3.41788">
        <ele>228.5</ele>
        <time>2016-05-24T14:31:26Z</time>
      </trkpt>
      <trkpt lat="43.58988" lon="3.41801">
        <ele>226.3</ele>
        <time>2016-05-24T14:31:27Z</time>
      </trkpt>
      <trkpt lat="43.58988" lon="3.41817">
        <ele>224.8</ele>
        <time>2016-05-24T14:31:28Z</time>
      </trkpt>
      <trkpt lat="43.58985" lon="3.41828">
        <ele>223.7</ele>
        <time>2016-05-24T14:31:29Z</time>
      </trkpt>
      <trkpt lat="43.58978" lon="3.41838">
        <ele>222.6</ele>
        <time>2016-05-24T14:31:30Z</time>
      </trkpt>
      <trkpt lat="43.58971" lon="3.41848">
        <ele>220.9</ele>
        <time>2016-05-24T14:31:31Z</time>
      </trkpt>
      <trkpt lat="43.58963" lon="3.41858">
        <ele>219.8</ele>
        <time>2016-05-24T14:31:32Z</time>
      </trkpt>
      <trkpt lat="43.58955" lon="3.41868">
        <ele>219</ele>
        <time>2016-05-24T14:31:33Z</time>
      </trkpt>
      <trkpt lat="43.58953" lon="3.4188">
        <ele>218.2</ele>
        <time>2016-05-24T14:31:34Z</time>
      </trkpt>
      <trkpt lat="43.58952" lon="3.41892">
        <ele>217.3</ele>
        <time>2016-05-24T14:31:35Z</time>
      </trkpt>
      <trkpt lat="43.5895" lon="3.41907">
        <ele>216.2</ele>
        <time>2016-05-24T14:31:36Z</time>
      </trkpt>
      <trkpt lat="43.58948" lon="3.41922">
        <ele>214.8</ele>
        <time>2016-05-24T14:31:37Z</time>
      </trkpt>
      <trkpt lat="43.58945" lon="3.41937">
        <ele>213.2</ele>
        <time>2016-05-24T14:31:38Z</time>
      </trkpt>
      <trkpt lat="43.58942" lon="3.4195">
        <ele>211.8</ele>
        <time>2016-05-24T14:31:39Z</time>
      </trkpt>
      <trkpt lat="43.58938" lon="3.41964">
        <ele>210.3</ele>
        <time>2016-05-24T14:31:40Z</time>
      </trkpt>
      <trkpt lat="43.58934" lon="3.41978">
        <ele>209.4</ele>
        <time>2016-05-24T14:31:41Z</time>
      </trkpt>
      <trkpt lat="43.58932" lon="3.4199">
        <ele>208.4</ele>
        <time>2016-05-24T14:31:42Z</time>
      </trkpt>
      <trkpt lat="43.58928" lon="3.42003">
        <ele>206.8</ele>
        <time>2016-05-24T14:31:44Z</time>
      </trkpt>
      <trkpt lat="43.58935" lon="3.42009">
        <ele>206.6</ele>
        <time>2016-05-24T14:31:47Z</time>
      </trkpt>
      <trkpt lat="43.58944" lon="3.42009">
        <ele>207.2</ele>
        <time>2016-05-24T14:31:50Z</time>
      </trkpt>
      <trkpt lat="43.58953" lon="3.42011">
        <ele>207.2</ele>
        <time>2016-05-24T14:31:52Z</time>
      </trkpt>
      <trkpt lat="43.58964" lon="3.42014">
        <ele>206.3</ele>
        <time>2016-05-24T14:31:54Z</time>
      </trkpt>
      <trkpt lat="43.58978" lon="3.42015">
        <ele>206.1</ele>
        <time>2016-05-24T14:31:56Z</time>
      </trkpt>
      <trkpt lat="43.58993" lon="3.42016">
        <ele>204.6</ele>
        <time>2016-05-24T14:31:58Z</time>
      </trkpt>
      <trkpt lat="43.59" lon="3.42018">
        <ele>203.5</ele>
        <time>2016-05-24T14:31:59Z</time>
      </trkpt>
      <trkpt lat="43.59007" lon="3.4202">
        <ele>202.3</ele>
        <time>2016-05-24T14:32:00Z</time>
      </trkpt>
      <trkpt lat="43.59016" lon="3.42023">
        <ele>201.4</ele>
        <time>2016-05-24T14:32:01Z</time>
      </trkpt>
      <trkpt lat="43.59024" lon="3.42028">
        <ele>200</ele>
        <time>2016-05-24T14:32:02Z</time>
      </trkpt>
      <trkpt lat="43.59033" lon="3.42035">
        <ele>198.4</ele>
        <time>2016-05-24T14:32:03Z</time>
      </trkpt>
      <trkpt lat="43.59042" lon="3.42042">
        <ele>197.5</ele>
        <time>2016-05-24T14:32:04Z</time>
      </trkpt>
      <trkpt lat="43.59052" lon="3.42049">
        <ele>196.6</ele>
        <time>2016-05-24T14:32:05Z</time>
      </trkpt>
      <trkpt lat="43.59061" lon="3.42056">
        <ele>195.7</ele>
        <time>2016-05-24T14:32:06Z</time>
      </trkpt>
      <trkpt lat="43.5907" lon="3.42063">
        <ele>193.9</ele>
        <time>2016-05-24T14:32:07Z</time>
      </trkpt>
      <trkpt lat="43.59079" lon="3.42071">
        <ele>192.2</ele>
        <time>2016-05-24T14:32:08Z</time>
      </trkpt>
      <trkpt lat="43.59086" lon="3.42077">
        <ele>190.2</ele>
        <time>2016-05-24T14:32:09Z</time>
      </trkpt>
      <trkpt lat="43.59094" lon="3.42083">
        <ele>188.7</ele>
        <time>2016-05-24T14:32:10Z</time>
      </trkpt>
      <trkpt lat="43.591" lon="3.42088">
        <ele>187</ele>
        <time>2016-05-24T14:32:11Z</time>
      </trkpt>
      <trkpt lat="43.59112" lon="3.42096">
        <ele>183</ele>
        <time>2016-05-24T14:32:13Z</time>
      </trkpt>
      <trkpt lat="43.59123" lon="3.42104">
        <ele>179.4</ele>
        <time>2016-05-24T14:32:15Z</time>
      </trkpt>
      <trkpt lat="43.59132" lon="3.42119">
        <ele>176.1</ele>
        <time>2016-05-24T14:32:17Z</time>
      </trkpt>
      <trkpt lat="43.59137" lon="3.42131">
        <ele>174.8</ele>
        <time>2016-05-24T14:32:18Z</time>
      </trkpt>
      <trkpt lat="43.59141" lon="3.42143">
        <ele>173.1</ele>
        <time>2016-05-24T14:32:19Z</time>
      </trkpt>
      <trkpt lat="43.59145" lon="3.42157">
        <ele>172</ele>
        <time>2016-05-24T14:32:20Z</time>
      </trkpt>
      <trkpt lat="43.59147" lon="3.4217">
        <ele>171.3</ele>
        <time>2016-05-24T14:32:21Z</time>
      </trkpt>
      <trkpt lat="43.59149" lon="3.42182">
        <ele>170.3</ele>
        <time>2016-05-24T14:32:22Z</time>
      </trkpt>
      <trkpt lat="43.59152" lon="3.42196">
        <ele>169.3</ele>
        <time>2016-05-24T14:32:23Z</time>
      </trkpt>
      <trkpt lat="43.59155" lon="3.42209">
        <ele>167.7</ele>
        <time>2016-05-24T14:32:24Z</time>
      </trkpt>
      <trkpt lat="43.59158" lon="3.42224">
        <ele>166.4</ele>
        <time>2016-05-24T14:32:25Z</time>
      </trkpt>
      <trkpt lat="43.59159" lon="3.42239">
        <ele>164.8</ele>
        <time>2016-05-24T14:32:26Z</time>
      </trkpt>
      <trkpt lat="43.59157" lon="3.42254">
        <ele>163</ele>
        <time>2016-05-24T14:32:27Z</time>
      </trkpt>
      <trkpt lat="43.59155" lon="3.42269">
        <ele>162</ele>
        <time>2016-05-24T14:32:28Z</time>
      </trkpt>
      <trkpt lat="43.59154" lon="3.42283">
        <ele>160.5</ele>
        <time>2016-05-24T14:32:29Z</time>
      </trkpt>
      <trkpt lat="43.59155" lon="3.42296">
        <ele>159.3</ele>
        <time>2016-05-24T14:32:30Z</time>
      </trkpt>
      <trkpt lat="43.59156" lon="3.42308">
        <ele>158</ele>
        <time>2016-05-24T14:32:31Z</time>
      </trkpt>
      <trkpt lat="43.59159" lon="3.4232">
        <ele>156.9</ele>
        <time>2016-05-24T14:32:32Z</time>
      </trkpt>
      <trkpt lat="43.59162" lon="3.42332">
        <ele>155.4</ele>
        <time>2016-05-24T14:32:33Z</time>
      </trkpt>
      <trkpt lat="43.59167" lon="3.42341">
        <ele>154.1</ele>
        <time>2016-05-24T14:32:34Z</time>
      </trkpt>
      <trkpt lat="43.59175" lon="3.42352">
        <ele>152.2</ele>
        <time>2016-05-24T14:32:35Z</time>
      </trkpt>
      <trkpt lat="43.59182" lon="3.42365">
        <ele>150</ele>
        <time>2016-05-24T14:32:36Z</time>
      </trkpt>
      <trkpt lat="43.59191" lon="3.42379">
        <ele>147.6</ele>
        <time>2016-05-24T14:32:37Z</time>
      </trkpt>
      <trkpt lat="43.59197" lon="3.42391">
        <ele>145.4</ele>
        <time>2016-05-24T14:32:38Z</time>
      </trkpt>
      <trkpt lat="43.59207" lon="3.42402">
        <ele>142.2</ele>
        <time>2016-05-24T14:32:40Z</time>
      </trkpt>
      <trkpt lat="43.5922" lon="3.42413">
        <ele>139.5</ele>
        <time>2016-05-24T14:32:42Z</time>
      </trkpt>
      <trkpt lat="43.59226" lon="3.42419">
        <ele>138.2</ele>
        <time>2016-05-24T14:32:43Z</time>
      </trkpt>
      <trkpt lat="43.5923" lon="3.42427">
        <ele>137.5</ele>
        <time>2016-05-24T14:32:44Z</time>
      </trkpt>
      <trkpt lat="43.59231" lon="3.42439">
        <ele>136.4</ele>
        <time>2016-05-24T14:32:45Z</time>
      </trkpt>
      <trkpt lat="43.5923" lon="3.42449">
        <ele>134.8</ele>
        <time>2016-05-24T14:32:46Z</time>
      </trkpt>
      <trkpt lat="43.5923" lon="3.4246">
        <ele>133.7</ele>
        <time>2016-05-24T14:32:47Z</time>
      </trkpt>
      <trkpt lat="43.5923" lon="3.42479">
        <ele>132.6</ele>
        <time>2016-05-24T14:32:49Z</time>
      </trkpt>
      <trkpt lat="43.5923" lon="3.42491">
        <ele>132.2</ele>
        <time>2016-05-24T14:32:51Z</time>
      </trkpt>
      <trkpt lat="43.59232" lon="3.42501">
        <ele>132.2</ele>
        <time>2016-05-24T14:32:54Z</time>
      </trkpt>
      <trkpt lat="43.59233" lon="3.42508">
        <ele>132.2</ele>
        <time>2016-05-24T14:33:01Z</time>
      </trkpt>
      <trkpt lat="43.59234" lon="3.42518">
        <ele>132.2</ele>
        <time>2016-05-24T14:33:04Z</time>
      </trkpt>
      <trkpt lat="43.59237" lon="3.4253">
        <ele>131.9</ele>
        <time>2016-05-24T14:33:09Z</time>
      </trkpt>
      <trkpt lat="43.59239" lon="3.42541">
        <ele>131.7</ele>
        <time>2016-05-24T14:33:13Z</time>
      </trkpt>
      <trkpt lat="43.59242" lon="3.42551">
        <ele>131.7</ele>
        <time>2016-05-24T14:33:17Z</time>
      </trkpt>
      <trkpt lat="43.59245" lon="3.42562">
        <ele>131.8</ele>
        <time>2016-05-24T14:33:20Z</time>
      </trkpt>
      <trkpt lat="43.59248" lon="3.42572">
        <ele>131.7</ele>
        <time>2016-05-24T14:33:22Z</time>
      </trkpt>
      <trkpt lat="43.5925" lon="3.42581">
        <ele>131.7</ele>
        <time>2016-05-24T14:33:24Z</time>
      </trkpt>
      <trkpt lat="43.59252" lon="3.42591">
        <ele>131.7</ele>
        <time>2016-05-24T14:33:26Z</time>
      </trkpt>
      <trkpt lat="43.59256" lon="3.42604">
        <ele>131.8</ele>
        <time>2016-05-24T14:33:29Z</time>
      </trkpt>
      <trkpt lat="43.59258" lon="3.42616">
        <ele>131.8</ele>
        <time>2016-05-24T14:33:32Z</time>
      </trkpt>
      <trkpt lat="43.59262" lon="3.4263">
        <ele>131.9</ele>
        <time>2016-05-24T14:33:35Z</time>
      </trkpt>
      <trkpt lat="43.59268" lon="3.42642">
        <ele>131.2</ele>
        <time>2016-05-24T14:33:38Z</time>
      </trkpt>
      <trkpt lat="43.59274" lon="3.42654">
        <ele>131.2</ele>
        <time>2016-05-24T14:33:41Z</time>
      </trkpt>
      <trkpt lat="43.59279" lon="3.42665">
        <ele>131.9</ele>
        <time>2016-05-24T14:33:43Z</time>
      </trkpt>
      <trkpt lat="43.59287" lon="3.42676">
        <ele>132</ele>
        <time>2016-05-24T14:33:45Z</time>
      </trkpt>
      <trkpt lat="43.59293" lon="3.42687">
        <ele>131.4</ele>
        <time>2016-05-24T14:33:47Z</time>
      </trkpt>
      <trkpt lat="43.59299" lon="3.42697">
        <ele>130.6</ele>
        <time>2016-05-24T14:33:49Z</time>
      </trkpt>
      <trkpt lat="43.59306" lon="3.42707">
        <ele>130.3</ele>
        <time>2016-05-24T14:33:51Z</time>
      </trkpt>
      <trkpt lat="43.59312" lon="3.42716">
        <ele>130.1</ele>
        <time>2016-05-24T14:33:53Z</time>
      </trkpt>
      <trkpt lat="43.59319" lon="3.42727">
        <ele>130.1</ele>
        <time>2016-05-24T14:33:55Z</time>
      </trkpt>
      <trkpt lat="43.59326" lon="3.42738">
        <ele>129.8</ele>
        <time>2016-05-24T14:33:57Z</time>
      </trkpt>
      <trkpt lat="43.59333" lon="3.42749">
        <ele>129.6</ele>
        <time>2016-05-24T14:33:59Z</time>
      </trkpt>
      <trkpt lat="43.59339" lon="3.42759">
        <ele>129</ele>
        <time>2016-05-24T14:34:01Z</time>
      </trkpt>
      <trkpt lat="43.59344" lon="3.4277">
        <ele>128.7</ele>
        <time>2016-05-24T14:34:03Z</time>
      </trkpt>
      <trkpt lat="43.59351" lon="3.42779">
        <ele>129.2</ele>
        <time>2016-05-24T14:34:05Z</time>
      </trkpt>
      <trkpt lat="43.59357" lon="3.42788">
        <ele>128.8</ele>
        <time>2016-05-24T14:34:07Z</time>
      </trkpt>
      <trkpt lat="43.59363" lon="3.42797">
        <ele>128.6</ele>
        <time>2016-05-24T14:34:09Z</time>
      </trkpt>
      <trkpt lat="43.59368" lon="3.42806">
        <ele>128.9</ele>
        <time>2016-05-24T14:34:11Z</time>
      </trkpt>
      <trkpt lat="43.59374" lon="3.42811">
        <ele>129.3</ele>
        <time>2016-05-24T14:34:13Z</time>
      </trkpt>
      <trkpt lat="43.59384" lon="3.42814">
        <ele>129.3</ele>
        <time>2016-05-24T14:34:16Z</time>
      </trkpt>
      <trkpt lat="43.59392" lon="3.42813">
        <ele>129.2</ele>
        <time>2016-05-24T14:34:19Z</time>
      </trkpt>
      <trkpt lat="43.59395" lon="3.42801">
        <ele>129.2</ele>
        <time>2016-05-24T14:34:24Z</time>
      </trkpt>
      <trkpt lat="43.59394" lon="3.42791">
        <ele>129.2</ele>
        <time>2016-05-24T14:34:26Z</time>
      </trkpt>
      <trkpt lat="43.59394" lon="3.42779">
        <ele>129.1</ele>
        <time>2016-05-24T14:34:29Z</time>
      </trkpt>
      <trkpt lat="43.59394" lon="3.42767">
        <ele>129</ele>
        <time>2016-05-24T14:34:32Z</time>
      </trkpt>
      <trkpt lat="43.59394" lon="3.42756">
        <ele>128.9</ele>
        <time>2016-05-24T14:34:35Z</time>
      </trkpt>
      <trkpt lat="43.59394" lon="3.42741">
        <ele>128.8</ele>
        <time>2016-05-24T14:34:38Z</time>
      </trkpt>
      <trkpt lat="43.59395" lon="3.42728">
        <ele>128.9</ele>
        <time>2016-05-24T14:34:41Z</time>
      </trkpt>
      <trkpt lat="43.59394" lon="3.42714">
        <ele>129.4</ele>
        <time>2016-05-24T14:34:44Z</time>
      </trkpt>
      <trkpt lat="43.59394" lon="3.42702">
        <ele>129.8</ele>
        <time>2016-05-24T14:34:47Z</time>
      </trkpt>
      <trkpt lat="43.59394" lon="3.42688">
        <ele>130.2</ele>
        <time>2016-05-24T14:34:50Z</time>
      </trkpt>
      <trkpt lat="43.59395" lon="3.42676">
        <ele>130.7</ele>
        <time>2016-05-24T14:34:53Z</time>
      </trkpt>
      <trkpt lat="43.59396" lon="3.42663">
        <ele>131</ele>
        <time>2016-05-24T14:34:56Z</time>
      </trkpt>
      <trkpt lat="43.59396" lon="3.42649">
        <ele>131.4</ele>
        <time>2016-05-24T14:34:59Z</time>
      </trkpt>
      <trkpt lat="43.59401" lon="3.42639">
        <ele>131.6</ele>
        <time>2016-05-24T14:35:02Z</time>
      </trkpt>
      <trkpt lat="43.59409" lon="3.42631">
        <ele>131.9</ele>
        <time>2016-05-24T14:35:06Z</time>
      </trkpt>
      <trkpt lat="43.59415" lon="3.42622">
        <ele>132.2</ele>
        <time>2016-05-24T14:35:09Z</time>
      </trkpt>
      <trkpt lat="43.59421" lon="3.42614">
        <ele>132.5</ele>
        <time>2016-05-24T14:35:12Z</time>
      </trkpt>
      <trkpt lat="43.59427" lon="3.42605">
        <ele>132.9</ele>
        <time>2016-05-24T14:35:15Z</time>
      </trkpt>
      <trkpt lat="43.59433" lon="3.42595">
        <ele>133.3</ele>
        <time>2016-05-24T14:35:18Z</time>
      </trkpt>
      <trkpt lat="43.59438" lon="3.42588">
        <ele>133.7</ele>
        <time>2016-05-24T14:35:21Z</time>
      </trkpt>
      <trkpt lat="43.59444" lon="3.4258">
        <ele>133.9</ele>
        <time>2016-05-24T14:35:24Z</time>
      </trkpt>
      <trkpt lat="43.5945" lon="3.4257">
        <ele>134.3</ele>
        <time>2016-05-24T14:35:28Z</time>
      </trkpt>
      <trkpt lat="43.59456" lon="3.42561">
        <ele>134.9</ele>
        <time>2016-05-24T14:35:32Z</time>
      </trkpt>
      <trkpt lat="43.59462" lon="3.42552">
        <ele>135.1</ele>
        <time>2016-05-24T14:35:35Z</time>
      </trkpt>
      <trkpt lat="43.59466" lon="3.42544">
        <ele>135.2</ele>
        <time>2016-05-24T14:35:38Z</time>
      </trkpt>
      <trkpt lat="43.59471" lon="3.42535">
        <ele>135.2</ele>
        <time>2016-05-24T14:35:41Z</time>
      </trkpt>
      <trkpt lat="43.59475" lon="3.42525">
        <ele>135.6</ele>
        <time>2016-05-24T14:35:44Z</time>
      </trkpt>
      <trkpt lat="43.59477" lon="3.42511">
        <ele>136</ele>
        <time>2016-05-24T14:35:48Z</time>
      </trkpt>
      <trkpt lat="43.59478" lon="3.42501">
        <ele>136.7</ele>
        <time>2016-05-24T14:35:51Z</time>
      </trkpt>
      <trkpt lat="43.59478" lon="3.42489">
        <ele>137.2</ele>
        <time>2016-05-24T14:35:54Z</time>
      </trkpt>
      <trkpt lat="43.59478" lon="3.42479">
        <ele>137.5</ele>
        <time>2016-05-24T14:35:57Z</time>
      </trkpt>
      <trkpt lat="43.59479" lon="3.42466">
        <ele>137.8</ele>
        <time>2016-05-24T14:36:01Z</time>
      </trkpt>
      <trkpt lat="43.5948" lon="3.42455">
        <ele>138</ele>
        <time>2016-05-24T14:36:04Z</time>
      </trkpt>
      <trkpt lat="43.59481" lon="3.42443">
        <ele>138.3</ele>
        <time>2016-05-24T14:36:08Z</time>
      </trkpt>
      <trkpt lat="43.59483" lon="3.42431">
        <ele>138.7</ele>
        <time>2016-05-24T14:36:11Z</time>
      </trkpt>
      <trkpt lat="43.59487" lon="3.42421">
        <ele>139.1</ele>
        <time>2016-05-24T14:36:14Z</time>
      </trkpt>
      <trkpt lat="43.59491" lon="3.42412">
        <ele>139.4</ele>
        <time>2016-05-24T14:36:17Z</time>
      </trkpt>
      <trkpt lat="43.59496" lon="3.42404">
        <ele>139.8</ele>
        <time>2016-05-24T14:36:20Z</time>
      </trkpt>
      <trkpt lat="43.59504" lon="3.42398">
        <ele>140.6</ele>
        <time>2016-05-24T14:36:24Z</time>
      </trkpt>
      <trkpt lat="43.59512" lon="3.42395">
        <ele>141.1</ele>
        <time>2016-05-24T14:36:27Z</time>
      </trkpt>
      <trkpt lat="43.5952" lon="3.42389">
        <ele>141.6</ele>
        <time>2016-05-24T14:36:31Z</time>
      </trkpt>
      <trkpt lat="43.59528" lon="3.42386">
        <ele>142.1</ele>
        <time>2016-05-24T14:36:35Z</time>
      </trkpt>
      <trkpt lat="43.59536" lon="3.42381">
        <ele>142.6</ele>
        <time>2016-05-24T14:36:39Z</time>
      </trkpt>
      <trkpt lat="43.59545" lon="3.42377">
        <ele>143.2</ele>
        <time>2016-05-24T14:36:43Z</time>
      </trkpt>
      <trkpt lat="43.59554" lon="3.42375">
        <ele>144.2</ele>
        <time>2016-05-24T14:36:48Z</time>
      </trkpt>
      <trkpt lat="43.59561" lon="3.42375">
        <ele>144.9</ele>
        <time>2016-05-24T14:36:52Z</time>
      </trkpt>
      <trkpt lat="43.59568" lon="3.42374">
        <ele>145.7</ele>
        <time>2016-05-24T14:36:56Z</time>
      </trkpt>
      <trkpt lat="43.59576" lon="3.42371">
        <ele>146.1</ele>
        <time>2016-05-24T14:37:00Z</time>
      </trkpt>
      <trkpt lat="43.59584" lon="3.42368">
        <ele>146.7</ele>
        <time>2016-05-24T14:37:04Z</time>
      </trkpt>
      <trkpt lat="43.59591" lon="3.42363">
        <ele>147.5</ele>
        <time>2016-05-24T14:37:08Z</time>
      </trkpt>
      <trkpt lat="43.59598" lon="3.4236">
        <ele>147.9</ele>
        <time>2016-05-24T14:37:11Z</time>
      </trkpt>
      <trkpt lat="43.59605" lon="3.42355">
        <ele>148.1</ele>
        <time>2016-05-24T14:37:14Z</time>
      </trkpt>
      <trkpt lat="43.59612" lon="3.4235">
        <ele>148.2</ele>
        <time>2016-05-24T14:37:17Z</time>
      </trkpt>
      <trkpt lat="43.59619" lon="3.42341">
        <ele>148.6</ele>
        <time>2016-05-24T14:37:21Z</time>
      </trkpt>
      <trkpt lat="43.59626" lon="3.42337">
        <ele>149.1</ele>
        <time>2016-05-24T14:37:24Z</time>
      </trkpt>
      <trkpt lat="43.59636" lon="3.42335">
        <ele>149.5</ele>
        <time>2016-05-24T14:37:27Z</time>
      </trkpt>
      <trkpt lat="43.59644" lon="3.42333">
        <ele>149.9</ele>
        <time>2016-05-24T14:37:30Z</time>
      </trkpt>
      <trkpt lat="43.59651" lon="3.42336">
        <ele>150.2</ele>
        <time>2016-05-24T14:37:33Z</time>
      </trkpt>
      <trkpt lat="43.59659" lon="3.4234">
        <ele>150.8</ele>
        <time>2016-05-24T14:37:36Z</time>
      </trkpt>
      <trkpt lat="43.59667" lon="3.42342">
        <ele>151.1</ele>
        <time>2016-05-24T14:37:39Z</time>
      </trkpt>
      <trkpt lat="43.59675" lon="3.42345">
        <ele>151.6</ele>
        <time>2016-05-24T14:37:42Z</time>
      </trkpt>
      <trkpt lat="43.59682" lon="3.42347">
        <ele>152</ele>
        <time>2016-05-24T14:37:45Z</time>
      </trkpt>
      <trkpt lat="43.59691" lon="3.42349">
        <ele>152.7</ele>
        <time>2016-05-24T14:37:49Z</time>
      </trkpt>
      <trkpt lat="43.59699" lon="3.42351">
        <ele>153.3</ele>
        <time>2016-05-24T14:37:53Z</time>
      </trkpt>
      <trkpt lat="43.59706" lon="3.42354">
        <ele>154.1</ele>
        <time>2016-05-24T14:37:57Z</time>
      </trkpt>
      <trkpt lat="43.59715" lon="3.42359">
        <ele>155</ele>
        <time>2016-05-24T14:38:01Z</time>
      </trkpt>
      <trkpt lat="43.59722" lon="3.42362">
        <ele>155.4</ele>
        <time>2016-05-24T14:38:04Z</time>
      </trkpt>
      <trkpt lat="43.5973" lon="3.42367">
        <ele>156</ele>
        <time>2016-05-24T14:38:07Z</time>
      </trkpt>
      <trkpt lat="43.59737" lon="3.42369">
        <ele>156.5</ele>
        <time>2016-05-24T14:38:10Z</time>
      </trkpt>
      <trkpt lat="43.59745" lon="3.42368">
        <ele>156.8</ele>
        <time>2016-05-24T14:38:13Z</time>
      </trkpt>
      <trkpt lat="43.59749" lon="3.42359">
        <ele>157.1</ele>
        <time>2016-05-24T14:38:18Z</time>
      </trkpt>
      <trkpt lat="43.59752" lon="3.4235">
        <ele>157.5</ele>
        <time>2016-05-24T14:38:23Z</time>
      </trkpt>
      <trkpt lat="43.59754" lon="3.4234">
        <ele>158</ele>
        <time>2016-05-24T14:38:27Z</time>
      </trkpt>
      <trkpt lat="43.59758" lon="3.4233">
        <ele>158.4</ele>
        <time>2016-05-24T14:38:31Z</time>
      </trkpt>
      <trkpt lat="43.5976" lon="3.42319">
        <ele>159.1</ele>
        <time>2016-05-24T14:38:35Z</time>
      </trkpt>
      <trkpt lat="43.59763" lon="3.4231">
        <ele>159.6</ele>
        <time>2016-05-24T14:38:39Z</time>
      </trkpt>
      <trkpt lat="43.59763" lon="3.42298">
        <ele>161</ele>
        <time>2016-05-24T14:38:46Z</time>
      </trkpt>
      <trkpt lat="43.59757" lon="3.4229">
        <ele>162</ele>
        <time>2016-05-24T14:38:51Z</time>
      </trkpt>
      <trkpt lat="43.59761" lon="3.42281">
        <ele>162.7</ele>
        <time>2016-05-24T14:38:54Z</time>
      </trkpt>
      <trkpt lat="43.59767" lon="3.42275">
        <ele>163.4</ele>
        <time>2016-05-24T14:38:58Z</time>
      </trkpt>
      <trkpt lat="43.59774" lon="3.42271">
        <ele>164.4</ele>
        <time>2016-05-24T14:39:03Z</time>
      </trkpt>
      <trkpt lat="43.59782" lon="3.42273">
        <ele>165.4</ele>
        <time>2016-05-24T14:39:09Z</time>
      </trkpt>
      <trkpt lat="43.5979" lon="3.42275">
        <ele>166.4</ele>
        <time>2016-05-24T14:39:14Z</time>
      </trkpt>
      <trkpt lat="43.59798" lon="3.4228">
        <ele>167.6</ele>
        <time>2016-05-24T14:39:19Z</time>
      </trkpt>
      <trkpt lat="43.59805" lon="3.42287">
        <ele>168.5</ele>
        <time>2016-05-24T14:39:23Z</time>
      </trkpt>
      <trkpt lat="43.59812" lon="3.42295">
        <ele>169.4</ele>
        <time>2016-05-24T14:39:28Z</time>
      </trkpt>
      <trkpt lat="43.5982" lon="3.42299">
        <ele>170.2</ele>
        <time>2016-05-24T14:39:33Z</time>
      </trkpt>
      <trkpt lat="43.59827" lon="3.42302">
        <ele>170.7</ele>
        <time>2016-05-24T14:39:37Z</time>
      </trkpt>
      <trkpt lat="43.59835" lon="3.42303">
        <ele>171.1</ele>
        <time>2016-05-24T14:39:41Z</time>
      </trkpt>
      <trkpt lat="43.59843" lon="3.42304">
        <ele>171.4</ele>
        <time>2016-05-24T14:39:45Z</time>
      </trkpt>
      <trkpt lat="43.59851" lon="3.42305">
        <ele>171.8</ele>
        <time>2016-05-24T14:39:50Z</time>
      </trkpt>
      <trkpt lat="43.59858" lon="3.42304">
        <ele>172.1</ele>
        <time>2016-05-24T14:39:54Z</time>
      </trkpt>
      <trkpt lat="43.59866" lon="3.42302">
        <ele>172.4</ele>
        <time>2016-05-24T14:39:58Z</time>
      </trkpt>
      <trkpt lat="43.59874" lon="3.42301">
        <ele>173.2</ele>
        <time>2016-05-24T14:40:04Z</time>
      </trkpt>
      <trkpt lat="43.59881" lon="3.42303">
        <ele>173.7</ele>
        <time>2016-05-24T14:40:07Z</time>
      </trkpt>
      <trkpt lat="43.59888" lon="3.42304">
        <ele>174.2</ele>
        <time>2016-05-24T14:40:10Z</time>
      </trkpt>
      <trkpt lat="43.59897" lon="3.42308">
        <ele>174.8</ele>
        <time>2016-05-24T14:40:15Z</time>
      </trkpt>
      <trkpt lat="43.59904" lon="3.42314">
        <ele>175.1</ele>
        <time>2016-05-24T14:40:20Z</time>
      </trkpt>
      <trkpt lat="43.59911" lon="3.42319">
        <ele>175.2</ele>
        <time>2016-05-24T14:40:24Z</time>
      </trkpt>
      <trkpt lat="43.59919" lon="3.42323">
        <ele>175.3</ele>
        <time>2016-05-24T14:40:29Z</time>
      </trkpt>
      <trkpt lat="43.59927" lon="3.42327">
        <ele>175.7</ele>
        <time>2016-05-24T14:40:34Z</time>
      </trkpt>
      <trkpt lat="43.59934" lon="3.42329">
        <ele>176.2</ele>
        <time>2016-05-24T14:40:38Z</time>
      </trkpt>
      <trkpt lat="43.59942" lon="3.4233">
        <ele>176.9</ele>
        <time>2016-05-24T14:40:43Z</time>
      </trkpt>
      <trkpt lat="43.5995" lon="3.4233">
        <ele>177.6</ele>
        <time>2016-05-24T14:40:48Z</time>
      </trkpt>
      <trkpt lat="43.59958" lon="3.4233">
        <ele>178.1</ele>
        <time>2016-05-24T14:40:52Z</time>
      </trkpt>
      <trkpt lat="43.59965" lon="3.42333">
        <ele>178.8</ele>
        <time>2016-05-24T14:40:56Z</time>
      </trkpt>
      <trkpt lat="43.59973" lon="3.42336">
        <ele>179.8</ele>
        <time>2016-05-24T14:41:01Z</time>
      </trkpt>
      <trkpt lat="43.5998" lon="3.42342">
        <ele>180.7</ele>
        <time>2016-05-24T14:41:05Z</time>
      </trkpt>
      <trkpt lat="43.59988" lon="3.42346">
        <ele>181.8</ele>
        <time>2016-05-24T14:41:09Z</time>
      </trkpt>
      <trkpt lat="43.59995" lon="3.42352">
        <ele>183.1</ele>
        <time>2016-05-24T14:41:14Z</time>
      </trkpt>
      <trkpt lat="43.60003" lon="3.42356">
        <ele>184.4</ele>
        <time>2016-05-24T14:41:19Z</time>
      </trkpt>
      <trkpt lat="43.60011" lon="3.42357">
        <ele>185.3</ele>
        <time>2016-05-24T14:41:23Z</time>
      </trkpt>
      <trkpt lat="43.60019" lon="3.42358">
        <ele>186.1</ele>
        <time>2016-05-24T14:41:28Z</time>
      </trkpt>
      <trkpt lat="43.60026" lon="3.42359">
        <ele>186.7</ele>
        <time>2016-05-24T14:41:32Z</time>
      </trkpt>
      <trkpt lat="43.60034" lon="3.4236">
        <ele>187.6</ele>
        <time>2016-05-24T14:41:37Z</time>
      </trkpt>
      <trkpt lat="43.60041" lon="3.42363">
        <ele>188.3</ele>
        <time>2016-05-24T14:41:41Z</time>
      </trkpt>
      <trkpt lat="43.60049" lon="3.42368">
        <ele>189.2</ele>
        <time>2016-05-24T14:41:46Z</time>
      </trkpt>
      <trkpt lat="43.60054" lon="3.42376">
        <ele>190.2</ele>
        <time>2016-05-24T14:41:51Z</time>
      </trkpt>
      <trkpt lat="43.60059" lon="3.42385">
        <ele>190.8</ele>
        <time>2016-05-24T14:41:55Z</time>
      </trkpt>
      <trkpt lat="43.60064" lon="3.42395">
        <ele>191.9</ele>
        <time>2016-05-24T14:42:00Z</time>
      </trkpt>
      <trkpt lat="43.60069" lon="3.42404">
        <ele>193.3</ele>
        <time>2016-05-24T14:42:05Z</time>
      </trkpt>
      <trkpt lat="43.60075" lon="3.4241">
        <ele>194.2</ele>
        <time>2016-05-24T14:42:09Z</time>
      </trkpt>
      <trkpt lat="43.60079" lon="3.42419">
        <ele>195.4</ele>
        <time>2016-05-24T14:42:13Z</time>
      </trkpt>
      <trkpt lat="43.60083" lon="3.42429">
        <ele>197.1</ele>
        <time>2016-05-24T14:42:20Z</time>
      </trkpt>
      <trkpt lat="43.6009" lon="3.42433">
        <ele>198</ele>
        <time>2016-05-24T14:42:24Z</time>
      </trkpt>
      <trkpt lat="43.60097" lon="3.42435">
        <ele>199.2</ele>
        <time>2016-05-24T14:42:30Z</time>
      </trkpt>
      <trkpt lat="43.60105" lon="3.42434">
        <ele>199.6</ele>
        <time>2016-05-24T14:42:33Z</time>
      </trkpt>
      <trkpt lat="43.60114" lon="3.42433">
        <ele>201.5</ele>
        <time>2016-05-24T14:42:35Z</time>
      </trkpt>
      <trkpt lat="43.60125" lon="3.42433">
        <ele>203.8</ele>
        <time>2016-05-24T14:42:37Z</time>
      </trkpt>
      <trkpt lat="43.60137" lon="3.42434">
        <ele>204.2</ele>
        <time>2016-05-24T14:42:39Z</time>
      </trkpt>
      <trkpt lat="43.60151" lon="3.42438">
        <ele>204.5</ele>
        <time>2016-05-24T14:42:41Z</time>
      </trkpt>
      <trkpt lat="43.60158" lon="3.4244">
        <ele>205.4</ele>
        <time>2016-05-24T14:42:42Z</time>
      </trkpt>
      <trkpt lat="43.60165" lon="3.42444">
        <ele>206.1</ele>
        <time>2016-05-24T14:42:43Z</time>
      </trkpt>
      <trkpt lat="43.60173" lon="3.42448">
        <ele>206.4</ele>
        <time>2016-05-24T14:42:44Z</time>
      </trkpt>
      <trkpt lat="43.6018" lon="3.42452">
        <ele>206.5</ele>
        <time>2016-05-24T14:42:45Z</time>
      </trkpt>
      <trkpt lat="43.60188" lon="3.42458">
        <ele>206.2</ele>
        <time>2016-05-24T14:42:46Z</time>
      </trkpt>
      <trkpt lat="43.60195" lon="3.42463">
        <ele>205.9</ele>
        <time>2016-05-24T14:42:47Z</time>
      </trkpt>
      <trkpt lat="43.60203" lon="3.4247">
        <ele>205.1</ele>
        <time>2016-05-24T14:42:48Z</time>
      </trkpt>
      <trkpt lat="43.60212" lon="3.42476">
        <ele>204.7</ele>
        <time>2016-05-24T14:42:49Z</time>
      </trkpt>
      <trkpt lat="43.60219" lon="3.42483">
        <ele>204.5</ele>
        <time>2016-05-24T14:42:50Z</time>
      </trkpt>
      <trkpt lat="43.60226" lon="3.42488">
        <ele>203.7</ele>
        <time>2016-05-24T14:42:51Z</time>
      </trkpt>
      <trkpt lat="43.60234" lon="3.42493">
        <ele>203.4</ele>
        <time>2016-05-24T14:42:52Z</time>
      </trkpt>
      <trkpt lat="43.60242" lon="3.42494">
        <ele>202.9</ele>
        <time>2016-05-24T14:42:53Z</time>
      </trkpt>
      <trkpt lat="43.60249" lon="3.42494">
        <ele>202.4</ele>
        <time>2016-05-24T14:42:54Z</time>
      </trkpt>
      <trkpt lat="43.60261" lon="3.42492">
        <ele>202</ele>
        <time>2016-05-24T14:42:56Z</time>
      </trkpt>
      <trkpt lat="43.60268" lon="3.42496">
        <ele>201.3</ele>
        <time>2016-05-24T14:42:58Z</time>
      </trkpt>
      <trkpt lat="43.60274" lon="3.42503">
        <ele>201.2</ele>
        <time>2016-05-24T14:43:00Z</time>
      </trkpt>
      <trkpt lat="43.60279" lon="3.42513">
        <ele>201.1</ele>
        <time>2016-05-24T14:43:02Z</time>
      </trkpt>
      <trkpt lat="43.60284" lon="3.42528">
        <ele>200.6</ele>
        <time>2016-05-24T14:43:04Z</time>
      </trkpt>
      <trkpt lat="43.6029" lon="3.42545">
        <ele>199.3</ele>
        <time>2016-05-24T14:43:06Z</time>
      </trkpt>
      <trkpt lat="43.60293" lon="3.42555">
        <ele>199</ele>
        <time>2016-05-24T14:43:07Z</time>
      </trkpt>
      <trkpt lat="43.60297" lon="3.42565">
        <ele>198.7</ele>
        <time>2016-05-24T14:43:08Z</time>
      </trkpt>
      <trkpt lat="43.60301" lon="3.42574">
        <ele>198.8</ele>
        <time>2016-05-24T14:43:09Z</time>
      </trkpt>
      <trkpt lat="43.60305" lon="3.42584">
        <ele>198.1</ele>
        <time>2016-05-24T14:43:10Z</time>
      </trkpt>
      <trkpt lat="43.60308" lon="3.42594">
        <ele>197.1</ele>
        <time>2016-05-24T14:43:11Z</time>
      </trkpt>
      <trkpt lat="43.60309" lon="3.42604">
        <ele>196.5</ele>
        <time>2016-05-24T14:43:12Z</time>
      </trkpt>
      <trkpt lat="43.60309" lon="3.42616">
        <ele>195.9</ele>
        <time>2016-05-24T14:43:13Z</time>
      </trkpt>
      <trkpt lat="43.60309" lon="3.42628">
        <ele>194.9</ele>
        <time>2016-05-24T14:43:14Z</time>
      </trkpt>
      <trkpt lat="43.60309" lon="3.4264">
        <ele>194</ele>
        <time>2016-05-24T14:43:15Z</time>
      </trkpt>
      <trkpt lat="43.60309" lon="3.42651">
        <ele>193.7</ele>
        <time>2016-05-24T14:43:16Z</time>
      </trkpt>
      <trkpt lat="43.60311" lon="3.42661">
        <ele>192.4</ele>
        <time>2016-05-24T14:43:17Z</time>
      </trkpt>
      <trkpt lat="43.60314" lon="3.42671">
        <ele>191.4</ele>
        <time>2016-05-24T14:43:18Z</time>
      </trkpt>
      <trkpt lat="43.60317" lon="3.42683">
        <ele>190.8</ele>
        <time>2016-05-24T14:43:19Z</time>
      </trkpt>
      <trkpt lat="43.60319" lon="3.42696">
        <ele>190.1</ele>
        <time>2016-05-24T14:43:20Z</time>
      </trkpt>
      <trkpt lat="43.60321" lon="3.42706">
        <ele>190.6</ele>
        <time>2016-05-24T14:43:21Z</time>
      </trkpt>
      <trkpt lat="43.60323" lon="3.42724">
        <ele>191</ele>
        <time>2016-05-24T14:43:23Z</time>
      </trkpt>
      <trkpt lat="43.60331" lon="3.42732">
        <ele>190.3</ele>
        <time>2016-05-24T14:43:25Z</time>
      </trkpt>
      <trkpt lat="43.60339" lon="3.42735">
        <ele>189.5</ele>
        <time>2016-05-24T14:43:27Z</time>
      </trkpt>
      <trkpt lat="43.60346" lon="3.42747">
        <ele>188.9</ele>
        <time>2016-05-24T14:43:30Z</time>
      </trkpt>
      <trkpt lat="43.60351" lon="3.42758">
        <ele>188.8</ele>
        <time>2016-05-24T14:43:33Z</time>
      </trkpt>
      <trkpt lat="43.60356" lon="3.4277">
        <ele>188.7</ele>
        <time>2016-05-24T14:43:36Z</time>
      </trkpt>
      <trkpt lat="43.60359" lon="3.4278">
        <ele>188.6</ele>
        <time>2016-05-24T14:43:38Z</time>
      </trkpt>
      <trkpt lat="43.60365" lon="3.4279">
        <ele>188.3</ele>
        <time>2016-05-24T14:43:41Z</time>
      </trkpt>
      <trkpt lat="43.60371" lon="3.42797">
        <ele>188.2</ele>
        <time>2016-05-24T14:43:44Z</time>
      </trkpt>
      <trkpt lat="43.60378" lon="3.42802">
        <ele>188.2</ele>
        <time>2016-05-24T14:43:46Z</time>
      </trkpt>
      <trkpt lat="43.60386" lon="3.42808">
        <ele>188.3</ele>
        <time>2016-05-24T14:43:49Z</time>
      </trkpt>
      <trkpt lat="43.60397" lon="3.42814">
        <ele>188.2</ele>
        <time>2016-05-24T14:43:52Z</time>
      </trkpt>
      <trkpt lat="43.60404" lon="3.42816">
        <ele>188.2</ele>
        <time>2016-05-24T14:43:54Z</time>
      </trkpt>
      <trkpt lat="43.60414" lon="3.42818">
        <ele>188.2</ele>
        <time>2016-05-24T14:43:58Z</time>
      </trkpt>
      <trkpt lat="43.60421" lon="3.4282">
        <ele>188.4</ele>
        <time>2016-05-24T14:44:00Z</time>
      </trkpt>
      <trkpt lat="43.6043" lon="3.42824">
        <ele>189.2</ele>
        <time>2016-05-24T14:44:02Z</time>
      </trkpt>
      <trkpt lat="43.60438" lon="3.42826">
        <ele>189.6</ele>
        <time>2016-05-24T14:44:04Z</time>
      </trkpt>
      <trkpt lat="43.60446" lon="3.42826">
        <ele>190.3</ele>
        <time>2016-05-24T14:44:06Z</time>
      </trkpt>
      <trkpt lat="43.60455" lon="3.42825">
        <ele>192</ele>
        <time>2016-05-24T14:44:08Z</time>
      </trkpt>
      <trkpt lat="43.60465" lon="3.42823">
        <ele>192.9</ele>
        <time>2016-05-24T14:44:10Z</time>
      </trkpt>
      <trkpt lat="43.60475" lon="3.42822">
        <ele>192.7</ele>
        <time>2016-05-24T14:44:12Z</time>
      </trkpt>
      <trkpt lat="43.60485" lon="3.42821">
        <ele>191.2</ele>
        <time>2016-05-24T14:44:14Z</time>
      </trkpt>
      <trkpt lat="43.60494" lon="3.42818">
        <ele>190.3</ele>
        <time>2016-05-24T14:44:16Z</time>
      </trkpt>
      <trkpt lat="43.60505" lon="3.42815">
        <ele>188.8</ele>
        <time>2016-05-24T14:44:18Z</time>
      </trkpt>
      <trkpt lat="43.60516" lon="3.42812">
        <ele>189</ele>
        <time>2016-05-24T14:44:20Z</time>
      </trkpt>
      <trkpt lat="43.60528" lon="3.42809">
        <ele>189.2</ele>
        <time>2016-05-24T14:44:22Z</time>
      </trkpt>
      <trkpt lat="43.6054" lon="3.42807">
        <ele>189</ele>
        <time>2016-05-24T14:44:24Z</time>
      </trkpt>
      <trkpt lat="43.60548" lon="3.4281">
        <ele>188.8</ele>
        <time>2016-05-24T14:44:26Z</time>
      </trkpt>
      <trkpt lat="43.60557" lon="3.42818">
        <ele>188.9</ele>
        <time>2016-05-24T14:44:28Z</time>
      </trkpt>
      <trkpt lat="43.60563" lon="3.42831">
        <ele>189</ele>
        <time>2016-05-24T14:44:30Z</time>
      </trkpt>
      <trkpt lat="43.60571" lon="3.42846">
        <ele>188.3</ele>
        <time>2016-05-24T14:44:32Z</time>
      </trkpt>
      <trkpt lat="43.60582" lon="3.42853">
        <ele>189.2</ele>
        <time>2016-05-24T14:44:34Z</time>
      </trkpt>
      <trkpt lat="43.60593" lon="3.42857">
        <ele>189.7</ele>
        <time>2016-05-24T14:44:36Z</time>
      </trkpt>
      <trkpt lat="43.60604" lon="3.4286">
        <ele>187.9</ele>
        <time>2016-05-24T14:44:38Z</time>
      </trkpt>
      <trkpt lat="43.60615" lon="3.42861">
        <ele>186.8</ele>
        <time>2016-05-24T14:44:40Z</time>
      </trkpt>
      <trkpt lat="43.60626" lon="3.42866">
        <ele>184.5</ele>
        <time>2016-05-24T14:44:42Z</time>
      </trkpt>
      <trkpt lat="43.60636" lon="3.42871">
        <ele>183.2</ele>
        <time>2016-05-24T14:44:44Z</time>
      </trkpt>
      <trkpt lat="43.60648" lon="3.42877">
        <ele>183.4</ele>
        <time>2016-05-24T14:44:46Z</time>
      </trkpt>
      <trkpt lat="43.60661" lon="3.42875">
        <ele>184.3</ele>
        <time>2016-05-24T14:44:48Z</time>
      </trkpt>
      <trkpt lat="43.6067" lon="3.4287">
        <ele>184.2</ele>
        <time>2016-05-24T14:44:51Z</time>
      </trkpt>
      <trkpt lat="43.60681" lon="3.42863">
        <ele>184.1</ele>
        <time>2016-05-24T14:44:58Z</time>
      </trkpt>
      <trkpt lat="43.60689" lon="3.4287">
        <ele>186.6</ele>
        <time>2016-05-24T14:45:03Z</time>
      </trkpt>
      <trkpt lat="43.60697" lon="3.42884">
        <ele>188.9</ele>
        <time>2016-05-24T14:45:05Z</time>
      </trkpt>
      <trkpt lat="43.60706" lon="3.42894">
        <ele>189.4</ele>
        <time>2016-05-24T14:45:07Z</time>
      </trkpt>
      <trkpt lat="43.60712" lon="3.429">
        <ele>189.4</ele>
        <time>2016-05-24T14:45:09Z</time>
      </trkpt>
      <trkpt lat="43.60721" lon="3.42899">
        <ele>189.1</ele>
        <time>2016-05-24T14:45:11Z</time>
      </trkpt>
      <trkpt lat="43.6072" lon="3.42911">
        <ele>189.3</ele>
        <time>2016-05-24T14:45:18Z</time>
      </trkpt>
      <trkpt lat="43.60722" lon="3.42921">
        <ele>189.4</ele>
        <time>2016-05-24T14:45:20Z</time>
      </trkpt>
      <trkpt lat="43.60718" lon="3.42931">
        <ele>190.1</ele>
        <time>2016-05-24T14:45:22Z</time>
      </trkpt>
      <trkpt lat="43.60712" lon="3.42941">
        <ele>190.5</ele>
        <time>2016-05-24T14:45:24Z</time>
      </trkpt>
      <trkpt lat="43.60709" lon="3.42953">
        <ele>189.1</ele>
        <time>2016-05-24T14:45:26Z</time>
      </trkpt>
      <trkpt lat="43.60706" lon="3.42962">
        <ele>188.6</ele>
        <time>2016-05-24T14:45:29Z</time>
      </trkpt>
      <trkpt lat="43.60704" lon="3.42973">
        <ele>188.3</ele>
        <time>2016-05-24T14:45:31Z</time>
      </trkpt>
      <trkpt lat="43.60702" lon="3.42984">
        <ele>186.8</ele>
        <time>2016-05-24T14:45:33Z</time>
      </trkpt>
      <trkpt lat="43.60701" lon="3.42996">
        <ele>186.3</ele>
        <time>2016-05-24T14:45:35Z</time>
      </trkpt>
      <trkpt lat="43.60701" lon="3.4301">
        <ele>185.9</ele>
        <time>2016-05-24T14:45:37Z</time>
      </trkpt>
      <trkpt lat="43.60704" lon="3.43022">
        <ele>184.5</ele>
        <time>2016-05-24T14:45:39Z</time>
      </trkpt>
      <trkpt lat="43.6071" lon="3.43029">
        <ele>184.4</ele>
        <time>2016-05-24T14:45:41Z</time>
      </trkpt>
      <trkpt lat="43.60716" lon="3.43039">
        <ele>184.1</ele>
        <time>2016-05-24T14:45:44Z</time>
      </trkpt>
      <trkpt lat="43.60718" lon="3.4305">
        <ele>184.3</ele>
        <time>2016-05-24T14:45:50Z</time>
      </trkpt>
      <trkpt lat="43.60726" lon="3.43055">
        <ele>184.7</ele>
        <time>2016-05-24T14:45:53Z</time>
      </trkpt>
      <trkpt lat="43.60732" lon="3.43066">
        <ele>184.7</ele>
        <time>2016-05-24T14:45:55Z</time>
      </trkpt>
      <trkpt lat="43.60738" lon="3.43072">
        <ele>184.8</ele>
        <time>2016-05-24T14:45:57Z</time>
      </trkpt>
      <trkpt lat="43.60747" lon="3.4308">
        <ele>185.1</ele>
        <time>2016-05-24T14:46:01Z</time>
      </trkpt>
      <trkpt lat="43.60754" lon="3.43086">
        <ele>185.1</ele>
        <time>2016-05-24T14:46:03Z</time>
      </trkpt>
      <trkpt lat="43.60763" lon="3.43094">
        <ele>184.8</ele>
        <time>2016-05-24T14:46:06Z</time>
      </trkpt>
      <trkpt lat="43.6077" lon="3.43099">
        <ele>184.8</ele>
        <time>2016-05-24T14:46:09Z</time>
      </trkpt>
      <trkpt lat="43.60777" lon="3.43105">
        <ele>184.6</ele>
        <time>2016-05-24T14:46:13Z</time>
      </trkpt>
      <trkpt lat="43.60787" lon="3.43111">
        <ele>184.2</ele>
        <time>2016-05-24T14:46:18Z</time>
      </trkpt>
      <trkpt lat="43.60794" lon="3.43117">
        <ele>184</ele>
        <time>2016-05-24T14:46:20Z</time>
      </trkpt>
      <trkpt lat="43.60801" lon="3.43122">
        <ele>183.9</ele>
        <time>2016-05-24T14:46:22Z</time>
      </trkpt>
      <trkpt lat="43.60807" lon="3.43128">
        <ele>183.8</ele>
        <time>2016-05-24T14:46:24Z</time>
      </trkpt>
      <trkpt lat="43.60816" lon="3.43134">
        <ele>183.8</ele>
        <time>2016-05-24T14:46:27Z</time>
      </trkpt>
      <trkpt lat="43.60822" lon="3.43139">
        <ele>183.9</ele>
        <time>2016-05-24T14:46:30Z</time>
      </trkpt>
      <trkpt lat="43.60831" lon="3.43147">
        <ele>183.9</ele>
        <time>2016-05-24T14:46:33Z</time>
      </trkpt>
      <trkpt lat="43.60837" lon="3.43151">
        <ele>183.9</ele>
        <time>2016-05-24T14:46:35Z</time>
      </trkpt>
      <trkpt lat="43.60846" lon="3.43157">
        <ele>183.7</ele>
        <time>2016-05-24T14:46:38Z</time>
      </trkpt>
      <trkpt lat="43.60856" lon="3.43162">
        <ele>183.7</ele>
        <time>2016-05-24T14:46:41Z</time>
      </trkpt>
      <trkpt lat="43.60864" lon="3.43166">
        <ele>183.6</ele>
        <time>2016-05-24T14:46:44Z</time>
      </trkpt>
      <trkpt lat="43.60873" lon="3.43173">
        <ele>183.4</ele>
        <time>2016-05-24T14:46:48Z</time>
      </trkpt>
      <trkpt lat="43.60882" lon="3.43176">
        <ele>183.3</ele>
        <time>2016-05-24T14:46:51Z</time>
      </trkpt>
      <trkpt lat="43.60889" lon="3.43177">
        <ele>183.5</ele>
        <time>2016-05-24T14:46:54Z</time>
      </trkpt>
      <trkpt lat="43.60894" lon="3.43185">
        <ele>183.6</ele>
        <time>2016-05-24T14:46:58Z</time>
      </trkpt>
      <trkpt lat="43.60895" lon="3.432">
        <ele>184</ele>
        <time>2016-05-24T14:47:01Z</time>
      </trkpt>
      <trkpt lat="43.60891" lon="3.43217">
        <ele>184.2</ele>
        <time>2016-05-24T14:47:03Z</time>
      </trkpt>
      <trkpt lat="43.60882" lon="3.43236">
        <ele>182.9</ele>
        <time>2016-05-24T14:47:05Z</time>
      </trkpt>
      <trkpt lat="43.60878" lon="3.43245">
        <ele>182.2</ele>
        <time>2016-05-24T14:47:06Z</time>
      </trkpt>
      <trkpt lat="43.60873" lon="3.43255">
        <ele>181.4</ele>
        <time>2016-05-24T14:47:07Z</time>
      </trkpt>
      <trkpt lat="43.60867" lon="3.43266">
        <ele>180.6</ele>
        <time>2016-05-24T14:47:08Z</time>
      </trkpt>
      <trkpt lat="43.60862" lon="3.43278">
        <ele>179.2</ele>
        <time>2016-05-24T14:47:09Z</time>
      </trkpt>
      <trkpt lat="43.60859" lon="3.43291">
        <ele>177.9</ele>
        <time>2016-05-24T14:47:10Z</time>
      </trkpt>
      <trkpt lat="43.60858" lon="3.43305">
        <ele>176.7</ele>
        <time>2016-05-24T14:47:11Z</time>
      </trkpt>
      <trkpt lat="43.60857" lon="3.43319">
        <ele>175.6</ele>
        <time>2016-05-24T14:47:12Z</time>
      </trkpt>
      <trkpt lat="43.60858" lon="3.43332">
        <ele>174.5</ele>
        <time>2016-05-24T14:47:13Z</time>
      </trkpt>
      <trkpt lat="43.60861" lon="3.43345">
        <ele>173.5</ele>
        <time>2016-05-24T14:47:14Z</time>
      </trkpt>
      <trkpt lat="43.60865" lon="3.4336">
        <ele>172.2</ele>
        <time>2016-05-24T14:47:15Z</time>
      </trkpt>
      <trkpt lat="43.60867" lon="3.43373">
        <ele>171.1</ele>
        <time>2016-05-24T14:47:16Z</time>
      </trkpt>
      <trkpt lat="43.60871" lon="3.43389">
        <ele>170.5</ele>
        <time>2016-05-24T14:47:17Z</time>
      </trkpt>
      <trkpt lat="43.60873" lon="3.43402">
        <ele>169.7</ele>
        <time>2016-05-24T14:47:18Z</time>
      </trkpt>
      <trkpt lat="43.60873" lon="3.43417">
        <ele>169.6</ele>
        <time>2016-05-24T14:47:19Z</time>
      </trkpt>
      <trkpt lat="43.60873" lon="3.43432">
        <ele>169.2</ele>
        <time>2016-05-24T14:47:20Z</time>
      </trkpt>
      <trkpt lat="43.60873" lon="3.43445">
        <ele>168.2</ele>
        <time>2016-05-24T14:47:21Z</time>
      </trkpt>
      <trkpt lat="43.60874" lon="3.43457">
        <ele>167</ele>
        <time>2016-05-24T14:47:22Z</time>
      </trkpt>
      <trkpt lat="43.60879" lon="3.43469">
        <ele>166.8</ele>
        <time>2016-05-24T14:47:23Z</time>
      </trkpt>
      <trkpt lat="43.60884" lon="3.43479">
        <ele>166.4</ele>
        <time>2016-05-24T14:47:24Z</time>
      </trkpt>
      <trkpt lat="43.60889" lon="3.43489">
        <ele>165.9</ele>
        <time>2016-05-24T14:47:25Z</time>
      </trkpt>
      <trkpt lat="43.60891" lon="3.43499">
        <ele>165.4</ele>
        <time>2016-05-24T14:47:26Z</time>
      </trkpt>
      <trkpt lat="43.60894" lon="3.43509">
        <ele>164.9</ele>
        <time>2016-05-24T14:47:27Z</time>
      </trkpt>
      <trkpt lat="43.60897" lon="3.43521">
        <ele>164.8</ele>
        <time>2016-05-24T14:47:28Z</time>
      </trkpt>
      <trkpt lat="43.609" lon="3.43533">
        <ele>164.1</ele>
        <time>2016-05-24T14:47:29Z</time>
      </trkpt>
      <trkpt lat="43.60901" lon="3.43543">
        <ele>164.5</ele>
        <time>2016-05-24T14:47:30Z</time>
      </trkpt>
      <trkpt lat="43.60907" lon="3.43551">
        <ele>164.4</ele>
        <time>2016-05-24T14:47:32Z</time>
      </trkpt>
      <trkpt lat="43.60918" lon="3.4355">
        <ele>165.4</ele>
        <time>2016-05-24T14:47:35Z</time>
      </trkpt>
      <trkpt lat="43.60927" lon="3.43551">
        <ele>165.5</ele>
        <time>2016-05-24T14:47:37Z</time>
      </trkpt>
      <trkpt lat="43.60935" lon="3.43551">
        <ele>165.6</ele>
        <time>2016-05-24T14:47:39Z</time>
      </trkpt>
      <trkpt lat="43.60946" lon="3.43552">
        <ele>165.7</ele>
        <time>2016-05-24T14:47:42Z</time>
      </trkpt>
      <trkpt lat="43.60953" lon="3.43553">
        <ele>165.8</ele>
        <time>2016-05-24T14:47:45Z</time>
      </trkpt>
    </trkseg>
  </trk>
</gpx>